<?xml version="1.0" encoding="UTF-8" standalone="no" ?>
<gpx xmlns="http://www.topografix.com/GPX/1/1" xmlns:xsi="http://www.w3.org/2001/XMLSchema-instance" xsi:schemaLocation="http://www.topografix.com/GPX/1/1 http://www.topografix.com/GPX/1/1/gpx.xsd" version="1.1" creator="VisuGPX - https://www.visugpx.com">
  <metadata>
    <name>Marche</name>
    <desc><![CDATA[au top]]></desc>
  </metadata>
  <trk>
    <name><![CDATA[Marche_1]]></name>
    <trkseg>
      <trkpt lat="43.44919" lon="5.24396">
        <ele>101</ele>
        <time>2022-03-21T13:26:46.000Z</time>
      </trkpt>
      <trkpt lat="43.44926" lon="5.24396">
        <ele>92</ele>
        <time>2022-03-21T13:26:47.000Z</time>
      </trkpt>
      <trkpt lat="43.44924" lon="5.24394">
        <ele>91</ele>
        <time>2022-03-21T13:26:48.000Z</time>
      </trkpt>
      <trkpt lat="43.44924" lon="5.24394">
        <ele>91</ele>
        <time>2022-03-21T13:26:49.000Z</time>
      </trkpt>
      <trkpt lat="43.44924" lon="5.24394">
        <ele>91</ele>
        <time>2022-03-21T13:26:50.000Z</time>
      </trkpt>
      <trkpt lat="43.44923" lon="5.24395">
        <ele>91</ele>
        <time>2022-03-21T13:26:51.000Z</time>
      </trkpt>
      <trkpt lat="43.44923" lon="5.24395">
        <ele>91</ele>
        <time>2022-03-21T13:26:52.000Z</time>
      </trkpt>
      <trkpt lat="43.44922" lon="5.24395">
        <ele>92</ele>
        <time>2022-03-21T13:26:53.000Z</time>
      </trkpt>
      <trkpt lat="43.4492" lon="5.24395">
        <ele>92</ele>
        <time>2022-03-21T13:26:54.000Z</time>
      </trkpt>
      <trkpt lat="43.44919" lon="5.24395">
        <ele>92</ele>
        <time>2022-03-21T13:26:55.000Z</time>
      </trkpt>
      <trkpt lat="43.44918" lon="5.24395">
        <ele>92</ele>
        <time>2022-03-21T13:26:56.000Z</time>
      </trkpt>
      <trkpt lat="43.44916" lon="5.24395">
        <ele>93</ele>
        <time>2022-03-21T13:26:57.000Z</time>
      </trkpt>
      <trkpt lat="43.44915" lon="5.24395">
        <ele>93</ele>
        <time>2022-03-21T13:26:58.000Z</time>
      </trkpt>
      <trkpt lat="43.44914" lon="5.24395">
        <ele>93</ele>
        <time>2022-03-21T13:26:59.000Z</time>
      </trkpt>
      <trkpt lat="43.44912" lon="5.24395">
        <ele>93</ele>
        <time>2022-03-21T13:27:00.000Z</time>
      </trkpt>
      <trkpt lat="43.44911" lon="5.24395">
        <ele>93</ele>
        <time>2022-03-21T13:27:01.000Z</time>
      </trkpt>
      <trkpt lat="43.4491" lon="5.24395">
        <ele>93</ele>
        <time>2022-03-21T13:27:02.000Z</time>
      </trkpt>
      <trkpt lat="43.44909" lon="5.24395">
        <ele>93</ele>
        <time>2022-03-21T13:27:03.000Z</time>
      </trkpt>
      <trkpt lat="43.44907" lon="5.24395">
        <ele>92</ele>
        <time>2022-03-21T13:27:04.000Z</time>
      </trkpt>
      <trkpt lat="43.44906" lon="5.24395">
        <ele>92</ele>
        <time>2022-03-21T13:27:05.000Z</time>
      </trkpt>
      <trkpt lat="43.44905" lon="5.24395">
        <ele>92</ele>
        <time>2022-03-21T13:27:06.000Z</time>
      </trkpt>
      <trkpt lat="43.44904" lon="5.24395">
        <ele>92</ele>
        <time>2022-03-21T13:27:07.000Z</time>
      </trkpt>
      <trkpt lat="43.44903" lon="5.24395">
        <ele>92</ele>
        <time>2022-03-21T13:27:08.000Z</time>
      </trkpt>
      <trkpt lat="43.44903" lon="5.24395">
        <ele>92</ele>
        <time>2022-03-21T13:27:09.000Z</time>
      </trkpt>
      <trkpt lat="43.44902" lon="5.24396">
        <ele>92</ele>
        <time>2022-03-21T13:27:10.000Z</time>
      </trkpt>
      <trkpt lat="43.44901" lon="5.24396">
        <ele>93</ele>
        <time>2022-03-21T13:27:11.000Z</time>
      </trkpt>
      <trkpt lat="43.449" lon="5.24396">
        <ele>93</ele>
        <time>2022-03-21T13:27:12.000Z</time>
      </trkpt>
      <trkpt lat="43.44899" lon="5.24396">
        <ele>93</ele>
        <time>2022-03-21T13:27:13.000Z</time>
      </trkpt>
      <trkpt lat="43.44898" lon="5.24396">
        <ele>93</ele>
        <time>2022-03-21T13:27:14.000Z</time>
      </trkpt>
      <trkpt lat="43.44897" lon="5.24397">
        <ele>93</ele>
        <time>2022-03-21T13:27:15.000Z</time>
      </trkpt>
      <trkpt lat="43.44896" lon="5.24397">
        <ele>93</ele>
        <time>2022-03-21T13:27:16.000Z</time>
      </trkpt>
      <trkpt lat="43.44895" lon="5.24398">
        <ele>93</ele>
        <time>2022-03-21T13:27:17.000Z</time>
      </trkpt>
      <trkpt lat="43.44894" lon="5.24398">
        <ele>94</ele>
        <time>2022-03-21T13:27:18.000Z</time>
      </trkpt>
      <trkpt lat="43.44893" lon="5.24398">
        <ele>93</ele>
        <time>2022-03-21T13:27:19.000Z</time>
      </trkpt>
      <trkpt lat="43.44892" lon="5.24399">
        <ele>93</ele>
        <time>2022-03-21T13:27:20.000Z</time>
      </trkpt>
      <trkpt lat="43.4489" lon="5.24399">
        <ele>93</ele>
        <time>2022-03-21T13:27:21.000Z</time>
      </trkpt>
      <trkpt lat="43.44889" lon="5.24399">
        <ele>93</ele>
        <time>2022-03-21T13:27:22.000Z</time>
      </trkpt>
      <trkpt lat="43.44888" lon="5.24399">
        <ele>93</ele>
        <time>2022-03-21T13:27:23.000Z</time>
      </trkpt>
      <trkpt lat="43.44887" lon="5.24399">
        <ele>93</ele>
        <time>2022-03-21T13:27:24.000Z</time>
      </trkpt>
      <trkpt lat="43.44886" lon="5.24399">
        <ele>93</ele>
        <time>2022-03-21T13:27:25.000Z</time>
      </trkpt>
      <trkpt lat="43.44885" lon="5.24399">
        <ele>93</ele>
        <time>2022-03-21T13:27:26.000Z</time>
      </trkpt>
      <trkpt lat="43.44883" lon="5.24399">
        <ele>93</ele>
        <time>2022-03-21T13:27:27.000Z</time>
      </trkpt>
      <trkpt lat="43.44882" lon="5.24399">
        <ele>92</ele>
        <time>2022-03-21T13:27:28.000Z</time>
      </trkpt>
      <trkpt lat="43.44881" lon="5.24398">
        <ele>92</ele>
        <time>2022-03-21T13:27:29.000Z</time>
      </trkpt>
      <trkpt lat="43.4488" lon="5.24397">
        <ele>92</ele>
        <time>2022-03-21T13:27:30.000Z</time>
      </trkpt>
      <trkpt lat="43.4488" lon="5.24395">
        <ele>92</ele>
        <time>2022-03-21T13:27:31.000Z</time>
      </trkpt>
      <trkpt lat="43.4488" lon="5.24393">
        <ele>92</ele>
        <time>2022-03-21T13:27:32.000Z</time>
      </trkpt>
      <trkpt lat="43.4488" lon="5.24392">
        <ele>91</ele>
        <time>2022-03-21T13:27:33.000Z</time>
      </trkpt>
      <trkpt lat="43.4488" lon="5.2439">
        <ele>91</ele>
        <time>2022-03-21T13:27:34.000Z</time>
      </trkpt>
      <trkpt lat="43.4488" lon="5.24388">
        <ele>91</ele>
        <time>2022-03-21T13:27:35.000Z</time>
      </trkpt>
      <trkpt lat="43.4488" lon="5.24386">
        <ele>91</ele>
        <time>2022-03-21T13:27:36.000Z</time>
      </trkpt>
      <trkpt lat="43.4488" lon="5.24385">
        <ele>91</ele>
        <time>2022-03-21T13:27:37.000Z</time>
      </trkpt>
      <trkpt lat="43.4488" lon="5.24383">
        <ele>91</ele>
        <time>2022-03-21T13:27:38.000Z</time>
      </trkpt>
      <trkpt lat="43.4488" lon="5.24381">
        <ele>90</ele>
        <time>2022-03-21T13:27:39.000Z</time>
      </trkpt>
      <trkpt lat="43.4488" lon="5.24379">
        <ele>90</ele>
        <time>2022-03-21T13:27:40.000Z</time>
      </trkpt>
      <trkpt lat="43.4488" lon="5.24377">
        <ele>90</ele>
        <time>2022-03-21T13:27:41.000Z</time>
      </trkpt>
      <trkpt lat="43.4488" lon="5.24375">
        <ele>90</ele>
        <time>2022-03-21T13:27:42.000Z</time>
      </trkpt>
      <trkpt lat="43.4488" lon="5.24373">
        <ele>90</ele>
        <time>2022-03-21T13:27:43.000Z</time>
      </trkpt>
      <trkpt lat="43.4488" lon="5.2437">
        <ele>89</ele>
        <time>2022-03-21T13:27:44.000Z</time>
      </trkpt>
      <trkpt lat="43.4488" lon="5.24369">
        <ele>89</ele>
        <time>2022-03-21T13:27:45.000Z</time>
      </trkpt>
      <trkpt lat="43.4488" lon="5.24367">
        <ele>89</ele>
        <time>2022-03-21T13:27:46.000Z</time>
      </trkpt>
      <trkpt lat="43.44881" lon="5.24365">
        <ele>89</ele>
        <time>2022-03-21T13:27:47.000Z</time>
      </trkpt>
      <trkpt lat="43.44881" lon="5.24363">
        <ele>89</ele>
        <time>2022-03-21T13:27:48.000Z</time>
      </trkpt>
      <trkpt lat="43.44881" lon="5.24362">
        <ele>89</ele>
        <time>2022-03-21T13:27:49.000Z</time>
      </trkpt>
      <trkpt lat="43.44881" lon="5.24361">
        <ele>89</ele>
        <time>2022-03-21T13:27:50.000Z</time>
      </trkpt>
      <trkpt lat="43.44881" lon="5.24359">
        <ele>89</ele>
        <time>2022-03-21T13:27:51.000Z</time>
      </trkpt>
      <trkpt lat="43.44881" lon="5.24357">
        <ele>89</ele>
        <time>2022-03-21T13:27:52.000Z</time>
      </trkpt>
      <trkpt lat="43.44881" lon="5.24355">
        <ele>89</ele>
        <time>2022-03-21T13:27:53.000Z</time>
      </trkpt>
      <trkpt lat="43.44881" lon="5.24353">
        <ele>89</ele>
        <time>2022-03-21T13:27:54.000Z</time>
      </trkpt>
      <trkpt lat="43.4488" lon="5.24351">
        <ele>89</ele>
        <time>2022-03-21T13:27:55.000Z</time>
      </trkpt>
      <trkpt lat="43.4488" lon="5.24349">
        <ele>88</ele>
        <time>2022-03-21T13:27:56.000Z</time>
      </trkpt>
      <trkpt lat="43.4488" lon="5.24347">
        <ele>88</ele>
        <time>2022-03-21T13:27:57.000Z</time>
      </trkpt>
      <trkpt lat="43.44879" lon="5.24345">
        <ele>88</ele>
        <time>2022-03-21T13:27:58.000Z</time>
      </trkpt>
      <trkpt lat="43.44879" lon="5.24344">
        <ele>88</ele>
        <time>2022-03-21T13:27:59.000Z</time>
      </trkpt>
      <trkpt lat="43.44879" lon="5.24342">
        <ele>88</ele>
        <time>2022-03-21T13:28:00.000Z</time>
      </trkpt>
      <trkpt lat="43.44878" lon="5.2434">
        <ele>88</ele>
        <time>2022-03-21T13:28:01.000Z</time>
      </trkpt>
      <trkpt lat="43.44878" lon="5.24338">
        <ele>88</ele>
        <time>2022-03-21T13:28:02.000Z</time>
      </trkpt>
      <trkpt lat="43.44878" lon="5.24336">
        <ele>88</ele>
        <time>2022-03-21T13:28:03.000Z</time>
      </trkpt>
      <trkpt lat="43.44877" lon="5.24334">
        <ele>88</ele>
        <time>2022-03-21T13:28:04.000Z</time>
      </trkpt>
      <trkpt lat="43.44877" lon="5.24332">
        <ele>88</ele>
        <time>2022-03-21T13:28:05.000Z</time>
      </trkpt>
      <trkpt lat="43.44877" lon="5.2433">
        <ele>88</ele>
        <time>2022-03-21T13:28:06.000Z</time>
      </trkpt>
      <trkpt lat="43.44877" lon="5.24328">
        <ele>88</ele>
        <time>2022-03-21T13:28:07.000Z</time>
      </trkpt>
      <trkpt lat="43.44876" lon="5.24326">
        <ele>88</ele>
        <time>2022-03-21T13:28:08.000Z</time>
      </trkpt>
      <trkpt lat="43.44876" lon="5.24325">
        <ele>88</ele>
        <time>2022-03-21T13:28:09.000Z</time>
      </trkpt>
      <trkpt lat="43.44875" lon="5.24323">
        <ele>88</ele>
        <time>2022-03-21T13:28:10.000Z</time>
      </trkpt>
      <trkpt lat="43.44874" lon="5.24322">
        <ele>88</ele>
        <time>2022-03-21T13:28:11.000Z</time>
      </trkpt>
      <trkpt lat="43.44873" lon="5.24322">
        <ele>89</ele>
        <time>2022-03-21T13:28:12.000Z</time>
      </trkpt>
      <trkpt lat="43.44872" lon="5.24321">
        <ele>88</ele>
        <time>2022-03-21T13:28:13.000Z</time>
      </trkpt>
      <trkpt lat="43.44871" lon="5.24321">
        <ele>88</ele>
        <time>2022-03-21T13:28:14.000Z</time>
      </trkpt>
      <trkpt lat="43.4487" lon="5.24321">
        <ele>88</ele>
        <time>2022-03-21T13:28:15.000Z</time>
      </trkpt>
      <trkpt lat="43.44868" lon="5.24321">
        <ele>88</ele>
        <time>2022-03-21T13:28:16.000Z</time>
      </trkpt>
      <trkpt lat="43.44867" lon="5.24321">
        <ele>88</ele>
        <time>2022-03-21T13:28:17.000Z</time>
      </trkpt>
      <trkpt lat="43.44866" lon="5.2432">
        <ele>88</ele>
        <time>2022-03-21T13:28:18.000Z</time>
      </trkpt>
      <trkpt lat="43.44865" lon="5.24321">
        <ele>88</ele>
        <time>2022-03-21T13:28:19.000Z</time>
      </trkpt>
      <trkpt lat="43.44864" lon="5.24321">
        <ele>89</ele>
        <time>2022-03-21T13:28:20.000Z</time>
      </trkpt>
      <trkpt lat="43.44862" lon="5.24321">
        <ele>89</ele>
        <time>2022-03-21T13:28:21.000Z</time>
      </trkpt>
      <trkpt lat="43.44861" lon="5.24321">
        <ele>89</ele>
        <time>2022-03-21T13:28:22.000Z</time>
      </trkpt>
      <trkpt lat="43.44859" lon="5.2432">
        <ele>89</ele>
        <time>2022-03-21T13:28:23.000Z</time>
      </trkpt>
      <trkpt lat="43.44858" lon="5.24319">
        <ele>89</ele>
        <time>2022-03-21T13:28:24.000Z</time>
      </trkpt>
      <trkpt lat="43.44857" lon="5.24318">
        <ele>89</ele>
        <time>2022-03-21T13:28:25.000Z</time>
      </trkpt>
      <trkpt lat="43.44856" lon="5.24317">
        <ele>89</ele>
        <time>2022-03-21T13:28:26.000Z</time>
      </trkpt>
      <trkpt lat="43.44856" lon="5.24315">
        <ele>89</ele>
        <time>2022-03-21T13:28:27.000Z</time>
      </trkpt>
      <trkpt lat="43.44855" lon="5.24313">
        <ele>89</ele>
        <time>2022-03-21T13:28:28.000Z</time>
      </trkpt>
      <trkpt lat="43.44855" lon="5.24312">
        <ele>89</ele>
        <time>2022-03-21T13:28:29.000Z</time>
      </trkpt>
      <trkpt lat="43.44854" lon="5.2431">
        <ele>89</ele>
        <time>2022-03-21T13:28:30.000Z</time>
      </trkpt>
      <trkpt lat="43.44853" lon="5.24308">
        <ele>89</ele>
        <time>2022-03-21T13:28:31.000Z</time>
      </trkpt>
      <trkpt lat="43.44853" lon="5.24307">
        <ele>90</ele>
        <time>2022-03-21T13:28:32.000Z</time>
      </trkpt>
      <trkpt lat="43.44852" lon="5.24305">
        <ele>90</ele>
        <time>2022-03-21T13:28:33.000Z</time>
      </trkpt>
      <trkpt lat="43.44851" lon="5.24303">
        <ele>90</ele>
        <time>2022-03-21T13:28:34.000Z</time>
      </trkpt>
      <trkpt lat="43.4485" lon="5.24302">
        <ele>90</ele>
        <time>2022-03-21T13:28:35.000Z</time>
      </trkpt>
      <trkpt lat="43.4485" lon="5.243">
        <ele>90</ele>
        <time>2022-03-21T13:28:36.000Z</time>
      </trkpt>
      <trkpt lat="43.44849" lon="5.24298">
        <ele>90</ele>
        <time>2022-03-21T13:28:37.000Z</time>
      </trkpt>
      <trkpt lat="43.44849" lon="5.24296">
        <ele>90</ele>
        <time>2022-03-21T13:28:38.000Z</time>
      </trkpt>
      <trkpt lat="43.44848" lon="5.24294">
        <ele>90</ele>
        <time>2022-03-21T13:28:39.000Z</time>
      </trkpt>
      <trkpt lat="43.44848" lon="5.24292">
        <ele>90</ele>
        <time>2022-03-21T13:28:40.000Z</time>
      </trkpt>
      <trkpt lat="43.44847" lon="5.2429">
        <ele>90</ele>
        <time>2022-03-21T13:28:41.000Z</time>
      </trkpt>
      <trkpt lat="43.44847" lon="5.24288">
        <ele>89</ele>
        <time>2022-03-21T13:28:42.000Z</time>
      </trkpt>
      <trkpt lat="43.44846" lon="5.24287">
        <ele>89</ele>
        <time>2022-03-21T13:28:43.000Z</time>
      </trkpt>
      <trkpt lat="43.44845" lon="5.24286">
        <ele>89</ele>
        <time>2022-03-21T13:28:44.000Z</time>
      </trkpt>
      <trkpt lat="43.44844" lon="5.24285">
        <ele>89</ele>
        <time>2022-03-21T13:28:45.000Z</time>
      </trkpt>
      <trkpt lat="43.44843" lon="5.24284">
        <ele>89</ele>
        <time>2022-03-21T13:28:46.000Z</time>
      </trkpt>
      <trkpt lat="43.44842" lon="5.24283">
        <ele>89</ele>
        <time>2022-03-21T13:28:47.000Z</time>
      </trkpt>
      <trkpt lat="43.44841" lon="5.24281">
        <ele>89</ele>
        <time>2022-03-21T13:28:48.000Z</time>
      </trkpt>
      <trkpt lat="43.44841" lon="5.24279">
        <ele>89</ele>
        <time>2022-03-21T13:28:49.000Z</time>
      </trkpt>
      <trkpt lat="43.4484" lon="5.24277">
        <ele>89</ele>
        <time>2022-03-21T13:28:50.000Z</time>
      </trkpt>
      <trkpt lat="43.44839" lon="5.24276">
        <ele>89</ele>
        <time>2022-03-21T13:28:51.000Z</time>
      </trkpt>
      <trkpt lat="43.44838" lon="5.24274">
        <ele>88</ele>
        <time>2022-03-21T13:28:52.000Z</time>
      </trkpt>
      <trkpt lat="43.44837" lon="5.24274">
        <ele>88</ele>
        <time>2022-03-21T13:28:53.000Z</time>
      </trkpt>
      <trkpt lat="43.44835" lon="5.24273">
        <ele>88</ele>
        <time>2022-03-21T13:28:54.000Z</time>
      </trkpt>
      <trkpt lat="43.44834" lon="5.24272">
        <ele>88</ele>
        <time>2022-03-21T13:28:55.000Z</time>
      </trkpt>
      <trkpt lat="43.44833" lon="5.24271">
        <ele>88</ele>
        <time>2022-03-21T13:28:56.000Z</time>
      </trkpt>
      <trkpt lat="43.44831" lon="5.24269">
        <ele>88</ele>
        <time>2022-03-21T13:28:57.000Z</time>
      </trkpt>
      <trkpt lat="43.4483" lon="5.24268">
        <ele>88</ele>
        <time>2022-03-21T13:28:58.000Z</time>
      </trkpt>
      <trkpt lat="43.44829" lon="5.24267">
        <ele>88</ele>
        <time>2022-03-21T13:28:59.000Z</time>
      </trkpt>
      <trkpt lat="43.44828" lon="5.24265">
        <ele>88</ele>
        <time>2022-03-21T13:29:00.000Z</time>
      </trkpt>
      <trkpt lat="43.44827" lon="5.24264">
        <ele>87</ele>
        <time>2022-03-21T13:29:01.000Z</time>
      </trkpt>
      <trkpt lat="43.44826" lon="5.24263">
        <ele>87</ele>
        <time>2022-03-21T13:29:02.000Z</time>
      </trkpt>
      <trkpt lat="43.44825" lon="5.24262">
        <ele>87</ele>
        <time>2022-03-21T13:29:03.000Z</time>
      </trkpt>
      <trkpt lat="43.44824" lon="5.2426">
        <ele>87</ele>
        <time>2022-03-21T13:29:04.000Z</time>
      </trkpt>
      <trkpt lat="43.44824" lon="5.24259">
        <ele>87</ele>
        <time>2022-03-21T13:29:05.000Z</time>
      </trkpt>
      <trkpt lat="43.44823" lon="5.24257">
        <ele>87</ele>
        <time>2022-03-21T13:29:06.000Z</time>
      </trkpt>
      <trkpt lat="43.44822" lon="5.24256">
        <ele>87</ele>
        <time>2022-03-21T13:29:07.000Z</time>
      </trkpt>
      <trkpt lat="43.44821" lon="5.24254">
        <ele>87</ele>
        <time>2022-03-21T13:29:08.000Z</time>
      </trkpt>
      <trkpt lat="43.4482" lon="5.24253">
        <ele>87</ele>
        <time>2022-03-21T13:29:09.000Z</time>
      </trkpt>
      <trkpt lat="43.44819" lon="5.24252">
        <ele>87</ele>
        <time>2022-03-21T13:29:10.000Z</time>
      </trkpt>
      <trkpt lat="43.44817" lon="5.24251">
        <ele>87</ele>
        <time>2022-03-21T13:29:11.000Z</time>
      </trkpt>
      <trkpt lat="43.44816" lon="5.24251">
        <ele>87</ele>
        <time>2022-03-21T13:29:12.000Z</time>
      </trkpt>
      <trkpt lat="43.44815" lon="5.2425">
        <ele>87</ele>
        <time>2022-03-21T13:29:13.000Z</time>
      </trkpt>
      <trkpt lat="43.44814" lon="5.2425">
        <ele>87</ele>
        <time>2022-03-21T13:29:14.000Z</time>
      </trkpt>
      <trkpt lat="43.44813" lon="5.2425">
        <ele>86</ele>
        <time>2022-03-21T13:29:15.000Z</time>
      </trkpt>
      <trkpt lat="43.44811" lon="5.24251">
        <ele>86</ele>
        <time>2022-03-21T13:29:16.000Z</time>
      </trkpt>
      <trkpt lat="43.4481" lon="5.24251">
        <ele>86</ele>
        <time>2022-03-21T13:29:17.000Z</time>
      </trkpt>
      <trkpt lat="43.44808" lon="5.2425">
        <ele>86</ele>
        <time>2022-03-21T13:29:18.000Z</time>
      </trkpt>
      <trkpt lat="43.44807" lon="5.24249">
        <ele>86</ele>
        <time>2022-03-21T13:29:19.000Z</time>
      </trkpt>
      <trkpt lat="43.44806" lon="5.24247">
        <ele>86</ele>
        <time>2022-03-21T13:29:20.000Z</time>
      </trkpt>
      <trkpt lat="43.44805" lon="5.24246">
        <ele>86</ele>
        <time>2022-03-21T13:29:21.000Z</time>
      </trkpt>
      <trkpt lat="43.44804" lon="5.24244">
        <ele>86</ele>
        <time>2022-03-21T13:29:22.000Z</time>
      </trkpt>
      <trkpt lat="43.44803" lon="5.24243">
        <ele>86</ele>
        <time>2022-03-21T13:29:23.000Z</time>
      </trkpt>
      <trkpt lat="43.44802" lon="5.24241">
        <ele>86</ele>
        <time>2022-03-21T13:29:24.000Z</time>
      </trkpt>
      <trkpt lat="43.44802" lon="5.24239">
        <ele>85</ele>
        <time>2022-03-21T13:29:25.000Z</time>
      </trkpt>
      <trkpt lat="43.44803" lon="5.24237">
        <ele>85</ele>
        <time>2022-03-21T13:29:26.000Z</time>
      </trkpt>
      <trkpt lat="43.44804" lon="5.24236">
        <ele>85</ele>
        <time>2022-03-21T13:29:27.000Z</time>
      </trkpt>
      <trkpt lat="43.44804" lon="5.24235">
        <ele>85</ele>
        <time>2022-03-21T13:29:28.000Z</time>
      </trkpt>
      <trkpt lat="43.44805" lon="5.24234">
        <ele>85</ele>
        <time>2022-03-21T13:29:29.000Z</time>
      </trkpt>
      <trkpt lat="43.44806" lon="5.24233">
        <ele>85</ele>
        <time>2022-03-21T13:29:30.000Z</time>
      </trkpt>
      <trkpt lat="43.44807" lon="5.24232">
        <ele>85</ele>
        <time>2022-03-21T13:29:31.000Z</time>
      </trkpt>
      <trkpt lat="43.44808" lon="5.24231">
        <ele>85</ele>
        <time>2022-03-21T13:29:32.000Z</time>
      </trkpt>
      <trkpt lat="43.44809" lon="5.2423">
        <ele>85</ele>
        <time>2022-03-21T13:29:33.000Z</time>
      </trkpt>
      <trkpt lat="43.4481" lon="5.24229">
        <ele>85</ele>
        <time>2022-03-21T13:29:34.000Z</time>
      </trkpt>
      <trkpt lat="43.44811" lon="5.24227">
        <ele>85</ele>
        <time>2022-03-21T13:29:35.000Z</time>
      </trkpt>
      <trkpt lat="43.44812" lon="5.24226">
        <ele>85</ele>
        <time>2022-03-21T13:29:36.000Z</time>
      </trkpt>
      <trkpt lat="43.44813" lon="5.24225">
        <ele>85</ele>
        <time>2022-03-21T13:29:37.000Z</time>
      </trkpt>
      <trkpt lat="43.44814" lon="5.24223">
        <ele>85</ele>
        <time>2022-03-21T13:29:38.000Z</time>
      </trkpt>
      <trkpt lat="43.44815" lon="5.24222">
        <ele>85</ele>
        <time>2022-03-21T13:29:39.000Z</time>
      </trkpt>
      <trkpt lat="43.44815" lon="5.2422">
        <ele>85</ele>
        <time>2022-03-21T13:29:40.000Z</time>
      </trkpt>
      <trkpt lat="43.44816" lon="5.24218">
        <ele>85</ele>
        <time>2022-03-21T13:29:41.000Z</time>
      </trkpt>
      <trkpt lat="43.44816" lon="5.24216">
        <ele>85</ele>
        <time>2022-03-21T13:29:42.000Z</time>
      </trkpt>
      <trkpt lat="43.44816" lon="5.24214">
        <ele>85</ele>
        <time>2022-03-21T13:29:43.000Z</time>
      </trkpt>
      <trkpt lat="43.44817" lon="5.24212">
        <ele>85</ele>
        <time>2022-03-21T13:29:44.000Z</time>
      </trkpt>
      <trkpt lat="43.44817" lon="5.2421">
        <ele>85</ele>
        <time>2022-03-21T13:29:45.000Z</time>
      </trkpt>
      <trkpt lat="43.44818" lon="5.24208">
        <ele>85</ele>
        <time>2022-03-21T13:29:46.000Z</time>
      </trkpt>
      <trkpt lat="43.44818" lon="5.24207">
        <ele>85</ele>
        <time>2022-03-21T13:29:47.000Z</time>
      </trkpt>
      <trkpt lat="43.44819" lon="5.24205">
        <ele>85</ele>
        <time>2022-03-21T13:29:48.000Z</time>
      </trkpt>
      <trkpt lat="43.44819" lon="5.24203">
        <ele>85</ele>
        <time>2022-03-21T13:29:49.000Z</time>
      </trkpt>
      <trkpt lat="43.44819" lon="5.24202">
        <ele>85</ele>
        <time>2022-03-21T13:29:50.000Z</time>
      </trkpt>
      <trkpt lat="43.44819" lon="5.242">
        <ele>85</ele>
        <time>2022-03-21T13:29:51.000Z</time>
      </trkpt>
      <trkpt lat="43.4482" lon="5.24198">
        <ele>85</ele>
        <time>2022-03-21T13:29:52.000Z</time>
      </trkpt>
      <trkpt lat="43.4482" lon="5.24196">
        <ele>85</ele>
        <time>2022-03-21T13:29:53.000Z</time>
      </trkpt>
      <trkpt lat="43.4482" lon="5.24194">
        <ele>85</ele>
        <time>2022-03-21T13:29:54.000Z</time>
      </trkpt>
      <trkpt lat="43.44821" lon="5.24192">
        <ele>85</ele>
        <time>2022-03-21T13:29:55.000Z</time>
      </trkpt>
      <trkpt lat="43.44821" lon="5.2419">
        <ele>85</ele>
        <time>2022-03-21T13:29:56.000Z</time>
      </trkpt>
      <trkpt lat="43.44822" lon="5.24188">
        <ele>85</ele>
        <time>2022-03-21T13:29:57.000Z</time>
      </trkpt>
      <trkpt lat="43.44822" lon="5.24186">
        <ele>85</ele>
        <time>2022-03-21T13:29:58.000Z</time>
      </trkpt>
      <trkpt lat="43.44823" lon="5.24184">
        <ele>85</ele>
        <time>2022-03-21T13:29:59.000Z</time>
      </trkpt>
      <trkpt lat="43.44824" lon="5.24183">
        <ele>85</ele>
        <time>2022-03-21T13:30:00.000Z</time>
      </trkpt>
      <trkpt lat="43.44824" lon="5.24181">
        <ele>85</ele>
        <time>2022-03-21T13:30:01.000Z</time>
      </trkpt>
      <trkpt lat="43.44825" lon="5.24179">
        <ele>85</ele>
        <time>2022-03-21T13:30:02.000Z</time>
      </trkpt>
      <trkpt lat="43.44825" lon="5.24177">
        <ele>85</ele>
        <time>2022-03-21T13:30:03.000Z</time>
      </trkpt>
      <trkpt lat="43.44826" lon="5.24175">
        <ele>85</ele>
        <time>2022-03-21T13:30:04.000Z</time>
      </trkpt>
      <trkpt lat="43.44826" lon="5.24174">
        <ele>85</ele>
        <time>2022-03-21T13:30:05.000Z</time>
      </trkpt>
      <trkpt lat="43.44827" lon="5.24172">
        <ele>85</ele>
        <time>2022-03-21T13:30:06.000Z</time>
      </trkpt>
      <trkpt lat="43.44828" lon="5.2417">
        <ele>85</ele>
        <time>2022-03-21T13:30:07.000Z</time>
      </trkpt>
      <trkpt lat="43.44828" lon="5.24169">
        <ele>85</ele>
        <time>2022-03-21T13:30:08.000Z</time>
      </trkpt>
      <trkpt lat="43.44829" lon="5.24167">
        <ele>85</ele>
        <time>2022-03-21T13:30:09.000Z</time>
      </trkpt>
      <trkpt lat="43.4483" lon="5.24165">
        <ele>85</ele>
        <time>2022-03-21T13:30:10.000Z</time>
      </trkpt>
      <trkpt lat="43.4483" lon="5.24163">
        <ele>85</ele>
        <time>2022-03-21T13:30:11.000Z</time>
      </trkpt>
      <trkpt lat="43.44831" lon="5.24162">
        <ele>85</ele>
        <time>2022-03-21T13:30:12.000Z</time>
      </trkpt>
      <trkpt lat="43.44832" lon="5.2416">
        <ele>85</ele>
        <time>2022-03-21T13:30:13.000Z</time>
      </trkpt>
      <trkpt lat="43.44833" lon="5.24158">
        <ele>85</ele>
        <time>2022-03-21T13:30:14.000Z</time>
      </trkpt>
      <trkpt lat="43.44834" lon="5.24156">
        <ele>85</ele>
        <time>2022-03-21T13:30:15.000Z</time>
      </trkpt>
      <trkpt lat="43.44834" lon="5.24154">
        <ele>85</ele>
        <time>2022-03-21T13:30:16.000Z</time>
      </trkpt>
      <trkpt lat="43.44835" lon="5.24152">
        <ele>85</ele>
        <time>2022-03-21T13:30:17.000Z</time>
      </trkpt>
      <trkpt lat="43.44836" lon="5.2415">
        <ele>85</ele>
        <time>2022-03-21T13:30:18.000Z</time>
      </trkpt>
      <trkpt lat="43.44837" lon="5.24149">
        <ele>85</ele>
        <time>2022-03-21T13:30:19.000Z</time>
      </trkpt>
      <trkpt lat="43.44837" lon="5.24147">
        <ele>84</ele>
        <time>2022-03-21T13:30:20.000Z</time>
      </trkpt>
      <trkpt lat="43.44837" lon="5.24145">
        <ele>84</ele>
        <time>2022-03-21T13:30:21.000Z</time>
      </trkpt>
      <trkpt lat="43.44838" lon="5.24144">
        <ele>84</ele>
        <time>2022-03-21T13:30:22.000Z</time>
      </trkpt>
      <trkpt lat="43.44838" lon="5.24142">
        <ele>84</ele>
        <time>2022-03-21T13:30:23.000Z</time>
      </trkpt>
      <trkpt lat="43.44839" lon="5.2414">
        <ele>84</ele>
        <time>2022-03-21T13:30:24.000Z</time>
      </trkpt>
      <trkpt lat="43.44839" lon="5.24138">
        <ele>84</ele>
        <time>2022-03-21T13:30:25.000Z</time>
      </trkpt>
      <trkpt lat="43.44839" lon="5.24136">
        <ele>84</ele>
        <time>2022-03-21T13:30:26.000Z</time>
      </trkpt>
      <trkpt lat="43.44839" lon="5.24135">
        <ele>84</ele>
        <time>2022-03-21T13:30:27.000Z</time>
      </trkpt>
      <trkpt lat="43.44839" lon="5.24133">
        <ele>84</ele>
        <time>2022-03-21T13:30:28.000Z</time>
      </trkpt>
      <trkpt lat="43.44839" lon="5.24131">
        <ele>84</ele>
        <time>2022-03-21T13:30:29.000Z</time>
      </trkpt>
      <trkpt lat="43.44839" lon="5.24129">
        <ele>84</ele>
        <time>2022-03-21T13:30:30.000Z</time>
      </trkpt>
      <trkpt lat="43.44839" lon="5.24127">
        <ele>84</ele>
        <time>2022-03-21T13:30:31.000Z</time>
      </trkpt>
      <trkpt lat="43.4484" lon="5.24125">
        <ele>84</ele>
        <time>2022-03-21T13:30:32.000Z</time>
      </trkpt>
      <trkpt lat="43.4484" lon="5.24124">
        <ele>85</ele>
        <time>2022-03-21T13:30:33.000Z</time>
      </trkpt>
      <trkpt lat="43.44841" lon="5.24122">
        <ele>85</ele>
        <time>2022-03-21T13:30:34.000Z</time>
      </trkpt>
      <trkpt lat="43.44842" lon="5.2412">
        <ele>85</ele>
        <time>2022-03-21T13:30:35.000Z</time>
      </trkpt>
      <trkpt lat="43.44842" lon="5.24118">
        <ele>85</ele>
        <time>2022-03-21T13:30:36.000Z</time>
      </trkpt>
      <trkpt lat="43.44843" lon="5.24116">
        <ele>85</ele>
        <time>2022-03-21T13:30:37.000Z</time>
      </trkpt>
      <trkpt lat="43.44844" lon="5.24115">
        <ele>85</ele>
        <time>2022-03-21T13:30:38.000Z</time>
      </trkpt>
      <trkpt lat="43.44845" lon="5.24113">
        <ele>85</ele>
        <time>2022-03-21T13:30:39.000Z</time>
      </trkpt>
      <trkpt lat="43.44847" lon="5.24112">
        <ele>85</ele>
        <time>2022-03-21T13:30:40.000Z</time>
      </trkpt>
      <trkpt lat="43.44848" lon="5.2411">
        <ele>85</ele>
        <time>2022-03-21T13:30:41.000Z</time>
      </trkpt>
      <trkpt lat="43.44849" lon="5.24109">
        <ele>85</ele>
        <time>2022-03-21T13:30:42.000Z</time>
      </trkpt>
      <trkpt lat="43.4485" lon="5.24108">
        <ele>85</ele>
        <time>2022-03-21T13:30:43.000Z</time>
      </trkpt>
      <trkpt lat="43.44851" lon="5.24107">
        <ele>86</ele>
        <time>2022-03-21T13:30:44.000Z</time>
      </trkpt>
      <trkpt lat="43.44852" lon="5.24105">
        <ele>86</ele>
        <time>2022-03-21T13:30:45.000Z</time>
      </trkpt>
      <trkpt lat="43.44854" lon="5.24104">
        <ele>86</ele>
        <time>2022-03-21T13:30:46.000Z</time>
      </trkpt>
      <trkpt lat="43.44855" lon="5.24103">
        <ele>86</ele>
        <time>2022-03-21T13:30:47.000Z</time>
      </trkpt>
      <trkpt lat="43.44856" lon="5.24102">
        <ele>86</ele>
        <time>2022-03-21T13:30:48.000Z</time>
      </trkpt>
      <trkpt lat="43.44857" lon="5.24101">
        <ele>86</ele>
        <time>2022-03-21T13:30:49.000Z</time>
      </trkpt>
      <trkpt lat="43.44858" lon="5.241">
        <ele>86</ele>
        <time>2022-03-21T13:30:50.000Z</time>
      </trkpt>
      <trkpt lat="43.4486" lon="5.24099">
        <ele>86</ele>
        <time>2022-03-21T13:30:51.000Z</time>
      </trkpt>
      <trkpt lat="43.44861" lon="5.24098">
        <ele>86</ele>
        <time>2022-03-21T13:30:52.000Z</time>
      </trkpt>
      <trkpt lat="43.44862" lon="5.24097">
        <ele>86</ele>
        <time>2022-03-21T13:30:53.000Z</time>
      </trkpt>
      <trkpt lat="43.44863" lon="5.24096">
        <ele>86</ele>
        <time>2022-03-21T13:30:54.000Z</time>
      </trkpt>
      <trkpt lat="43.44864" lon="5.24095">
        <ele>86</ele>
        <time>2022-03-21T13:30:55.000Z</time>
      </trkpt>
      <trkpt lat="43.44865" lon="5.24094">
        <ele>86</ele>
        <time>2022-03-21T13:30:56.000Z</time>
      </trkpt>
      <trkpt lat="43.44867" lon="5.24093">
        <ele>86</ele>
        <time>2022-03-21T13:30:57.000Z</time>
      </trkpt>
      <trkpt lat="43.44868" lon="5.24092">
        <ele>86</ele>
        <time>2022-03-21T13:30:58.000Z</time>
      </trkpt>
      <trkpt lat="43.44869" lon="5.24091">
        <ele>87</ele>
        <time>2022-03-21T13:30:59.000Z</time>
      </trkpt>
      <trkpt lat="43.4487" lon="5.2409">
        <ele>87</ele>
        <time>2022-03-21T13:31:00.000Z</time>
      </trkpt>
      <trkpt lat="43.44871" lon="5.24089">
        <ele>87</ele>
        <time>2022-03-21T13:31:01.000Z</time>
      </trkpt>
      <trkpt lat="43.44872" lon="5.24087">
        <ele>87</ele>
        <time>2022-03-21T13:31:02.000Z</time>
      </trkpt>
      <trkpt lat="43.44873" lon="5.24086">
        <ele>87</ele>
        <time>2022-03-21T13:31:03.000Z</time>
      </trkpt>
      <trkpt lat="43.44874" lon="5.24085">
        <ele>87</ele>
        <time>2022-03-21T13:31:04.000Z</time>
      </trkpt>
      <trkpt lat="43.44876" lon="5.24084">
        <ele>87</ele>
        <time>2022-03-21T13:31:05.000Z</time>
      </trkpt>
      <trkpt lat="43.44877" lon="5.24082">
        <ele>87</ele>
        <time>2022-03-21T13:31:06.000Z</time>
      </trkpt>
      <trkpt lat="43.44878" lon="5.24081">
        <ele>87</ele>
        <time>2022-03-21T13:31:07.000Z</time>
      </trkpt>
      <trkpt lat="43.44879" lon="5.2408">
        <ele>87</ele>
        <time>2022-03-21T13:31:08.000Z</time>
      </trkpt>
      <trkpt lat="43.4488" lon="5.24079">
        <ele>87</ele>
        <time>2022-03-21T13:31:09.000Z</time>
      </trkpt>
      <trkpt lat="43.44881" lon="5.24078">
        <ele>87</ele>
        <time>2022-03-21T13:31:10.000Z</time>
      </trkpt>
      <trkpt lat="43.44882" lon="5.24077">
        <ele>87</ele>
        <time>2022-03-21T13:31:11.000Z</time>
      </trkpt>
      <trkpt lat="43.44884" lon="5.24076">
        <ele>88</ele>
        <time>2022-03-21T13:31:12.000Z</time>
      </trkpt>
      <trkpt lat="43.44885" lon="5.24075">
        <ele>88</ele>
        <time>2022-03-21T13:31:13.000Z</time>
      </trkpt>
      <trkpt lat="43.44886" lon="5.24074">
        <ele>88</ele>
        <time>2022-03-21T13:31:14.000Z</time>
      </trkpt>
      <trkpt lat="43.44887" lon="5.24073">
        <ele>88</ele>
        <time>2022-03-21T13:31:15.000Z</time>
      </trkpt>
      <trkpt lat="43.44888" lon="5.24072">
        <ele>88</ele>
        <time>2022-03-21T13:31:16.000Z</time>
      </trkpt>
      <trkpt lat="43.44889" lon="5.24071">
        <ele>88</ele>
        <time>2022-03-21T13:31:17.000Z</time>
      </trkpt>
      <trkpt lat="43.44891" lon="5.2407">
        <ele>88</ele>
        <time>2022-03-21T13:31:18.000Z</time>
      </trkpt>
      <trkpt lat="43.44892" lon="5.24069">
        <ele>88</ele>
        <time>2022-03-21T13:31:19.000Z</time>
      </trkpt>
      <trkpt lat="43.44893" lon="5.24067">
        <ele>88</ele>
        <time>2022-03-21T13:31:20.000Z</time>
      </trkpt>
      <trkpt lat="43.44894" lon="5.24066">
        <ele>88</ele>
        <time>2022-03-21T13:31:21.000Z</time>
      </trkpt>
      <trkpt lat="43.44895" lon="5.24065">
        <ele>88</ele>
        <time>2022-03-21T13:31:22.000Z</time>
      </trkpt>
      <trkpt lat="43.44896" lon="5.24063">
        <ele>88</ele>
        <time>2022-03-21T13:31:23.000Z</time>
      </trkpt>
      <trkpt lat="43.44897" lon="5.24062">
        <ele>88</ele>
        <time>2022-03-21T13:31:24.000Z</time>
      </trkpt>
      <trkpt lat="43.44898" lon="5.24061">
        <ele>88</ele>
        <time>2022-03-21T13:31:25.000Z</time>
      </trkpt>
      <trkpt lat="43.44899" lon="5.2406">
        <ele>88</ele>
        <time>2022-03-21T13:31:26.000Z</time>
      </trkpt>
      <trkpt lat="43.449" lon="5.24059">
        <ele>88</ele>
        <time>2022-03-21T13:31:27.000Z</time>
      </trkpt>
      <trkpt lat="43.44901" lon="5.24058">
        <ele>88</ele>
        <time>2022-03-21T13:31:28.000Z</time>
      </trkpt>
      <trkpt lat="43.44903" lon="5.24056">
        <ele>88</ele>
        <time>2022-03-21T13:31:29.000Z</time>
      </trkpt>
      <trkpt lat="43.44904" lon="5.24055">
        <ele>88</ele>
        <time>2022-03-21T13:31:30.000Z</time>
      </trkpt>
      <trkpt lat="43.44905" lon="5.24054">
        <ele>88</ele>
        <time>2022-03-21T13:31:31.000Z</time>
      </trkpt>
      <trkpt lat="43.44906" lon="5.24053">
        <ele>88</ele>
        <time>2022-03-21T13:31:32.000Z</time>
      </trkpt>
      <trkpt lat="43.44907" lon="5.24052">
        <ele>88</ele>
        <time>2022-03-21T13:31:33.000Z</time>
      </trkpt>
      <trkpt lat="43.44908" lon="5.2405">
        <ele>88</ele>
        <time>2022-03-21T13:31:34.000Z</time>
      </trkpt>
      <trkpt lat="43.44909" lon="5.24049">
        <ele>88</ele>
        <time>2022-03-21T13:31:35.000Z</time>
      </trkpt>
      <trkpt lat="43.4491" lon="5.24047">
        <ele>88</ele>
        <time>2022-03-21T13:31:36.000Z</time>
      </trkpt>
      <trkpt lat="43.44911" lon="5.24046">
        <ele>88</ele>
        <time>2022-03-21T13:31:37.000Z</time>
      </trkpt>
      <trkpt lat="43.44911" lon="5.24044">
        <ele>88</ele>
        <time>2022-03-21T13:31:38.000Z</time>
      </trkpt>
      <trkpt lat="43.44912" lon="5.24042">
        <ele>88</ele>
        <time>2022-03-21T13:31:39.000Z</time>
      </trkpt>
      <trkpt lat="43.44913" lon="5.2404">
        <ele>88</ele>
        <time>2022-03-21T13:31:40.000Z</time>
      </trkpt>
      <trkpt lat="43.44914" lon="5.24039">
        <ele>88</ele>
        <time>2022-03-21T13:31:41.000Z</time>
      </trkpt>
      <trkpt lat="43.44915" lon="5.24038">
        <ele>89</ele>
        <time>2022-03-21T13:31:42.000Z</time>
      </trkpt>
      <trkpt lat="43.44916" lon="5.24037">
        <ele>89</ele>
        <time>2022-03-21T13:31:43.000Z</time>
      </trkpt>
      <trkpt lat="43.44918" lon="5.24036">
        <ele>89</ele>
        <time>2022-03-21T13:31:44.000Z</time>
      </trkpt>
      <trkpt lat="43.44919" lon="5.24035">
        <ele>89</ele>
        <time>2022-03-21T13:31:45.000Z</time>
      </trkpt>
      <trkpt lat="43.4492" lon="5.24035">
        <ele>89</ele>
        <time>2022-03-21T13:31:46.000Z</time>
      </trkpt>
      <trkpt lat="43.44921" lon="5.24034">
        <ele>89</ele>
        <time>2022-03-21T13:31:47.000Z</time>
      </trkpt>
      <trkpt lat="43.44923" lon="5.24033">
        <ele>89</ele>
        <time>2022-03-21T13:31:48.000Z</time>
      </trkpt>
      <trkpt lat="43.44924" lon="5.24032">
        <ele>89</ele>
        <time>2022-03-21T13:31:49.000Z</time>
      </trkpt>
      <trkpt lat="43.44925" lon="5.24031">
        <ele>89</ele>
        <time>2022-03-21T13:31:50.000Z</time>
      </trkpt>
      <trkpt lat="43.44926" lon="5.2403">
        <ele>90</ele>
        <time>2022-03-21T13:31:51.000Z</time>
      </trkpt>
      <trkpt lat="43.44927" lon="5.24029">
        <ele>90</ele>
        <time>2022-03-21T13:31:52.000Z</time>
      </trkpt>
      <trkpt lat="43.44929" lon="5.24028">
        <ele>90</ele>
        <time>2022-03-21T13:31:53.000Z</time>
      </trkpt>
      <trkpt lat="43.4493" lon="5.24027">
        <ele>90</ele>
        <time>2022-03-21T13:31:54.000Z</time>
      </trkpt>
      <trkpt lat="43.44931" lon="5.24026">
        <ele>90</ele>
        <time>2022-03-21T13:31:55.000Z</time>
      </trkpt>
      <trkpt lat="43.44933" lon="5.24026">
        <ele>90</ele>
        <time>2022-03-21T13:31:56.000Z</time>
      </trkpt>
      <trkpt lat="43.44934" lon="5.24025">
        <ele>90</ele>
        <time>2022-03-21T13:31:57.000Z</time>
      </trkpt>
      <trkpt lat="43.44935" lon="5.24024">
        <ele>90</ele>
        <time>2022-03-21T13:31:58.000Z</time>
      </trkpt>
      <trkpt lat="43.44936" lon="5.24023">
        <ele>90</ele>
        <time>2022-03-21T13:31:59.000Z</time>
      </trkpt>
      <trkpt lat="43.44938" lon="5.24022">
        <ele>90</ele>
        <time>2022-03-21T13:32:00.000Z</time>
      </trkpt>
      <trkpt lat="43.44939" lon="5.24021">
        <ele>90</ele>
        <time>2022-03-21T13:32:01.000Z</time>
      </trkpt>
      <trkpt lat="43.4494" lon="5.2402">
        <ele>90</ele>
        <time>2022-03-21T13:32:02.000Z</time>
      </trkpt>
      <trkpt lat="43.44941" lon="5.2402">
        <ele>90</ele>
        <time>2022-03-21T13:32:03.000Z</time>
      </trkpt>
      <trkpt lat="43.44942" lon="5.24019">
        <ele>90</ele>
        <time>2022-03-21T13:32:04.000Z</time>
      </trkpt>
      <trkpt lat="43.44944" lon="5.24019">
        <ele>90</ele>
        <time>2022-03-21T13:32:05.000Z</time>
      </trkpt>
      <trkpt lat="43.44945" lon="5.24019">
        <ele>90</ele>
        <time>2022-03-21T13:32:06.000Z</time>
      </trkpt>
      <trkpt lat="43.44947" lon="5.24018">
        <ele>91</ele>
        <time>2022-03-21T13:32:07.000Z</time>
      </trkpt>
      <trkpt lat="43.44948" lon="5.24018">
        <ele>91</ele>
        <time>2022-03-21T13:32:08.000Z</time>
      </trkpt>
      <trkpt lat="43.4495" lon="5.24017">
        <ele>91</ele>
        <time>2022-03-21T13:32:09.000Z</time>
      </trkpt>
      <trkpt lat="43.44951" lon="5.24017">
        <ele>91</ele>
        <time>2022-03-21T13:32:10.000Z</time>
      </trkpt>
      <trkpt lat="43.44953" lon="5.24017">
        <ele>91</ele>
        <time>2022-03-21T13:32:11.000Z</time>
      </trkpt>
      <trkpt lat="43.44954" lon="5.24017">
        <ele>91</ele>
        <time>2022-03-21T13:32:12.000Z</time>
      </trkpt>
      <trkpt lat="43.44956" lon="5.24016">
        <ele>91</ele>
        <time>2022-03-21T13:32:13.000Z</time>
      </trkpt>
      <trkpt lat="43.44957" lon="5.24017">
        <ele>91</ele>
        <time>2022-03-21T13:32:14.000Z</time>
      </trkpt>
      <trkpt lat="43.44959" lon="5.24017">
        <ele>91</ele>
        <time>2022-03-21T13:32:15.000Z</time>
      </trkpt>
      <trkpt lat="43.4496" lon="5.24018">
        <ele>91</ele>
        <time>2022-03-21T13:32:16.000Z</time>
      </trkpt>
      <trkpt lat="43.44962" lon="5.24019">
        <ele>91</ele>
        <time>2022-03-21T13:32:17.000Z</time>
      </trkpt>
      <trkpt lat="43.44963" lon="5.2402">
        <ele>91</ele>
        <time>2022-03-21T13:32:18.000Z</time>
      </trkpt>
      <trkpt lat="43.44964" lon="5.24021">
        <ele>91</ele>
        <time>2022-03-21T13:32:19.000Z</time>
      </trkpt>
      <trkpt lat="43.44965" lon="5.24023">
        <ele>91</ele>
        <time>2022-03-21T13:32:20.000Z</time>
      </trkpt>
      <trkpt lat="43.44966" lon="5.24024">
        <ele>91</ele>
        <time>2022-03-21T13:32:21.000Z</time>
      </trkpt>
      <trkpt lat="43.44967" lon="5.24026">
        <ele>91</ele>
        <time>2022-03-21T13:32:22.000Z</time>
      </trkpt>
      <trkpt lat="43.44968" lon="5.24027">
        <ele>91</ele>
        <time>2022-03-21T13:32:23.000Z</time>
      </trkpt>
      <trkpt lat="43.44969" lon="5.24029">
        <ele>91</ele>
        <time>2022-03-21T13:32:24.000Z</time>
      </trkpt>
      <trkpt lat="43.4497" lon="5.2403">
        <ele>91</ele>
        <time>2022-03-21T13:32:25.000Z</time>
      </trkpt>
      <trkpt lat="43.44971" lon="5.24031">
        <ele>91</ele>
        <time>2022-03-21T13:32:26.000Z</time>
      </trkpt>
      <trkpt lat="43.44973" lon="5.24032">
        <ele>91</ele>
        <time>2022-03-21T13:32:27.000Z</time>
      </trkpt>
      <trkpt lat="43.44974" lon="5.24032">
        <ele>91</ele>
        <time>2022-03-21T13:32:28.000Z</time>
      </trkpt>
      <trkpt lat="43.44975" lon="5.24033">
        <ele>91</ele>
        <time>2022-03-21T13:32:29.000Z</time>
      </trkpt>
      <trkpt lat="43.44976" lon="5.24034">
        <ele>91</ele>
        <time>2022-03-21T13:32:30.000Z</time>
      </trkpt>
      <trkpt lat="43.44977" lon="5.24034">
        <ele>91</ele>
        <time>2022-03-21T13:32:31.000Z</time>
      </trkpt>
      <trkpt lat="43.44978" lon="5.24034">
        <ele>91</ele>
        <time>2022-03-21T13:32:32.000Z</time>
      </trkpt>
      <trkpt lat="43.44979" lon="5.24034">
        <ele>91</ele>
        <time>2022-03-21T13:32:33.000Z</time>
      </trkpt>
      <trkpt lat="43.4498" lon="5.24034">
        <ele>91</ele>
        <time>2022-03-21T13:32:34.000Z</time>
      </trkpt>
      <trkpt lat="43.44982" lon="5.24033">
        <ele>91</ele>
        <time>2022-03-21T13:32:35.000Z</time>
      </trkpt>
      <trkpt lat="43.44983" lon="5.24033">
        <ele>91</ele>
        <time>2022-03-21T13:32:36.000Z</time>
      </trkpt>
      <trkpt lat="43.44984" lon="5.24032">
        <ele>91</ele>
        <time>2022-03-21T13:32:37.000Z</time>
      </trkpt>
      <trkpt lat="43.44984" lon="5.24032">
        <ele>91</ele>
        <time>2022-03-21T13:32:38.000Z</time>
      </trkpt>
      <trkpt lat="43.44986" lon="5.24031">
        <ele>91</ele>
        <time>2022-03-21T13:32:39.000Z</time>
      </trkpt>
      <trkpt lat="43.44987" lon="5.2403">
        <ele>91</ele>
        <time>2022-03-21T13:32:40.000Z</time>
      </trkpt>
      <trkpt lat="43.44988" lon="5.2403">
        <ele>91</ele>
        <time>2022-03-21T13:32:41.000Z</time>
      </trkpt>
      <trkpt lat="43.44988" lon="5.24029">
        <ele>91</ele>
        <time>2022-03-21T13:32:42.000Z</time>
      </trkpt>
      <trkpt lat="43.44989" lon="5.24029">
        <ele>91</ele>
        <time>2022-03-21T13:32:43.000Z</time>
      </trkpt>
      <trkpt lat="43.4499" lon="5.24028">
        <ele>91</ele>
        <time>2022-03-21T13:32:44.000Z</time>
      </trkpt>
      <trkpt lat="43.44991" lon="5.24028">
        <ele>91</ele>
        <time>2022-03-21T13:32:45.000Z</time>
      </trkpt>
      <trkpt lat="43.44992" lon="5.24027">
        <ele>91</ele>
        <time>2022-03-21T13:32:46.000Z</time>
      </trkpt>
      <trkpt lat="43.44993" lon="5.24026">
        <ele>91</ele>
        <time>2022-03-21T13:32:47.000Z</time>
      </trkpt>
      <trkpt lat="43.44995" lon="5.24026">
        <ele>91</ele>
        <time>2022-03-21T13:32:48.000Z</time>
      </trkpt>
      <trkpt lat="43.44996" lon="5.24025">
        <ele>91</ele>
        <time>2022-03-21T13:32:49.000Z</time>
      </trkpt>
      <trkpt lat="43.44997" lon="5.24024">
        <ele>91</ele>
        <time>2022-03-21T13:32:50.000Z</time>
      </trkpt>
      <trkpt lat="43.44999" lon="5.24024">
        <ele>91</ele>
        <time>2022-03-21T13:32:51.000Z</time>
      </trkpt>
      <trkpt lat="43.45" lon="5.24023">
        <ele>91</ele>
        <time>2022-03-21T13:32:52.000Z</time>
      </trkpt>
      <trkpt lat="43.45001" lon="5.24023">
        <ele>92</ele>
        <time>2022-03-21T13:32:53.000Z</time>
      </trkpt>
      <trkpt lat="43.45002" lon="5.24022">
        <ele>92</ele>
        <time>2022-03-21T13:32:54.000Z</time>
      </trkpt>
      <trkpt lat="43.45003" lon="5.24021">
        <ele>92</ele>
        <time>2022-03-21T13:32:55.000Z</time>
      </trkpt>
      <trkpt lat="43.45004" lon="5.2402">
        <ele>92</ele>
        <time>2022-03-21T13:32:56.000Z</time>
      </trkpt>
      <trkpt lat="43.45006" lon="5.24018">
        <ele>92</ele>
        <time>2022-03-21T13:32:57.000Z</time>
      </trkpt>
      <trkpt lat="43.45007" lon="5.24017">
        <ele>92</ele>
        <time>2022-03-21T13:32:58.000Z</time>
      </trkpt>
      <trkpt lat="43.45008" lon="5.24015">
        <ele>91</ele>
        <time>2022-03-21T13:32:59.000Z</time>
      </trkpt>
      <trkpt lat="43.4501" lon="5.24013">
        <ele>91</ele>
        <time>2022-03-21T13:33:00.000Z</time>
      </trkpt>
      <trkpt lat="43.45011" lon="5.24011">
        <ele>91</ele>
        <time>2022-03-21T13:33:01.000Z</time>
      </trkpt>
      <trkpt lat="43.45012" lon="5.2401">
        <ele>91</ele>
        <time>2022-03-21T13:33:02.000Z</time>
      </trkpt>
      <trkpt lat="43.45014" lon="5.24008">
        <ele>91</ele>
        <time>2022-03-21T13:33:03.000Z</time>
      </trkpt>
      <trkpt lat="43.45016" lon="5.24007">
        <ele>91</ele>
        <time>2022-03-21T13:33:04.000Z</time>
      </trkpt>
      <trkpt lat="43.45017" lon="5.24005">
        <ele>91</ele>
        <time>2022-03-21T13:33:05.000Z</time>
      </trkpt>
      <trkpt lat="43.45019" lon="5.24005">
        <ele>92</ele>
        <time>2022-03-21T13:33:06.000Z</time>
      </trkpt>
      <trkpt lat="43.4502" lon="5.24004">
        <ele>92</ele>
        <time>2022-03-21T13:33:07.000Z</time>
      </trkpt>
      <trkpt lat="43.45022" lon="5.24003">
        <ele>92</ele>
        <time>2022-03-21T13:33:08.000Z</time>
      </trkpt>
      <trkpt lat="43.45023" lon="5.24002">
        <ele>92</ele>
        <time>2022-03-21T13:33:09.000Z</time>
      </trkpt>
      <trkpt lat="43.45024" lon="5.24">
        <ele>92</ele>
        <time>2022-03-21T13:33:10.000Z</time>
      </trkpt>
      <trkpt lat="43.45026" lon="5.23999">
        <ele>92</ele>
        <time>2022-03-21T13:33:11.000Z</time>
      </trkpt>
      <trkpt lat="43.45027" lon="5.23997">
        <ele>92</ele>
        <time>2022-03-21T13:33:12.000Z</time>
      </trkpt>
      <trkpt lat="43.45027" lon="5.23995">
        <ele>92</ele>
        <time>2022-03-21T13:33:13.000Z</time>
      </trkpt>
      <trkpt lat="43.45028" lon="5.23993">
        <ele>92</ele>
        <time>2022-03-21T13:33:14.000Z</time>
      </trkpt>
      <trkpt lat="43.45029" lon="5.23991">
        <ele>92</ele>
        <time>2022-03-21T13:33:15.000Z</time>
      </trkpt>
      <trkpt lat="43.45029" lon="5.23989">
        <ele>92</ele>
        <time>2022-03-21T13:33:16.000Z</time>
      </trkpt>
      <trkpt lat="43.4503" lon="5.23988">
        <ele>92</ele>
        <time>2022-03-21T13:33:17.000Z</time>
      </trkpt>
      <trkpt lat="43.4503" lon="5.23986">
        <ele>92</ele>
        <time>2022-03-21T13:33:18.000Z</time>
      </trkpt>
      <trkpt lat="43.45031" lon="5.23984">
        <ele>92</ele>
        <time>2022-03-21T13:33:19.000Z</time>
      </trkpt>
      <trkpt lat="43.45031" lon="5.23982">
        <ele>92</ele>
        <time>2022-03-21T13:33:20.000Z</time>
      </trkpt>
      <trkpt lat="43.45032" lon="5.2398">
        <ele>92</ele>
        <time>2022-03-21T13:33:21.000Z</time>
      </trkpt>
      <trkpt lat="43.45032" lon="5.23978">
        <ele>92</ele>
        <time>2022-03-21T13:33:22.000Z</time>
      </trkpt>
      <trkpt lat="43.45033" lon="5.23976">
        <ele>92</ele>
        <time>2022-03-21T13:33:23.000Z</time>
      </trkpt>
      <trkpt lat="43.45034" lon="5.23974">
        <ele>92</ele>
        <time>2022-03-21T13:33:24.000Z</time>
      </trkpt>
      <trkpt lat="43.45035" lon="5.23973">
        <ele>92</ele>
        <time>2022-03-21T13:33:25.000Z</time>
      </trkpt>
      <trkpt lat="43.45036" lon="5.23971">
        <ele>92</ele>
        <time>2022-03-21T13:33:26.000Z</time>
      </trkpt>
      <trkpt lat="43.45037" lon="5.2397">
        <ele>92</ele>
        <time>2022-03-21T13:33:27.000Z</time>
      </trkpt>
      <trkpt lat="43.45039" lon="5.23969">
        <ele>92</ele>
        <time>2022-03-21T13:33:28.000Z</time>
      </trkpt>
      <trkpt lat="43.4504" lon="5.23968">
        <ele>92</ele>
        <time>2022-03-21T13:33:29.000Z</time>
      </trkpt>
      <trkpt lat="43.45042" lon="5.23968">
        <ele>92</ele>
        <time>2022-03-21T13:33:30.000Z</time>
      </trkpt>
      <trkpt lat="43.45043" lon="5.23968">
        <ele>92</ele>
        <time>2022-03-21T13:33:31.000Z</time>
      </trkpt>
      <trkpt lat="43.45045" lon="5.23969">
        <ele>92</ele>
        <time>2022-03-21T13:33:32.000Z</time>
      </trkpt>
      <trkpt lat="43.45047" lon="5.23969">
        <ele>92</ele>
        <time>2022-03-21T13:33:33.000Z</time>
      </trkpt>
      <trkpt lat="43.45048" lon="5.23969">
        <ele>92</ele>
        <time>2022-03-21T13:33:34.000Z</time>
      </trkpt>
      <trkpt lat="43.4505" lon="5.23969">
        <ele>92</ele>
        <time>2022-03-21T13:33:35.000Z</time>
      </trkpt>
      <trkpt lat="43.45051" lon="5.2397">
        <ele>92</ele>
        <time>2022-03-21T13:33:36.000Z</time>
      </trkpt>
      <trkpt lat="43.45052" lon="5.2397">
        <ele>92</ele>
        <time>2022-03-21T13:33:37.000Z</time>
      </trkpt>
      <trkpt lat="43.45054" lon="5.23969">
        <ele>92</ele>
        <time>2022-03-21T13:33:38.000Z</time>
      </trkpt>
      <trkpt lat="43.45054" lon="5.23968">
        <ele>92</ele>
        <time>2022-03-21T13:33:39.000Z</time>
      </trkpt>
      <trkpt lat="43.45055" lon="5.23967">
        <ele>92</ele>
        <time>2022-03-21T13:33:40.000Z</time>
      </trkpt>
      <trkpt lat="43.45056" lon="5.23966">
        <ele>92</ele>
        <time>2022-03-21T13:33:41.000Z</time>
      </trkpt>
      <trkpt lat="43.45058" lon="5.23965">
        <ele>92</ele>
        <time>2022-03-21T13:33:42.000Z</time>
      </trkpt>
      <trkpt lat="43.45059" lon="5.23964">
        <ele>92</ele>
        <time>2022-03-21T13:33:43.000Z</time>
      </trkpt>
      <trkpt lat="43.4506" lon="5.23963">
        <ele>92</ele>
        <time>2022-03-21T13:33:44.000Z</time>
      </trkpt>
      <trkpt lat="43.45061" lon="5.23962">
        <ele>92</ele>
        <time>2022-03-21T13:33:45.000Z</time>
      </trkpt>
      <trkpt lat="43.45062" lon="5.23961">
        <ele>92</ele>
        <time>2022-03-21T13:33:46.000Z</time>
      </trkpt>
      <trkpt lat="43.45064" lon="5.23961">
        <ele>93</ele>
        <time>2022-03-21T13:33:47.000Z</time>
      </trkpt>
      <trkpt lat="43.45065" lon="5.2396">
        <ele>93</ele>
        <time>2022-03-21T13:33:48.000Z</time>
      </trkpt>
      <trkpt lat="43.45066" lon="5.23959">
        <ele>93</ele>
        <time>2022-03-21T13:33:49.000Z</time>
      </trkpt>
      <trkpt lat="43.45068" lon="5.23959">
        <ele>93</ele>
        <time>2022-03-21T13:33:50.000Z</time>
      </trkpt>
      <trkpt lat="43.45069" lon="5.23958">
        <ele>93</ele>
        <time>2022-03-21T13:33:51.000Z</time>
      </trkpt>
      <trkpt lat="43.4507" lon="5.23958">
        <ele>93</ele>
        <time>2022-03-21T13:33:52.000Z</time>
      </trkpt>
      <trkpt lat="43.45072" lon="5.23957">
        <ele>93</ele>
        <time>2022-03-21T13:33:53.000Z</time>
      </trkpt>
      <trkpt lat="43.45073" lon="5.23956">
        <ele>93</ele>
        <time>2022-03-21T13:33:54.000Z</time>
      </trkpt>
      <trkpt lat="43.45074" lon="5.23955">
        <ele>93</ele>
        <time>2022-03-21T13:33:55.000Z</time>
      </trkpt>
      <trkpt lat="43.45075" lon="5.23954">
        <ele>93</ele>
        <time>2022-03-21T13:33:56.000Z</time>
      </trkpt>
      <trkpt lat="43.45076" lon="5.23952">
        <ele>93</ele>
        <time>2022-03-21T13:33:57.000Z</time>
      </trkpt>
      <trkpt lat="43.45077" lon="5.2395">
        <ele>93</ele>
        <time>2022-03-21T13:33:58.000Z</time>
      </trkpt>
      <trkpt lat="43.45077" lon="5.23948">
        <ele>93</ele>
        <time>2022-03-21T13:33:59.000Z</time>
      </trkpt>
      <trkpt lat="43.45078" lon="5.23947">
        <ele>93</ele>
        <time>2022-03-21T13:34:00.000Z</time>
      </trkpt>
      <trkpt lat="43.45079" lon="5.23945">
        <ele>93</ele>
        <time>2022-03-21T13:34:01.000Z</time>
      </trkpt>
      <trkpt lat="43.4508" lon="5.23943">
        <ele>94</ele>
        <time>2022-03-21T13:34:02.000Z</time>
      </trkpt>
      <trkpt lat="43.45081" lon="5.23941">
        <ele>94</ele>
        <time>2022-03-21T13:34:03.000Z</time>
      </trkpt>
      <trkpt lat="43.45082" lon="5.2394">
        <ele>94</ele>
        <time>2022-03-21T13:34:04.000Z</time>
      </trkpt>
      <trkpt lat="43.45083" lon="5.23938">
        <ele>94</ele>
        <time>2022-03-21T13:34:05.000Z</time>
      </trkpt>
      <trkpt lat="43.45084" lon="5.23937">
        <ele>94</ele>
        <time>2022-03-21T13:34:06.000Z</time>
      </trkpt>
      <trkpt lat="43.45085" lon="5.23936">
        <ele>94</ele>
        <time>2022-03-21T13:34:07.000Z</time>
      </trkpt>
      <trkpt lat="43.45087" lon="5.23935">
        <ele>94</ele>
        <time>2022-03-21T13:34:08.000Z</time>
      </trkpt>
      <trkpt lat="43.45088" lon="5.23935">
        <ele>94</ele>
        <time>2022-03-21T13:34:09.000Z</time>
      </trkpt>
      <trkpt lat="43.4509" lon="5.23934">
        <ele>94</ele>
        <time>2022-03-21T13:34:10.000Z</time>
      </trkpt>
      <trkpt lat="43.45091" lon="5.23933">
        <ele>94</ele>
        <time>2022-03-21T13:34:11.000Z</time>
      </trkpt>
      <trkpt lat="43.45092" lon="5.23933">
        <ele>94</ele>
        <time>2022-03-21T13:34:12.000Z</time>
      </trkpt>
      <trkpt lat="43.45094" lon="5.23932">
        <ele>94</ele>
        <time>2022-03-21T13:34:13.000Z</time>
      </trkpt>
      <trkpt lat="43.45095" lon="5.23932">
        <ele>94</ele>
        <time>2022-03-21T13:34:14.000Z</time>
      </trkpt>
      <trkpt lat="43.45097" lon="5.23932">
        <ele>94</ele>
        <time>2022-03-21T13:34:15.000Z</time>
      </trkpt>
      <trkpt lat="43.45098" lon="5.23931">
        <ele>95</ele>
        <time>2022-03-21T13:34:16.000Z</time>
      </trkpt>
      <trkpt lat="43.451" lon="5.2393">
        <ele>95</ele>
        <time>2022-03-21T13:34:17.000Z</time>
      </trkpt>
      <trkpt lat="43.45101" lon="5.2393">
        <ele>95</ele>
        <time>2022-03-21T13:34:18.000Z</time>
      </trkpt>
      <trkpt lat="43.45103" lon="5.23929">
        <ele>95</ele>
        <time>2022-03-21T13:34:19.000Z</time>
      </trkpt>
      <trkpt lat="43.45104" lon="5.23929">
        <ele>95</ele>
        <time>2022-03-21T13:34:20.000Z</time>
      </trkpt>
      <trkpt lat="43.45106" lon="5.23928">
        <ele>95</ele>
        <time>2022-03-21T13:34:21.000Z</time>
      </trkpt>
      <trkpt lat="43.45107" lon="5.23927">
        <ele>95</ele>
        <time>2022-03-21T13:34:22.000Z</time>
      </trkpt>
      <trkpt lat="43.45108" lon="5.23927">
        <ele>95</ele>
        <time>2022-03-21T13:34:23.000Z</time>
      </trkpt>
      <trkpt lat="43.4511" lon="5.23926">
        <ele>95</ele>
        <time>2022-03-21T13:34:24.000Z</time>
      </trkpt>
      <trkpt lat="43.45111" lon="5.23925">
        <ele>95</ele>
        <time>2022-03-21T13:34:25.000Z</time>
      </trkpt>
      <trkpt lat="43.45113" lon="5.23924">
        <ele>95</ele>
        <time>2022-03-21T13:34:26.000Z</time>
      </trkpt>
      <trkpt lat="43.45114" lon="5.23924">
        <ele>95</ele>
        <time>2022-03-21T13:34:27.000Z</time>
      </trkpt>
      <trkpt lat="43.45115" lon="5.23923">
        <ele>95</ele>
        <time>2022-03-21T13:34:28.000Z</time>
      </trkpt>
      <trkpt lat="43.45117" lon="5.23923">
        <ele>95</ele>
        <time>2022-03-21T13:34:29.000Z</time>
      </trkpt>
      <trkpt lat="43.45118" lon="5.23922">
        <ele>95</ele>
        <time>2022-03-21T13:34:30.000Z</time>
      </trkpt>
      <trkpt lat="43.4512" lon="5.23921">
        <ele>95</ele>
        <time>2022-03-21T13:34:31.000Z</time>
      </trkpt>
      <trkpt lat="43.45121" lon="5.2392">
        <ele>95</ele>
        <time>2022-03-21T13:34:32.000Z</time>
      </trkpt>
      <trkpt lat="43.45122" lon="5.23919">
        <ele>95</ele>
        <time>2022-03-21T13:34:33.000Z</time>
      </trkpt>
      <trkpt lat="43.45124" lon="5.23919">
        <ele>95</ele>
        <time>2022-03-21T13:34:34.000Z</time>
      </trkpt>
      <trkpt lat="43.45125" lon="5.23918">
        <ele>95</ele>
        <time>2022-03-21T13:34:35.000Z</time>
      </trkpt>
      <trkpt lat="43.45127" lon="5.23917">
        <ele>95</ele>
        <time>2022-03-21T13:34:36.000Z</time>
      </trkpt>
      <trkpt lat="43.45128" lon="5.23917">
        <ele>96</ele>
        <time>2022-03-21T13:34:37.000Z</time>
      </trkpt>
      <trkpt lat="43.45129" lon="5.23916">
        <ele>96</ele>
        <time>2022-03-21T13:34:38.000Z</time>
      </trkpt>
      <trkpt lat="43.45131" lon="5.23915">
        <ele>96</ele>
        <time>2022-03-21T13:34:39.000Z</time>
      </trkpt>
      <trkpt lat="43.45132" lon="5.23914">
        <ele>96</ele>
        <time>2022-03-21T13:34:40.000Z</time>
      </trkpt>
      <trkpt lat="43.45133" lon="5.23914">
        <ele>96</ele>
        <time>2022-03-21T13:34:41.000Z</time>
      </trkpt>
      <trkpt lat="43.45135" lon="5.23913">
        <ele>96</ele>
        <time>2022-03-21T13:34:42.000Z</time>
      </trkpt>
      <trkpt lat="43.45136" lon="5.23912">
        <ele>96</ele>
        <time>2022-03-21T13:34:43.000Z</time>
      </trkpt>
      <trkpt lat="43.45137" lon="5.23912">
        <ele>96</ele>
        <time>2022-03-21T13:34:44.000Z</time>
      </trkpt>
      <trkpt lat="43.45139" lon="5.23911">
        <ele>96</ele>
        <time>2022-03-21T13:34:45.000Z</time>
      </trkpt>
      <trkpt lat="43.4514" lon="5.23911">
        <ele>96</ele>
        <time>2022-03-21T13:34:46.000Z</time>
      </trkpt>
      <trkpt lat="43.45141" lon="5.2391">
        <ele>96</ele>
        <time>2022-03-21T13:34:47.000Z</time>
      </trkpt>
      <trkpt lat="43.45142" lon="5.2391">
        <ele>96</ele>
        <time>2022-03-21T13:34:48.000Z</time>
      </trkpt>
      <trkpt lat="43.45143" lon="5.23909">
        <ele>96</ele>
        <time>2022-03-21T13:34:49.000Z</time>
      </trkpt>
      <trkpt lat="43.45144" lon="5.23909">
        <ele>96</ele>
        <time>2022-03-21T13:34:50.000Z</time>
      </trkpt>
      <trkpt lat="43.45145" lon="5.23908">
        <ele>96</ele>
        <time>2022-03-21T13:34:51.000Z</time>
      </trkpt>
      <trkpt lat="43.45147" lon="5.23908">
        <ele>96</ele>
        <time>2022-03-21T13:34:52.000Z</time>
      </trkpt>
      <trkpt lat="43.45148" lon="5.23907">
        <ele>96</ele>
        <time>2022-03-21T13:34:53.000Z</time>
      </trkpt>
      <trkpt lat="43.45149" lon="5.23906">
        <ele>96</ele>
        <time>2022-03-21T13:34:54.000Z</time>
      </trkpt>
      <trkpt lat="43.4515" lon="5.23905">
        <ele>95</ele>
        <time>2022-03-21T13:34:55.000Z</time>
      </trkpt>
      <trkpt lat="43.45151" lon="5.23904">
        <ele>95</ele>
        <time>2022-03-21T13:34:56.000Z</time>
      </trkpt>
      <trkpt lat="43.45152" lon="5.23903">
        <ele>95</ele>
        <time>2022-03-21T13:34:57.000Z</time>
      </trkpt>
      <trkpt lat="43.45154" lon="5.23902">
        <ele>95</ele>
        <time>2022-03-21T13:34:58.000Z</time>
      </trkpt>
      <trkpt lat="43.45155" lon="5.23901">
        <ele>95</ele>
        <time>2022-03-21T13:34:59.000Z</time>
      </trkpt>
      <trkpt lat="43.45156" lon="5.239">
        <ele>96</ele>
        <time>2022-03-21T13:35:00.000Z</time>
      </trkpt>
      <trkpt lat="43.45158" lon="5.23899">
        <ele>96</ele>
        <time>2022-03-21T13:35:01.000Z</time>
      </trkpt>
      <trkpt lat="43.45159" lon="5.23898">
        <ele>96</ele>
        <time>2022-03-21T13:35:02.000Z</time>
      </trkpt>
      <trkpt lat="43.4516" lon="5.23897">
        <ele>96</ele>
        <time>2022-03-21T13:35:03.000Z</time>
      </trkpt>
      <trkpt lat="43.45162" lon="5.23896">
        <ele>96</ele>
        <time>2022-03-21T13:35:04.000Z</time>
      </trkpt>
      <trkpt lat="43.45163" lon="5.23895">
        <ele>96</ele>
        <time>2022-03-21T13:35:05.000Z</time>
      </trkpt>
      <trkpt lat="43.45164" lon="5.23894">
        <ele>96</ele>
        <time>2022-03-21T13:35:06.000Z</time>
      </trkpt>
      <trkpt lat="43.45166" lon="5.23893">
        <ele>96</ele>
        <time>2022-03-21T13:35:07.000Z</time>
      </trkpt>
      <trkpt lat="43.45167" lon="5.23892">
        <ele>96</ele>
        <time>2022-03-21T13:35:08.000Z</time>
      </trkpt>
      <trkpt lat="43.45169" lon="5.23892">
        <ele>96</ele>
        <time>2022-03-21T13:35:09.000Z</time>
      </trkpt>
      <trkpt lat="43.4517" lon="5.23891">
        <ele>96</ele>
        <time>2022-03-21T13:35:10.000Z</time>
      </trkpt>
      <trkpt lat="43.45172" lon="5.2389">
        <ele>96</ele>
        <time>2022-03-21T13:35:11.000Z</time>
      </trkpt>
      <trkpt lat="43.45173" lon="5.2389">
        <ele>96</ele>
        <time>2022-03-21T13:35:12.000Z</time>
      </trkpt>
      <trkpt lat="43.45175" lon="5.2389">
        <ele>96</ele>
        <time>2022-03-21T13:35:13.000Z</time>
      </trkpt>
      <trkpt lat="43.45176" lon="5.2389">
        <ele>96</ele>
        <time>2022-03-21T13:35:14.000Z</time>
      </trkpt>
      <trkpt lat="43.45178" lon="5.2389">
        <ele>96</ele>
        <time>2022-03-21T13:35:15.000Z</time>
      </trkpt>
      <trkpt lat="43.45179" lon="5.2389">
        <ele>96</ele>
        <time>2022-03-21T13:35:16.000Z</time>
      </trkpt>
      <trkpt lat="43.45181" lon="5.23889">
        <ele>96</ele>
        <time>2022-03-21T13:35:17.000Z</time>
      </trkpt>
      <trkpt lat="43.45183" lon="5.23889">
        <ele>96</ele>
        <time>2022-03-21T13:35:18.000Z</time>
      </trkpt>
      <trkpt lat="43.45184" lon="5.23889">
        <ele>96</ele>
        <time>2022-03-21T13:35:19.000Z</time>
      </trkpt>
      <trkpt lat="43.45186" lon="5.23889">
        <ele>96</ele>
        <time>2022-03-21T13:35:20.000Z</time>
      </trkpt>
      <trkpt lat="43.45187" lon="5.23889">
        <ele>96</ele>
        <time>2022-03-21T13:35:21.000Z</time>
      </trkpt>
      <trkpt lat="43.45189" lon="5.23889">
        <ele>95</ele>
        <time>2022-03-21T13:35:22.000Z</time>
      </trkpt>
      <trkpt lat="43.4519" lon="5.23889">
        <ele>95</ele>
        <time>2022-03-21T13:35:23.000Z</time>
      </trkpt>
      <trkpt lat="43.45192" lon="5.23889">
        <ele>95</ele>
        <time>2022-03-21T13:35:24.000Z</time>
      </trkpt>
      <trkpt lat="43.45193" lon="5.23889">
        <ele>95</ele>
        <time>2022-03-21T13:35:25.000Z</time>
      </trkpt>
      <trkpt lat="43.45195" lon="5.23889">
        <ele>95</ele>
        <time>2022-03-21T13:35:26.000Z</time>
      </trkpt>
      <trkpt lat="43.45196" lon="5.23889">
        <ele>95</ele>
        <time>2022-03-21T13:35:27.000Z</time>
      </trkpt>
      <trkpt lat="43.45198" lon="5.23889">
        <ele>95</ele>
        <time>2022-03-21T13:35:28.000Z</time>
      </trkpt>
      <trkpt lat="43.45199" lon="5.23889">
        <ele>95</ele>
        <time>2022-03-21T13:35:29.000Z</time>
      </trkpt>
      <trkpt lat="43.45201" lon="5.23888">
        <ele>95</ele>
        <time>2022-03-21T13:35:30.000Z</time>
      </trkpt>
      <trkpt lat="43.45202" lon="5.23888">
        <ele>95</ele>
        <time>2022-03-21T13:35:31.000Z</time>
      </trkpt>
      <trkpt lat="43.45203" lon="5.23888">
        <ele>95</ele>
        <time>2022-03-21T13:35:32.000Z</time>
      </trkpt>
      <trkpt lat="43.45205" lon="5.23887">
        <ele>95</ele>
        <time>2022-03-21T13:35:33.000Z</time>
      </trkpt>
      <trkpt lat="43.45206" lon="5.23887">
        <ele>95</ele>
        <time>2022-03-21T13:35:34.000Z</time>
      </trkpt>
      <trkpt lat="43.45208" lon="5.23886">
        <ele>95</ele>
        <time>2022-03-21T13:35:35.000Z</time>
      </trkpt>
      <trkpt lat="43.45209" lon="5.23885">
        <ele>95</ele>
        <time>2022-03-21T13:35:36.000Z</time>
      </trkpt>
      <trkpt lat="43.4521" lon="5.23884">
        <ele>95</ele>
        <time>2022-03-21T13:35:37.000Z</time>
      </trkpt>
      <trkpt lat="43.45212" lon="5.23883">
        <ele>95</ele>
        <time>2022-03-21T13:35:38.000Z</time>
      </trkpt>
      <trkpt lat="43.45213" lon="5.23882">
        <ele>95</ele>
        <time>2022-03-21T13:35:39.000Z</time>
      </trkpt>
      <trkpt lat="43.45214" lon="5.23881">
        <ele>95</ele>
        <time>2022-03-21T13:35:40.000Z</time>
      </trkpt>
      <trkpt lat="43.45215" lon="5.2388">
        <ele>95</ele>
        <time>2022-03-21T13:35:41.000Z</time>
      </trkpt>
      <trkpt lat="43.45216" lon="5.23879">
        <ele>94</ele>
        <time>2022-03-21T13:35:42.000Z</time>
      </trkpt>
      <trkpt lat="43.45217" lon="5.23877">
        <ele>94</ele>
        <time>2022-03-21T13:35:43.000Z</time>
      </trkpt>
      <trkpt lat="43.45219" lon="5.23876">
        <ele>94</ele>
        <time>2022-03-21T13:35:44.000Z</time>
      </trkpt>
      <trkpt lat="43.4522" lon="5.23876">
        <ele>94</ele>
        <time>2022-03-21T13:35:45.000Z</time>
      </trkpt>
      <trkpt lat="43.45222" lon="5.23875">
        <ele>94</ele>
        <time>2022-03-21T13:35:46.000Z</time>
      </trkpt>
      <trkpt lat="43.45223" lon="5.23874">
        <ele>94</ele>
        <time>2022-03-21T13:35:47.000Z</time>
      </trkpt>
      <trkpt lat="43.45225" lon="5.23874">
        <ele>94</ele>
        <time>2022-03-21T13:35:48.000Z</time>
      </trkpt>
      <trkpt lat="43.45226" lon="5.23873">
        <ele>95</ele>
        <time>2022-03-21T13:35:49.000Z</time>
      </trkpt>
      <trkpt lat="43.45228" lon="5.23873">
        <ele>95</ele>
        <time>2022-03-21T13:35:50.000Z</time>
      </trkpt>
      <trkpt lat="43.45229" lon="5.23873">
        <ele>95</ele>
        <time>2022-03-21T13:35:51.000Z</time>
      </trkpt>
      <trkpt lat="43.45231" lon="5.23874">
        <ele>95</ele>
        <time>2022-03-21T13:35:52.000Z</time>
      </trkpt>
      <trkpt lat="43.45232" lon="5.23874">
        <ele>95</ele>
        <time>2022-03-21T13:35:53.000Z</time>
      </trkpt>
      <trkpt lat="43.45234" lon="5.23874">
        <ele>95</ele>
        <time>2022-03-21T13:35:54.000Z</time>
      </trkpt>
      <trkpt lat="43.45235" lon="5.23874">
        <ele>95</ele>
        <time>2022-03-21T13:35:55.000Z</time>
      </trkpt>
      <trkpt lat="43.45237" lon="5.23874">
        <ele>95</ele>
        <time>2022-03-21T13:35:56.000Z</time>
      </trkpt>
      <trkpt lat="43.45238" lon="5.23874">
        <ele>95</ele>
        <time>2022-03-21T13:35:57.000Z</time>
      </trkpt>
      <trkpt lat="43.4524" lon="5.23873">
        <ele>95</ele>
        <time>2022-03-21T13:35:58.000Z</time>
      </trkpt>
      <trkpt lat="43.45241" lon="5.23873">
        <ele>95</ele>
        <time>2022-03-21T13:35:59.000Z</time>
      </trkpt>
      <trkpt lat="43.45242" lon="5.23873">
        <ele>95</ele>
        <time>2022-03-21T13:36:00.000Z</time>
      </trkpt>
      <trkpt lat="43.45243" lon="5.23873">
        <ele>95</ele>
        <time>2022-03-21T13:36:01.000Z</time>
      </trkpt>
      <trkpt lat="43.45245" lon="5.23872">
        <ele>95</ele>
        <time>2022-03-21T13:36:02.000Z</time>
      </trkpt>
      <trkpt lat="43.45246" lon="5.23872">
        <ele>95</ele>
        <time>2022-03-21T13:36:03.000Z</time>
      </trkpt>
      <trkpt lat="43.45248" lon="5.23871">
        <ele>95</ele>
        <time>2022-03-21T13:36:04.000Z</time>
      </trkpt>
      <trkpt lat="43.45249" lon="5.23871">
        <ele>95</ele>
        <time>2022-03-21T13:36:05.000Z</time>
      </trkpt>
      <trkpt lat="43.45251" lon="5.2387">
        <ele>95</ele>
        <time>2022-03-21T13:36:06.000Z</time>
      </trkpt>
      <trkpt lat="43.45252" lon="5.23869">
        <ele>95</ele>
        <time>2022-03-21T13:36:07.000Z</time>
      </trkpt>
      <trkpt lat="43.45253" lon="5.23868">
        <ele>95</ele>
        <time>2022-03-21T13:36:08.000Z</time>
      </trkpt>
      <trkpt lat="43.45255" lon="5.23867">
        <ele>95</ele>
        <time>2022-03-21T13:36:09.000Z</time>
      </trkpt>
      <trkpt lat="43.45256" lon="5.23865">
        <ele>95</ele>
        <time>2022-03-21T13:36:10.000Z</time>
      </trkpt>
      <trkpt lat="43.45257" lon="5.23864">
        <ele>95</ele>
        <time>2022-03-21T13:36:11.000Z</time>
      </trkpt>
      <trkpt lat="43.45258" lon="5.23863">
        <ele>95</ele>
        <time>2022-03-21T13:36:12.000Z</time>
      </trkpt>
      <trkpt lat="43.4526" lon="5.23861">
        <ele>95</ele>
        <time>2022-03-21T13:36:13.000Z</time>
      </trkpt>
      <trkpt lat="43.45261" lon="5.23861">
        <ele>95</ele>
        <time>2022-03-21T13:36:14.000Z</time>
      </trkpt>
      <trkpt lat="43.45262" lon="5.2386">
        <ele>95</ele>
        <time>2022-03-21T13:36:15.000Z</time>
      </trkpt>
      <trkpt lat="43.45264" lon="5.23859">
        <ele>95</ele>
        <time>2022-03-21T13:36:16.000Z</time>
      </trkpt>
      <trkpt lat="43.45265" lon="5.23859">
        <ele>95</ele>
        <time>2022-03-21T13:36:17.000Z</time>
      </trkpt>
      <trkpt lat="43.45267" lon="5.23858">
        <ele>95</ele>
        <time>2022-03-21T13:36:18.000Z</time>
      </trkpt>
      <trkpt lat="43.45268" lon="5.23858">
        <ele>95</ele>
        <time>2022-03-21T13:36:19.000Z</time>
      </trkpt>
      <trkpt lat="43.4527" lon="5.23858">
        <ele>95</ele>
        <time>2022-03-21T13:36:20.000Z</time>
      </trkpt>
      <trkpt lat="43.45271" lon="5.23858">
        <ele>95</ele>
        <time>2022-03-21T13:36:21.000Z</time>
      </trkpt>
      <trkpt lat="43.45273" lon="5.23858">
        <ele>95</ele>
        <time>2022-03-21T13:36:22.000Z</time>
      </trkpt>
      <trkpt lat="43.45274" lon="5.23858">
        <ele>95</ele>
        <time>2022-03-21T13:36:23.000Z</time>
      </trkpt>
      <trkpt lat="43.45276" lon="5.23859">
        <ele>95</ele>
        <time>2022-03-21T13:36:24.000Z</time>
      </trkpt>
      <trkpt lat="43.45277" lon="5.23859">
        <ele>94</ele>
        <time>2022-03-21T13:36:25.000Z</time>
      </trkpt>
      <trkpt lat="43.45279" lon="5.23859">
        <ele>94</ele>
        <time>2022-03-21T13:36:26.000Z</time>
      </trkpt>
      <trkpt lat="43.4528" lon="5.23859">
        <ele>94</ele>
        <time>2022-03-21T13:36:27.000Z</time>
      </trkpt>
      <trkpt lat="43.45282" lon="5.23859">
        <ele>94</ele>
        <time>2022-03-21T13:36:28.000Z</time>
      </trkpt>
      <trkpt lat="43.45283" lon="5.23859">
        <ele>94</ele>
        <time>2022-03-21T13:36:29.000Z</time>
      </trkpt>
      <trkpt lat="43.45285" lon="5.23858">
        <ele>94</ele>
        <time>2022-03-21T13:36:30.000Z</time>
      </trkpt>
      <trkpt lat="43.45286" lon="5.23858">
        <ele>94</ele>
        <time>2022-03-21T13:36:31.000Z</time>
      </trkpt>
      <trkpt lat="43.45288" lon="5.23858">
        <ele>94</ele>
        <time>2022-03-21T13:36:32.000Z</time>
      </trkpt>
      <trkpt lat="43.45289" lon="5.23857">
        <ele>94</ele>
        <time>2022-03-21T13:36:33.000Z</time>
      </trkpt>
      <trkpt lat="43.45291" lon="5.23857">
        <ele>95</ele>
        <time>2022-03-21T13:36:34.000Z</time>
      </trkpt>
      <trkpt lat="43.45292" lon="5.23857">
        <ele>95</ele>
        <time>2022-03-21T13:36:35.000Z</time>
      </trkpt>
      <trkpt lat="43.45294" lon="5.23856">
        <ele>95</ele>
        <time>2022-03-21T13:36:36.000Z</time>
      </trkpt>
      <trkpt lat="43.45295" lon="5.23856">
        <ele>95</ele>
        <time>2022-03-21T13:36:37.000Z</time>
      </trkpt>
      <trkpt lat="43.45297" lon="5.23855">
        <ele>95</ele>
        <time>2022-03-21T13:36:38.000Z</time>
      </trkpt>
      <trkpt lat="43.45298" lon="5.23855">
        <ele>95</ele>
        <time>2022-03-21T13:36:39.000Z</time>
      </trkpt>
      <trkpt lat="43.453" lon="5.23854">
        <ele>95</ele>
        <time>2022-03-21T13:36:40.000Z</time>
      </trkpt>
      <trkpt lat="43.45301" lon="5.23854">
        <ele>95</ele>
        <time>2022-03-21T13:36:41.000Z</time>
      </trkpt>
      <trkpt lat="43.45303" lon="5.23853">
        <ele>95</ele>
        <time>2022-03-21T13:36:42.000Z</time>
      </trkpt>
      <trkpt lat="43.45304" lon="5.23852">
        <ele>95</ele>
        <time>2022-03-21T13:36:43.000Z</time>
      </trkpt>
      <trkpt lat="43.45305" lon="5.23851">
        <ele>95</ele>
        <time>2022-03-21T13:36:44.000Z</time>
      </trkpt>
      <trkpt lat="43.45307" lon="5.23851">
        <ele>95</ele>
        <time>2022-03-21T13:36:45.000Z</time>
      </trkpt>
      <trkpt lat="43.45308" lon="5.2385">
        <ele>95</ele>
        <time>2022-03-21T13:36:46.000Z</time>
      </trkpt>
      <trkpt lat="43.4531" lon="5.23849">
        <ele>95</ele>
        <time>2022-03-21T13:36:47.000Z</time>
      </trkpt>
      <trkpt lat="43.45311" lon="5.23848">
        <ele>95</ele>
        <time>2022-03-21T13:36:48.000Z</time>
      </trkpt>
      <trkpt lat="43.45313" lon="5.23847">
        <ele>95</ele>
        <time>2022-03-21T13:36:49.000Z</time>
      </trkpt>
      <trkpt lat="43.45314" lon="5.23847">
        <ele>95</ele>
        <time>2022-03-21T13:36:50.000Z</time>
      </trkpt>
      <trkpt lat="43.45316" lon="5.23846">
        <ele>95</ele>
        <time>2022-03-21T13:36:51.000Z</time>
      </trkpt>
      <trkpt lat="43.45317" lon="5.23845">
        <ele>95</ele>
        <time>2022-03-21T13:36:52.000Z</time>
      </trkpt>
      <trkpt lat="43.45318" lon="5.23844">
        <ele>95</ele>
        <time>2022-03-21T13:36:53.000Z</time>
      </trkpt>
      <trkpt lat="43.4532" lon="5.23843">
        <ele>95</ele>
        <time>2022-03-21T13:36:54.000Z</time>
      </trkpt>
      <trkpt lat="43.45321" lon="5.23843">
        <ele>95</ele>
        <time>2022-03-21T13:36:55.000Z</time>
      </trkpt>
      <trkpt lat="43.45323" lon="5.23842">
        <ele>95</ele>
        <time>2022-03-21T13:36:56.000Z</time>
      </trkpt>
      <trkpt lat="43.45324" lon="5.23841">
        <ele>95</ele>
        <time>2022-03-21T13:36:57.000Z</time>
      </trkpt>
      <trkpt lat="43.45326" lon="5.2384">
        <ele>95</ele>
        <time>2022-03-21T13:36:58.000Z</time>
      </trkpt>
      <trkpt lat="43.45327" lon="5.2384">
        <ele>95</ele>
        <time>2022-03-21T13:36:59.000Z</time>
      </trkpt>
      <trkpt lat="43.45329" lon="5.23839">
        <ele>95</ele>
        <time>2022-03-21T13:37:00.000Z</time>
      </trkpt>
      <trkpt lat="43.4533" lon="5.23838">
        <ele>95</ele>
        <time>2022-03-21T13:37:01.000Z</time>
      </trkpt>
      <trkpt lat="43.45332" lon="5.23837">
        <ele>95</ele>
        <time>2022-03-21T13:37:02.000Z</time>
      </trkpt>
      <trkpt lat="43.45333" lon="5.23836">
        <ele>95</ele>
        <time>2022-03-21T13:37:03.000Z</time>
      </trkpt>
      <trkpt lat="43.45335" lon="5.23835">
        <ele>95</ele>
        <time>2022-03-21T13:37:04.000Z</time>
      </trkpt>
      <trkpt lat="43.45336" lon="5.23835">
        <ele>95</ele>
        <time>2022-03-21T13:37:05.000Z</time>
      </trkpt>
      <trkpt lat="43.45338" lon="5.23834">
        <ele>95</ele>
        <time>2022-03-21T13:37:06.000Z</time>
      </trkpt>
      <trkpt lat="43.45339" lon="5.23834">
        <ele>95</ele>
        <time>2022-03-21T13:37:07.000Z</time>
      </trkpt>
      <trkpt lat="43.4534" lon="5.23833">
        <ele>95</ele>
        <time>2022-03-21T13:37:08.000Z</time>
      </trkpt>
      <trkpt lat="43.45342" lon="5.23832">
        <ele>95</ele>
        <time>2022-03-21T13:37:09.000Z</time>
      </trkpt>
      <trkpt lat="43.45343" lon="5.23832">
        <ele>95</ele>
        <time>2022-03-21T13:37:10.000Z</time>
      </trkpt>
      <trkpt lat="43.45344" lon="5.23831">
        <ele>95</ele>
        <time>2022-03-21T13:37:11.000Z</time>
      </trkpt>
      <trkpt lat="43.45346" lon="5.2383">
        <ele>95</ele>
        <time>2022-03-21T13:37:12.000Z</time>
      </trkpt>
      <trkpt lat="43.45348" lon="5.23829">
        <ele>95</ele>
        <time>2022-03-21T13:37:13.000Z</time>
      </trkpt>
      <trkpt lat="43.45349" lon="5.23828">
        <ele>95</ele>
        <time>2022-03-21T13:37:14.000Z</time>
      </trkpt>
      <trkpt lat="43.4535" lon="5.23828">
        <ele>95</ele>
        <time>2022-03-21T13:37:15.000Z</time>
      </trkpt>
      <trkpt lat="43.45352" lon="5.23827">
        <ele>95</ele>
        <time>2022-03-21T13:37:16.000Z</time>
      </trkpt>
      <trkpt lat="43.45353" lon="5.23827">
        <ele>95</ele>
        <time>2022-03-21T13:37:17.000Z</time>
      </trkpt>
      <trkpt lat="43.45354" lon="5.23826">
        <ele>95</ele>
        <time>2022-03-21T13:37:18.000Z</time>
      </trkpt>
      <trkpt lat="43.45355" lon="5.23825">
        <ele>95</ele>
        <time>2022-03-21T13:37:19.000Z</time>
      </trkpt>
      <trkpt lat="43.45357" lon="5.23825">
        <ele>95</ele>
        <time>2022-03-21T13:37:20.000Z</time>
      </trkpt>
      <trkpt lat="43.45358" lon="5.23825">
        <ele>95</ele>
        <time>2022-03-21T13:37:21.000Z</time>
      </trkpt>
      <trkpt lat="43.4536" lon="5.23824">
        <ele>95</ele>
        <time>2022-03-21T13:37:22.000Z</time>
      </trkpt>
      <trkpt lat="43.45361" lon="5.23823">
        <ele>95</ele>
        <time>2022-03-21T13:37:23.000Z</time>
      </trkpt>
      <trkpt lat="43.45363" lon="5.23823">
        <ele>95</ele>
        <time>2022-03-21T13:37:24.000Z</time>
      </trkpt>
      <trkpt lat="43.45364" lon="5.23822">
        <ele>95</ele>
        <time>2022-03-21T13:37:25.000Z</time>
      </trkpt>
      <trkpt lat="43.45365" lon="5.23822">
        <ele>95</ele>
        <time>2022-03-21T13:37:26.000Z</time>
      </trkpt>
      <trkpt lat="43.45367" lon="5.23822">
        <ele>95</ele>
        <time>2022-03-21T13:37:27.000Z</time>
      </trkpt>
      <trkpt lat="43.45368" lon="5.23821">
        <ele>95</ele>
        <time>2022-03-21T13:37:28.000Z</time>
      </trkpt>
      <trkpt lat="43.4537" lon="5.23821">
        <ele>95</ele>
        <time>2022-03-21T13:37:29.000Z</time>
      </trkpt>
      <trkpt lat="43.45371" lon="5.2382">
        <ele>95</ele>
        <time>2022-03-21T13:37:30.000Z</time>
      </trkpt>
      <trkpt lat="43.45372" lon="5.2382">
        <ele>95</ele>
        <time>2022-03-21T13:37:31.000Z</time>
      </trkpt>
      <trkpt lat="43.45374" lon="5.23819">
        <ele>95</ele>
        <time>2022-03-21T13:37:32.000Z</time>
      </trkpt>
      <trkpt lat="43.45376" lon="5.23819">
        <ele>95</ele>
        <time>2022-03-21T13:37:33.000Z</time>
      </trkpt>
      <trkpt lat="43.45377" lon="5.23819">
        <ele>95</ele>
        <time>2022-03-21T13:37:34.000Z</time>
      </trkpt>
      <trkpt lat="43.45379" lon="5.23819">
        <ele>96</ele>
        <time>2022-03-21T13:37:35.000Z</time>
      </trkpt>
      <trkpt lat="43.4538" lon="5.2382">
        <ele>96</ele>
        <time>2022-03-21T13:37:36.000Z</time>
      </trkpt>
      <trkpt lat="43.45381" lon="5.2382">
        <ele>96</ele>
        <time>2022-03-21T13:37:37.000Z</time>
      </trkpt>
      <trkpt lat="43.45383" lon="5.23819">
        <ele>96</ele>
        <time>2022-03-21T13:37:38.000Z</time>
      </trkpt>
      <trkpt lat="43.45384" lon="5.23819">
        <ele>96</ele>
        <time>2022-03-21T13:37:39.000Z</time>
      </trkpt>
      <trkpt lat="43.45385" lon="5.23818">
        <ele>96</ele>
        <time>2022-03-21T13:37:40.000Z</time>
      </trkpt>
      <trkpt lat="43.45387" lon="5.23817">
        <ele>96</ele>
        <time>2022-03-21T13:37:41.000Z</time>
      </trkpt>
      <trkpt lat="43.45388" lon="5.23817">
        <ele>96</ele>
        <time>2022-03-21T13:37:42.000Z</time>
      </trkpt>
      <trkpt lat="43.4539" lon="5.23817">
        <ele>96</ele>
        <time>2022-03-21T13:37:43.000Z</time>
      </trkpt>
      <trkpt lat="43.45391" lon="5.23817">
        <ele>96</ele>
        <time>2022-03-21T13:37:44.000Z</time>
      </trkpt>
      <trkpt lat="43.45393" lon="5.23817">
        <ele>97</ele>
        <time>2022-03-21T13:37:45.000Z</time>
      </trkpt>
      <trkpt lat="43.45394" lon="5.23818">
        <ele>97</ele>
        <time>2022-03-21T13:37:46.000Z</time>
      </trkpt>
      <trkpt lat="43.45396" lon="5.23818">
        <ele>97</ele>
        <time>2022-03-21T13:37:47.000Z</time>
      </trkpt>
      <trkpt lat="43.45397" lon="5.23818">
        <ele>97</ele>
        <time>2022-03-21T13:37:48.000Z</time>
      </trkpt>
      <trkpt lat="43.45399" lon="5.23818">
        <ele>97</ele>
        <time>2022-03-21T13:37:49.000Z</time>
      </trkpt>
      <trkpt lat="43.454" lon="5.23818">
        <ele>97</ele>
        <time>2022-03-21T13:37:50.000Z</time>
      </trkpt>
      <trkpt lat="43.45402" lon="5.23818">
        <ele>97</ele>
        <time>2022-03-21T13:37:51.000Z</time>
      </trkpt>
      <trkpt lat="43.45403" lon="5.23817">
        <ele>97</ele>
        <time>2022-03-21T13:37:52.000Z</time>
      </trkpt>
      <trkpt lat="43.45404" lon="5.23816">
        <ele>98</ele>
        <time>2022-03-21T13:37:53.000Z</time>
      </trkpt>
      <trkpt lat="43.45406" lon="5.23815">
        <ele>98</ele>
        <time>2022-03-21T13:37:54.000Z</time>
      </trkpt>
      <trkpt lat="43.45408" lon="5.23814">
        <ele>98</ele>
        <time>2022-03-21T13:37:55.000Z</time>
      </trkpt>
      <trkpt lat="43.45409" lon="5.23813">
        <ele>98</ele>
        <time>2022-03-21T13:37:56.000Z</time>
      </trkpt>
      <trkpt lat="43.4541" lon="5.23813">
        <ele>98</ele>
        <time>2022-03-21T13:37:57.000Z</time>
      </trkpt>
      <trkpt lat="43.45412" lon="5.23813">
        <ele>98</ele>
        <time>2022-03-21T13:37:58.000Z</time>
      </trkpt>
      <trkpt lat="43.45413" lon="5.23813">
        <ele>98</ele>
        <time>2022-03-21T13:37:59.000Z</time>
      </trkpt>
      <trkpt lat="43.45415" lon="5.23813">
        <ele>97</ele>
        <time>2022-03-21T13:38:00.000Z</time>
      </trkpt>
      <trkpt lat="43.45416" lon="5.23813">
        <ele>97</ele>
        <time>2022-03-21T13:38:01.000Z</time>
      </trkpt>
      <trkpt lat="43.45418" lon="5.23814">
        <ele>97</ele>
        <time>2022-03-21T13:38:02.000Z</time>
      </trkpt>
      <trkpt lat="43.45419" lon="5.23815">
        <ele>97</ele>
        <time>2022-03-21T13:38:03.000Z</time>
      </trkpt>
      <trkpt lat="43.45421" lon="5.23816">
        <ele>97</ele>
        <time>2022-03-21T13:38:04.000Z</time>
      </trkpt>
      <trkpt lat="43.45422" lon="5.23816">
        <ele>97</ele>
        <time>2022-03-21T13:38:05.000Z</time>
      </trkpt>
      <trkpt lat="43.45424" lon="5.23817">
        <ele>97</ele>
        <time>2022-03-21T13:38:06.000Z</time>
      </trkpt>
      <trkpt lat="43.45425" lon="5.23817">
        <ele>97</ele>
        <time>2022-03-21T13:38:07.000Z</time>
      </trkpt>
      <trkpt lat="43.45427" lon="5.23817">
        <ele>97</ele>
        <time>2022-03-21T13:38:08.000Z</time>
      </trkpt>
      <trkpt lat="43.45428" lon="5.23817">
        <ele>96</ele>
        <time>2022-03-21T13:38:09.000Z</time>
      </trkpt>
      <trkpt lat="43.4543" lon="5.23816">
        <ele>96</ele>
        <time>2022-03-21T13:38:10.000Z</time>
      </trkpt>
      <trkpt lat="43.45431" lon="5.23815">
        <ele>96</ele>
        <time>2022-03-21T13:38:11.000Z</time>
      </trkpt>
      <trkpt lat="43.45433" lon="5.23814">
        <ele>96</ele>
        <time>2022-03-21T13:38:12.000Z</time>
      </trkpt>
      <trkpt lat="43.45434" lon="5.23813">
        <ele>96</ele>
        <time>2022-03-21T13:38:13.000Z</time>
      </trkpt>
      <trkpt lat="43.45435" lon="5.23812">
        <ele>96</ele>
        <time>2022-03-21T13:38:14.000Z</time>
      </trkpt>
      <trkpt lat="43.45436" lon="5.2381">
        <ele>96</ele>
        <time>2022-03-21T13:38:15.000Z</time>
      </trkpt>
      <trkpt lat="43.45437" lon="5.23809">
        <ele>96</ele>
        <time>2022-03-21T13:38:16.000Z</time>
      </trkpt>
      <trkpt lat="43.45439" lon="5.23808">
        <ele>96</ele>
        <time>2022-03-21T13:38:17.000Z</time>
      </trkpt>
      <trkpt lat="43.4544" lon="5.23807">
        <ele>96</ele>
        <time>2022-03-21T13:38:18.000Z</time>
      </trkpt>
      <trkpt lat="43.45441" lon="5.23805">
        <ele>96</ele>
        <time>2022-03-21T13:38:19.000Z</time>
      </trkpt>
      <trkpt lat="43.45442" lon="5.23804">
        <ele>96</ele>
        <time>2022-03-21T13:38:20.000Z</time>
      </trkpt>
      <trkpt lat="43.45444" lon="5.23804">
        <ele>96</ele>
        <time>2022-03-21T13:38:21.000Z</time>
      </trkpt>
      <trkpt lat="43.45445" lon="5.23804">
        <ele>96</ele>
        <time>2022-03-21T13:38:22.000Z</time>
      </trkpt>
      <trkpt lat="43.45447" lon="5.23803">
        <ele>96</ele>
        <time>2022-03-21T13:38:23.000Z</time>
      </trkpt>
      <trkpt lat="43.45448" lon="5.23802">
        <ele>96</ele>
        <time>2022-03-21T13:38:24.000Z</time>
      </trkpt>
      <trkpt lat="43.4545" lon="5.23802">
        <ele>96</ele>
        <time>2022-03-21T13:38:25.000Z</time>
      </trkpt>
      <trkpt lat="43.45451" lon="5.23801">
        <ele>96</ele>
        <time>2022-03-21T13:38:26.000Z</time>
      </trkpt>
      <trkpt lat="43.45453" lon="5.23801">
        <ele>96</ele>
        <time>2022-03-21T13:38:27.000Z</time>
      </trkpt>
      <trkpt lat="43.45454" lon="5.238">
        <ele>96</ele>
        <time>2022-03-21T13:38:28.000Z</time>
      </trkpt>
      <trkpt lat="43.45456" lon="5.238">
        <ele>96</ele>
        <time>2022-03-21T13:38:29.000Z</time>
      </trkpt>
      <trkpt lat="43.45457" lon="5.238">
        <ele>96</ele>
        <time>2022-03-21T13:38:30.000Z</time>
      </trkpt>
      <trkpt lat="43.45459" lon="5.23799">
        <ele>96</ele>
        <time>2022-03-21T13:38:31.000Z</time>
      </trkpt>
      <trkpt lat="43.4546" lon="5.23799">
        <ele>96</ele>
        <time>2022-03-21T13:38:32.000Z</time>
      </trkpt>
      <trkpt lat="43.45461" lon="5.23798">
        <ele>96</ele>
        <time>2022-03-21T13:38:33.000Z</time>
      </trkpt>
      <trkpt lat="43.45463" lon="5.23798">
        <ele>96</ele>
        <time>2022-03-21T13:38:34.000Z</time>
      </trkpt>
      <trkpt lat="43.45464" lon="5.23797">
        <ele>96</ele>
        <time>2022-03-21T13:38:35.000Z</time>
      </trkpt>
      <trkpt lat="43.45465" lon="5.23796">
        <ele>96</ele>
        <time>2022-03-21T13:38:36.000Z</time>
      </trkpt>
      <trkpt lat="43.45467" lon="5.23796">
        <ele>96</ele>
        <time>2022-03-21T13:38:37.000Z</time>
      </trkpt>
      <trkpt lat="43.45468" lon="5.23796">
        <ele>96</ele>
        <time>2022-03-21T13:38:38.000Z</time>
      </trkpt>
      <trkpt lat="43.4547" lon="5.23795">
        <ele>96</ele>
        <time>2022-03-21T13:38:39.000Z</time>
      </trkpt>
      <trkpt lat="43.45471" lon="5.23795">
        <ele>96</ele>
        <time>2022-03-21T13:38:40.000Z</time>
      </trkpt>
      <trkpt lat="43.45472" lon="5.23794">
        <ele>96</ele>
        <time>2022-03-21T13:38:41.000Z</time>
      </trkpt>
      <trkpt lat="43.45474" lon="5.23794">
        <ele>96</ele>
        <time>2022-03-21T13:38:42.000Z</time>
      </trkpt>
      <trkpt lat="43.45475" lon="5.23793">
        <ele>96</ele>
        <time>2022-03-21T13:38:43.000Z</time>
      </trkpt>
      <trkpt lat="43.45477" lon="5.23793">
        <ele>96</ele>
        <time>2022-03-21T13:38:44.000Z</time>
      </trkpt>
      <trkpt lat="43.45478" lon="5.23793">
        <ele>97</ele>
        <time>2022-03-21T13:38:45.000Z</time>
      </trkpt>
      <trkpt lat="43.4548" lon="5.23792">
        <ele>97</ele>
        <time>2022-03-21T13:38:46.000Z</time>
      </trkpt>
      <trkpt lat="43.45481" lon="5.23792">
        <ele>97</ele>
        <time>2022-03-21T13:38:47.000Z</time>
      </trkpt>
      <trkpt lat="43.45483" lon="5.23791">
        <ele>97</ele>
        <time>2022-03-21T13:38:48.000Z</time>
      </trkpt>
      <trkpt lat="43.45484" lon="5.2379">
        <ele>97</ele>
        <time>2022-03-21T13:38:49.000Z</time>
      </trkpt>
      <trkpt lat="43.45485" lon="5.2379">
        <ele>97</ele>
        <time>2022-03-21T13:38:50.000Z</time>
      </trkpt>
      <trkpt lat="43.45487" lon="5.23789">
        <ele>96</ele>
        <time>2022-03-21T13:38:51.000Z</time>
      </trkpt>
      <trkpt lat="43.45488" lon="5.23789">
        <ele>97</ele>
        <time>2022-03-21T13:38:52.000Z</time>
      </trkpt>
      <trkpt lat="43.4549" lon="5.23788">
        <ele>97</ele>
        <time>2022-03-21T13:38:53.000Z</time>
      </trkpt>
      <trkpt lat="43.45491" lon="5.23788">
        <ele>97</ele>
        <time>2022-03-21T13:38:54.000Z</time>
      </trkpt>
      <trkpt lat="43.45493" lon="5.23788">
        <ele>97</ele>
        <time>2022-03-21T13:38:55.000Z</time>
      </trkpt>
      <trkpt lat="43.45494" lon="5.23787">
        <ele>97</ele>
        <time>2022-03-21T13:38:56.000Z</time>
      </trkpt>
      <trkpt lat="43.45496" lon="5.23787">
        <ele>97</ele>
        <time>2022-03-21T13:38:57.000Z</time>
      </trkpt>
      <trkpt lat="43.45498" lon="5.23786">
        <ele>97</ele>
        <time>2022-03-21T13:38:58.000Z</time>
      </trkpt>
      <trkpt lat="43.45499" lon="5.23786">
        <ele>97</ele>
        <time>2022-03-21T13:38:59.000Z</time>
      </trkpt>
      <trkpt lat="43.45501" lon="5.23785">
        <ele>97</ele>
        <time>2022-03-21T13:39:00.000Z</time>
      </trkpt>
      <trkpt lat="43.45502" lon="5.23785">
        <ele>97</ele>
        <time>2022-03-21T13:39:01.000Z</time>
      </trkpt>
      <trkpt lat="43.45503" lon="5.23785">
        <ele>97</ele>
        <time>2022-03-21T13:39:02.000Z</time>
      </trkpt>
      <trkpt lat="43.45505" lon="5.23784">
        <ele>97</ele>
        <time>2022-03-21T13:39:03.000Z</time>
      </trkpt>
      <trkpt lat="43.45506" lon="5.23784">
        <ele>97</ele>
        <time>2022-03-21T13:39:04.000Z</time>
      </trkpt>
      <trkpt lat="43.45508" lon="5.23783">
        <ele>97</ele>
        <time>2022-03-21T13:39:05.000Z</time>
      </trkpt>
      <trkpt lat="43.45509" lon="5.23782">
        <ele>97</ele>
        <time>2022-03-21T13:39:06.000Z</time>
      </trkpt>
      <trkpt lat="43.4551" lon="5.23782">
        <ele>97</ele>
        <time>2022-03-21T13:39:07.000Z</time>
      </trkpt>
      <trkpt lat="43.45512" lon="5.23781">
        <ele>97</ele>
        <time>2022-03-21T13:39:08.000Z</time>
      </trkpt>
      <trkpt lat="43.45513" lon="5.23781">
        <ele>97</ele>
        <time>2022-03-21T13:39:09.000Z</time>
      </trkpt>
      <trkpt lat="43.45515" lon="5.2378">
        <ele>97</ele>
        <time>2022-03-21T13:39:10.000Z</time>
      </trkpt>
      <trkpt lat="43.45516" lon="5.2378">
        <ele>97</ele>
        <time>2022-03-21T13:39:11.000Z</time>
      </trkpt>
      <trkpt lat="43.45518" lon="5.2378">
        <ele>97</ele>
        <time>2022-03-21T13:39:12.000Z</time>
      </trkpt>
      <trkpt lat="43.45519" lon="5.23779">
        <ele>97</ele>
        <time>2022-03-21T13:39:13.000Z</time>
      </trkpt>
      <trkpt lat="43.45521" lon="5.23779">
        <ele>97</ele>
        <time>2022-03-21T13:39:14.000Z</time>
      </trkpt>
      <trkpt lat="43.45522" lon="5.23778">
        <ele>97</ele>
        <time>2022-03-21T13:39:15.000Z</time>
      </trkpt>
      <trkpt lat="43.45524" lon="5.23778">
        <ele>97</ele>
        <time>2022-03-21T13:39:16.000Z</time>
      </trkpt>
      <trkpt lat="43.45525" lon="5.23777">
        <ele>97</ele>
        <time>2022-03-21T13:39:17.000Z</time>
      </trkpt>
      <trkpt lat="43.45527" lon="5.23777">
        <ele>97</ele>
        <time>2022-03-21T13:39:18.000Z</time>
      </trkpt>
      <trkpt lat="43.45528" lon="5.23776">
        <ele>98</ele>
        <time>2022-03-21T13:39:19.000Z</time>
      </trkpt>
      <trkpt lat="43.45529" lon="5.23776">
        <ele>98</ele>
        <time>2022-03-21T13:39:20.000Z</time>
      </trkpt>
      <trkpt lat="43.45531" lon="5.23776">
        <ele>98</ele>
        <time>2022-03-21T13:39:21.000Z</time>
      </trkpt>
      <trkpt lat="43.45533" lon="5.23775">
        <ele>98</ele>
        <time>2022-03-21T13:39:22.000Z</time>
      </trkpt>
      <trkpt lat="43.45534" lon="5.23774">
        <ele>98</ele>
        <time>2022-03-21T13:39:23.000Z</time>
      </trkpt>
      <trkpt lat="43.45535" lon="5.23774">
        <ele>98</ele>
        <time>2022-03-21T13:39:24.000Z</time>
      </trkpt>
      <trkpt lat="43.45537" lon="5.23773">
        <ele>98</ele>
        <time>2022-03-21T13:39:25.000Z</time>
      </trkpt>
      <trkpt lat="43.45539" lon="5.23773">
        <ele>98</ele>
        <time>2022-03-21T13:39:26.000Z</time>
      </trkpt>
      <trkpt lat="43.4554" lon="5.23772">
        <ele>98</ele>
        <time>2022-03-21T13:39:27.000Z</time>
      </trkpt>
      <trkpt lat="43.45541" lon="5.23772">
        <ele>98</ele>
        <time>2022-03-21T13:39:28.000Z</time>
      </trkpt>
      <trkpt lat="43.45543" lon="5.23771">
        <ele>98</ele>
        <time>2022-03-21T13:39:29.000Z</time>
      </trkpt>
      <trkpt lat="43.45544" lon="5.2377">
        <ele>98</ele>
        <time>2022-03-21T13:39:30.000Z</time>
      </trkpt>
      <trkpt lat="43.45546" lon="5.2377">
        <ele>98</ele>
        <time>2022-03-21T13:39:31.000Z</time>
      </trkpt>
      <trkpt lat="43.45547" lon="5.23769">
        <ele>98</ele>
        <time>2022-03-21T13:39:32.000Z</time>
      </trkpt>
      <trkpt lat="43.45549" lon="5.23769">
        <ele>98</ele>
        <time>2022-03-21T13:39:33.000Z</time>
      </trkpt>
      <trkpt lat="43.4555" lon="5.23768">
        <ele>98</ele>
        <time>2022-03-21T13:39:34.000Z</time>
      </trkpt>
      <trkpt lat="43.45551" lon="5.23768">
        <ele>98</ele>
        <time>2022-03-21T13:39:35.000Z</time>
      </trkpt>
      <trkpt lat="43.45553" lon="5.23767">
        <ele>98</ele>
        <time>2022-03-21T13:39:36.000Z</time>
      </trkpt>
      <trkpt lat="43.45554" lon="5.23767">
        <ele>98</ele>
        <time>2022-03-21T13:39:37.000Z</time>
      </trkpt>
      <trkpt lat="43.45556" lon="5.23766">
        <ele>98</ele>
        <time>2022-03-21T13:39:38.000Z</time>
      </trkpt>
      <trkpt lat="43.45557" lon="5.23766">
        <ele>98</ele>
        <time>2022-03-21T13:39:39.000Z</time>
      </trkpt>
      <trkpt lat="43.45559" lon="5.23765">
        <ele>98</ele>
        <time>2022-03-21T13:39:40.000Z</time>
      </trkpt>
      <trkpt lat="43.4556" lon="5.23765">
        <ele>98</ele>
        <time>2022-03-21T13:39:41.000Z</time>
      </trkpt>
      <trkpt lat="43.45562" lon="5.23764">
        <ele>98</ele>
        <time>2022-03-21T13:39:42.000Z</time>
      </trkpt>
      <trkpt lat="43.45563" lon="5.23764">
        <ele>98</ele>
        <time>2022-03-21T13:39:43.000Z</time>
      </trkpt>
      <trkpt lat="43.45564" lon="5.23765">
        <ele>98</ele>
        <time>2022-03-21T13:39:44.000Z</time>
      </trkpt>
      <trkpt lat="43.45566" lon="5.23765">
        <ele>98</ele>
        <time>2022-03-21T13:39:45.000Z</time>
      </trkpt>
      <trkpt lat="43.45567" lon="5.23765">
        <ele>98</ele>
        <time>2022-03-21T13:39:46.000Z</time>
      </trkpt>
      <trkpt lat="43.45568" lon="5.23766">
        <ele>98</ele>
        <time>2022-03-21T13:39:47.000Z</time>
      </trkpt>
      <trkpt lat="43.4557" lon="5.23766">
        <ele>98</ele>
        <time>2022-03-21T13:39:48.000Z</time>
      </trkpt>
      <trkpt lat="43.45571" lon="5.23766">
        <ele>98</ele>
        <time>2022-03-21T13:39:49.000Z</time>
      </trkpt>
      <trkpt lat="43.45572" lon="5.23767">
        <ele>98</ele>
        <time>2022-03-21T13:39:50.000Z</time>
      </trkpt>
      <trkpt lat="43.45574" lon="5.23767">
        <ele>98</ele>
        <time>2022-03-21T13:39:51.000Z</time>
      </trkpt>
      <trkpt lat="43.45575" lon="5.23767">
        <ele>98</ele>
        <time>2022-03-21T13:39:52.000Z</time>
      </trkpt>
      <trkpt lat="43.45577" lon="5.23768">
        <ele>98</ele>
        <time>2022-03-21T13:39:53.000Z</time>
      </trkpt>
      <trkpt lat="43.45578" lon="5.23767">
        <ele>98</ele>
        <time>2022-03-21T13:39:54.000Z</time>
      </trkpt>
      <trkpt lat="43.4558" lon="5.23767">
        <ele>98</ele>
        <time>2022-03-21T13:39:55.000Z</time>
      </trkpt>
      <trkpt lat="43.45581" lon="5.23767">
        <ele>98</ele>
        <time>2022-03-21T13:39:56.000Z</time>
      </trkpt>
      <trkpt lat="43.45583" lon="5.23766">
        <ele>98</ele>
        <time>2022-03-21T13:39:57.000Z</time>
      </trkpt>
      <trkpt lat="43.45584" lon="5.23766">
        <ele>98</ele>
        <time>2022-03-21T13:39:58.000Z</time>
      </trkpt>
      <trkpt lat="43.45585" lon="5.23765">
        <ele>99</ele>
        <time>2022-03-21T13:39:59.000Z</time>
      </trkpt>
      <trkpt lat="43.45587" lon="5.23765">
        <ele>99</ele>
        <time>2022-03-21T13:40:00.000Z</time>
      </trkpt>
      <trkpt lat="43.45588" lon="5.23764">
        <ele>99</ele>
        <time>2022-03-21T13:40:01.000Z</time>
      </trkpt>
      <trkpt lat="43.4559" lon="5.23763">
        <ele>99</ele>
        <time>2022-03-21T13:40:02.000Z</time>
      </trkpt>
      <trkpt lat="43.45591" lon="5.23763">
        <ele>99</ele>
        <time>2022-03-21T13:40:03.000Z</time>
      </trkpt>
      <trkpt lat="43.45593" lon="5.23762">
        <ele>99</ele>
        <time>2022-03-21T13:40:04.000Z</time>
      </trkpt>
      <trkpt lat="43.45594" lon="5.23762">
        <ele>99</ele>
        <time>2022-03-21T13:40:05.000Z</time>
      </trkpt>
      <trkpt lat="43.45596" lon="5.23761">
        <ele>99</ele>
        <time>2022-03-21T13:40:06.000Z</time>
      </trkpt>
      <trkpt lat="43.45597" lon="5.23761">
        <ele>99</ele>
        <time>2022-03-21T13:40:07.000Z</time>
      </trkpt>
      <trkpt lat="43.45598" lon="5.23761">
        <ele>99</ele>
        <time>2022-03-21T13:40:08.000Z</time>
      </trkpt>
      <trkpt lat="43.456" lon="5.2376">
        <ele>99</ele>
        <time>2022-03-21T13:40:09.000Z</time>
      </trkpt>
      <trkpt lat="43.45602" lon="5.2376">
        <ele>100</ele>
        <time>2022-03-21T13:40:10.000Z</time>
      </trkpt>
      <trkpt lat="43.45603" lon="5.2376">
        <ele>100</ele>
        <time>2022-03-21T13:40:11.000Z</time>
      </trkpt>
      <trkpt lat="43.45605" lon="5.23759">
        <ele>100</ele>
        <time>2022-03-21T13:40:12.000Z</time>
      </trkpt>
      <trkpt lat="43.45606" lon="5.23759">
        <ele>100</ele>
        <time>2022-03-21T13:40:13.000Z</time>
      </trkpt>
      <trkpt lat="43.45608" lon="5.23758">
        <ele>100</ele>
        <time>2022-03-21T13:40:14.000Z</time>
      </trkpt>
      <trkpt lat="43.45609" lon="5.23758">
        <ele>100</ele>
        <time>2022-03-21T13:40:15.000Z</time>
      </trkpt>
      <trkpt lat="43.45611" lon="5.23758">
        <ele>100</ele>
        <time>2022-03-21T13:40:16.000Z</time>
      </trkpt>
      <trkpt lat="43.45612" lon="5.23757">
        <ele>100</ele>
        <time>2022-03-21T13:40:17.000Z</time>
      </trkpt>
      <trkpt lat="43.45614" lon="5.23757">
        <ele>100</ele>
        <time>2022-03-21T13:40:18.000Z</time>
      </trkpt>
      <trkpt lat="43.45615" lon="5.23756">
        <ele>100</ele>
        <time>2022-03-21T13:40:19.000Z</time>
      </trkpt>
      <trkpt lat="43.45617" lon="5.23756">
        <ele>100</ele>
        <time>2022-03-21T13:40:20.000Z</time>
      </trkpt>
      <trkpt lat="43.45618" lon="5.23755">
        <ele>100</ele>
        <time>2022-03-21T13:40:21.000Z</time>
      </trkpt>
      <trkpt lat="43.4562" lon="5.23755">
        <ele>100</ele>
        <time>2022-03-21T13:40:22.000Z</time>
      </trkpt>
      <trkpt lat="43.45621" lon="5.23755">
        <ele>100</ele>
        <time>2022-03-21T13:40:23.000Z</time>
      </trkpt>
      <trkpt lat="43.45623" lon="5.23754">
        <ele>100</ele>
        <time>2022-03-21T13:40:24.000Z</time>
      </trkpt>
      <trkpt lat="43.45624" lon="5.23754">
        <ele>100</ele>
        <time>2022-03-21T13:40:25.000Z</time>
      </trkpt>
      <trkpt lat="43.45626" lon="5.23754">
        <ele>100</ele>
        <time>2022-03-21T13:40:26.000Z</time>
      </trkpt>
      <trkpt lat="43.45627" lon="5.23755">
        <ele>100</ele>
        <time>2022-03-21T13:40:27.000Z</time>
      </trkpt>
      <trkpt lat="43.45629" lon="5.23755">
        <ele>100</ele>
        <time>2022-03-21T13:40:28.000Z</time>
      </trkpt>
      <trkpt lat="43.4563" lon="5.23756">
        <ele>100</ele>
        <time>2022-03-21T13:40:29.000Z</time>
      </trkpt>
      <trkpt lat="43.45632" lon="5.23756">
        <ele>100</ele>
        <time>2022-03-21T13:40:30.000Z</time>
      </trkpt>
      <trkpt lat="43.45633" lon="5.23757">
        <ele>100</ele>
        <time>2022-03-21T13:40:31.000Z</time>
      </trkpt>
      <trkpt lat="43.45635" lon="5.23757">
        <ele>100</ele>
        <time>2022-03-21T13:40:32.000Z</time>
      </trkpt>
      <trkpt lat="43.45636" lon="5.23758">
        <ele>100</ele>
        <time>2022-03-21T13:40:33.000Z</time>
      </trkpt>
      <trkpt lat="43.45638" lon="5.23758">
        <ele>99</ele>
        <time>2022-03-21T13:40:34.000Z</time>
      </trkpt>
      <trkpt lat="43.45639" lon="5.23758">
        <ele>99</ele>
        <time>2022-03-21T13:40:35.000Z</time>
      </trkpt>
      <trkpt lat="43.45641" lon="5.23758">
        <ele>99</ele>
        <time>2022-03-21T13:40:36.000Z</time>
      </trkpt>
      <trkpt lat="43.45642" lon="5.23758">
        <ele>99</ele>
        <time>2022-03-21T13:40:37.000Z</time>
      </trkpt>
      <trkpt lat="43.45644" lon="5.23758">
        <ele>99</ele>
        <time>2022-03-21T13:40:38.000Z</time>
      </trkpt>
      <trkpt lat="43.45645" lon="5.23757">
        <ele>99</ele>
        <time>2022-03-21T13:40:39.000Z</time>
      </trkpt>
      <trkpt lat="43.45647" lon="5.23757">
        <ele>99</ele>
        <time>2022-03-21T13:40:40.000Z</time>
      </trkpt>
      <trkpt lat="43.45648" lon="5.23757">
        <ele>99</ele>
        <time>2022-03-21T13:40:41.000Z</time>
      </trkpt>
      <trkpt lat="43.4565" lon="5.23756">
        <ele>99</ele>
        <time>2022-03-21T13:40:42.000Z</time>
      </trkpt>
      <trkpt lat="43.45651" lon="5.23755">
        <ele>99</ele>
        <time>2022-03-21T13:40:43.000Z</time>
      </trkpt>
      <trkpt lat="43.45652" lon="5.23754">
        <ele>99</ele>
        <time>2022-03-21T13:40:44.000Z</time>
      </trkpt>
      <trkpt lat="43.45654" lon="5.23754">
        <ele>99</ele>
        <time>2022-03-21T13:40:45.000Z</time>
      </trkpt>
      <trkpt lat="43.45655" lon="5.23753">
        <ele>99</ele>
        <time>2022-03-21T13:40:46.000Z</time>
      </trkpt>
      <trkpt lat="43.45657" lon="5.23753">
        <ele>99</ele>
        <time>2022-03-21T13:40:47.000Z</time>
      </trkpt>
      <trkpt lat="43.45658" lon="5.23752">
        <ele>99</ele>
        <time>2022-03-21T13:40:48.000Z</time>
      </trkpt>
      <trkpt lat="43.4566" lon="5.23752">
        <ele>99</ele>
        <time>2022-03-21T13:40:49.000Z</time>
      </trkpt>
      <trkpt lat="43.45661" lon="5.23751">
        <ele>99</ele>
        <time>2022-03-21T13:40:50.000Z</time>
      </trkpt>
      <trkpt lat="43.45662" lon="5.2375">
        <ele>99</ele>
        <time>2022-03-21T13:40:51.000Z</time>
      </trkpt>
      <trkpt lat="43.45664" lon="5.23749">
        <ele>99</ele>
        <time>2022-03-21T13:40:52.000Z</time>
      </trkpt>
      <trkpt lat="43.45665" lon="5.23749">
        <ele>99</ele>
        <time>2022-03-21T13:40:53.000Z</time>
      </trkpt>
      <trkpt lat="43.45667" lon="5.2375">
        <ele>99</ele>
        <time>2022-03-21T13:40:54.000Z</time>
      </trkpt>
      <trkpt lat="43.45668" lon="5.23752">
        <ele>99</ele>
        <time>2022-03-21T13:40:55.000Z</time>
      </trkpt>
      <trkpt lat="43.45669" lon="5.23754">
        <ele>99</ele>
        <time>2022-03-21T13:40:56.000Z</time>
      </trkpt>
      <trkpt lat="43.45669" lon="5.23756">
        <ele>99</ele>
        <time>2022-03-21T13:40:57.000Z</time>
      </trkpt>
      <trkpt lat="43.4567" lon="5.23758">
        <ele>99</ele>
        <time>2022-03-21T13:40:58.000Z</time>
      </trkpt>
      <trkpt lat="43.4567" lon="5.2376">
        <ele>99</ele>
        <time>2022-03-21T13:40:59.000Z</time>
      </trkpt>
      <trkpt lat="43.4567" lon="5.23762">
        <ele>99</ele>
        <time>2022-03-21T13:41:00.000Z</time>
      </trkpt>
      <trkpt lat="43.4567" lon="5.23764">
        <ele>99</ele>
        <time>2022-03-21T13:41:01.000Z</time>
      </trkpt>
      <trkpt lat="43.45671" lon="5.23766">
        <ele>99</ele>
        <time>2022-03-21T13:41:02.000Z</time>
      </trkpt>
      <trkpt lat="43.45671" lon="5.23768">
        <ele>99</ele>
        <time>2022-03-21T13:41:03.000Z</time>
      </trkpt>
      <trkpt lat="43.45671" lon="5.2377">
        <ele>99</ele>
        <time>2022-03-21T13:41:04.000Z</time>
      </trkpt>
      <trkpt lat="43.45671" lon="5.23772">
        <ele>99</ele>
        <time>2022-03-21T13:41:05.000Z</time>
      </trkpt>
      <trkpt lat="43.45671" lon="5.23774">
        <ele>99</ele>
        <time>2022-03-21T13:41:06.000Z</time>
      </trkpt>
      <trkpt lat="43.4567" lon="5.23776">
        <ele>99</ele>
        <time>2022-03-21T13:41:07.000Z</time>
      </trkpt>
      <trkpt lat="43.45669" lon="5.23778">
        <ele>99</ele>
        <time>2022-03-21T13:41:08.000Z</time>
      </trkpt>
      <trkpt lat="43.45668" lon="5.23779">
        <ele>99</ele>
        <time>2022-03-21T13:41:09.000Z</time>
      </trkpt>
      <trkpt lat="43.45667" lon="5.2378">
        <ele>99</ele>
        <time>2022-03-21T13:41:10.000Z</time>
      </trkpt>
      <trkpt lat="43.45665" lon="5.23781">
        <ele>99</ele>
        <time>2022-03-21T13:41:11.000Z</time>
      </trkpt>
      <trkpt lat="43.45664" lon="5.23782">
        <ele>98</ele>
        <time>2022-03-21T13:41:12.000Z</time>
      </trkpt>
      <trkpt lat="43.45663" lon="5.23783">
        <ele>98</ele>
        <time>2022-03-21T13:41:13.000Z</time>
      </trkpt>
      <trkpt lat="43.45661" lon="5.23783">
        <ele>98</ele>
        <time>2022-03-21T13:41:14.000Z</time>
      </trkpt>
      <trkpt lat="43.4566" lon="5.23784">
        <ele>98</ele>
        <time>2022-03-21T13:41:15.000Z</time>
      </trkpt>
      <trkpt lat="43.45658" lon="5.23785">
        <ele>98</ele>
        <time>2022-03-21T13:41:16.000Z</time>
      </trkpt>
      <trkpt lat="43.45657" lon="5.23786">
        <ele>98</ele>
        <time>2022-03-21T13:41:17.000Z</time>
      </trkpt>
      <trkpt lat="43.45656" lon="5.23786">
        <ele>98</ele>
        <time>2022-03-21T13:41:18.000Z</time>
      </trkpt>
      <trkpt lat="43.45654" lon="5.23787">
        <ele>98</ele>
        <time>2022-03-21T13:41:19.000Z</time>
      </trkpt>
      <trkpt lat="43.45652" lon="5.23788">
        <ele>98</ele>
        <time>2022-03-21T13:41:20.000Z</time>
      </trkpt>
      <trkpt lat="43.45651" lon="5.23789">
        <ele>98</ele>
        <time>2022-03-21T13:41:21.000Z</time>
      </trkpt>
      <trkpt lat="43.4565" lon="5.2379">
        <ele>98</ele>
        <time>2022-03-21T13:41:22.000Z</time>
      </trkpt>
      <trkpt lat="43.45649" lon="5.23791">
        <ele>97</ele>
        <time>2022-03-21T13:41:23.000Z</time>
      </trkpt>
      <trkpt lat="43.45648" lon="5.23793">
        <ele>97</ele>
        <time>2022-03-21T13:41:24.000Z</time>
      </trkpt>
      <trkpt lat="43.45647" lon="5.23795">
        <ele>97</ele>
        <time>2022-03-21T13:41:25.000Z</time>
      </trkpt>
      <trkpt lat="43.45648" lon="5.23797">
        <ele>97</ele>
        <time>2022-03-21T13:41:26.000Z</time>
      </trkpt>
      <trkpt lat="43.45648" lon="5.23799">
        <ele>97</ele>
        <time>2022-03-21T13:41:27.000Z</time>
      </trkpt>
      <trkpt lat="43.45649" lon="5.23801">
        <ele>97</ele>
        <time>2022-03-21T13:41:28.000Z</time>
      </trkpt>
      <trkpt lat="43.45649" lon="5.23802">
        <ele>97</ele>
        <time>2022-03-21T13:41:29.000Z</time>
      </trkpt>
      <trkpt lat="43.4565" lon="5.23804">
        <ele>97</ele>
        <time>2022-03-21T13:41:30.000Z</time>
      </trkpt>
      <trkpt lat="43.45651" lon="5.23806">
        <ele>97</ele>
        <time>2022-03-21T13:41:31.000Z</time>
      </trkpt>
      <trkpt lat="43.45652" lon="5.23807">
        <ele>97</ele>
        <time>2022-03-21T13:41:32.000Z</time>
      </trkpt>
      <trkpt lat="43.45653" lon="5.23808">
        <ele>97</ele>
        <time>2022-03-21T13:41:33.000Z</time>
      </trkpt>
      <trkpt lat="43.45655" lon="5.23809">
        <ele>97</ele>
        <time>2022-03-21T13:41:34.000Z</time>
      </trkpt>
      <trkpt lat="43.45656" lon="5.2381">
        <ele>97</ele>
        <time>2022-03-21T13:41:35.000Z</time>
      </trkpt>
      <trkpt lat="43.45658" lon="5.23811">
        <ele>97</ele>
        <time>2022-03-21T13:41:36.000Z</time>
      </trkpt>
      <trkpt lat="43.45659" lon="5.23812">
        <ele>97</ele>
        <time>2022-03-21T13:41:37.000Z</time>
      </trkpt>
      <trkpt lat="43.4566" lon="5.23812">
        <ele>97</ele>
        <time>2022-03-21T13:41:38.000Z</time>
      </trkpt>
      <trkpt lat="43.45662" lon="5.23813">
        <ele>97</ele>
        <time>2022-03-21T13:41:39.000Z</time>
      </trkpt>
      <trkpt lat="43.45663" lon="5.23814">
        <ele>97</ele>
        <time>2022-03-21T13:41:40.000Z</time>
      </trkpt>
      <trkpt lat="43.45665" lon="5.23814">
        <ele>97</ele>
        <time>2022-03-21T13:41:41.000Z</time>
      </trkpt>
      <trkpt lat="43.45666" lon="5.23814">
        <ele>97</ele>
        <time>2022-03-21T13:41:42.000Z</time>
      </trkpt>
      <trkpt lat="43.45668" lon="5.23815">
        <ele>97</ele>
        <time>2022-03-21T13:41:43.000Z</time>
      </trkpt>
      <trkpt lat="43.45669" lon="5.23815">
        <ele>97</ele>
        <time>2022-03-21T13:41:44.000Z</time>
      </trkpt>
      <trkpt lat="43.4567" lon="5.23815">
        <ele>97</ele>
        <time>2022-03-21T13:41:45.000Z</time>
      </trkpt>
      <trkpt lat="43.45672" lon="5.23815">
        <ele>97</ele>
        <time>2022-03-21T13:41:46.000Z</time>
      </trkpt>
      <trkpt lat="43.45673" lon="5.23816">
        <ele>97</ele>
        <time>2022-03-21T13:41:47.000Z</time>
      </trkpt>
      <trkpt lat="43.45675" lon="5.23816">
        <ele>97</ele>
        <time>2022-03-21T13:41:48.000Z</time>
      </trkpt>
      <trkpt lat="43.45676" lon="5.23816">
        <ele>97</ele>
        <time>2022-03-21T13:41:49.000Z</time>
      </trkpt>
      <trkpt lat="43.45678" lon="5.23817">
        <ele>97</ele>
        <time>2022-03-21T13:41:50.000Z</time>
      </trkpt>
      <trkpt lat="43.45679" lon="5.23817">
        <ele>97</ele>
        <time>2022-03-21T13:41:51.000Z</time>
      </trkpt>
      <trkpt lat="43.45681" lon="5.23817">
        <ele>97</ele>
        <time>2022-03-21T13:41:52.000Z</time>
      </trkpt>
      <trkpt lat="43.45682" lon="5.23817">
        <ele>97</ele>
        <time>2022-03-21T13:41:53.000Z</time>
      </trkpt>
      <trkpt lat="43.45684" lon="5.23817">
        <ele>97</ele>
        <time>2022-03-21T13:41:54.000Z</time>
      </trkpt>
      <trkpt lat="43.45685" lon="5.23817">
        <ele>97</ele>
        <time>2022-03-21T13:41:55.000Z</time>
      </trkpt>
      <trkpt lat="43.45687" lon="5.23817">
        <ele>97</ele>
        <time>2022-03-21T13:41:56.000Z</time>
      </trkpt>
      <trkpt lat="43.45688" lon="5.23817">
        <ele>97</ele>
        <time>2022-03-21T13:41:57.000Z</time>
      </trkpt>
      <trkpt lat="43.4569" lon="5.23817">
        <ele>97</ele>
        <time>2022-03-21T13:41:58.000Z</time>
      </trkpt>
      <trkpt lat="43.45691" lon="5.23817">
        <ele>97</ele>
        <time>2022-03-21T13:41:59.000Z</time>
      </trkpt>
      <trkpt lat="43.45692" lon="5.23817">
        <ele>97</ele>
        <time>2022-03-21T13:42:00.000Z</time>
      </trkpt>
      <trkpt lat="43.45694" lon="5.23817">
        <ele>97</ele>
        <time>2022-03-21T13:42:01.000Z</time>
      </trkpt>
      <trkpt lat="43.45695" lon="5.23816">
        <ele>97</ele>
        <time>2022-03-21T13:42:02.000Z</time>
      </trkpt>
      <trkpt lat="43.45697" lon="5.23816">
        <ele>97</ele>
        <time>2022-03-21T13:42:03.000Z</time>
      </trkpt>
      <trkpt lat="43.45698" lon="5.23815">
        <ele>98</ele>
        <time>2022-03-21T13:42:04.000Z</time>
      </trkpt>
      <trkpt lat="43.457" lon="5.23815">
        <ele>98</ele>
        <time>2022-03-21T13:42:05.000Z</time>
      </trkpt>
      <trkpt lat="43.45701" lon="5.23814">
        <ele>98</ele>
        <time>2022-03-21T13:42:06.000Z</time>
      </trkpt>
      <trkpt lat="43.45702" lon="5.23813">
        <ele>98</ele>
        <time>2022-03-21T13:42:07.000Z</time>
      </trkpt>
      <trkpt lat="43.45703" lon="5.23812">
        <ele>98</ele>
        <time>2022-03-21T13:42:08.000Z</time>
      </trkpt>
      <trkpt lat="43.45705" lon="5.23811">
        <ele>98</ele>
        <time>2022-03-21T13:42:09.000Z</time>
      </trkpt>
      <trkpt lat="43.45706" lon="5.2381">
        <ele>98</ele>
        <time>2022-03-21T13:42:10.000Z</time>
      </trkpt>
      <trkpt lat="43.45707" lon="5.23808">
        <ele>98</ele>
        <time>2022-03-21T13:42:11.000Z</time>
      </trkpt>
      <trkpt lat="43.45708" lon="5.23807">
        <ele>98</ele>
        <time>2022-03-21T13:42:12.000Z</time>
      </trkpt>
      <trkpt lat="43.45709" lon="5.23806">
        <ele>98</ele>
        <time>2022-03-21T13:42:13.000Z</time>
      </trkpt>
      <trkpt lat="43.45711" lon="5.23805">
        <ele>98</ele>
        <time>2022-03-21T13:42:14.000Z</time>
      </trkpt>
      <trkpt lat="43.45712" lon="5.23805">
        <ele>98</ele>
        <time>2022-03-21T13:42:15.000Z</time>
      </trkpt>
      <trkpt lat="43.45714" lon="5.23804">
        <ele>98</ele>
        <time>2022-03-21T13:42:16.000Z</time>
      </trkpt>
      <trkpt lat="43.45715" lon="5.23803">
        <ele>98</ele>
        <time>2022-03-21T13:42:17.000Z</time>
      </trkpt>
      <trkpt lat="43.45716" lon="5.23802">
        <ele>98</ele>
        <time>2022-03-21T13:42:18.000Z</time>
      </trkpt>
      <trkpt lat="43.45718" lon="5.23802">
        <ele>99</ele>
        <time>2022-03-21T13:42:19.000Z</time>
      </trkpt>
      <trkpt lat="43.45719" lon="5.23802">
        <ele>99</ele>
        <time>2022-03-21T13:42:20.000Z</time>
      </trkpt>
      <trkpt lat="43.45721" lon="5.23801">
        <ele>99</ele>
        <time>2022-03-21T13:42:21.000Z</time>
      </trkpt>
      <trkpt lat="43.45722" lon="5.23801">
        <ele>99</ele>
        <time>2022-03-21T13:42:22.000Z</time>
      </trkpt>
      <trkpt lat="43.45724" lon="5.23801">
        <ele>99</ele>
        <time>2022-03-21T13:42:23.000Z</time>
      </trkpt>
      <trkpt lat="43.45726" lon="5.238">
        <ele>99</ele>
        <time>2022-03-21T13:42:24.000Z</time>
      </trkpt>
      <trkpt lat="43.45727" lon="5.23801">
        <ele>99</ele>
        <time>2022-03-21T13:42:25.000Z</time>
      </trkpt>
      <trkpt lat="43.45728" lon="5.23801">
        <ele>99</ele>
        <time>2022-03-21T13:42:26.000Z</time>
      </trkpt>
      <trkpt lat="43.4573" lon="5.23801">
        <ele>99</ele>
        <time>2022-03-21T13:42:27.000Z</time>
      </trkpt>
      <trkpt lat="43.45731" lon="5.23801">
        <ele>99</ele>
        <time>2022-03-21T13:42:28.000Z</time>
      </trkpt>
      <trkpt lat="43.45733" lon="5.23802">
        <ele>99</ele>
        <time>2022-03-21T13:42:29.000Z</time>
      </trkpt>
      <trkpt lat="43.45734" lon="5.23802">
        <ele>99</ele>
        <time>2022-03-21T13:42:30.000Z</time>
      </trkpt>
      <trkpt lat="43.45736" lon="5.23801">
        <ele>98</ele>
        <time>2022-03-21T13:42:31.000Z</time>
      </trkpt>
      <trkpt lat="43.45737" lon="5.23801">
        <ele>98</ele>
        <time>2022-03-21T13:42:32.000Z</time>
      </trkpt>
      <trkpt lat="43.45739" lon="5.238">
        <ele>98</ele>
        <time>2022-03-21T13:42:33.000Z</time>
      </trkpt>
      <trkpt lat="43.4574" lon="5.238">
        <ele>98</ele>
        <time>2022-03-21T13:42:34.000Z</time>
      </trkpt>
      <trkpt lat="43.45741" lon="5.23799">
        <ele>98</ele>
        <time>2022-03-21T13:42:35.000Z</time>
      </trkpt>
      <trkpt lat="43.45743" lon="5.23799">
        <ele>98</ele>
        <time>2022-03-21T13:42:36.000Z</time>
      </trkpt>
      <trkpt lat="43.45745" lon="5.23799">
        <ele>98</ele>
        <time>2022-03-21T13:42:37.000Z</time>
      </trkpt>
      <trkpt lat="43.45746" lon="5.23799">
        <ele>98</ele>
        <time>2022-03-21T13:42:38.000Z</time>
      </trkpt>
      <trkpt lat="43.45748" lon="5.23798">
        <ele>98</ele>
        <time>2022-03-21T13:42:39.000Z</time>
      </trkpt>
      <trkpt lat="43.45749" lon="5.23798">
        <ele>98</ele>
        <time>2022-03-21T13:42:40.000Z</time>
      </trkpt>
      <trkpt lat="43.45751" lon="5.23797">
        <ele>98</ele>
        <time>2022-03-21T13:42:41.000Z</time>
      </trkpt>
      <trkpt lat="43.45752" lon="5.23797">
        <ele>98</ele>
        <time>2022-03-21T13:42:42.000Z</time>
      </trkpt>
      <trkpt lat="43.45754" lon="5.23796">
        <ele>98</ele>
        <time>2022-03-21T13:42:43.000Z</time>
      </trkpt>
      <trkpt lat="43.45755" lon="5.23795">
        <ele>98</ele>
        <time>2022-03-21T13:42:44.000Z</time>
      </trkpt>
      <trkpt lat="43.45757" lon="5.23794">
        <ele>98</ele>
        <time>2022-03-21T13:42:45.000Z</time>
      </trkpt>
      <trkpt lat="43.45758" lon="5.23793">
        <ele>98</ele>
        <time>2022-03-21T13:42:46.000Z</time>
      </trkpt>
      <trkpt lat="43.45759" lon="5.23792">
        <ele>98</ele>
        <time>2022-03-21T13:42:47.000Z</time>
      </trkpt>
      <trkpt lat="43.4576" lon="5.23791">
        <ele>98</ele>
        <time>2022-03-21T13:42:48.000Z</time>
      </trkpt>
      <trkpt lat="43.45761" lon="5.23789">
        <ele>98</ele>
        <time>2022-03-21T13:42:49.000Z</time>
      </trkpt>
      <trkpt lat="43.45762" lon="5.23788">
        <ele>98</ele>
        <time>2022-03-21T13:42:50.000Z</time>
      </trkpt>
      <trkpt lat="43.45762" lon="5.23786">
        <ele>98</ele>
        <time>2022-03-21T13:42:51.000Z</time>
      </trkpt>
      <trkpt lat="43.45763" lon="5.23784">
        <ele>98</ele>
        <time>2022-03-21T13:42:52.000Z</time>
      </trkpt>
      <trkpt lat="43.45762" lon="5.23783">
        <ele>98</ele>
        <time>2022-03-21T13:42:53.000Z</time>
      </trkpt>
      <trkpt lat="43.45762" lon="5.23781">
        <ele>99</ele>
        <time>2022-03-21T13:42:54.000Z</time>
      </trkpt>
      <trkpt lat="43.45761" lon="5.2378">
        <ele>99</ele>
        <time>2022-03-21T13:42:55.000Z</time>
      </trkpt>
      <trkpt lat="43.45759" lon="5.23779">
        <ele>99</ele>
        <time>2022-03-21T13:42:56.000Z</time>
      </trkpt>
      <trkpt lat="43.45758" lon="5.23778">
        <ele>99</ele>
        <time>2022-03-21T13:42:57.000Z</time>
      </trkpt>
      <trkpt lat="43.45757" lon="5.23778">
        <ele>99</ele>
        <time>2022-03-21T13:42:58.000Z</time>
      </trkpt>
      <trkpt lat="43.45756" lon="5.23777">
        <ele>99</ele>
        <time>2022-03-21T13:42:59.000Z</time>
      </trkpt>
      <trkpt lat="43.45754" lon="5.23776">
        <ele>99</ele>
        <time>2022-03-21T13:43:00.000Z</time>
      </trkpt>
      <trkpt lat="43.45753" lon="5.23775">
        <ele>99</ele>
        <time>2022-03-21T13:43:01.000Z</time>
      </trkpt>
      <trkpt lat="43.45751" lon="5.23775">
        <ele>99</ele>
        <time>2022-03-21T13:43:02.000Z</time>
      </trkpt>
      <trkpt lat="43.4575" lon="5.23774">
        <ele>99</ele>
        <time>2022-03-21T13:43:03.000Z</time>
      </trkpt>
      <trkpt lat="43.45749" lon="5.23773">
        <ele>99</ele>
        <time>2022-03-21T13:43:04.000Z</time>
      </trkpt>
      <trkpt lat="43.45747" lon="5.23773">
        <ele>99</ele>
        <time>2022-03-21T13:43:05.000Z</time>
      </trkpt>
      <trkpt lat="43.45746" lon="5.23772">
        <ele>99</ele>
        <time>2022-03-21T13:43:06.000Z</time>
      </trkpt>
      <trkpt lat="43.45745" lon="5.23771">
        <ele>99</ele>
        <time>2022-03-21T13:43:07.000Z</time>
      </trkpt>
      <trkpt lat="43.45743" lon="5.23771">
        <ele>99</ele>
        <time>2022-03-21T13:43:08.000Z</time>
      </trkpt>
      <trkpt lat="43.45742" lon="5.2377">
        <ele>99</ele>
        <time>2022-03-21T13:43:09.000Z</time>
      </trkpt>
      <trkpt lat="43.45741" lon="5.23769">
        <ele>100</ele>
        <time>2022-03-21T13:43:10.000Z</time>
      </trkpt>
      <trkpt lat="43.45739" lon="5.23769">
        <ele>100</ele>
        <time>2022-03-21T13:43:11.000Z</time>
      </trkpt>
      <trkpt lat="43.45738" lon="5.23768">
        <ele>100</ele>
        <time>2022-03-21T13:43:12.000Z</time>
      </trkpt>
      <trkpt lat="43.45736" lon="5.23768">
        <ele>100</ele>
        <time>2022-03-21T13:43:13.000Z</time>
      </trkpt>
      <trkpt lat="43.45735" lon="5.23767">
        <ele>100</ele>
        <time>2022-03-21T13:43:14.000Z</time>
      </trkpt>
      <trkpt lat="43.45734" lon="5.23766">
        <ele>100</ele>
        <time>2022-03-21T13:43:15.000Z</time>
      </trkpt>
      <trkpt lat="43.45733" lon="5.23765">
        <ele>100</ele>
        <time>2022-03-21T13:43:16.000Z</time>
      </trkpt>
      <trkpt lat="43.45731" lon="5.23765">
        <ele>100</ele>
        <time>2022-03-21T13:43:17.000Z</time>
      </trkpt>
      <trkpt lat="43.4573" lon="5.23764">
        <ele>100</ele>
        <time>2022-03-21T13:43:18.000Z</time>
      </trkpt>
      <trkpt lat="43.45728" lon="5.23763">
        <ele>100</ele>
        <time>2022-03-21T13:43:19.000Z</time>
      </trkpt>
      <trkpt lat="43.45727" lon="5.23763">
        <ele>100</ele>
        <time>2022-03-21T13:43:20.000Z</time>
      </trkpt>
      <trkpt lat="43.45725" lon="5.23762">
        <ele>100</ele>
        <time>2022-03-21T13:43:21.000Z</time>
      </trkpt>
      <trkpt lat="43.45724" lon="5.23761">
        <ele>100</ele>
        <time>2022-03-21T13:43:22.000Z</time>
      </trkpt>
      <trkpt lat="43.45723" lon="5.2376">
        <ele>100</ele>
        <time>2022-03-21T13:43:23.000Z</time>
      </trkpt>
      <trkpt lat="43.45721" lon="5.23759">
        <ele>100</ele>
        <time>2022-03-21T13:43:24.000Z</time>
      </trkpt>
      <trkpt lat="43.4572" lon="5.23758">
        <ele>100</ele>
        <time>2022-03-21T13:43:25.000Z</time>
      </trkpt>
      <trkpt lat="43.45718" lon="5.23758">
        <ele>100</ele>
        <time>2022-03-21T13:43:26.000Z</time>
      </trkpt>
      <trkpt lat="43.45717" lon="5.23757">
        <ele>100</ele>
        <time>2022-03-21T13:43:27.000Z</time>
      </trkpt>
      <trkpt lat="43.45715" lon="5.23756">
        <ele>99</ele>
        <time>2022-03-21T13:43:28.000Z</time>
      </trkpt>
      <trkpt lat="43.45714" lon="5.23755">
        <ele>99</ele>
        <time>2022-03-21T13:43:29.000Z</time>
      </trkpt>
      <trkpt lat="43.45712" lon="5.23754">
        <ele>99</ele>
        <time>2022-03-21T13:43:30.000Z</time>
      </trkpt>
      <trkpt lat="43.45711" lon="5.23754">
        <ele>99</ele>
        <time>2022-03-21T13:43:31.000Z</time>
      </trkpt>
      <trkpt lat="43.4571" lon="5.23753">
        <ele>99</ele>
        <time>2022-03-21T13:43:32.000Z</time>
      </trkpt>
      <trkpt lat="43.45708" lon="5.23752">
        <ele>99</ele>
        <time>2022-03-21T13:43:33.000Z</time>
      </trkpt>
      <trkpt lat="43.45707" lon="5.23751">
        <ele>99</ele>
        <time>2022-03-21T13:43:34.000Z</time>
      </trkpt>
      <trkpt lat="43.45705" lon="5.23751">
        <ele>98</ele>
        <time>2022-03-21T13:43:35.000Z</time>
      </trkpt>
      <trkpt lat="43.45704" lon="5.2375">
        <ele>98</ele>
        <time>2022-03-21T13:43:36.000Z</time>
      </trkpt>
      <trkpt lat="43.45703" lon="5.23749">
        <ele>98</ele>
        <time>2022-03-21T13:43:37.000Z</time>
      </trkpt>
      <trkpt lat="43.45701" lon="5.23749">
        <ele>98</ele>
        <time>2022-03-21T13:43:38.000Z</time>
      </trkpt>
      <trkpt lat="43.457" lon="5.23748">
        <ele>98</ele>
        <time>2022-03-21T13:43:39.000Z</time>
      </trkpt>
      <trkpt lat="43.45698" lon="5.23747">
        <ele>98</ele>
        <time>2022-03-21T13:43:40.000Z</time>
      </trkpt>
      <trkpt lat="43.45697" lon="5.23747">
        <ele>98</ele>
        <time>2022-03-21T13:43:41.000Z</time>
      </trkpt>
      <trkpt lat="43.45695" lon="5.23746">
        <ele>98</ele>
        <time>2022-03-21T13:43:42.000Z</time>
      </trkpt>
      <trkpt lat="43.45694" lon="5.23746">
        <ele>98</ele>
        <time>2022-03-21T13:43:43.000Z</time>
      </trkpt>
      <trkpt lat="43.45692" lon="5.23746">
        <ele>98</ele>
        <time>2022-03-21T13:43:44.000Z</time>
      </trkpt>
      <trkpt lat="43.45691" lon="5.23745">
        <ele>98</ele>
        <time>2022-03-21T13:43:45.000Z</time>
      </trkpt>
      <trkpt lat="43.45689" lon="5.23745">
        <ele>98</ele>
        <time>2022-03-21T13:43:46.000Z</time>
      </trkpt>
      <trkpt lat="43.45688" lon="5.23745">
        <ele>97</ele>
        <time>2022-03-21T13:43:47.000Z</time>
      </trkpt>
      <trkpt lat="43.45686" lon="5.23744">
        <ele>97</ele>
        <time>2022-03-21T13:43:48.000Z</time>
      </trkpt>
      <trkpt lat="43.45685" lon="5.23744">
        <ele>97</ele>
        <time>2022-03-21T13:43:49.000Z</time>
      </trkpt>
      <trkpt lat="43.45683" lon="5.23743">
        <ele>97</ele>
        <time>2022-03-21T13:43:50.000Z</time>
      </trkpt>
      <trkpt lat="43.45682" lon="5.23743">
        <ele>97</ele>
        <time>2022-03-21T13:43:51.000Z</time>
      </trkpt>
      <trkpt lat="43.45681" lon="5.23743">
        <ele>97</ele>
        <time>2022-03-21T13:43:52.000Z</time>
      </trkpt>
      <trkpt lat="43.45679" lon="5.23743">
        <ele>98</ele>
        <time>2022-03-21T13:43:53.000Z</time>
      </trkpt>
      <trkpt lat="43.45678" lon="5.23743">
        <ele>98</ele>
        <time>2022-03-21T13:43:54.000Z</time>
      </trkpt>
      <trkpt lat="43.45676" lon="5.23743">
        <ele>98</ele>
        <time>2022-03-21T13:43:55.000Z</time>
      </trkpt>
      <trkpt lat="43.45674" lon="5.23743">
        <ele>98</ele>
        <time>2022-03-21T13:43:56.000Z</time>
      </trkpt>
      <trkpt lat="43.45673" lon="5.23742">
        <ele>98</ele>
        <time>2022-03-21T13:43:57.000Z</time>
      </trkpt>
      <trkpt lat="43.45671" lon="5.23742">
        <ele>98</ele>
        <time>2022-03-21T13:43:58.000Z</time>
      </trkpt>
      <trkpt lat="43.4567" lon="5.23742">
        <ele>98</ele>
        <time>2022-03-21T13:43:59.000Z</time>
      </trkpt>
      <trkpt lat="43.45668" lon="5.23742">
        <ele>98</ele>
        <time>2022-03-21T13:44:00.000Z</time>
      </trkpt>
      <trkpt lat="43.45666" lon="5.23742">
        <ele>98</ele>
        <time>2022-03-21T13:44:01.000Z</time>
      </trkpt>
      <trkpt lat="43.45665" lon="5.23742">
        <ele>98</ele>
        <time>2022-03-21T13:44:02.000Z</time>
      </trkpt>
      <trkpt lat="43.45663" lon="5.23742">
        <ele>98</ele>
        <time>2022-03-21T13:44:03.000Z</time>
      </trkpt>
      <trkpt lat="43.45662" lon="5.23742">
        <ele>98</ele>
        <time>2022-03-21T13:44:04.000Z</time>
      </trkpt>
      <trkpt lat="43.45661" lon="5.23743">
        <ele>98</ele>
        <time>2022-03-21T13:44:05.000Z</time>
      </trkpt>
      <trkpt lat="43.45659" lon="5.23743">
        <ele>98</ele>
        <time>2022-03-21T13:44:06.000Z</time>
      </trkpt>
      <trkpt lat="43.45658" lon="5.23743">
        <ele>98</ele>
        <time>2022-03-21T13:44:07.000Z</time>
      </trkpt>
      <trkpt lat="43.45656" lon="5.23743">
        <ele>98</ele>
        <time>2022-03-21T13:44:08.000Z</time>
      </trkpt>
      <trkpt lat="43.45654" lon="5.23743">
        <ele>98</ele>
        <time>2022-03-21T13:44:09.000Z</time>
      </trkpt>
      <trkpt lat="43.45652" lon="5.23743">
        <ele>98</ele>
        <time>2022-03-21T13:44:10.000Z</time>
      </trkpt>
      <trkpt lat="43.45651" lon="5.23744">
        <ele>97</ele>
        <time>2022-03-21T13:44:11.000Z</time>
      </trkpt>
      <trkpt lat="43.45649" lon="5.23744">
        <ele>97</ele>
        <time>2022-03-21T13:44:12.000Z</time>
      </trkpt>
      <trkpt lat="43.45648" lon="5.23745">
        <ele>97</ele>
        <time>2022-03-21T13:44:13.000Z</time>
      </trkpt>
      <trkpt lat="43.45646" lon="5.23745">
        <ele>97</ele>
        <time>2022-03-21T13:44:14.000Z</time>
      </trkpt>
      <trkpt lat="43.45644" lon="5.23746">
        <ele>97</ele>
        <time>2022-03-21T13:44:15.000Z</time>
      </trkpt>
      <trkpt lat="43.45643" lon="5.23746">
        <ele>97</ele>
        <time>2022-03-21T13:44:16.000Z</time>
      </trkpt>
      <trkpt lat="43.45641" lon="5.23746">
        <ele>97</ele>
        <time>2022-03-21T13:44:17.000Z</time>
      </trkpt>
      <trkpt lat="43.4564" lon="5.23747">
        <ele>97</ele>
        <time>2022-03-21T13:44:18.000Z</time>
      </trkpt>
      <trkpt lat="43.45638" lon="5.23747">
        <ele>97</ele>
        <time>2022-03-21T13:44:19.000Z</time>
      </trkpt>
      <trkpt lat="43.45636" lon="5.23747">
        <ele>97</ele>
        <time>2022-03-21T13:44:20.000Z</time>
      </trkpt>
      <trkpt lat="43.45635" lon="5.23747">
        <ele>97</ele>
        <time>2022-03-21T13:44:21.000Z</time>
      </trkpt>
      <trkpt lat="43.45633" lon="5.23748">
        <ele>97</ele>
        <time>2022-03-21T13:44:22.000Z</time>
      </trkpt>
      <trkpt lat="43.45632" lon="5.23748">
        <ele>97</ele>
        <time>2022-03-21T13:44:23.000Z</time>
      </trkpt>
      <trkpt lat="43.4563" lon="5.23748">
        <ele>97</ele>
        <time>2022-03-21T13:44:24.000Z</time>
      </trkpt>
      <trkpt lat="43.45629" lon="5.23749">
        <ele>97</ele>
        <time>2022-03-21T13:44:25.000Z</time>
      </trkpt>
      <trkpt lat="43.45627" lon="5.23749">
        <ele>97</ele>
        <time>2022-03-21T13:44:26.000Z</time>
      </trkpt>
      <trkpt lat="43.45626" lon="5.23749">
        <ele>97</ele>
        <time>2022-03-21T13:44:27.000Z</time>
      </trkpt>
      <trkpt lat="43.45624" lon="5.2375">
        <ele>97</ele>
        <time>2022-03-21T13:44:28.000Z</time>
      </trkpt>
      <trkpt lat="43.45623" lon="5.2375">
        <ele>97</ele>
        <time>2022-03-21T13:44:29.000Z</time>
      </trkpt>
      <trkpt lat="43.45621" lon="5.2375">
        <ele>97</ele>
        <time>2022-03-21T13:44:30.000Z</time>
      </trkpt>
      <trkpt lat="43.4562" lon="5.23751">
        <ele>97</ele>
        <time>2022-03-21T13:44:31.000Z</time>
      </trkpt>
      <trkpt lat="43.45618" lon="5.23751">
        <ele>97</ele>
        <time>2022-03-21T13:44:32.000Z</time>
      </trkpt>
      <trkpt lat="43.45617" lon="5.23751">
        <ele>97</ele>
        <time>2022-03-21T13:44:33.000Z</time>
      </trkpt>
      <trkpt lat="43.45615" lon="5.23752">
        <ele>97</ele>
        <time>2022-03-21T13:44:34.000Z</time>
      </trkpt>
      <trkpt lat="43.45614" lon="5.23752">
        <ele>97</ele>
        <time>2022-03-21T13:44:35.000Z</time>
      </trkpt>
      <trkpt lat="43.45612" lon="5.23752">
        <ele>97</ele>
        <time>2022-03-21T13:44:36.000Z</time>
      </trkpt>
      <trkpt lat="43.45611" lon="5.23753">
        <ele>97</ele>
        <time>2022-03-21T13:44:37.000Z</time>
      </trkpt>
      <trkpt lat="43.45609" lon="5.23753">
        <ele>97</ele>
        <time>2022-03-21T13:44:38.000Z</time>
      </trkpt>
      <trkpt lat="43.45607" lon="5.23754">
        <ele>97</ele>
        <time>2022-03-21T13:44:39.000Z</time>
      </trkpt>
      <trkpt lat="43.45606" lon="5.23754">
        <ele>97</ele>
        <time>2022-03-21T13:44:40.000Z</time>
      </trkpt>
      <trkpt lat="43.45605" lon="5.23754">
        <ele>97</ele>
        <time>2022-03-21T13:44:41.000Z</time>
      </trkpt>
      <trkpt lat="43.45603" lon="5.23755">
        <ele>97</ele>
        <time>2022-03-21T13:44:42.000Z</time>
      </trkpt>
      <trkpt lat="43.45602" lon="5.23755">
        <ele>97</ele>
        <time>2022-03-21T13:44:43.000Z</time>
      </trkpt>
      <trkpt lat="43.456" lon="5.23755">
        <ele>97</ele>
        <time>2022-03-21T13:44:44.000Z</time>
      </trkpt>
      <trkpt lat="43.45599" lon="5.23756">
        <ele>97</ele>
        <time>2022-03-21T13:44:45.000Z</time>
      </trkpt>
      <trkpt lat="43.45597" lon="5.23756">
        <ele>97</ele>
        <time>2022-03-21T13:44:46.000Z</time>
      </trkpt>
      <trkpt lat="43.45596" lon="5.23756">
        <ele>97</ele>
        <time>2022-03-21T13:44:47.000Z</time>
      </trkpt>
      <trkpt lat="43.45594" lon="5.23756">
        <ele>97</ele>
        <time>2022-03-21T13:44:48.000Z</time>
      </trkpt>
      <trkpt lat="43.45593" lon="5.23757">
        <ele>97</ele>
        <time>2022-03-21T13:44:49.000Z</time>
      </trkpt>
      <trkpt lat="43.45591" lon="5.23757">
        <ele>97</ele>
        <time>2022-03-21T13:44:50.000Z</time>
      </trkpt>
      <trkpt lat="43.45589" lon="5.23758">
        <ele>97</ele>
        <time>2022-03-21T13:44:51.000Z</time>
      </trkpt>
      <trkpt lat="43.45588" lon="5.23758">
        <ele>97</ele>
        <time>2022-03-21T13:44:52.000Z</time>
      </trkpt>
      <trkpt lat="43.45586" lon="5.23758">
        <ele>97</ele>
        <time>2022-03-21T13:44:53.000Z</time>
      </trkpt>
      <trkpt lat="43.45585" lon="5.23759">
        <ele>97</ele>
        <time>2022-03-21T13:44:54.000Z</time>
      </trkpt>
      <trkpt lat="43.45584" lon="5.23759">
        <ele>97</ele>
        <time>2022-03-21T13:44:55.000Z</time>
      </trkpt>
      <trkpt lat="43.45583" lon="5.2376">
        <ele>97</ele>
        <time>2022-03-21T13:44:56.000Z</time>
      </trkpt>
      <trkpt lat="43.45582" lon="5.23762">
        <ele>97</ele>
        <time>2022-03-21T13:44:57.000Z</time>
      </trkpt>
      <trkpt lat="43.45582" lon="5.23763">
        <ele>97</ele>
        <time>2022-03-21T13:44:58.000Z</time>
      </trkpt>
      <trkpt lat="43.45582" lon="5.23765">
        <ele>97</ele>
        <time>2022-03-21T13:44:59.000Z</time>
      </trkpt>
      <trkpt lat="43.45582" lon="5.23767">
        <ele>97</ele>
        <time>2022-03-21T13:45:00.000Z</time>
      </trkpt>
      <trkpt lat="43.45582" lon="5.23769">
        <ele>97</ele>
        <time>2022-03-21T13:45:01.000Z</time>
      </trkpt>
      <trkpt lat="43.45582" lon="5.23771">
        <ele>97</ele>
        <time>2022-03-21T13:45:02.000Z</time>
      </trkpt>
      <trkpt lat="43.45582" lon="5.23773">
        <ele>97</ele>
        <time>2022-03-21T13:45:03.000Z</time>
      </trkpt>
      <trkpt lat="43.45583" lon="5.23774">
        <ele>97</ele>
        <time>2022-03-21T13:45:04.000Z</time>
      </trkpt>
      <trkpt lat="43.45584" lon="5.23775">
        <ele>97</ele>
        <time>2022-03-21T13:45:05.000Z</time>
      </trkpt>
      <trkpt lat="43.45585" lon="5.23776">
        <ele>97</ele>
        <time>2022-03-21T13:45:06.000Z</time>
      </trkpt>
      <trkpt lat="43.45586" lon="5.23777">
        <ele>97</ele>
        <time>2022-03-21T13:45:07.000Z</time>
      </trkpt>
      <trkpt lat="43.45587" lon="5.23778">
        <ele>97</ele>
        <time>2022-03-21T13:45:08.000Z</time>
      </trkpt>
      <trkpt lat="43.45589" lon="5.23778">
        <ele>97</ele>
        <time>2022-03-21T13:45:09.000Z</time>
      </trkpt>
      <trkpt lat="43.4559" lon="5.23779">
        <ele>97</ele>
        <time>2022-03-21T13:45:10.000Z</time>
      </trkpt>
      <trkpt lat="43.45591" lon="5.2378">
        <ele>97</ele>
        <time>2022-03-21T13:45:11.000Z</time>
      </trkpt>
      <trkpt lat="43.45593" lon="5.23781">
        <ele>97</ele>
        <time>2022-03-21T13:45:12.000Z</time>
      </trkpt>
      <trkpt lat="43.45594" lon="5.23781">
        <ele>97</ele>
        <time>2022-03-21T13:45:13.000Z</time>
      </trkpt>
      <trkpt lat="43.45595" lon="5.23782">
        <ele>97</ele>
        <time>2022-03-21T13:45:14.000Z</time>
      </trkpt>
      <trkpt lat="43.45596" lon="5.23783">
        <ele>97</ele>
        <time>2022-03-21T13:45:15.000Z</time>
      </trkpt>
      <trkpt lat="43.45597" lon="5.23785">
        <ele>97</ele>
        <time>2022-03-21T13:45:16.000Z</time>
      </trkpt>
      <trkpt lat="43.45598" lon="5.23786">
        <ele>97</ele>
        <time>2022-03-21T13:45:17.000Z</time>
      </trkpt>
      <trkpt lat="43.45599" lon="5.23787">
        <ele>97</ele>
        <time>2022-03-21T13:45:18.000Z</time>
      </trkpt>
      <trkpt lat="43.456" lon="5.23788">
        <ele>97</ele>
        <time>2022-03-21T13:45:19.000Z</time>
      </trkpt>
      <trkpt lat="43.45602" lon="5.23789">
        <ele>97</ele>
        <time>2022-03-21T13:45:20.000Z</time>
      </trkpt>
      <trkpt lat="43.45603" lon="5.2379">
        <ele>97</ele>
        <time>2022-03-21T13:45:21.000Z</time>
      </trkpt>
      <trkpt lat="43.45604" lon="5.2379">
        <ele>97</ele>
        <time>2022-03-21T13:45:22.000Z</time>
      </trkpt>
      <trkpt lat="43.45606" lon="5.23791">
        <ele>97</ele>
        <time>2022-03-21T13:45:23.000Z</time>
      </trkpt>
      <trkpt lat="43.45607" lon="5.23792">
        <ele>97</ele>
        <time>2022-03-21T13:45:24.000Z</time>
      </trkpt>
      <trkpt lat="43.45609" lon="5.23792">
        <ele>97</ele>
        <time>2022-03-21T13:45:25.000Z</time>
      </trkpt>
      <trkpt lat="43.4561" lon="5.23793">
        <ele>97</ele>
        <time>2022-03-21T13:45:26.000Z</time>
      </trkpt>
      <trkpt lat="43.45612" lon="5.23794">
        <ele>97</ele>
        <time>2022-03-21T13:45:27.000Z</time>
      </trkpt>
      <trkpt lat="43.45613" lon="5.23795">
        <ele>97</ele>
        <time>2022-03-21T13:45:28.000Z</time>
      </trkpt>
      <trkpt lat="43.45615" lon="5.23796">
        <ele>97</ele>
        <time>2022-03-21T13:45:29.000Z</time>
      </trkpt>
      <trkpt lat="43.45616" lon="5.23797">
        <ele>97</ele>
        <time>2022-03-21T13:45:30.000Z</time>
      </trkpt>
      <trkpt lat="43.45617" lon="5.23798">
        <ele>97</ele>
        <time>2022-03-21T13:45:31.000Z</time>
      </trkpt>
      <trkpt lat="43.45618" lon="5.23799">
        <ele>97</ele>
        <time>2022-03-21T13:45:32.000Z</time>
      </trkpt>
      <trkpt lat="43.4562" lon="5.23799">
        <ele>97</ele>
        <time>2022-03-21T13:45:33.000Z</time>
      </trkpt>
      <trkpt lat="43.45621" lon="5.238">
        <ele>97</ele>
        <time>2022-03-21T13:45:34.000Z</time>
      </trkpt>
      <trkpt lat="43.45623" lon="5.23801">
        <ele>97</ele>
        <time>2022-03-21T13:45:35.000Z</time>
      </trkpt>
      <trkpt lat="43.45624" lon="5.23802">
        <ele>97</ele>
        <time>2022-03-21T13:45:36.000Z</time>
      </trkpt>
      <trkpt lat="43.45626" lon="5.23803">
        <ele>97</ele>
        <time>2022-03-21T13:45:37.000Z</time>
      </trkpt>
      <trkpt lat="43.45627" lon="5.23803">
        <ele>97</ele>
        <time>2022-03-21T13:45:38.000Z</time>
      </trkpt>
      <trkpt lat="43.45629" lon="5.23803">
        <ele>97</ele>
        <time>2022-03-21T13:45:39.000Z</time>
      </trkpt>
      <trkpt lat="43.4563" lon="5.23803">
        <ele>97</ele>
        <time>2022-03-21T13:45:40.000Z</time>
      </trkpt>
      <trkpt lat="43.45631" lon="5.23802">
        <ele>97</ele>
        <time>2022-03-21T13:45:41.000Z</time>
      </trkpt>
      <trkpt lat="43.45633" lon="5.23801">
        <ele>97</ele>
        <time>2022-03-21T13:45:42.000Z</time>
      </trkpt>
      <trkpt lat="43.45634" lon="5.238">
        <ele>97</ele>
        <time>2022-03-21T13:45:43.000Z</time>
      </trkpt>
      <trkpt lat="43.45635" lon="5.23799">
        <ele>97</ele>
        <time>2022-03-21T13:45:44.000Z</time>
      </trkpt>
      <trkpt lat="43.45637" lon="5.23798">
        <ele>97</ele>
        <time>2022-03-21T13:45:45.000Z</time>
      </trkpt>
      <trkpt lat="43.45639" lon="5.23798">
        <ele>97</ele>
        <time>2022-03-21T13:45:46.000Z</time>
      </trkpt>
      <trkpt lat="43.4564" lon="5.23798">
        <ele>97</ele>
        <time>2022-03-21T13:45:47.000Z</time>
      </trkpt>
      <trkpt lat="43.45642" lon="5.23798">
        <ele>98</ele>
        <time>2022-03-21T13:45:48.000Z</time>
      </trkpt>
      <trkpt lat="43.45643" lon="5.23798">
        <ele>98</ele>
        <time>2022-03-21T13:45:49.000Z</time>
      </trkpt>
      <trkpt lat="43.45644" lon="5.238">
        <ele>98</ele>
        <time>2022-03-21T13:45:50.000Z</time>
      </trkpt>
      <trkpt lat="43.45645" lon="5.23801">
        <ele>97</ele>
        <time>2022-03-21T13:45:51.000Z</time>
      </trkpt>
      <trkpt lat="43.45646" lon="5.23803">
        <ele>97</ele>
        <time>2022-03-21T13:45:52.000Z</time>
      </trkpt>
      <trkpt lat="43.45647" lon="5.23804">
        <ele>97</ele>
        <time>2022-03-21T13:45:53.000Z</time>
      </trkpt>
      <trkpt lat="43.45648" lon="5.23806">
        <ele>97</ele>
        <time>2022-03-21T13:45:54.000Z</time>
      </trkpt>
      <trkpt lat="43.45649" lon="5.23807">
        <ele>97</ele>
        <time>2022-03-21T13:45:55.000Z</time>
      </trkpt>
      <trkpt lat="43.45651" lon="5.23808">
        <ele>97</ele>
        <time>2022-03-21T13:45:56.000Z</time>
      </trkpt>
      <trkpt lat="43.45652" lon="5.2381">
        <ele>97</ele>
        <time>2022-03-21T13:45:57.000Z</time>
      </trkpt>
      <trkpt lat="43.45653" lon="5.23811">
        <ele>97</ele>
        <time>2022-03-21T13:45:58.000Z</time>
      </trkpt>
      <trkpt lat="43.45655" lon="5.23812">
        <ele>97</ele>
        <time>2022-03-21T13:45:59.000Z</time>
      </trkpt>
      <trkpt lat="43.45656" lon="5.23812">
        <ele>97</ele>
        <time>2022-03-21T13:46:00.000Z</time>
      </trkpt>
      <trkpt lat="43.45657" lon="5.23813">
        <ele>97</ele>
        <time>2022-03-21T13:46:01.000Z</time>
      </trkpt>
      <trkpt lat="43.45659" lon="5.23814">
        <ele>97</ele>
        <time>2022-03-21T13:46:02.000Z</time>
      </trkpt>
      <trkpt lat="43.4566" lon="5.23815">
        <ele>97</ele>
        <time>2022-03-21T13:46:03.000Z</time>
      </trkpt>
      <trkpt lat="43.45662" lon="5.23815">
        <ele>97</ele>
        <time>2022-03-21T13:46:04.000Z</time>
      </trkpt>
      <trkpt lat="43.45663" lon="5.23815">
        <ele>97</ele>
        <time>2022-03-21T13:46:05.000Z</time>
      </trkpt>
      <trkpt lat="43.45665" lon="5.23816">
        <ele>97</ele>
        <time>2022-03-21T13:46:06.000Z</time>
      </trkpt>
      <trkpt lat="43.45666" lon="5.23816">
        <ele>97</ele>
        <time>2022-03-21T13:46:07.000Z</time>
      </trkpt>
      <trkpt lat="43.45668" lon="5.23816">
        <ele>97</ele>
        <time>2022-03-21T13:46:08.000Z</time>
      </trkpt>
      <trkpt lat="43.45669" lon="5.23816">
        <ele>97</ele>
        <time>2022-03-21T13:46:09.000Z</time>
      </trkpt>
      <trkpt lat="43.45671" lon="5.23816">
        <ele>97</ele>
        <time>2022-03-21T13:46:10.000Z</time>
      </trkpt>
      <trkpt lat="43.45672" lon="5.23817">
        <ele>97</ele>
        <time>2022-03-21T13:46:11.000Z</time>
      </trkpt>
      <trkpt lat="43.45674" lon="5.23817">
        <ele>97</ele>
        <time>2022-03-21T13:46:12.000Z</time>
      </trkpt>
      <trkpt lat="43.45675" lon="5.23818">
        <ele>97</ele>
        <time>2022-03-21T13:46:13.000Z</time>
      </trkpt>
      <trkpt lat="43.45677" lon="5.23818">
        <ele>97</ele>
        <time>2022-03-21T13:46:14.000Z</time>
      </trkpt>
      <trkpt lat="43.45678" lon="5.23818">
        <ele>97</ele>
        <time>2022-03-21T13:46:15.000Z</time>
      </trkpt>
      <trkpt lat="43.4568" lon="5.23818">
        <ele>97</ele>
        <time>2022-03-21T13:46:16.000Z</time>
      </trkpt>
      <trkpt lat="43.45681" lon="5.23818">
        <ele>97</ele>
        <time>2022-03-21T13:46:17.000Z</time>
      </trkpt>
      <trkpt lat="43.45683" lon="5.23818">
        <ele>97</ele>
        <time>2022-03-21T13:46:18.000Z</time>
      </trkpt>
      <trkpt lat="43.45684" lon="5.23818">
        <ele>97</ele>
        <time>2022-03-21T13:46:19.000Z</time>
      </trkpt>
      <trkpt lat="43.45686" lon="5.23818">
        <ele>97</ele>
        <time>2022-03-21T13:46:20.000Z</time>
      </trkpt>
      <trkpt lat="43.45687" lon="5.23818">
        <ele>97</ele>
        <time>2022-03-21T13:46:21.000Z</time>
      </trkpt>
      <trkpt lat="43.45689" lon="5.23818">
        <ele>97</ele>
        <time>2022-03-21T13:46:22.000Z</time>
      </trkpt>
      <trkpt lat="43.4569" lon="5.23817">
        <ele>97</ele>
        <time>2022-03-21T13:46:23.000Z</time>
      </trkpt>
      <trkpt lat="43.45692" lon="5.23817">
        <ele>97</ele>
        <time>2022-03-21T13:46:24.000Z</time>
      </trkpt>
      <trkpt lat="43.45694" lon="5.23817">
        <ele>97</ele>
        <time>2022-03-21T13:46:25.000Z</time>
      </trkpt>
      <trkpt lat="43.45695" lon="5.23816">
        <ele>97</ele>
        <time>2022-03-21T13:46:26.000Z</time>
      </trkpt>
      <trkpt lat="43.45696" lon="5.23816">
        <ele>97</ele>
        <time>2022-03-21T13:46:27.000Z</time>
      </trkpt>
      <trkpt lat="43.45698" lon="5.23815">
        <ele>97</ele>
        <time>2022-03-21T13:46:28.000Z</time>
      </trkpt>
      <trkpt lat="43.45699" lon="5.23814">
        <ele>97</ele>
        <time>2022-03-21T13:46:29.000Z</time>
      </trkpt>
      <trkpt lat="43.45701" lon="5.23814">
        <ele>98</ele>
        <time>2022-03-21T13:46:30.000Z</time>
      </trkpt>
      <trkpt lat="43.45702" lon="5.23813">
        <ele>98</ele>
        <time>2022-03-21T13:46:31.000Z</time>
      </trkpt>
      <trkpt lat="43.45703" lon="5.23811">
        <ele>98</ele>
        <time>2022-03-21T13:46:32.000Z</time>
      </trkpt>
      <trkpt lat="43.45704" lon="5.2381">
        <ele>98</ele>
        <time>2022-03-21T13:46:33.000Z</time>
      </trkpt>
      <trkpt lat="43.45705" lon="5.23809">
        <ele>98</ele>
        <time>2022-03-21T13:46:34.000Z</time>
      </trkpt>
      <trkpt lat="43.45706" lon="5.23808">
        <ele>98</ele>
        <time>2022-03-21T13:46:35.000Z</time>
      </trkpt>
      <trkpt lat="43.45708" lon="5.23806">
        <ele>98</ele>
        <time>2022-03-21T13:46:36.000Z</time>
      </trkpt>
      <trkpt lat="43.45709" lon="5.23805">
        <ele>99</ele>
        <time>2022-03-21T13:46:37.000Z</time>
      </trkpt>
      <trkpt lat="43.4571" lon="5.23804">
        <ele>99</ele>
        <time>2022-03-21T13:46:38.000Z</time>
      </trkpt>
      <trkpt lat="43.45712" lon="5.23803">
        <ele>99</ele>
        <time>2022-03-21T13:46:39.000Z</time>
      </trkpt>
      <trkpt lat="43.45713" lon="5.23803">
        <ele>99</ele>
        <time>2022-03-21T13:46:40.000Z</time>
      </trkpt>
      <trkpt lat="43.45715" lon="5.23802">
        <ele>99</ele>
        <time>2022-03-21T13:46:41.000Z</time>
      </trkpt>
      <trkpt lat="43.45716" lon="5.23801">
        <ele>99</ele>
        <time>2022-03-21T13:46:42.000Z</time>
      </trkpt>
      <trkpt lat="43.45718" lon="5.23801">
        <ele>99</ele>
        <time>2022-03-21T13:46:43.000Z</time>
      </trkpt>
      <trkpt lat="43.45719" lon="5.238">
        <ele>99</ele>
        <time>2022-03-21T13:46:44.000Z</time>
      </trkpt>
      <trkpt lat="43.45721" lon="5.238">
        <ele>99</ele>
        <time>2022-03-21T13:46:45.000Z</time>
      </trkpt>
      <trkpt lat="43.45722" lon="5.238">
        <ele>99</ele>
        <time>2022-03-21T13:46:46.000Z</time>
      </trkpt>
      <trkpt lat="43.45724" lon="5.238">
        <ele>99</ele>
        <time>2022-03-21T13:46:47.000Z</time>
      </trkpt>
      <trkpt lat="43.45725" lon="5.238">
        <ele>99</ele>
        <time>2022-03-21T13:46:48.000Z</time>
      </trkpt>
      <trkpt lat="43.45727" lon="5.238">
        <ele>99</ele>
        <time>2022-03-21T13:46:49.000Z</time>
      </trkpt>
      <trkpt lat="43.45728" lon="5.238">
        <ele>99</ele>
        <time>2022-03-21T13:46:50.000Z</time>
      </trkpt>
      <trkpt lat="43.4573" lon="5.23801">
        <ele>99</ele>
        <time>2022-03-21T13:46:51.000Z</time>
      </trkpt>
      <trkpt lat="43.45731" lon="5.23801">
        <ele>99</ele>
        <time>2022-03-21T13:46:52.000Z</time>
      </trkpt>
      <trkpt lat="43.45733" lon="5.23801">
        <ele>99</ele>
        <time>2022-03-21T13:46:53.000Z</time>
      </trkpt>
      <trkpt lat="43.45734" lon="5.23801">
        <ele>99</ele>
        <time>2022-03-21T13:46:54.000Z</time>
      </trkpt>
      <trkpt lat="43.45736" lon="5.23801">
        <ele>99</ele>
        <time>2022-03-21T13:46:55.000Z</time>
      </trkpt>
      <trkpt lat="43.45737" lon="5.238">
        <ele>99</ele>
        <time>2022-03-21T13:46:56.000Z</time>
      </trkpt>
      <trkpt lat="43.45738" lon="5.238">
        <ele>99</ele>
        <time>2022-03-21T13:46:57.000Z</time>
      </trkpt>
      <trkpt lat="43.4574" lon="5.23799">
        <ele>99</ele>
        <time>2022-03-21T13:46:58.000Z</time>
      </trkpt>
      <trkpt lat="43.45741" lon="5.23799">
        <ele>99</ele>
        <time>2022-03-21T13:46:59.000Z</time>
      </trkpt>
      <trkpt lat="43.45743" lon="5.23798">
        <ele>99</ele>
        <time>2022-03-21T13:47:00.000Z</time>
      </trkpt>
      <trkpt lat="43.45745" lon="5.23798">
        <ele>99</ele>
        <time>2022-03-21T13:47:01.000Z</time>
      </trkpt>
      <trkpt lat="43.45746" lon="5.23798">
        <ele>99</ele>
        <time>2022-03-21T13:47:02.000Z</time>
      </trkpt>
      <trkpt lat="43.45748" lon="5.23797">
        <ele>99</ele>
        <time>2022-03-21T13:47:03.000Z</time>
      </trkpt>
      <trkpt lat="43.45749" lon="5.23797">
        <ele>99</ele>
        <time>2022-03-21T13:47:04.000Z</time>
      </trkpt>
      <trkpt lat="43.4575" lon="5.23796">
        <ele>99</ele>
        <time>2022-03-21T13:47:05.000Z</time>
      </trkpt>
      <trkpt lat="43.45752" lon="5.23796">
        <ele>99</ele>
        <time>2022-03-21T13:47:06.000Z</time>
      </trkpt>
      <trkpt lat="43.45753" lon="5.23795">
        <ele>99</ele>
        <time>2022-03-21T13:47:07.000Z</time>
      </trkpt>
      <trkpt lat="43.45755" lon="5.23794">
        <ele>99</ele>
        <time>2022-03-21T13:47:08.000Z</time>
      </trkpt>
      <trkpt lat="43.45756" lon="5.23793">
        <ele>99</ele>
        <time>2022-03-21T13:47:09.000Z</time>
      </trkpt>
      <trkpt lat="43.45758" lon="5.23792">
        <ele>99</ele>
        <time>2022-03-21T13:47:10.000Z</time>
      </trkpt>
      <trkpt lat="43.45759" lon="5.23791">
        <ele>99</ele>
        <time>2022-03-21T13:47:11.000Z</time>
      </trkpt>
      <trkpt lat="43.4576" lon="5.2379">
        <ele>99</ele>
        <time>2022-03-21T13:47:12.000Z</time>
      </trkpt>
      <trkpt lat="43.45761" lon="5.23788">
        <ele>99</ele>
        <time>2022-03-21T13:47:13.000Z</time>
      </trkpt>
      <trkpt lat="43.45761" lon="5.23786">
        <ele>99</ele>
        <time>2022-03-21T13:47:14.000Z</time>
      </trkpt>
      <trkpt lat="43.45761" lon="5.23785">
        <ele>99</ele>
        <time>2022-03-21T13:47:15.000Z</time>
      </trkpt>
      <trkpt lat="43.45761" lon="5.23783">
        <ele>99</ele>
        <time>2022-03-21T13:47:16.000Z</time>
      </trkpt>
      <trkpt lat="43.45761" lon="5.23782">
        <ele>99</ele>
        <time>2022-03-21T13:47:17.000Z</time>
      </trkpt>
      <trkpt lat="43.4576" lon="5.2378">
        <ele>99</ele>
        <time>2022-03-21T13:47:18.000Z</time>
      </trkpt>
      <trkpt lat="43.45758" lon="5.2378">
        <ele>99</ele>
        <time>2022-03-21T13:47:19.000Z</time>
      </trkpt>
      <trkpt lat="43.45757" lon="5.23779">
        <ele>99</ele>
        <time>2022-03-21T13:47:20.000Z</time>
      </trkpt>
      <trkpt lat="43.45756" lon="5.23778">
        <ele>99</ele>
        <time>2022-03-21T13:47:21.000Z</time>
      </trkpt>
      <trkpt lat="43.45755" lon="5.23777">
        <ele>99</ele>
        <time>2022-03-21T13:47:22.000Z</time>
      </trkpt>
      <trkpt lat="43.45753" lon="5.23777">
        <ele>99</ele>
        <time>2022-03-21T13:47:23.000Z</time>
      </trkpt>
      <trkpt lat="43.45752" lon="5.23776">
        <ele>99</ele>
        <time>2022-03-21T13:47:24.000Z</time>
      </trkpt>
      <trkpt lat="43.45751" lon="5.23775">
        <ele>99</ele>
        <time>2022-03-21T13:47:25.000Z</time>
      </trkpt>
      <trkpt lat="43.45749" lon="5.23774">
        <ele>99</ele>
        <time>2022-03-21T13:47:26.000Z</time>
      </trkpt>
      <trkpt lat="43.45748" lon="5.23774">
        <ele>99</ele>
        <time>2022-03-21T13:47:27.000Z</time>
      </trkpt>
      <trkpt lat="43.45746" lon="5.23773">
        <ele>99</ele>
        <time>2022-03-21T13:47:28.000Z</time>
      </trkpt>
      <trkpt lat="43.45745" lon="5.23772">
        <ele>99</ele>
        <time>2022-03-21T13:47:29.000Z</time>
      </trkpt>
      <trkpt lat="43.45744" lon="5.23771">
        <ele>99</ele>
        <time>2022-03-21T13:47:30.000Z</time>
      </trkpt>
      <trkpt lat="43.45742" lon="5.2377">
        <ele>99</ele>
        <time>2022-03-21T13:47:31.000Z</time>
      </trkpt>
      <trkpt lat="43.45741" lon="5.2377">
        <ele>99</ele>
        <time>2022-03-21T13:47:32.000Z</time>
      </trkpt>
      <trkpt lat="43.4574" lon="5.23769">
        <ele>99</ele>
        <time>2022-03-21T13:47:33.000Z</time>
      </trkpt>
      <trkpt lat="43.45738" lon="5.23768">
        <ele>99</ele>
        <time>2022-03-21T13:47:34.000Z</time>
      </trkpt>
      <trkpt lat="43.45737" lon="5.23767">
        <ele>99</ele>
        <time>2022-03-21T13:47:35.000Z</time>
      </trkpt>
      <trkpt lat="43.45735" lon="5.23767">
        <ele>100</ele>
        <time>2022-03-21T13:47:36.000Z</time>
      </trkpt>
      <trkpt lat="43.45734" lon="5.23766">
        <ele>100</ele>
        <time>2022-03-21T13:47:37.000Z</time>
      </trkpt>
      <trkpt lat="43.45733" lon="5.23765">
        <ele>100</ele>
        <time>2022-03-21T13:47:38.000Z</time>
      </trkpt>
      <trkpt lat="43.45731" lon="5.23764">
        <ele>100</ele>
        <time>2022-03-21T13:47:39.000Z</time>
      </trkpt>
      <trkpt lat="43.4573" lon="5.23764">
        <ele>100</ele>
        <time>2022-03-21T13:47:40.000Z</time>
      </trkpt>
      <trkpt lat="43.45728" lon="5.23763">
        <ele>100</ele>
        <time>2022-03-21T13:47:41.000Z</time>
      </trkpt>
      <trkpt lat="43.45727" lon="5.23763">
        <ele>100</ele>
        <time>2022-03-21T13:47:42.000Z</time>
      </trkpt>
      <trkpt lat="43.45725" lon="5.23762">
        <ele>100</ele>
        <time>2022-03-21T13:47:43.000Z</time>
      </trkpt>
      <trkpt lat="43.45724" lon="5.23761">
        <ele>100</ele>
        <time>2022-03-21T13:47:44.000Z</time>
      </trkpt>
      <trkpt lat="43.45723" lon="5.23761">
        <ele>100</ele>
        <time>2022-03-21T13:47:45.000Z</time>
      </trkpt>
      <trkpt lat="43.45721" lon="5.2376">
        <ele>100</ele>
        <time>2022-03-21T13:47:46.000Z</time>
      </trkpt>
      <trkpt lat="43.4572" lon="5.23759">
        <ele>100</ele>
        <time>2022-03-21T13:47:47.000Z</time>
      </trkpt>
      <trkpt lat="43.45718" lon="5.23758">
        <ele>99</ele>
        <time>2022-03-21T13:47:48.000Z</time>
      </trkpt>
      <trkpt lat="43.45717" lon="5.23758">
        <ele>99</ele>
        <time>2022-03-21T13:47:49.000Z</time>
      </trkpt>
      <trkpt lat="43.45716" lon="5.23757">
        <ele>99</ele>
        <time>2022-03-21T13:47:50.000Z</time>
      </trkpt>
      <trkpt lat="43.45714" lon="5.23756">
        <ele>99</ele>
        <time>2022-03-21T13:47:51.000Z</time>
      </trkpt>
      <trkpt lat="43.45713" lon="5.23756">
        <ele>99</ele>
        <time>2022-03-21T13:47:52.000Z</time>
      </trkpt>
      <trkpt lat="43.45712" lon="5.23755">
        <ele>99</ele>
        <time>2022-03-21T13:47:53.000Z</time>
      </trkpt>
      <trkpt lat="43.4571" lon="5.23754">
        <ele>99</ele>
        <time>2022-03-21T13:47:54.000Z</time>
      </trkpt>
      <trkpt lat="43.45709" lon="5.23753">
        <ele>99</ele>
        <time>2022-03-21T13:47:55.000Z</time>
      </trkpt>
      <trkpt lat="43.45707" lon="5.23752">
        <ele>99</ele>
        <time>2022-03-21T13:47:56.000Z</time>
      </trkpt>
      <trkpt lat="43.45706" lon="5.23752">
        <ele>98</ele>
        <time>2022-03-21T13:47:57.000Z</time>
      </trkpt>
      <trkpt lat="43.45704" lon="5.23751">
        <ele>98</ele>
        <time>2022-03-21T13:47:58.000Z</time>
      </trkpt>
      <trkpt lat="43.45703" lon="5.2375">
        <ele>98</ele>
        <time>2022-03-21T13:47:59.000Z</time>
      </trkpt>
      <trkpt lat="43.45701" lon="5.2375">
        <ele>98</ele>
        <time>2022-03-21T13:48:00.000Z</time>
      </trkpt>
      <trkpt lat="43.457" lon="5.23749">
        <ele>98</ele>
        <time>2022-03-21T13:48:01.000Z</time>
      </trkpt>
      <trkpt lat="43.45698" lon="5.23748">
        <ele>98</ele>
        <time>2022-03-21T13:48:02.000Z</time>
      </trkpt>
      <trkpt lat="43.45697" lon="5.23747">
        <ele>98</ele>
        <time>2022-03-21T13:48:03.000Z</time>
      </trkpt>
      <trkpt lat="43.45695" lon="5.23747">
        <ele>98</ele>
        <time>2022-03-21T13:48:04.000Z</time>
      </trkpt>
      <trkpt lat="43.45694" lon="5.23746">
        <ele>98</ele>
        <time>2022-03-21T13:48:05.000Z</time>
      </trkpt>
      <trkpt lat="43.45692" lon="5.23746">
        <ele>98</ele>
        <time>2022-03-21T13:48:06.000Z</time>
      </trkpt>
      <trkpt lat="43.45691" lon="5.23745">
        <ele>98</ele>
        <time>2022-03-21T13:48:07.000Z</time>
      </trkpt>
      <trkpt lat="43.45689" lon="5.23745">
        <ele>98</ele>
        <time>2022-03-21T13:48:08.000Z</time>
      </trkpt>
      <trkpt lat="43.45688" lon="5.23744">
        <ele>98</ele>
        <time>2022-03-21T13:48:09.000Z</time>
      </trkpt>
      <trkpt lat="43.45686" lon="5.23744">
        <ele>98</ele>
        <time>2022-03-21T13:48:10.000Z</time>
      </trkpt>
      <trkpt lat="43.45685" lon="5.23744">
        <ele>98</ele>
        <time>2022-03-21T13:48:11.000Z</time>
      </trkpt>
      <trkpt lat="43.45684" lon="5.23743">
        <ele>98</ele>
        <time>2022-03-21T13:48:12.000Z</time>
      </trkpt>
      <trkpt lat="43.45682" lon="5.23743">
        <ele>98</ele>
        <time>2022-03-21T13:48:13.000Z</time>
      </trkpt>
      <trkpt lat="43.45681" lon="5.23743">
        <ele>98</ele>
        <time>2022-03-21T13:48:14.000Z</time>
      </trkpt>
      <trkpt lat="43.45679" lon="5.23743">
        <ele>98</ele>
        <time>2022-03-21T13:48:15.000Z</time>
      </trkpt>
      <trkpt lat="43.45678" lon="5.23744">
        <ele>98</ele>
        <time>2022-03-21T13:48:16.000Z</time>
      </trkpt>
      <trkpt lat="43.45677" lon="5.23744">
        <ele>98</ele>
        <time>2022-03-21T13:48:17.000Z</time>
      </trkpt>
      <trkpt lat="43.45675" lon="5.23745">
        <ele>98</ele>
        <time>2022-03-21T13:48:18.000Z</time>
      </trkpt>
      <trkpt lat="43.45674" lon="5.23746">
        <ele>98</ele>
        <time>2022-03-21T13:48:19.000Z</time>
      </trkpt>
      <trkpt lat="43.45673" lon="5.23747">
        <ele>98</ele>
        <time>2022-03-21T13:48:20.000Z</time>
      </trkpt>
      <trkpt lat="43.45671" lon="5.23748">
        <ele>98</ele>
        <time>2022-03-21T13:48:21.000Z</time>
      </trkpt>
      <trkpt lat="43.4567" lon="5.23749">
        <ele>98</ele>
        <time>2022-03-21T13:48:22.000Z</time>
      </trkpt>
      <trkpt lat="43.45669" lon="5.2375">
        <ele>98</ele>
        <time>2022-03-21T13:48:23.000Z</time>
      </trkpt>
      <trkpt lat="43.45668" lon="5.2375">
        <ele>98</ele>
        <time>2022-03-21T13:48:24.000Z</time>
      </trkpt>
      <trkpt lat="43.45666" lon="5.23751">
        <ele>98</ele>
        <time>2022-03-21T13:48:25.000Z</time>
      </trkpt>
      <trkpt lat="43.45665" lon="5.23752">
        <ele>98</ele>
        <time>2022-03-21T13:48:26.000Z</time>
      </trkpt>
      <trkpt lat="43.45664" lon="5.23753">
        <ele>98</ele>
        <time>2022-03-21T13:48:27.000Z</time>
      </trkpt>
      <trkpt lat="43.45663" lon="5.23754">
        <ele>98</ele>
        <time>2022-03-21T13:48:28.000Z</time>
      </trkpt>
      <trkpt lat="43.45661" lon="5.23755">
        <ele>98</ele>
        <time>2022-03-21T13:48:29.000Z</time>
      </trkpt>
      <trkpt lat="43.4566" lon="5.23755">
        <ele>98</ele>
        <time>2022-03-21T13:48:30.000Z</time>
      </trkpt>
      <trkpt lat="43.45658" lon="5.23756">
        <ele>98</ele>
        <time>2022-03-21T13:48:31.000Z</time>
      </trkpt>
      <trkpt lat="43.45657" lon="5.23757">
        <ele>98</ele>
        <time>2022-03-21T13:48:32.000Z</time>
      </trkpt>
      <trkpt lat="43.45655" lon="5.23757">
        <ele>98</ele>
        <time>2022-03-21T13:48:33.000Z</time>
      </trkpt>
      <trkpt lat="43.45653" lon="5.23758">
        <ele>98</ele>
        <time>2022-03-21T13:48:34.000Z</time>
      </trkpt>
      <trkpt lat="43.45652" lon="5.23758">
        <ele>98</ele>
        <time>2022-03-21T13:48:35.000Z</time>
      </trkpt>
      <trkpt lat="43.4565" lon="5.23759">
        <ele>98</ele>
        <time>2022-03-21T13:48:36.000Z</time>
      </trkpt>
      <trkpt lat="43.45649" lon="5.2376">
        <ele>98</ele>
        <time>2022-03-21T13:48:37.000Z</time>
      </trkpt>
      <trkpt lat="43.45647" lon="5.2376">
        <ele>98</ele>
        <time>2022-03-21T13:48:38.000Z</time>
      </trkpt>
      <trkpt lat="43.45646" lon="5.2376">
        <ele>98</ele>
        <time>2022-03-21T13:48:39.000Z</time>
      </trkpt>
      <trkpt lat="43.45644" lon="5.2376">
        <ele>98</ele>
        <time>2022-03-21T13:48:40.000Z</time>
      </trkpt>
      <trkpt lat="43.45642" lon="5.2376">
        <ele>98</ele>
        <time>2022-03-21T13:48:41.000Z</time>
      </trkpt>
      <trkpt lat="43.45641" lon="5.2376">
        <ele>98</ele>
        <time>2022-03-21T13:48:42.000Z</time>
      </trkpt>
      <trkpt lat="43.45639" lon="5.2376">
        <ele>98</ele>
        <time>2022-03-21T13:48:43.000Z</time>
      </trkpt>
      <trkpt lat="43.45637" lon="5.2376">
        <ele>98</ele>
        <time>2022-03-21T13:48:44.000Z</time>
      </trkpt>
      <trkpt lat="43.45636" lon="5.2376">
        <ele>98</ele>
        <time>2022-03-21T13:48:45.000Z</time>
      </trkpt>
      <trkpt lat="43.45635" lon="5.23759">
        <ele>98</ele>
        <time>2022-03-21T13:48:46.000Z</time>
      </trkpt>
      <trkpt lat="43.45633" lon="5.23758">
        <ele>98</ele>
        <time>2022-03-21T13:48:47.000Z</time>
      </trkpt>
      <trkpt lat="43.45632" lon="5.23758">
        <ele>98</ele>
        <time>2022-03-21T13:48:48.000Z</time>
      </trkpt>
      <trkpt lat="43.4563" lon="5.23757">
        <ele>98</ele>
        <time>2022-03-21T13:48:49.000Z</time>
      </trkpt>
      <trkpt lat="43.45629" lon="5.23757">
        <ele>98</ele>
        <time>2022-03-21T13:48:50.000Z</time>
      </trkpt>
      <trkpt lat="43.45628" lon="5.23757">
        <ele>98</ele>
        <time>2022-03-21T13:48:51.000Z</time>
      </trkpt>
      <trkpt lat="43.45626" lon="5.23757">
        <ele>98</ele>
        <time>2022-03-21T13:48:52.000Z</time>
      </trkpt>
      <trkpt lat="43.45625" lon="5.23758">
        <ele>98</ele>
        <time>2022-03-21T13:48:53.000Z</time>
      </trkpt>
      <trkpt lat="43.45623" lon="5.23758">
        <ele>98</ele>
        <time>2022-03-21T13:48:54.000Z</time>
      </trkpt>
      <trkpt lat="43.45622" lon="5.23759">
        <ele>98</ele>
        <time>2022-03-21T13:48:55.000Z</time>
      </trkpt>
      <trkpt lat="43.4562" lon="5.23759">
        <ele>98</ele>
        <time>2022-03-21T13:48:56.000Z</time>
      </trkpt>
      <trkpt lat="43.45619" lon="5.2376">
        <ele>98</ele>
        <time>2022-03-21T13:48:57.000Z</time>
      </trkpt>
      <trkpt lat="43.45617" lon="5.2376">
        <ele>98</ele>
        <time>2022-03-21T13:48:58.000Z</time>
      </trkpt>
      <trkpt lat="43.45616" lon="5.23761">
        <ele>98</ele>
        <time>2022-03-21T13:48:59.000Z</time>
      </trkpt>
      <trkpt lat="43.45615" lon="5.23761">
        <ele>97</ele>
        <time>2022-03-21T13:49:00.000Z</time>
      </trkpt>
      <trkpt lat="43.45613" lon="5.23762">
        <ele>97</ele>
        <time>2022-03-21T13:49:01.000Z</time>
      </trkpt>
      <trkpt lat="43.45612" lon="5.23762">
        <ele>97</ele>
        <time>2022-03-21T13:49:02.000Z</time>
      </trkpt>
      <trkpt lat="43.4561" lon="5.23762">
        <ele>97</ele>
        <time>2022-03-21T13:49:03.000Z</time>
      </trkpt>
      <trkpt lat="43.45609" lon="5.23762">
        <ele>97</ele>
        <time>2022-03-21T13:49:04.000Z</time>
      </trkpt>
      <trkpt lat="43.45607" lon="5.23763">
        <ele>97</ele>
        <time>2022-03-21T13:49:05.000Z</time>
      </trkpt>
      <trkpt lat="43.45606" lon="5.23763">
        <ele>97</ele>
        <time>2022-03-21T13:49:06.000Z</time>
      </trkpt>
      <trkpt lat="43.45604" lon="5.23763">
        <ele>97</ele>
        <time>2022-03-21T13:49:07.000Z</time>
      </trkpt>
      <trkpt lat="43.45602" lon="5.23764">
        <ele>97</ele>
        <time>2022-03-21T13:49:08.000Z</time>
      </trkpt>
      <trkpt lat="43.45601" lon="5.23764">
        <ele>97</ele>
        <time>2022-03-21T13:49:09.000Z</time>
      </trkpt>
      <trkpt lat="43.45599" lon="5.23764">
        <ele>97</ele>
        <time>2022-03-21T13:49:10.000Z</time>
      </trkpt>
      <trkpt lat="43.45598" lon="5.23765">
        <ele>97</ele>
        <time>2022-03-21T13:49:11.000Z</time>
      </trkpt>
      <trkpt lat="43.45596" lon="5.23765">
        <ele>97</ele>
        <time>2022-03-21T13:49:12.000Z</time>
      </trkpt>
      <trkpt lat="43.45595" lon="5.23766">
        <ele>97</ele>
        <time>2022-03-21T13:49:13.000Z</time>
      </trkpt>
      <trkpt lat="43.45594" lon="5.23767">
        <ele>97</ele>
        <time>2022-03-21T13:49:14.000Z</time>
      </trkpt>
      <trkpt lat="43.45592" lon="5.23768">
        <ele>97</ele>
        <time>2022-03-21T13:49:15.000Z</time>
      </trkpt>
      <trkpt lat="43.45591" lon="5.23768">
        <ele>97</ele>
        <time>2022-03-21T13:49:16.000Z</time>
      </trkpt>
      <trkpt lat="43.45589" lon="5.23769">
        <ele>97</ele>
        <time>2022-03-21T13:49:17.000Z</time>
      </trkpt>
      <trkpt lat="43.45588" lon="5.23769">
        <ele>97</ele>
        <time>2022-03-21T13:49:18.000Z</time>
      </trkpt>
      <trkpt lat="43.45587" lon="5.2377">
        <ele>97</ele>
        <time>2022-03-21T13:49:19.000Z</time>
      </trkpt>
      <trkpt lat="43.45586" lon="5.23772">
        <ele>97</ele>
        <time>2022-03-21T13:49:20.000Z</time>
      </trkpt>
      <trkpt lat="43.45585" lon="5.23773">
        <ele>97</ele>
        <time>2022-03-21T13:49:21.000Z</time>
      </trkpt>
      <trkpt lat="43.45586" lon="5.23774">
        <ele>97</ele>
        <time>2022-03-21T13:49:22.000Z</time>
      </trkpt>
      <trkpt lat="43.45586" lon="5.23775">
        <ele>97</ele>
        <time>2022-03-21T13:49:23.000Z</time>
      </trkpt>
      <trkpt lat="43.45587" lon="5.23776">
        <ele>97</ele>
        <time>2022-03-21T13:49:24.000Z</time>
      </trkpt>
      <trkpt lat="43.45588" lon="5.23777">
        <ele>97</ele>
        <time>2022-03-21T13:49:25.000Z</time>
      </trkpt>
      <trkpt lat="43.4559" lon="5.23778">
        <ele>97</ele>
        <time>2022-03-21T13:49:26.000Z</time>
      </trkpt>
      <trkpt lat="43.45591" lon="5.23779">
        <ele>97</ele>
        <time>2022-03-21T13:49:27.000Z</time>
      </trkpt>
      <trkpt lat="43.45592" lon="5.2378">
        <ele>97</ele>
        <time>2022-03-21T13:49:28.000Z</time>
      </trkpt>
      <trkpt lat="43.45593" lon="5.23781">
        <ele>97</ele>
        <time>2022-03-21T13:49:29.000Z</time>
      </trkpt>
      <trkpt lat="43.45595" lon="5.23782">
        <ele>97</ele>
        <time>2022-03-21T13:49:30.000Z</time>
      </trkpt>
      <trkpt lat="43.45596" lon="5.23782">
        <ele>97</ele>
        <time>2022-03-21T13:49:31.000Z</time>
      </trkpt>
      <trkpt lat="43.45598" lon="5.23783">
        <ele>97</ele>
        <time>2022-03-21T13:49:32.000Z</time>
      </trkpt>
      <trkpt lat="43.45599" lon="5.23785">
        <ele>97</ele>
        <time>2022-03-21T13:49:33.000Z</time>
      </trkpt>
      <trkpt lat="43.456" lon="5.23786">
        <ele>97</ele>
        <time>2022-03-21T13:49:34.000Z</time>
      </trkpt>
      <trkpt lat="43.45601" lon="5.23788">
        <ele>97</ele>
        <time>2022-03-21T13:49:35.000Z</time>
      </trkpt>
      <trkpt lat="43.45602" lon="5.23789">
        <ele>97</ele>
        <time>2022-03-21T13:49:36.000Z</time>
      </trkpt>
      <trkpt lat="43.45603" lon="5.2379">
        <ele>97</ele>
        <time>2022-03-21T13:49:37.000Z</time>
      </trkpt>
      <trkpt lat="43.45604" lon="5.2379">
        <ele>97</ele>
        <time>2022-03-21T13:49:38.000Z</time>
      </trkpt>
      <trkpt lat="43.45605" lon="5.23791">
        <ele>97</ele>
        <time>2022-03-21T13:49:39.000Z</time>
      </trkpt>
      <trkpt lat="43.45607" lon="5.23792">
        <ele>97</ele>
        <time>2022-03-21T13:49:40.000Z</time>
      </trkpt>
      <trkpt lat="43.45608" lon="5.23792">
        <ele>97</ele>
        <time>2022-03-21T13:49:41.000Z</time>
      </trkpt>
      <trkpt lat="43.45609" lon="5.23793">
        <ele>97</ele>
        <time>2022-03-21T13:49:42.000Z</time>
      </trkpt>
      <trkpt lat="43.45611" lon="5.23794">
        <ele>97</ele>
        <time>2022-03-21T13:49:43.000Z</time>
      </trkpt>
      <trkpt lat="43.45612" lon="5.23794">
        <ele>97</ele>
        <time>2022-03-21T13:49:44.000Z</time>
      </trkpt>
      <trkpt lat="43.45614" lon="5.23795">
        <ele>97</ele>
        <time>2022-03-21T13:49:45.000Z</time>
      </trkpt>
      <trkpt lat="43.45615" lon="5.23796">
        <ele>97</ele>
        <time>2022-03-21T13:49:46.000Z</time>
      </trkpt>
      <trkpt lat="43.45617" lon="5.23797">
        <ele>97</ele>
        <time>2022-03-21T13:49:47.000Z</time>
      </trkpt>
      <trkpt lat="43.45618" lon="5.23798">
        <ele>97</ele>
        <time>2022-03-21T13:49:48.000Z</time>
      </trkpt>
      <trkpt lat="43.45619" lon="5.23799">
        <ele>97</ele>
        <time>2022-03-21T13:49:49.000Z</time>
      </trkpt>
      <trkpt lat="43.45621" lon="5.238">
        <ele>97</ele>
        <time>2022-03-21T13:49:50.000Z</time>
      </trkpt>
      <trkpt lat="43.45622" lon="5.23801">
        <ele>97</ele>
        <time>2022-03-21T13:49:51.000Z</time>
      </trkpt>
      <trkpt lat="43.45623" lon="5.23802">
        <ele>97</ele>
        <time>2022-03-21T13:49:52.000Z</time>
      </trkpt>
      <trkpt lat="43.45625" lon="5.23803">
        <ele>97</ele>
        <time>2022-03-21T13:49:53.000Z</time>
      </trkpt>
      <trkpt lat="43.45626" lon="5.23804">
        <ele>97</ele>
        <time>2022-03-21T13:49:54.000Z</time>
      </trkpt>
      <trkpt lat="43.45627" lon="5.23804">
        <ele>97</ele>
        <time>2022-03-21T13:49:55.000Z</time>
      </trkpt>
      <trkpt lat="43.45629" lon="5.23805">
        <ele>97</ele>
        <time>2022-03-21T13:49:56.000Z</time>
      </trkpt>
      <trkpt lat="43.4563" lon="5.23804">
        <ele>96</ele>
        <time>2022-03-21T13:49:57.000Z</time>
      </trkpt>
      <trkpt lat="43.45632" lon="5.23804">
        <ele>96</ele>
        <time>2022-03-21T13:49:58.000Z</time>
      </trkpt>
      <trkpt lat="43.45633" lon="5.23803">
        <ele>96</ele>
        <time>2022-03-21T13:49:59.000Z</time>
      </trkpt>
      <trkpt lat="43.45634" lon="5.23802">
        <ele>96</ele>
        <time>2022-03-21T13:50:00.000Z</time>
      </trkpt>
      <trkpt lat="43.45636" lon="5.23801">
        <ele>96</ele>
        <time>2022-03-21T13:50:01.000Z</time>
      </trkpt>
      <trkpt lat="43.45637" lon="5.238">
        <ele>96</ele>
        <time>2022-03-21T13:50:02.000Z</time>
      </trkpt>
      <trkpt lat="43.45639" lon="5.23799">
        <ele>96</ele>
        <time>2022-03-21T13:50:03.000Z</time>
      </trkpt>
      <trkpt lat="43.4564" lon="5.23798">
        <ele>96</ele>
        <time>2022-03-21T13:50:04.000Z</time>
      </trkpt>
      <trkpt lat="43.45642" lon="5.23798">
        <ele>96</ele>
        <time>2022-03-21T13:50:05.000Z</time>
      </trkpt>
      <trkpt lat="43.45643" lon="5.23798">
        <ele>96</ele>
        <time>2022-03-21T13:50:06.000Z</time>
      </trkpt>
      <trkpt lat="43.45644" lon="5.23798">
        <ele>96</ele>
        <time>2022-03-21T13:50:07.000Z</time>
      </trkpt>
      <trkpt lat="43.45645" lon="5.23799">
        <ele>96</ele>
        <time>2022-03-21T13:50:08.000Z</time>
      </trkpt>
      <trkpt lat="43.45646" lon="5.238">
        <ele>96</ele>
        <time>2022-03-21T13:50:09.000Z</time>
      </trkpt>
      <trkpt lat="43.45648" lon="5.23802">
        <ele>96</ele>
        <time>2022-03-21T13:50:10.000Z</time>
      </trkpt>
      <trkpt lat="43.45649" lon="5.23803">
        <ele>96</ele>
        <time>2022-03-21T13:50:11.000Z</time>
      </trkpt>
      <trkpt lat="43.4565" lon="5.23805">
        <ele>96</ele>
        <time>2022-03-21T13:50:12.000Z</time>
      </trkpt>
      <trkpt lat="43.45651" lon="5.23807">
        <ele>96</ele>
        <time>2022-03-21T13:50:13.000Z</time>
      </trkpt>
      <trkpt lat="43.45652" lon="5.23808">
        <ele>96</ele>
        <time>2022-03-21T13:50:14.000Z</time>
      </trkpt>
      <trkpt lat="43.45653" lon="5.2381">
        <ele>96</ele>
        <time>2022-03-21T13:50:15.000Z</time>
      </trkpt>
      <trkpt lat="43.45655" lon="5.23811">
        <ele>96</ele>
        <time>2022-03-21T13:50:16.000Z</time>
      </trkpt>
      <trkpt lat="43.45656" lon="5.23812">
        <ele>96</ele>
        <time>2022-03-21T13:50:17.000Z</time>
      </trkpt>
      <trkpt lat="43.45658" lon="5.23812">
        <ele>96</ele>
        <time>2022-03-21T13:50:18.000Z</time>
      </trkpt>
      <trkpt lat="43.45659" lon="5.23813">
        <ele>96</ele>
        <time>2022-03-21T13:50:19.000Z</time>
      </trkpt>
      <trkpt lat="43.4566" lon="5.23814">
        <ele>97</ele>
        <time>2022-03-21T13:50:20.000Z</time>
      </trkpt>
      <trkpt lat="43.45662" lon="5.23814">
        <ele>97</ele>
        <time>2022-03-21T13:50:21.000Z</time>
      </trkpt>
      <trkpt lat="43.45663" lon="5.23815">
        <ele>97</ele>
        <time>2022-03-21T13:50:22.000Z</time>
      </trkpt>
      <trkpt lat="43.45665" lon="5.23815">
        <ele>97</ele>
        <time>2022-03-21T13:50:23.000Z</time>
      </trkpt>
      <trkpt lat="43.45666" lon="5.23816">
        <ele>97</ele>
        <time>2022-03-21T13:50:24.000Z</time>
      </trkpt>
      <trkpt lat="43.45668" lon="5.23816">
        <ele>97</ele>
        <time>2022-03-21T13:50:25.000Z</time>
      </trkpt>
      <trkpt lat="43.45669" lon="5.23816">
        <ele>97</ele>
        <time>2022-03-21T13:50:26.000Z</time>
      </trkpt>
      <trkpt lat="43.45671" lon="5.23816">
        <ele>97</ele>
        <time>2022-03-21T13:50:27.000Z</time>
      </trkpt>
      <trkpt lat="43.45672" lon="5.23817">
        <ele>97</ele>
        <time>2022-03-21T13:50:28.000Z</time>
      </trkpt>
      <trkpt lat="43.45673" lon="5.23817">
        <ele>97</ele>
        <time>2022-03-21T13:50:29.000Z</time>
      </trkpt>
      <trkpt lat="43.45675" lon="5.23817">
        <ele>97</ele>
        <time>2022-03-21T13:50:30.000Z</time>
      </trkpt>
      <trkpt lat="43.45676" lon="5.23818">
        <ele>97</ele>
        <time>2022-03-21T13:50:31.000Z</time>
      </trkpt>
      <trkpt lat="43.45678" lon="5.23818">
        <ele>97</ele>
        <time>2022-03-21T13:50:32.000Z</time>
      </trkpt>
      <trkpt lat="43.45679" lon="5.23818">
        <ele>97</ele>
        <time>2022-03-21T13:50:33.000Z</time>
      </trkpt>
      <trkpt lat="43.4568" lon="5.23818">
        <ele>96</ele>
        <time>2022-03-21T13:50:34.000Z</time>
      </trkpt>
      <trkpt lat="43.45682" lon="5.23818">
        <ele>96</ele>
        <time>2022-03-21T13:50:35.000Z</time>
      </trkpt>
      <trkpt lat="43.45683" lon="5.23818">
        <ele>96</ele>
        <time>2022-03-21T13:50:36.000Z</time>
      </trkpt>
      <trkpt lat="43.45685" lon="5.23818">
        <ele>96</ele>
        <time>2022-03-21T13:50:37.000Z</time>
      </trkpt>
      <trkpt lat="43.45686" lon="5.23818">
        <ele>96</ele>
        <time>2022-03-21T13:50:38.000Z</time>
      </trkpt>
      <trkpt lat="43.45688" lon="5.23818">
        <ele>96</ele>
        <time>2022-03-21T13:50:39.000Z</time>
      </trkpt>
      <trkpt lat="43.45689" lon="5.23818">
        <ele>96</ele>
        <time>2022-03-21T13:50:40.000Z</time>
      </trkpt>
      <trkpt lat="43.45691" lon="5.23818">
        <ele>96</ele>
        <time>2022-03-21T13:50:41.000Z</time>
      </trkpt>
      <trkpt lat="43.45692" lon="5.23818">
        <ele>96</ele>
        <time>2022-03-21T13:50:42.000Z</time>
      </trkpt>
      <trkpt lat="43.45694" lon="5.23817">
        <ele>96</ele>
        <time>2022-03-21T13:50:43.000Z</time>
      </trkpt>
      <trkpt lat="43.45695" lon="5.23817">
        <ele>96</ele>
        <time>2022-03-21T13:50:44.000Z</time>
      </trkpt>
      <trkpt lat="43.45697" lon="5.23817">
        <ele>96</ele>
        <time>2022-03-21T13:50:45.000Z</time>
      </trkpt>
      <trkpt lat="43.45698" lon="5.23816">
        <ele>97</ele>
        <time>2022-03-21T13:50:46.000Z</time>
      </trkpt>
      <trkpt lat="43.45699" lon="5.23815">
        <ele>97</ele>
        <time>2022-03-21T13:50:47.000Z</time>
      </trkpt>
      <trkpt lat="43.45701" lon="5.23814">
        <ele>97</ele>
        <time>2022-03-21T13:50:48.000Z</time>
      </trkpt>
      <trkpt lat="43.45702" lon="5.23813">
        <ele>97</ele>
        <time>2022-03-21T13:50:49.000Z</time>
      </trkpt>
      <trkpt lat="43.45703" lon="5.23812">
        <ele>97</ele>
        <time>2022-03-21T13:50:50.000Z</time>
      </trkpt>
      <trkpt lat="43.45704" lon="5.23811">
        <ele>97</ele>
        <time>2022-03-21T13:50:51.000Z</time>
      </trkpt>
      <trkpt lat="43.45705" lon="5.23809">
        <ele>97</ele>
        <time>2022-03-21T13:50:52.000Z</time>
      </trkpt>
      <trkpt lat="43.45706" lon="5.23808">
        <ele>97</ele>
        <time>2022-03-21T13:50:53.000Z</time>
      </trkpt>
      <trkpt lat="43.45708" lon="5.23807">
        <ele>97</ele>
        <time>2022-03-21T13:50:54.000Z</time>
      </trkpt>
      <trkpt lat="43.45709" lon="5.23806">
        <ele>97</ele>
        <time>2022-03-21T13:50:55.000Z</time>
      </trkpt>
      <trkpt lat="43.45711" lon="5.23805">
        <ele>97</ele>
        <time>2022-03-21T13:50:56.000Z</time>
      </trkpt>
      <trkpt lat="43.45712" lon="5.23804">
        <ele>97</ele>
        <time>2022-03-21T13:50:57.000Z</time>
      </trkpt>
      <trkpt lat="43.45714" lon="5.23804">
        <ele>97</ele>
        <time>2022-03-21T13:50:58.000Z</time>
      </trkpt>
      <trkpt lat="43.45715" lon="5.23803">
        <ele>97</ele>
        <time>2022-03-21T13:50:59.000Z</time>
      </trkpt>
      <trkpt lat="43.45717" lon="5.23802">
        <ele>97</ele>
        <time>2022-03-21T13:51:00.000Z</time>
      </trkpt>
      <trkpt lat="43.45718" lon="5.23802">
        <ele>97</ele>
        <time>2022-03-21T13:51:01.000Z</time>
      </trkpt>
      <trkpt lat="43.45719" lon="5.23802">
        <ele>97</ele>
        <time>2022-03-21T13:51:02.000Z</time>
      </trkpt>
      <trkpt lat="43.45721" lon="5.23801">
        <ele>97</ele>
        <time>2022-03-21T13:51:03.000Z</time>
      </trkpt>
      <trkpt lat="43.45722" lon="5.23801">
        <ele>97</ele>
        <time>2022-03-21T13:51:04.000Z</time>
      </trkpt>
      <trkpt lat="43.45724" lon="5.23801">
        <ele>97</ele>
        <time>2022-03-21T13:51:05.000Z</time>
      </trkpt>
      <trkpt lat="43.45725" lon="5.23801">
        <ele>97</ele>
        <time>2022-03-21T13:51:06.000Z</time>
      </trkpt>
      <trkpt lat="43.45727" lon="5.23801">
        <ele>97</ele>
        <time>2022-03-21T13:51:07.000Z</time>
      </trkpt>
      <trkpt lat="43.45728" lon="5.23801">
        <ele>97</ele>
        <time>2022-03-21T13:51:08.000Z</time>
      </trkpt>
      <trkpt lat="43.4573" lon="5.23801">
        <ele>97</ele>
        <time>2022-03-21T13:51:09.000Z</time>
      </trkpt>
      <trkpt lat="43.45731" lon="5.23801">
        <ele>97</ele>
        <time>2022-03-21T13:51:10.000Z</time>
      </trkpt>
      <trkpt lat="43.45733" lon="5.23802">
        <ele>97</ele>
        <time>2022-03-21T13:51:11.000Z</time>
      </trkpt>
      <trkpt lat="43.45735" lon="5.23802">
        <ele>97</ele>
        <time>2022-03-21T13:51:12.000Z</time>
      </trkpt>
      <trkpt lat="43.45736" lon="5.23802">
        <ele>97</ele>
        <time>2022-03-21T13:51:13.000Z</time>
      </trkpt>
      <trkpt lat="43.45737" lon="5.23801">
        <ele>97</ele>
        <time>2022-03-21T13:51:14.000Z</time>
      </trkpt>
      <trkpt lat="43.45739" lon="5.23801">
        <ele>97</ele>
        <time>2022-03-21T13:51:15.000Z</time>
      </trkpt>
      <trkpt lat="43.45741" lon="5.238">
        <ele>97</ele>
        <time>2022-03-21T13:51:16.000Z</time>
      </trkpt>
      <trkpt lat="43.45742" lon="5.238">
        <ele>97</ele>
        <time>2022-03-21T13:51:17.000Z</time>
      </trkpt>
      <trkpt lat="43.45744" lon="5.23799">
        <ele>97</ele>
        <time>2022-03-21T13:51:18.000Z</time>
      </trkpt>
      <trkpt lat="43.45745" lon="5.23799">
        <ele>97</ele>
        <time>2022-03-21T13:51:19.000Z</time>
      </trkpt>
      <trkpt lat="43.45747" lon="5.23799">
        <ele>97</ele>
        <time>2022-03-21T13:51:20.000Z</time>
      </trkpt>
      <trkpt lat="43.45748" lon="5.23798">
        <ele>97</ele>
        <time>2022-03-21T13:51:21.000Z</time>
      </trkpt>
      <trkpt lat="43.4575" lon="5.23798">
        <ele>97</ele>
        <time>2022-03-21T13:51:22.000Z</time>
      </trkpt>
      <trkpt lat="43.45751" lon="5.23797">
        <ele>97</ele>
        <time>2022-03-21T13:51:23.000Z</time>
      </trkpt>
      <trkpt lat="43.45753" lon="5.23797">
        <ele>97</ele>
        <time>2022-03-21T13:51:24.000Z</time>
      </trkpt>
      <trkpt lat="43.45754" lon="5.23796">
        <ele>97</ele>
        <time>2022-03-21T13:51:25.000Z</time>
      </trkpt>
      <trkpt lat="43.45756" lon="5.23795">
        <ele>97</ele>
        <time>2022-03-21T13:51:26.000Z</time>
      </trkpt>
      <trkpt lat="43.45757" lon="5.23794">
        <ele>97</ele>
        <time>2022-03-21T13:51:27.000Z</time>
      </trkpt>
      <trkpt lat="43.45758" lon="5.23793">
        <ele>97</ele>
        <time>2022-03-21T13:51:28.000Z</time>
      </trkpt>
      <trkpt lat="43.45759" lon="5.23792">
        <ele>97</ele>
        <time>2022-03-21T13:51:29.000Z</time>
      </trkpt>
      <trkpt lat="43.45761" lon="5.23791">
        <ele>97</ele>
        <time>2022-03-21T13:51:30.000Z</time>
      </trkpt>
      <trkpt lat="43.45762" lon="5.23789">
        <ele>97</ele>
        <time>2022-03-21T13:51:31.000Z</time>
      </trkpt>
      <trkpt lat="43.45762" lon="5.23788">
        <ele>98</ele>
        <time>2022-03-21T13:51:32.000Z</time>
      </trkpt>
      <trkpt lat="43.45763" lon="5.23786">
        <ele>98</ele>
        <time>2022-03-21T13:51:33.000Z</time>
      </trkpt>
      <trkpt lat="43.45762" lon="5.23784">
        <ele>98</ele>
        <time>2022-03-21T13:51:34.000Z</time>
      </trkpt>
      <trkpt lat="43.45762" lon="5.23783">
        <ele>98</ele>
        <time>2022-03-21T13:51:35.000Z</time>
      </trkpt>
      <trkpt lat="43.45761" lon="5.23781">
        <ele>98</ele>
        <time>2022-03-21T13:51:36.000Z</time>
      </trkpt>
      <trkpt lat="43.4576" lon="5.2378">
        <ele>98</ele>
        <time>2022-03-21T13:51:37.000Z</time>
      </trkpt>
      <trkpt lat="43.45758" lon="5.23779">
        <ele>98</ele>
        <time>2022-03-21T13:51:38.000Z</time>
      </trkpt>
      <trkpt lat="43.45757" lon="5.23779">
        <ele>98</ele>
        <time>2022-03-21T13:51:39.000Z</time>
      </trkpt>
      <trkpt lat="43.45756" lon="5.23778">
        <ele>98</ele>
        <time>2022-03-21T13:51:40.000Z</time>
      </trkpt>
      <trkpt lat="43.45755" lon="5.23778">
        <ele>99</ele>
        <time>2022-03-21T13:51:41.000Z</time>
      </trkpt>
      <trkpt lat="43.45754" lon="5.23777">
        <ele>99</ele>
        <time>2022-03-21T13:51:42.000Z</time>
      </trkpt>
      <trkpt lat="43.45752" lon="5.23776">
        <ele>99</ele>
        <time>2022-03-21T13:51:43.000Z</time>
      </trkpt>
      <trkpt lat="43.45751" lon="5.23776">
        <ele>99</ele>
        <time>2022-03-21T13:51:44.000Z</time>
      </trkpt>
      <trkpt lat="43.4575" lon="5.23775">
        <ele>99</ele>
        <time>2022-03-21T13:51:45.000Z</time>
      </trkpt>
      <trkpt lat="43.45748" lon="5.23774">
        <ele>99</ele>
        <time>2022-03-21T13:51:46.000Z</time>
      </trkpt>
      <trkpt lat="43.45747" lon="5.23774">
        <ele>99</ele>
        <time>2022-03-21T13:51:47.000Z</time>
      </trkpt>
      <trkpt lat="43.45745" lon="5.23773">
        <ele>99</ele>
        <time>2022-03-21T13:51:48.000Z</time>
      </trkpt>
      <trkpt lat="43.45744" lon="5.23772">
        <ele>99</ele>
        <time>2022-03-21T13:51:49.000Z</time>
      </trkpt>
      <trkpt lat="43.45743" lon="5.23771">
        <ele>99</ele>
        <time>2022-03-21T13:51:50.000Z</time>
      </trkpt>
      <trkpt lat="43.45741" lon="5.23771">
        <ele>99</ele>
        <time>2022-03-21T13:51:51.000Z</time>
      </trkpt>
      <trkpt lat="43.4574" lon="5.2377">
        <ele>99</ele>
        <time>2022-03-21T13:51:52.000Z</time>
      </trkpt>
      <trkpt lat="43.45739" lon="5.23769">
        <ele>99</ele>
        <time>2022-03-21T13:51:53.000Z</time>
      </trkpt>
      <trkpt lat="43.45737" lon="5.23768">
        <ele>99</ele>
        <time>2022-03-21T13:51:54.000Z</time>
      </trkpt>
      <trkpt lat="43.45736" lon="5.23768">
        <ele>99</ele>
        <time>2022-03-21T13:51:55.000Z</time>
      </trkpt>
      <trkpt lat="43.45734" lon="5.23767">
        <ele>99</ele>
        <time>2022-03-21T13:51:56.000Z</time>
      </trkpt>
      <trkpt lat="43.45733" lon="5.23766">
        <ele>99</ele>
        <time>2022-03-21T13:51:57.000Z</time>
      </trkpt>
      <trkpt lat="43.45731" lon="5.23765">
        <ele>99</ele>
        <time>2022-03-21T13:51:58.000Z</time>
      </trkpt>
      <trkpt lat="43.4573" lon="5.23764">
        <ele>99</ele>
        <time>2022-03-21T13:51:59.000Z</time>
      </trkpt>
      <trkpt lat="43.45728" lon="5.23764">
        <ele>99</ele>
        <time>2022-03-21T13:52:00.000Z</time>
      </trkpt>
      <trkpt lat="43.45727" lon="5.23763">
        <ele>99</ele>
        <time>2022-03-21T13:52:01.000Z</time>
      </trkpt>
      <trkpt lat="43.45726" lon="5.23763">
        <ele>99</ele>
        <time>2022-03-21T13:52:02.000Z</time>
      </trkpt>
      <trkpt lat="43.45724" lon="5.23762">
        <ele>99</ele>
        <time>2022-03-21T13:52:03.000Z</time>
      </trkpt>
      <trkpt lat="43.45723" lon="5.23761">
        <ele>99</ele>
        <time>2022-03-21T13:52:04.000Z</time>
      </trkpt>
      <trkpt lat="43.45722" lon="5.23761">
        <ele>99</ele>
        <time>2022-03-21T13:52:05.000Z</time>
      </trkpt>
      <trkpt lat="43.4572" lon="5.2376">
        <ele>99</ele>
        <time>2022-03-21T13:52:06.000Z</time>
      </trkpt>
      <trkpt lat="43.45719" lon="5.23759">
        <ele>99</ele>
        <time>2022-03-21T13:52:07.000Z</time>
      </trkpt>
      <trkpt lat="43.45717" lon="5.23759">
        <ele>99</ele>
        <time>2022-03-21T13:52:08.000Z</time>
      </trkpt>
      <trkpt lat="43.45716" lon="5.23758">
        <ele>99</ele>
        <time>2022-03-21T13:52:09.000Z</time>
      </trkpt>
      <trkpt lat="43.45715" lon="5.23757">
        <ele>100</ele>
        <time>2022-03-21T13:52:10.000Z</time>
      </trkpt>
      <trkpt lat="43.45713" lon="5.23756">
        <ele>100</ele>
        <time>2022-03-21T13:52:11.000Z</time>
      </trkpt>
      <trkpt lat="43.45712" lon="5.23756">
        <ele>100</ele>
        <time>2022-03-21T13:52:12.000Z</time>
      </trkpt>
      <trkpt lat="43.4571" lon="5.23755">
        <ele>100</ele>
        <time>2022-03-21T13:52:13.000Z</time>
      </trkpt>
      <trkpt lat="43.45709" lon="5.23754">
        <ele>100</ele>
        <time>2022-03-21T13:52:14.000Z</time>
      </trkpt>
      <trkpt lat="43.45707" lon="5.23753">
        <ele>100</ele>
        <time>2022-03-21T13:52:15.000Z</time>
      </trkpt>
      <trkpt lat="43.45706" lon="5.23753">
        <ele>100</ele>
        <time>2022-03-21T13:52:16.000Z</time>
      </trkpt>
      <trkpt lat="43.45705" lon="5.23752">
        <ele>100</ele>
        <time>2022-03-21T13:52:17.000Z</time>
      </trkpt>
      <trkpt lat="43.45703" lon="5.23751">
        <ele>101</ele>
        <time>2022-03-21T13:52:18.000Z</time>
      </trkpt>
      <trkpt lat="43.45702" lon="5.23751">
        <ele>101</ele>
        <time>2022-03-21T13:52:19.000Z</time>
      </trkpt>
      <trkpt lat="43.457" lon="5.2375">
        <ele>101</ele>
        <time>2022-03-21T13:52:20.000Z</time>
      </trkpt>
      <trkpt lat="43.45699" lon="5.2375">
        <ele>101</ele>
        <time>2022-03-21T13:52:21.000Z</time>
      </trkpt>
      <trkpt lat="43.45698" lon="5.23749">
        <ele>101</ele>
        <time>2022-03-21T13:52:22.000Z</time>
      </trkpt>
      <trkpt lat="43.45696" lon="5.23748">
        <ele>101</ele>
        <time>2022-03-21T13:52:23.000Z</time>
      </trkpt>
      <trkpt lat="43.45695" lon="5.23748">
        <ele>101</ele>
        <time>2022-03-21T13:52:24.000Z</time>
      </trkpt>
      <trkpt lat="43.45694" lon="5.23747">
        <ele>101</ele>
        <time>2022-03-21T13:52:25.000Z</time>
      </trkpt>
      <trkpt lat="43.45692" lon="5.23747">
        <ele>101</ele>
        <time>2022-03-21T13:52:26.000Z</time>
      </trkpt>
      <trkpt lat="43.45691" lon="5.23747">
        <ele>101</ele>
        <time>2022-03-21T13:52:27.000Z</time>
      </trkpt>
      <trkpt lat="43.45689" lon="5.23746">
        <ele>101</ele>
        <time>2022-03-21T13:52:28.000Z</time>
      </trkpt>
      <trkpt lat="43.45688" lon="5.23746">
        <ele>101</ele>
        <time>2022-03-21T13:52:29.000Z</time>
      </trkpt>
      <trkpt lat="43.45686" lon="5.23745">
        <ele>101</ele>
        <time>2022-03-21T13:52:30.000Z</time>
      </trkpt>
      <trkpt lat="43.45685" lon="5.23745">
        <ele>101</ele>
        <time>2022-03-21T13:52:31.000Z</time>
      </trkpt>
      <trkpt lat="43.45683" lon="5.23746">
        <ele>101</ele>
        <time>2022-03-21T13:52:32.000Z</time>
      </trkpt>
      <trkpt lat="43.45682" lon="5.23746">
        <ele>101</ele>
        <time>2022-03-21T13:52:33.000Z</time>
      </trkpt>
      <trkpt lat="43.4568" lon="5.23747">
        <ele>101</ele>
        <time>2022-03-21T13:52:34.000Z</time>
      </trkpt>
      <trkpt lat="43.45679" lon="5.23748">
        <ele>101</ele>
        <time>2022-03-21T13:52:35.000Z</time>
      </trkpt>
      <trkpt lat="43.45677" lon="5.23748">
        <ele>101</ele>
        <time>2022-03-21T13:52:36.000Z</time>
      </trkpt>
      <trkpt lat="43.45675" lon="5.23749">
        <ele>101</ele>
        <time>2022-03-21T13:52:37.000Z</time>
      </trkpt>
      <trkpt lat="43.45674" lon="5.23749">
        <ele>101</ele>
        <time>2022-03-21T13:52:38.000Z</time>
      </trkpt>
      <trkpt lat="43.45672" lon="5.2375">
        <ele>101</ele>
        <time>2022-03-21T13:52:39.000Z</time>
      </trkpt>
      <trkpt lat="43.45671" lon="5.23751">
        <ele>101</ele>
        <time>2022-03-21T13:52:40.000Z</time>
      </trkpt>
      <trkpt lat="43.4567" lon="5.23752">
        <ele>101</ele>
        <time>2022-03-21T13:52:41.000Z</time>
      </trkpt>
      <trkpt lat="43.45669" lon="5.23754">
        <ele>101</ele>
        <time>2022-03-21T13:52:42.000Z</time>
      </trkpt>
      <trkpt lat="43.45669" lon="5.23755">
        <ele>101</ele>
        <time>2022-03-21T13:52:43.000Z</time>
      </trkpt>
      <trkpt lat="43.45668" lon="5.23757">
        <ele>101</ele>
        <time>2022-03-21T13:52:44.000Z</time>
      </trkpt>
      <trkpt lat="43.45668" lon="5.23759">
        <ele>101</ele>
        <time>2022-03-21T13:52:45.000Z</time>
      </trkpt>
      <trkpt lat="43.45668" lon="5.23761">
        <ele>101</ele>
        <time>2022-03-21T13:52:46.000Z</time>
      </trkpt>
      <trkpt lat="43.45668" lon="5.23763">
        <ele>100</ele>
        <time>2022-03-21T13:52:47.000Z</time>
      </trkpt>
      <trkpt lat="43.45669" lon="5.23765">
        <ele>100</ele>
        <time>2022-03-21T13:52:48.000Z</time>
      </trkpt>
      <trkpt lat="43.45669" lon="5.23767">
        <ele>100</ele>
        <time>2022-03-21T13:52:49.000Z</time>
      </trkpt>
      <trkpt lat="43.45669" lon="5.23769">
        <ele>100</ele>
        <time>2022-03-21T13:52:50.000Z</time>
      </trkpt>
      <trkpt lat="43.45669" lon="5.23771">
        <ele>100</ele>
        <time>2022-03-21T13:52:51.000Z</time>
      </trkpt>
      <trkpt lat="43.45669" lon="5.23773">
        <ele>100</ele>
        <time>2022-03-21T13:52:52.000Z</time>
      </trkpt>
      <trkpt lat="43.45669" lon="5.23775">
        <ele>100</ele>
        <time>2022-03-21T13:52:53.000Z</time>
      </trkpt>
      <trkpt lat="43.45668" lon="5.23777">
        <ele>100</ele>
        <time>2022-03-21T13:52:54.000Z</time>
      </trkpt>
      <trkpt lat="43.45668" lon="5.23779">
        <ele>100</ele>
        <time>2022-03-21T13:52:55.000Z</time>
      </trkpt>
      <trkpt lat="43.45667" lon="5.23781">
        <ele>100</ele>
        <time>2022-03-21T13:52:56.000Z</time>
      </trkpt>
      <trkpt lat="43.45666" lon="5.23782">
        <ele>100</ele>
        <time>2022-03-21T13:52:57.000Z</time>
      </trkpt>
      <trkpt lat="43.45665" lon="5.23784">
        <ele>100</ele>
        <time>2022-03-21T13:52:58.000Z</time>
      </trkpt>
      <trkpt lat="43.45664" lon="5.23785">
        <ele>99</ele>
        <time>2022-03-21T13:52:59.000Z</time>
      </trkpt>
      <trkpt lat="43.45662" lon="5.23786">
        <ele>99</ele>
        <time>2022-03-21T13:53:00.000Z</time>
      </trkpt>
      <trkpt lat="43.45661" lon="5.23786">
        <ele>99</ele>
        <time>2022-03-21T13:53:01.000Z</time>
      </trkpt>
      <trkpt lat="43.45659" lon="5.23787">
        <ele>99</ele>
        <time>2022-03-21T13:53:02.000Z</time>
      </trkpt>
      <trkpt lat="43.45658" lon="5.23787">
        <ele>99</ele>
        <time>2022-03-21T13:53:03.000Z</time>
      </trkpt>
      <trkpt lat="43.45657" lon="5.23788">
        <ele>99</ele>
        <time>2022-03-21T13:53:04.000Z</time>
      </trkpt>
      <trkpt lat="43.45656" lon="5.23788">
        <ele>98</ele>
        <time>2022-03-21T13:53:05.000Z</time>
      </trkpt>
      <trkpt lat="43.45655" lon="5.23789">
        <ele>98</ele>
        <time>2022-03-21T13:53:06.000Z</time>
      </trkpt>
      <trkpt lat="43.45653" lon="5.2379">
        <ele>98</ele>
        <time>2022-03-21T13:53:07.000Z</time>
      </trkpt>
      <trkpt lat="43.45652" lon="5.2379">
        <ele>98</ele>
        <time>2022-03-21T13:53:08.000Z</time>
      </trkpt>
      <trkpt lat="43.45651" lon="5.23791">
        <ele>98</ele>
        <time>2022-03-21T13:53:09.000Z</time>
      </trkpt>
      <trkpt lat="43.45649" lon="5.23792">
        <ele>98</ele>
        <time>2022-03-21T13:53:10.000Z</time>
      </trkpt>
      <trkpt lat="43.45648" lon="5.23793">
        <ele>98</ele>
        <time>2022-03-21T13:53:11.000Z</time>
      </trkpt>
      <trkpt lat="43.45646" lon="5.23794">
        <ele>97</ele>
        <time>2022-03-21T13:53:12.000Z</time>
      </trkpt>
      <trkpt lat="43.45645" lon="5.23794">
        <ele>97</ele>
        <time>2022-03-21T13:53:13.000Z</time>
      </trkpt>
      <trkpt lat="43.45643" lon="5.23795">
        <ele>97</ele>
        <time>2022-03-21T13:53:14.000Z</time>
      </trkpt>
      <trkpt lat="43.45642" lon="5.23796">
        <ele>97</ele>
        <time>2022-03-21T13:53:15.000Z</time>
      </trkpt>
      <trkpt lat="43.45641" lon="5.23796">
        <ele>97</ele>
        <time>2022-03-21T13:53:16.000Z</time>
      </trkpt>
      <trkpt lat="43.45639" lon="5.23797">
        <ele>97</ele>
        <time>2022-03-21T13:53:17.000Z</time>
      </trkpt>
      <trkpt lat="43.45638" lon="5.23798">
        <ele>97</ele>
        <time>2022-03-21T13:53:18.000Z</time>
      </trkpt>
      <trkpt lat="43.45637" lon="5.238">
        <ele>97</ele>
        <time>2022-03-21T13:53:19.000Z</time>
      </trkpt>
      <trkpt lat="43.45636" lon="5.23801">
        <ele>97</ele>
        <time>2022-03-21T13:53:20.000Z</time>
      </trkpt>
      <trkpt lat="43.45634" lon="5.23801">
        <ele>97</ele>
        <time>2022-03-21T13:53:21.000Z</time>
      </trkpt>
      <trkpt lat="43.45633" lon="5.23801">
        <ele>97</ele>
        <time>2022-03-21T13:53:22.000Z</time>
      </trkpt>
      <trkpt lat="43.45632" lon="5.238">
        <ele>97</ele>
        <time>2022-03-21T13:53:23.000Z</time>
      </trkpt>
      <trkpt lat="43.45631" lon="5.23799">
        <ele>97</ele>
        <time>2022-03-21T13:53:24.000Z</time>
      </trkpt>
      <trkpt lat="43.4563" lon="5.23798">
        <ele>97</ele>
        <time>2022-03-21T13:53:25.000Z</time>
      </trkpt>
      <trkpt lat="43.45629" lon="5.23796">
        <ele>98</ele>
        <time>2022-03-21T13:53:26.000Z</time>
      </trkpt>
      <trkpt lat="43.45628" lon="5.23795">
        <ele>98</ele>
        <time>2022-03-21T13:53:27.000Z</time>
      </trkpt>
      <trkpt lat="43.45626" lon="5.23794">
        <ele>98</ele>
        <time>2022-03-21T13:53:28.000Z</time>
      </trkpt>
      <trkpt lat="43.45625" lon="5.23793">
        <ele>98</ele>
        <time>2022-03-21T13:53:29.000Z</time>
      </trkpt>
      <trkpt lat="43.45623" lon="5.23792">
        <ele>98</ele>
        <time>2022-03-21T13:53:30.000Z</time>
      </trkpt>
      <trkpt lat="43.45622" lon="5.23791">
        <ele>98</ele>
        <time>2022-03-21T13:53:31.000Z</time>
      </trkpt>
      <trkpt lat="43.45621" lon="5.2379">
        <ele>98</ele>
        <time>2022-03-21T13:53:32.000Z</time>
      </trkpt>
      <trkpt lat="43.4562" lon="5.23788">
        <ele>98</ele>
        <time>2022-03-21T13:53:33.000Z</time>
      </trkpt>
      <trkpt lat="43.45619" lon="5.23787">
        <ele>98</ele>
        <time>2022-03-21T13:53:34.000Z</time>
      </trkpt>
      <trkpt lat="43.45618" lon="5.23785">
        <ele>98</ele>
        <time>2022-03-21T13:53:35.000Z</time>
      </trkpt>
      <trkpt lat="43.45618" lon="5.23783">
        <ele>98</ele>
        <time>2022-03-21T13:53:36.000Z</time>
      </trkpt>
      <trkpt lat="43.45617" lon="5.23781">
        <ele>98</ele>
        <time>2022-03-21T13:53:37.000Z</time>
      </trkpt>
      <trkpt lat="43.45616" lon="5.23779">
        <ele>98</ele>
        <time>2022-03-21T13:53:38.000Z</time>
      </trkpt>
      <trkpt lat="43.45616" lon="5.23777">
        <ele>98</ele>
        <time>2022-03-21T13:53:39.000Z</time>
      </trkpt>
      <trkpt lat="43.45615" lon="5.23776">
        <ele>98</ele>
        <time>2022-03-21T13:53:40.000Z</time>
      </trkpt>
      <trkpt lat="43.45615" lon="5.23774">
        <ele>98</ele>
        <time>2022-03-21T13:53:41.000Z</time>
      </trkpt>
      <trkpt lat="43.45614" lon="5.23772">
        <ele>98</ele>
        <time>2022-03-21T13:53:42.000Z</time>
      </trkpt>
      <trkpt lat="43.45613" lon="5.2377">
        <ele>99</ele>
        <time>2022-03-21T13:53:43.000Z</time>
      </trkpt>
      <trkpt lat="43.45612" lon="5.23768">
        <ele>99</ele>
        <time>2022-03-21T13:53:44.000Z</time>
      </trkpt>
      <trkpt lat="43.45611" lon="5.23766">
        <ele>99</ele>
        <time>2022-03-21T13:53:45.000Z</time>
      </trkpt>
      <trkpt lat="43.4561" lon="5.23765">
        <ele>99</ele>
        <time>2022-03-21T13:53:46.000Z</time>
      </trkpt>
      <trkpt lat="43.45609" lon="5.23764">
        <ele>98</ele>
        <time>2022-03-21T13:53:47.000Z</time>
      </trkpt>
      <trkpt lat="43.45608" lon="5.23764">
        <ele>98</ele>
        <time>2022-03-21T13:53:48.000Z</time>
      </trkpt>
      <trkpt lat="43.45606" lon="5.23764">
        <ele>98</ele>
        <time>2022-03-21T13:53:49.000Z</time>
      </trkpt>
      <trkpt lat="43.45605" lon="5.23764">
        <ele>98</ele>
        <time>2022-03-21T13:53:50.000Z</time>
      </trkpt>
      <trkpt lat="43.45603" lon="5.23764">
        <ele>98</ele>
        <time>2022-03-21T13:53:51.000Z</time>
      </trkpt>
      <trkpt lat="43.45602" lon="5.23764">
        <ele>98</ele>
        <time>2022-03-21T13:53:52.000Z</time>
      </trkpt>
      <trkpt lat="43.456" lon="5.23765">
        <ele>98</ele>
        <time>2022-03-21T13:53:53.000Z</time>
      </trkpt>
      <trkpt lat="43.45599" lon="5.23765">
        <ele>98</ele>
        <time>2022-03-21T13:53:54.000Z</time>
      </trkpt>
      <trkpt lat="43.45597" lon="5.23765">
        <ele>98</ele>
        <time>2022-03-21T13:53:55.000Z</time>
      </trkpt>
      <trkpt lat="43.45596" lon="5.23766">
        <ele>98</ele>
        <time>2022-03-21T13:53:56.000Z</time>
      </trkpt>
      <trkpt lat="43.45594" lon="5.23766">
        <ele>98</ele>
        <time>2022-03-21T13:53:57.000Z</time>
      </trkpt>
      <trkpt lat="43.45593" lon="5.23767">
        <ele>98</ele>
        <time>2022-03-21T13:53:58.000Z</time>
      </trkpt>
      <trkpt lat="43.45591" lon="5.23767">
        <ele>98</ele>
        <time>2022-03-21T13:53:59.000Z</time>
      </trkpt>
      <trkpt lat="43.4559" lon="5.23767">
        <ele>98</ele>
        <time>2022-03-21T13:54:00.000Z</time>
      </trkpt>
      <trkpt lat="43.45589" lon="5.23768">
        <ele>99</ele>
        <time>2022-03-21T13:54:01.000Z</time>
      </trkpt>
      <trkpt lat="43.45587" lon="5.23768">
        <ele>99</ele>
        <time>2022-03-21T13:54:02.000Z</time>
      </trkpt>
      <trkpt lat="43.45586" lon="5.23769">
        <ele>99</ele>
        <time>2022-03-21T13:54:03.000Z</time>
      </trkpt>
      <trkpt lat="43.45584" lon="5.23769">
        <ele>99</ele>
        <time>2022-03-21T13:54:04.000Z</time>
      </trkpt>
      <trkpt lat="43.45583" lon="5.2377">
        <ele>99</ele>
        <time>2022-03-21T13:54:05.000Z</time>
      </trkpt>
      <trkpt lat="43.45581" lon="5.2377">
        <ele>98</ele>
        <time>2022-03-21T13:54:06.000Z</time>
      </trkpt>
      <trkpt lat="43.4558" lon="5.2377">
        <ele>98</ele>
        <time>2022-03-21T13:54:07.000Z</time>
      </trkpt>
      <trkpt lat="43.45578" lon="5.2377">
        <ele>98</ele>
        <time>2022-03-21T13:54:08.000Z</time>
      </trkpt>
      <trkpt lat="43.45577" lon="5.2377">
        <ele>98</ele>
        <time>2022-03-21T13:54:09.000Z</time>
      </trkpt>
      <trkpt lat="43.45575" lon="5.2377">
        <ele>98</ele>
        <time>2022-03-21T13:54:10.000Z</time>
      </trkpt>
      <trkpt lat="43.45574" lon="5.23769">
        <ele>98</ele>
        <time>2022-03-21T13:54:11.000Z</time>
      </trkpt>
      <trkpt lat="43.45572" lon="5.23769">
        <ele>98</ele>
        <time>2022-03-21T13:54:12.000Z</time>
      </trkpt>
      <trkpt lat="43.4557" lon="5.23769">
        <ele>98</ele>
        <time>2022-03-21T13:54:13.000Z</time>
      </trkpt>
      <trkpt lat="43.45569" lon="5.23768">
        <ele>98</ele>
        <time>2022-03-21T13:54:14.000Z</time>
      </trkpt>
      <trkpt lat="43.45567" lon="5.23768">
        <ele>98</ele>
        <time>2022-03-21T13:54:15.000Z</time>
      </trkpt>
      <trkpt lat="43.45566" lon="5.23768">
        <ele>98</ele>
        <time>2022-03-21T13:54:16.000Z</time>
      </trkpt>
      <trkpt lat="43.45564" lon="5.23768">
        <ele>98</ele>
        <time>2022-03-21T13:54:17.000Z</time>
      </trkpt>
      <trkpt lat="43.45563" lon="5.23768">
        <ele>98</ele>
        <time>2022-03-21T13:54:18.000Z</time>
      </trkpt>
      <trkpt lat="43.45561" lon="5.23768">
        <ele>98</ele>
        <time>2022-03-21T13:54:19.000Z</time>
      </trkpt>
      <trkpt lat="43.4556" lon="5.23768">
        <ele>98</ele>
        <time>2022-03-21T13:54:20.000Z</time>
      </trkpt>
      <trkpt lat="43.45558" lon="5.23769">
        <ele>98</ele>
        <time>2022-03-21T13:54:21.000Z</time>
      </trkpt>
      <trkpt lat="43.45557" lon="5.23769">
        <ele>98</ele>
        <time>2022-03-21T13:54:22.000Z</time>
      </trkpt>
      <trkpt lat="43.45555" lon="5.23769">
        <ele>98</ele>
        <time>2022-03-21T13:54:23.000Z</time>
      </trkpt>
      <trkpt lat="43.45554" lon="5.2377">
        <ele>98</ele>
        <time>2022-03-21T13:54:24.000Z</time>
      </trkpt>
      <trkpt lat="43.45552" lon="5.2377">
        <ele>98</ele>
        <time>2022-03-21T13:54:25.000Z</time>
      </trkpt>
      <trkpt lat="43.45551" lon="5.23771">
        <ele>98</ele>
        <time>2022-03-21T13:54:26.000Z</time>
      </trkpt>
      <trkpt lat="43.45549" lon="5.23771">
        <ele>98</ele>
        <time>2022-03-21T13:54:27.000Z</time>
      </trkpt>
      <trkpt lat="43.45548" lon="5.23772">
        <ele>98</ele>
        <time>2022-03-21T13:54:28.000Z</time>
      </trkpt>
      <trkpt lat="43.45546" lon="5.23772">
        <ele>98</ele>
        <time>2022-03-21T13:54:29.000Z</time>
      </trkpt>
      <trkpt lat="43.45545" lon="5.23773">
        <ele>98</ele>
        <time>2022-03-21T13:54:30.000Z</time>
      </trkpt>
      <trkpt lat="43.45543" lon="5.23773">
        <ele>98</ele>
        <time>2022-03-21T13:54:31.000Z</time>
      </trkpt>
      <trkpt lat="43.45542" lon="5.23773">
        <ele>98</ele>
        <time>2022-03-21T13:54:32.000Z</time>
      </trkpt>
      <trkpt lat="43.4554" lon="5.23774">
        <ele>97</ele>
        <time>2022-03-21T13:54:33.000Z</time>
      </trkpt>
      <trkpt lat="43.45539" lon="5.23774">
        <ele>97</ele>
        <time>2022-03-21T13:54:34.000Z</time>
      </trkpt>
      <trkpt lat="43.45537" lon="5.23775">
        <ele>97</ele>
        <time>2022-03-21T13:54:35.000Z</time>
      </trkpt>
      <trkpt lat="43.45536" lon="5.23775">
        <ele>97</ele>
        <time>2022-03-21T13:54:36.000Z</time>
      </trkpt>
      <trkpt lat="43.45535" lon="5.23776">
        <ele>97</ele>
        <time>2022-03-21T13:54:37.000Z</time>
      </trkpt>
      <trkpt lat="43.45533" lon="5.23777">
        <ele>97</ele>
        <time>2022-03-21T13:54:38.000Z</time>
      </trkpt>
      <trkpt lat="43.45532" lon="5.23777">
        <ele>97</ele>
        <time>2022-03-21T13:54:39.000Z</time>
      </trkpt>
      <trkpt lat="43.4553" lon="5.23778">
        <ele>97</ele>
        <time>2022-03-21T13:54:40.000Z</time>
      </trkpt>
      <trkpt lat="43.45529" lon="5.23779">
        <ele>97</ele>
        <time>2022-03-21T13:54:41.000Z</time>
      </trkpt>
      <trkpt lat="43.45527" lon="5.23779">
        <ele>97</ele>
        <time>2022-03-21T13:54:42.000Z</time>
      </trkpt>
      <trkpt lat="43.45526" lon="5.2378">
        <ele>97</ele>
        <time>2022-03-21T13:54:43.000Z</time>
      </trkpt>
      <trkpt lat="43.45524" lon="5.2378">
        <ele>97</ele>
        <time>2022-03-21T13:54:44.000Z</time>
      </trkpt>
      <trkpt lat="43.45523" lon="5.23781">
        <ele>96</ele>
        <time>2022-03-21T13:54:45.000Z</time>
      </trkpt>
      <trkpt lat="43.45521" lon="5.23781">
        <ele>96</ele>
        <time>2022-03-21T13:54:46.000Z</time>
      </trkpt>
      <trkpt lat="43.4552" lon="5.23782">
        <ele>96</ele>
        <time>2022-03-21T13:54:47.000Z</time>
      </trkpt>
      <trkpt lat="43.45519" lon="5.23782">
        <ele>96</ele>
        <time>2022-03-21T13:54:48.000Z</time>
      </trkpt>
      <trkpt lat="43.45517" lon="5.23783">
        <ele>96</ele>
        <time>2022-03-21T13:54:49.000Z</time>
      </trkpt>
      <trkpt lat="43.45516" lon="5.23783">
        <ele>96</ele>
        <time>2022-03-21T13:54:50.000Z</time>
      </trkpt>
      <trkpt lat="43.45514" lon="5.23784">
        <ele>96</ele>
        <time>2022-03-21T13:54:51.000Z</time>
      </trkpt>
      <trkpt lat="43.45513" lon="5.23784">
        <ele>96</ele>
        <time>2022-03-21T13:54:52.000Z</time>
      </trkpt>
      <trkpt lat="43.45512" lon="5.23784">
        <ele>96</ele>
        <time>2022-03-21T13:54:53.000Z</time>
      </trkpt>
      <trkpt lat="43.4551" lon="5.23785">
        <ele>96</ele>
        <time>2022-03-21T13:54:54.000Z</time>
      </trkpt>
      <trkpt lat="43.45509" lon="5.23786">
        <ele>96</ele>
        <time>2022-03-21T13:54:55.000Z</time>
      </trkpt>
      <trkpt lat="43.45508" lon="5.23786">
        <ele>96</ele>
        <time>2022-03-21T13:54:56.000Z</time>
      </trkpt>
      <trkpt lat="43.45507" lon="5.23787">
        <ele>97</ele>
        <time>2022-03-21T13:54:57.000Z</time>
      </trkpt>
      <trkpt lat="43.45505" lon="5.23787">
        <ele>97</ele>
        <time>2022-03-21T13:54:58.000Z</time>
      </trkpt>
      <trkpt lat="43.45504" lon="5.23788">
        <ele>97</ele>
        <time>2022-03-21T13:54:59.000Z</time>
      </trkpt>
      <trkpt lat="43.45503" lon="5.23788">
        <ele>97</ele>
        <time>2022-03-21T13:55:00.000Z</time>
      </trkpt>
      <trkpt lat="43.45502" lon="5.23789">
        <ele>98</ele>
        <time>2022-03-21T13:55:01.000Z</time>
      </trkpt>
      <trkpt lat="43.455" lon="5.2379">
        <ele>98</ele>
        <time>2022-03-21T13:55:02.000Z</time>
      </trkpt>
      <trkpt lat="43.45499" lon="5.2379">
        <ele>98</ele>
        <time>2022-03-21T13:55:03.000Z</time>
      </trkpt>
      <trkpt lat="43.45497" lon="5.23791">
        <ele>98</ele>
        <time>2022-03-21T13:55:04.000Z</time>
      </trkpt>
      <trkpt lat="43.45495" lon="5.23791">
        <ele>98</ele>
        <time>2022-03-21T13:55:05.000Z</time>
      </trkpt>
      <trkpt lat="43.45494" lon="5.23792">
        <ele>98</ele>
        <time>2022-03-21T13:55:06.000Z</time>
      </trkpt>
      <trkpt lat="43.45492" lon="5.23792">
        <ele>98</ele>
        <time>2022-03-21T13:55:07.000Z</time>
      </trkpt>
      <trkpt lat="43.4549" lon="5.23793">
        <ele>98</ele>
        <time>2022-03-21T13:55:08.000Z</time>
      </trkpt>
      <trkpt lat="43.45489" lon="5.23793">
        <ele>98</ele>
        <time>2022-03-21T13:55:09.000Z</time>
      </trkpt>
      <trkpt lat="43.45487" lon="5.23794">
        <ele>98</ele>
        <time>2022-03-21T13:55:10.000Z</time>
      </trkpt>
      <trkpt lat="43.45486" lon="5.23795">
        <ele>98</ele>
        <time>2022-03-21T13:55:11.000Z</time>
      </trkpt>
      <trkpt lat="43.45484" lon="5.23795">
        <ele>98</ele>
        <time>2022-03-21T13:55:12.000Z</time>
      </trkpt>
      <trkpt lat="43.45483" lon="5.23796">
        <ele>98</ele>
        <time>2022-03-21T13:55:13.000Z</time>
      </trkpt>
      <trkpt lat="43.45481" lon="5.23796">
        <ele>98</ele>
        <time>2022-03-21T13:55:14.000Z</time>
      </trkpt>
      <trkpt lat="43.45479" lon="5.23796">
        <ele>98</ele>
        <time>2022-03-21T13:55:15.000Z</time>
      </trkpt>
      <trkpt lat="43.45478" lon="5.23796">
        <ele>98</ele>
        <time>2022-03-21T13:55:16.000Z</time>
      </trkpt>
      <trkpt lat="43.45476" lon="5.23796">
        <ele>98</ele>
        <time>2022-03-21T13:55:17.000Z</time>
      </trkpt>
      <trkpt lat="43.45475" lon="5.23797">
        <ele>98</ele>
        <time>2022-03-21T13:55:18.000Z</time>
      </trkpt>
      <trkpt lat="43.45473" lon="5.23797">
        <ele>98</ele>
        <time>2022-03-21T13:55:19.000Z</time>
      </trkpt>
      <trkpt lat="43.45472" lon="5.23798">
        <ele>98</ele>
        <time>2022-03-21T13:55:20.000Z</time>
      </trkpt>
      <trkpt lat="43.4547" lon="5.23798">
        <ele>98</ele>
        <time>2022-03-21T13:55:21.000Z</time>
      </trkpt>
      <trkpt lat="43.45469" lon="5.23798">
        <ele>98</ele>
        <time>2022-03-21T13:55:22.000Z</time>
      </trkpt>
      <trkpt lat="43.45467" lon="5.23799">
        <ele>98</ele>
        <time>2022-03-21T13:55:23.000Z</time>
      </trkpt>
      <trkpt lat="43.45466" lon="5.23799">
        <ele>98</ele>
        <time>2022-03-21T13:55:24.000Z</time>
      </trkpt>
      <trkpt lat="43.45464" lon="5.238">
        <ele>98</ele>
        <time>2022-03-21T13:55:25.000Z</time>
      </trkpt>
      <trkpt lat="43.45463" lon="5.238">
        <ele>98</ele>
        <time>2022-03-21T13:55:26.000Z</time>
      </trkpt>
      <trkpt lat="43.45462" lon="5.23801">
        <ele>98</ele>
        <time>2022-03-21T13:55:27.000Z</time>
      </trkpt>
      <trkpt lat="43.4546" lon="5.23801">
        <ele>98</ele>
        <time>2022-03-21T13:55:28.000Z</time>
      </trkpt>
      <trkpt lat="43.45458" lon="5.23802">
        <ele>98</ele>
        <time>2022-03-21T13:55:29.000Z</time>
      </trkpt>
      <trkpt lat="43.45457" lon="5.23802">
        <ele>98</ele>
        <time>2022-03-21T13:55:30.000Z</time>
      </trkpt>
      <trkpt lat="43.45455" lon="5.23803">
        <ele>98</ele>
        <time>2022-03-21T13:55:31.000Z</time>
      </trkpt>
      <trkpt lat="43.45454" lon="5.23803">
        <ele>98</ele>
        <time>2022-03-21T13:55:32.000Z</time>
      </trkpt>
      <trkpt lat="43.45452" lon="5.23804">
        <ele>98</ele>
        <time>2022-03-21T13:55:33.000Z</time>
      </trkpt>
      <trkpt lat="43.45451" lon="5.23804">
        <ele>98</ele>
        <time>2022-03-21T13:55:34.000Z</time>
      </trkpt>
      <trkpt lat="43.45449" lon="5.23805">
        <ele>98</ele>
        <time>2022-03-21T13:55:35.000Z</time>
      </trkpt>
      <trkpt lat="43.45448" lon="5.23805">
        <ele>98</ele>
        <time>2022-03-21T13:55:36.000Z</time>
      </trkpt>
      <trkpt lat="43.45446" lon="5.23806">
        <ele>98</ele>
        <time>2022-03-21T13:55:37.000Z</time>
      </trkpt>
      <trkpt lat="43.45445" lon="5.23806">
        <ele>98</ele>
        <time>2022-03-21T13:55:38.000Z</time>
      </trkpt>
      <trkpt lat="43.45443" lon="5.23807">
        <ele>98</ele>
        <time>2022-03-21T13:55:39.000Z</time>
      </trkpt>
      <trkpt lat="43.45442" lon="5.23808">
        <ele>98</ele>
        <time>2022-03-21T13:55:40.000Z</time>
      </trkpt>
      <trkpt lat="43.45441" lon="5.23808">
        <ele>97</ele>
        <time>2022-03-21T13:55:41.000Z</time>
      </trkpt>
      <trkpt lat="43.45439" lon="5.23809">
        <ele>97</ele>
        <time>2022-03-21T13:55:42.000Z</time>
      </trkpt>
      <trkpt lat="43.45438" lon="5.2381">
        <ele>97</ele>
        <time>2022-03-21T13:55:43.000Z</time>
      </trkpt>
      <trkpt lat="43.45437" lon="5.23811">
        <ele>97</ele>
        <time>2022-03-21T13:55:44.000Z</time>
      </trkpt>
      <trkpt lat="43.45436" lon="5.23813">
        <ele>97</ele>
        <time>2022-03-21T13:55:45.000Z</time>
      </trkpt>
      <trkpt lat="43.45435" lon="5.23814">
        <ele>97</ele>
        <time>2022-03-21T13:55:46.000Z</time>
      </trkpt>
      <trkpt lat="43.45434" lon="5.23815">
        <ele>97</ele>
        <time>2022-03-21T13:55:47.000Z</time>
      </trkpt>
      <trkpt lat="43.45432" lon="5.23816">
        <ele>97</ele>
        <time>2022-03-21T13:55:48.000Z</time>
      </trkpt>
      <trkpt lat="43.45431" lon="5.23817">
        <ele>97</ele>
        <time>2022-03-21T13:55:49.000Z</time>
      </trkpt>
      <trkpt lat="43.45429" lon="5.23818">
        <ele>97</ele>
        <time>2022-03-21T13:55:50.000Z</time>
      </trkpt>
      <trkpt lat="43.45427" lon="5.23818">
        <ele>97</ele>
        <time>2022-03-21T13:55:51.000Z</time>
      </trkpt>
      <trkpt lat="43.45426" lon="5.23819">
        <ele>97</ele>
        <time>2022-03-21T13:55:52.000Z</time>
      </trkpt>
      <trkpt lat="43.45424" lon="5.23819">
        <ele>97</ele>
        <time>2022-03-21T13:55:53.000Z</time>
      </trkpt>
      <trkpt lat="43.45422" lon="5.23818">
        <ele>97</ele>
        <time>2022-03-21T13:55:54.000Z</time>
      </trkpt>
      <trkpt lat="43.45421" lon="5.23818">
        <ele>97</ele>
        <time>2022-03-21T13:55:55.000Z</time>
      </trkpt>
      <trkpt lat="43.45419" lon="5.23818">
        <ele>97</ele>
        <time>2022-03-21T13:55:56.000Z</time>
      </trkpt>
      <trkpt lat="43.45418" lon="5.23817">
        <ele>97</ele>
        <time>2022-03-21T13:55:57.000Z</time>
      </trkpt>
      <trkpt lat="43.45416" lon="5.23816">
        <ele>97</ele>
        <time>2022-03-21T13:55:58.000Z</time>
      </trkpt>
      <trkpt lat="43.45415" lon="5.23816">
        <ele>97</ele>
        <time>2022-03-21T13:55:59.000Z</time>
      </trkpt>
      <trkpt lat="43.45414" lon="5.23816">
        <ele>97</ele>
        <time>2022-03-21T13:56:00.000Z</time>
      </trkpt>
      <trkpt lat="43.45412" lon="5.23816">
        <ele>97</ele>
        <time>2022-03-21T13:56:01.000Z</time>
      </trkpt>
      <trkpt lat="43.45411" lon="5.23817">
        <ele>97</ele>
        <time>2022-03-21T13:56:02.000Z</time>
      </trkpt>
      <trkpt lat="43.45409" lon="5.23817">
        <ele>97</ele>
        <time>2022-03-21T13:56:03.000Z</time>
      </trkpt>
      <trkpt lat="43.45408" lon="5.23818">
        <ele>97</ele>
        <time>2022-03-21T13:56:04.000Z</time>
      </trkpt>
      <trkpt lat="43.45406" lon="5.23819">
        <ele>97</ele>
        <time>2022-03-21T13:56:05.000Z</time>
      </trkpt>
      <trkpt lat="43.45405" lon="5.23819">
        <ele>96</ele>
        <time>2022-03-21T13:56:06.000Z</time>
      </trkpt>
      <trkpt lat="43.45404" lon="5.2382">
        <ele>96</ele>
        <time>2022-03-21T13:56:07.000Z</time>
      </trkpt>
      <trkpt lat="43.45402" lon="5.2382">
        <ele>96</ele>
        <time>2022-03-21T13:56:08.000Z</time>
      </trkpt>
      <trkpt lat="43.454" lon="5.23821">
        <ele>96</ele>
        <time>2022-03-21T13:56:09.000Z</time>
      </trkpt>
      <trkpt lat="43.45399" lon="5.23821">
        <ele>96</ele>
        <time>2022-03-21T13:56:10.000Z</time>
      </trkpt>
      <trkpt lat="43.45397" lon="5.2382">
        <ele>96</ele>
        <time>2022-03-21T13:56:11.000Z</time>
      </trkpt>
      <trkpt lat="43.45396" lon="5.2382">
        <ele>96</ele>
        <time>2022-03-21T13:56:12.000Z</time>
      </trkpt>
      <trkpt lat="43.45395" lon="5.2382">
        <ele>96</ele>
        <time>2022-03-21T13:56:13.000Z</time>
      </trkpt>
      <trkpt lat="43.45394" lon="5.2382">
        <ele>96</ele>
        <time>2022-03-21T13:56:14.000Z</time>
      </trkpt>
      <trkpt lat="43.45393" lon="5.23819">
        <ele>96</ele>
        <time>2022-03-21T13:56:15.000Z</time>
      </trkpt>
      <trkpt lat="43.45392" lon="5.23819">
        <ele>96</ele>
        <time>2022-03-21T13:56:16.000Z</time>
      </trkpt>
      <trkpt lat="43.45392" lon="5.23819">
        <ele>96</ele>
        <time>2022-03-21T13:56:17.000Z</time>
      </trkpt>
      <trkpt lat="43.45392" lon="5.23819">
        <ele>96</ele>
        <time>2022-03-21T13:56:18.000Z</time>
      </trkpt>
      <trkpt lat="43.45392" lon="5.23819">
        <ele>96</ele>
        <time>2022-03-21T13:56:19.000Z</time>
      </trkpt>
      <trkpt lat="43.45391" lon="5.23819">
        <ele>96</ele>
        <time>2022-03-21T13:56:20.000Z</time>
      </trkpt>
      <trkpt lat="43.45391" lon="5.23819">
        <ele>96</ele>
        <time>2022-03-21T13:56:21.000Z</time>
      </trkpt>
      <trkpt lat="43.45389" lon="5.23819">
        <ele>96</ele>
        <time>2022-03-21T13:56:22.000Z</time>
      </trkpt>
      <trkpt lat="43.45388" lon="5.23819">
        <ele>96</ele>
        <time>2022-03-21T13:56:23.000Z</time>
      </trkpt>
      <trkpt lat="43.45387" lon="5.2382">
        <ele>96</ele>
        <time>2022-03-21T13:56:24.000Z</time>
      </trkpt>
      <trkpt lat="43.45386" lon="5.23821">
        <ele>96</ele>
        <time>2022-03-21T13:56:25.000Z</time>
      </trkpt>
      <trkpt lat="43.45385" lon="5.23821">
        <ele>96</ele>
        <time>2022-03-21T13:56:26.000Z</time>
      </trkpt>
      <trkpt lat="43.45384" lon="5.23822">
        <ele>95</ele>
        <time>2022-03-21T13:56:27.000Z</time>
      </trkpt>
      <trkpt lat="43.45382" lon="5.23822">
        <ele>95</ele>
        <time>2022-03-21T13:56:28.000Z</time>
      </trkpt>
      <trkpt lat="43.45381" lon="5.23822">
        <ele>95</ele>
        <time>2022-03-21T13:56:29.000Z</time>
      </trkpt>
      <trkpt lat="43.4538" lon="5.23822">
        <ele>95</ele>
        <time>2022-03-21T13:56:30.000Z</time>
      </trkpt>
      <trkpt lat="43.45378" lon="5.23822">
        <ele>95</ele>
        <time>2022-03-21T13:56:31.000Z</time>
      </trkpt>
      <trkpt lat="43.45377" lon="5.23822">
        <ele>95</ele>
        <time>2022-03-21T13:56:32.000Z</time>
      </trkpt>
      <trkpt lat="43.45375" lon="5.23822">
        <ele>95</ele>
        <time>2022-03-21T13:56:33.000Z</time>
      </trkpt>
      <trkpt lat="43.45374" lon="5.23823">
        <ele>95</ele>
        <time>2022-03-21T13:56:34.000Z</time>
      </trkpt>
      <trkpt lat="43.45372" lon="5.23823">
        <ele>95</ele>
        <time>2022-03-21T13:56:35.000Z</time>
      </trkpt>
      <trkpt lat="43.4537" lon="5.23823">
        <ele>95</ele>
        <time>2022-03-21T13:56:36.000Z</time>
      </trkpt>
      <trkpt lat="43.45369" lon="5.23823">
        <ele>95</ele>
        <time>2022-03-21T13:56:37.000Z</time>
      </trkpt>
      <trkpt lat="43.45368" lon="5.23823">
        <ele>95</ele>
        <time>2022-03-21T13:56:38.000Z</time>
      </trkpt>
      <trkpt lat="43.45366" lon="5.23824">
        <ele>95</ele>
        <time>2022-03-21T13:56:39.000Z</time>
      </trkpt>
      <trkpt lat="43.45365" lon="5.23824">
        <ele>95</ele>
        <time>2022-03-21T13:56:40.000Z</time>
      </trkpt>
      <trkpt lat="43.45363" lon="5.23825">
        <ele>95</ele>
        <time>2022-03-21T13:56:41.000Z</time>
      </trkpt>
      <trkpt lat="43.45362" lon="5.23825">
        <ele>94</ele>
        <time>2022-03-21T13:56:42.000Z</time>
      </trkpt>
      <trkpt lat="43.4536" lon="5.23825">
        <ele>94</ele>
        <time>2022-03-21T13:56:43.000Z</time>
      </trkpt>
      <trkpt lat="43.45359" lon="5.23826">
        <ele>94</ele>
        <time>2022-03-21T13:56:44.000Z</time>
      </trkpt>
      <trkpt lat="43.45357" lon="5.23826">
        <ele>94</ele>
        <time>2022-03-21T13:56:45.000Z</time>
      </trkpt>
      <trkpt lat="43.45356" lon="5.23827">
        <ele>94</ele>
        <time>2022-03-21T13:56:46.000Z</time>
      </trkpt>
      <trkpt lat="43.45355" lon="5.23827">
        <ele>94</ele>
        <time>2022-03-21T13:56:47.000Z</time>
      </trkpt>
      <trkpt lat="43.45353" lon="5.23828">
        <ele>94</ele>
        <time>2022-03-21T13:56:48.000Z</time>
      </trkpt>
      <trkpt lat="43.45352" lon="5.23828">
        <ele>94</ele>
        <time>2022-03-21T13:56:49.000Z</time>
      </trkpt>
      <trkpt lat="43.4535" lon="5.23829">
        <ele>94</ele>
        <time>2022-03-21T13:56:50.000Z</time>
      </trkpt>
      <trkpt lat="43.45349" lon="5.2383">
        <ele>94</ele>
        <time>2022-03-21T13:56:51.000Z</time>
      </trkpt>
      <trkpt lat="43.45347" lon="5.2383">
        <ele>94</ele>
        <time>2022-03-21T13:56:52.000Z</time>
      </trkpt>
      <trkpt lat="43.45346" lon="5.23831">
        <ele>94</ele>
        <time>2022-03-21T13:56:53.000Z</time>
      </trkpt>
      <trkpt lat="43.45345" lon="5.23831">
        <ele>94</ele>
        <time>2022-03-21T13:56:54.000Z</time>
      </trkpt>
      <trkpt lat="43.45343" lon="5.23832">
        <ele>93</ele>
        <time>2022-03-21T13:56:55.000Z</time>
      </trkpt>
      <trkpt lat="43.45342" lon="5.23833">
        <ele>93</ele>
        <time>2022-03-21T13:56:56.000Z</time>
      </trkpt>
      <trkpt lat="43.4534" lon="5.23833">
        <ele>93</ele>
        <time>2022-03-21T13:56:57.000Z</time>
      </trkpt>
      <trkpt lat="43.45339" lon="5.23834">
        <ele>93</ele>
        <time>2022-03-21T13:56:58.000Z</time>
      </trkpt>
      <trkpt lat="43.45338" lon="5.23834">
        <ele>93</ele>
        <time>2022-03-21T13:56:59.000Z</time>
      </trkpt>
      <trkpt lat="43.45336" lon="5.23835">
        <ele>93</ele>
        <time>2022-03-21T13:57:00.000Z</time>
      </trkpt>
      <trkpt lat="43.45335" lon="5.23835">
        <ele>93</ele>
        <time>2022-03-21T13:57:01.000Z</time>
      </trkpt>
      <trkpt lat="43.45333" lon="5.23836">
        <ele>93</ele>
        <time>2022-03-21T13:57:02.000Z</time>
      </trkpt>
      <trkpt lat="43.45332" lon="5.23836">
        <ele>93</ele>
        <time>2022-03-21T13:57:03.000Z</time>
      </trkpt>
      <trkpt lat="43.45331" lon="5.23837">
        <ele>93</ele>
        <time>2022-03-21T13:57:04.000Z</time>
      </trkpt>
      <trkpt lat="43.45329" lon="5.23837">
        <ele>93</ele>
        <time>2022-03-21T13:57:05.000Z</time>
      </trkpt>
      <trkpt lat="43.45328" lon="5.23838">
        <ele>93</ele>
        <time>2022-03-21T13:57:06.000Z</time>
      </trkpt>
      <trkpt lat="43.45327" lon="5.23839">
        <ele>93</ele>
        <time>2022-03-21T13:57:07.000Z</time>
      </trkpt>
      <trkpt lat="43.45325" lon="5.23839">
        <ele>93</ele>
        <time>2022-03-21T13:57:08.000Z</time>
      </trkpt>
      <trkpt lat="43.45324" lon="5.2384">
        <ele>93</ele>
        <time>2022-03-21T13:57:09.000Z</time>
      </trkpt>
      <trkpt lat="43.45323" lon="5.23841">
        <ele>93</ele>
        <time>2022-03-21T13:57:10.000Z</time>
      </trkpt>
      <trkpt lat="43.45321" lon="5.23842">
        <ele>93</ele>
        <time>2022-03-21T13:57:11.000Z</time>
      </trkpt>
      <trkpt lat="43.4532" lon="5.23842">
        <ele>93</ele>
        <time>2022-03-21T13:57:12.000Z</time>
      </trkpt>
      <trkpt lat="43.45319" lon="5.23843">
        <ele>93</ele>
        <time>2022-03-21T13:57:13.000Z</time>
      </trkpt>
      <trkpt lat="43.45317" lon="5.23844">
        <ele>93</ele>
        <time>2022-03-21T13:57:14.000Z</time>
      </trkpt>
      <trkpt lat="43.45316" lon="5.23845">
        <ele>93</ele>
        <time>2022-03-21T13:57:15.000Z</time>
      </trkpt>
      <trkpt lat="43.45314" lon="5.23846">
        <ele>93</ele>
        <time>2022-03-21T13:57:16.000Z</time>
      </trkpt>
      <trkpt lat="43.45313" lon="5.23846">
        <ele>93</ele>
        <time>2022-03-21T13:57:17.000Z</time>
      </trkpt>
      <trkpt lat="43.45312" lon="5.23847">
        <ele>92</ele>
        <time>2022-03-21T13:57:18.000Z</time>
      </trkpt>
      <trkpt lat="43.45311" lon="5.23848">
        <ele>92</ele>
        <time>2022-03-21T13:57:19.000Z</time>
      </trkpt>
      <trkpt lat="43.45309" lon="5.23849">
        <ele>92</ele>
        <time>2022-03-21T13:57:20.000Z</time>
      </trkpt>
      <trkpt lat="43.45308" lon="5.2385">
        <ele>92</ele>
        <time>2022-03-21T13:57:21.000Z</time>
      </trkpt>
      <trkpt lat="43.45307" lon="5.23851">
        <ele>92</ele>
        <time>2022-03-21T13:57:22.000Z</time>
      </trkpt>
      <trkpt lat="43.45305" lon="5.23852">
        <ele>92</ele>
        <time>2022-03-21T13:57:23.000Z</time>
      </trkpt>
      <trkpt lat="43.45304" lon="5.23853">
        <ele>92</ele>
        <time>2022-03-21T13:57:24.000Z</time>
      </trkpt>
      <trkpt lat="43.45302" lon="5.23853">
        <ele>92</ele>
        <time>2022-03-21T13:57:25.000Z</time>
      </trkpt>
      <trkpt lat="43.45301" lon="5.23854">
        <ele>92</ele>
        <time>2022-03-21T13:57:26.000Z</time>
      </trkpt>
      <trkpt lat="43.45299" lon="5.23855">
        <ele>92</ele>
        <time>2022-03-21T13:57:27.000Z</time>
      </trkpt>
      <trkpt lat="43.45298" lon="5.23856">
        <ele>92</ele>
        <time>2022-03-21T13:57:28.000Z</time>
      </trkpt>
      <trkpt lat="43.45296" lon="5.23856">
        <ele>92</ele>
        <time>2022-03-21T13:57:29.000Z</time>
      </trkpt>
      <trkpt lat="43.45295" lon="5.23857">
        <ele>92</ele>
        <time>2022-03-21T13:57:30.000Z</time>
      </trkpt>
      <trkpt lat="43.45293" lon="5.23857">
        <ele>92</ele>
        <time>2022-03-21T13:57:31.000Z</time>
      </trkpt>
      <trkpt lat="43.45292" lon="5.23857">
        <ele>92</ele>
        <time>2022-03-21T13:57:32.000Z</time>
      </trkpt>
      <trkpt lat="43.4529" lon="5.23857">
        <ele>92</ele>
        <time>2022-03-21T13:57:33.000Z</time>
      </trkpt>
      <trkpt lat="43.45289" lon="5.23858">
        <ele>92</ele>
        <time>2022-03-21T13:57:34.000Z</time>
      </trkpt>
      <trkpt lat="43.45287" lon="5.23858">
        <ele>92</ele>
        <time>2022-03-21T13:57:35.000Z</time>
      </trkpt>
      <trkpt lat="43.45286" lon="5.23859">
        <ele>92</ele>
        <time>2022-03-21T13:57:36.000Z</time>
      </trkpt>
      <trkpt lat="43.45284" lon="5.23859">
        <ele>92</ele>
        <time>2022-03-21T13:57:37.000Z</time>
      </trkpt>
      <trkpt lat="43.45283" lon="5.23859">
        <ele>92</ele>
        <time>2022-03-21T13:57:38.000Z</time>
      </trkpt>
      <trkpt lat="43.45281" lon="5.23859">
        <ele>92</ele>
        <time>2022-03-21T13:57:39.000Z</time>
      </trkpt>
      <trkpt lat="43.45279" lon="5.2386">
        <ele>92</ele>
        <time>2022-03-21T13:57:40.000Z</time>
      </trkpt>
      <trkpt lat="43.45278" lon="5.2386">
        <ele>92</ele>
        <time>2022-03-21T13:57:41.000Z</time>
      </trkpt>
      <trkpt lat="43.45276" lon="5.23859">
        <ele>93</ele>
        <time>2022-03-21T13:57:42.000Z</time>
      </trkpt>
      <trkpt lat="43.45275" lon="5.23859">
        <ele>93</ele>
        <time>2022-03-21T13:57:43.000Z</time>
      </trkpt>
      <trkpt lat="43.45273" lon="5.23859">
        <ele>93</ele>
        <time>2022-03-21T13:57:44.000Z</time>
      </trkpt>
      <trkpt lat="43.45272" lon="5.23859">
        <ele>93</ele>
        <time>2022-03-21T13:57:45.000Z</time>
      </trkpt>
      <trkpt lat="43.4527" lon="5.23859">
        <ele>93</ele>
        <time>2022-03-21T13:57:46.000Z</time>
      </trkpt>
      <trkpt lat="43.45269" lon="5.23858">
        <ele>92</ele>
        <time>2022-03-21T13:57:47.000Z</time>
      </trkpt>
      <trkpt lat="43.45267" lon="5.23858">
        <ele>92</ele>
        <time>2022-03-21T13:57:48.000Z</time>
      </trkpt>
      <trkpt lat="43.45266" lon="5.23858">
        <ele>92</ele>
        <time>2022-03-21T13:57:49.000Z</time>
      </trkpt>
      <trkpt lat="43.45264" lon="5.23858">
        <ele>92</ele>
        <time>2022-03-21T13:57:50.000Z</time>
      </trkpt>
      <trkpt lat="43.45263" lon="5.23858">
        <ele>92</ele>
        <time>2022-03-21T13:57:51.000Z</time>
      </trkpt>
      <trkpt lat="43.45261" lon="5.23858">
        <ele>92</ele>
        <time>2022-03-21T13:57:52.000Z</time>
      </trkpt>
      <trkpt lat="43.45259" lon="5.23858">
        <ele>92</ele>
        <time>2022-03-21T13:57:53.000Z</time>
      </trkpt>
      <trkpt lat="43.45258" lon="5.23858">
        <ele>92</ele>
        <time>2022-03-21T13:57:54.000Z</time>
      </trkpt>
      <trkpt lat="43.45256" lon="5.23858">
        <ele>92</ele>
        <time>2022-03-21T13:57:55.000Z</time>
      </trkpt>
      <trkpt lat="43.45255" lon="5.23858">
        <ele>92</ele>
        <time>2022-03-21T13:57:56.000Z</time>
      </trkpt>
      <trkpt lat="43.45253" lon="5.23858">
        <ele>92</ele>
        <time>2022-03-21T13:57:57.000Z</time>
      </trkpt>
      <trkpt lat="43.45252" lon="5.23858">
        <ele>92</ele>
        <time>2022-03-21T13:57:58.000Z</time>
      </trkpt>
      <trkpt lat="43.45251" lon="5.23858">
        <ele>92</ele>
        <time>2022-03-21T13:57:59.000Z</time>
      </trkpt>
      <trkpt lat="43.45249" lon="5.23859">
        <ele>92</ele>
        <time>2022-03-21T13:58:00.000Z</time>
      </trkpt>
      <trkpt lat="43.45248" lon="5.23859">
        <ele>92</ele>
        <time>2022-03-21T13:58:01.000Z</time>
      </trkpt>
      <trkpt lat="43.45246" lon="5.2386">
        <ele>91</ele>
        <time>2022-03-21T13:58:02.000Z</time>
      </trkpt>
      <trkpt lat="43.45245" lon="5.2386">
        <ele>91</ele>
        <time>2022-03-21T13:58:03.000Z</time>
      </trkpt>
      <trkpt lat="43.45243" lon="5.23861">
        <ele>91</ele>
        <time>2022-03-21T13:58:04.000Z</time>
      </trkpt>
      <trkpt lat="43.45242" lon="5.23862">
        <ele>91</ele>
        <time>2022-03-21T13:58:05.000Z</time>
      </trkpt>
      <trkpt lat="43.4524" lon="5.23862">
        <ele>91</ele>
        <time>2022-03-21T13:58:06.000Z</time>
      </trkpt>
      <trkpt lat="43.45239" lon="5.23863">
        <ele>91</ele>
        <time>2022-03-21T13:58:07.000Z</time>
      </trkpt>
      <trkpt lat="43.45237" lon="5.23864">
        <ele>91</ele>
        <time>2022-03-21T13:58:08.000Z</time>
      </trkpt>
      <trkpt lat="43.45235" lon="5.23865">
        <ele>91</ele>
        <time>2022-03-21T13:58:09.000Z</time>
      </trkpt>
      <trkpt lat="43.45234" lon="5.23866">
        <ele>91</ele>
        <time>2022-03-21T13:58:10.000Z</time>
      </trkpt>
      <trkpt lat="43.45232" lon="5.23866">
        <ele>91</ele>
        <time>2022-03-21T13:58:11.000Z</time>
      </trkpt>
      <trkpt lat="43.4523" lon="5.23867">
        <ele>91</ele>
        <time>2022-03-21T13:58:12.000Z</time>
      </trkpt>
      <trkpt lat="43.45229" lon="5.23868">
        <ele>91</ele>
        <time>2022-03-21T13:58:13.000Z</time>
      </trkpt>
      <trkpt lat="43.45227" lon="5.23868">
        <ele>91</ele>
        <time>2022-03-21T13:58:14.000Z</time>
      </trkpt>
      <trkpt lat="43.45226" lon="5.23869">
        <ele>91</ele>
        <time>2022-03-21T13:58:15.000Z</time>
      </trkpt>
      <trkpt lat="43.45224" lon="5.2387">
        <ele>91</ele>
        <time>2022-03-21T13:58:16.000Z</time>
      </trkpt>
      <trkpt lat="43.45223" lon="5.23871">
        <ele>91</ele>
        <time>2022-03-21T13:58:17.000Z</time>
      </trkpt>
      <trkpt lat="43.45221" lon="5.23871">
        <ele>91</ele>
        <time>2022-03-21T13:58:18.000Z</time>
      </trkpt>
      <trkpt lat="43.4522" lon="5.23872">
        <ele>91</ele>
        <time>2022-03-21T13:58:19.000Z</time>
      </trkpt>
      <trkpt lat="43.45218" lon="5.23873">
        <ele>91</ele>
        <time>2022-03-21T13:58:20.000Z</time>
      </trkpt>
      <trkpt lat="43.45217" lon="5.23873">
        <ele>91</ele>
        <time>2022-03-21T13:58:21.000Z</time>
      </trkpt>
      <trkpt lat="43.45215" lon="5.23874">
        <ele>91</ele>
        <time>2022-03-21T13:58:22.000Z</time>
      </trkpt>
      <trkpt lat="43.45214" lon="5.23874">
        <ele>91</ele>
        <time>2022-03-21T13:58:23.000Z</time>
      </trkpt>
      <trkpt lat="43.45212" lon="5.23875">
        <ele>91</ele>
        <time>2022-03-21T13:58:24.000Z</time>
      </trkpt>
      <trkpt lat="43.45211" lon="5.23875">
        <ele>91</ele>
        <time>2022-03-21T13:58:25.000Z</time>
      </trkpt>
      <trkpt lat="43.45209" lon="5.23876">
        <ele>90</ele>
        <time>2022-03-21T13:58:26.000Z</time>
      </trkpt>
      <trkpt lat="43.45208" lon="5.23877">
        <ele>90</ele>
        <time>2022-03-21T13:58:27.000Z</time>
      </trkpt>
      <trkpt lat="43.45206" lon="5.23877">
        <ele>90</ele>
        <time>2022-03-21T13:58:28.000Z</time>
      </trkpt>
      <trkpt lat="43.45205" lon="5.23878">
        <ele>90</ele>
        <time>2022-03-21T13:58:29.000Z</time>
      </trkpt>
      <trkpt lat="43.45204" lon="5.23879">
        <ele>90</ele>
        <time>2022-03-21T13:58:30.000Z</time>
      </trkpt>
      <trkpt lat="43.45202" lon="5.23879">
        <ele>90</ele>
        <time>2022-03-21T13:58:31.000Z</time>
      </trkpt>
      <trkpt lat="43.45201" lon="5.2388">
        <ele>90</ele>
        <time>2022-03-21T13:58:32.000Z</time>
      </trkpt>
      <trkpt lat="43.45199" lon="5.2388">
        <ele>90</ele>
        <time>2022-03-21T13:58:33.000Z</time>
      </trkpt>
      <trkpt lat="43.45198" lon="5.23881">
        <ele>90</ele>
        <time>2022-03-21T13:58:34.000Z</time>
      </trkpt>
      <trkpt lat="43.45196" lon="5.23881">
        <ele>90</ele>
        <time>2022-03-21T13:58:35.000Z</time>
      </trkpt>
      <trkpt lat="43.45195" lon="5.23882">
        <ele>90</ele>
        <time>2022-03-21T13:58:36.000Z</time>
      </trkpt>
      <trkpt lat="43.45193" lon="5.23882">
        <ele>90</ele>
        <time>2022-03-21T13:58:37.000Z</time>
      </trkpt>
      <trkpt lat="43.45191" lon="5.23882">
        <ele>90</ele>
        <time>2022-03-21T13:58:38.000Z</time>
      </trkpt>
      <trkpt lat="43.4519" lon="5.23882">
        <ele>90</ele>
        <time>2022-03-21T13:58:39.000Z</time>
      </trkpt>
      <trkpt lat="43.45188" lon="5.23882">
        <ele>90</ele>
        <time>2022-03-21T13:58:40.000Z</time>
      </trkpt>
      <trkpt lat="43.45187" lon="5.23882">
        <ele>90</ele>
        <time>2022-03-21T13:58:41.000Z</time>
      </trkpt>
      <trkpt lat="43.45185" lon="5.23882">
        <ele>90</ele>
        <time>2022-03-21T13:58:42.000Z</time>
      </trkpt>
      <trkpt lat="43.45184" lon="5.23883">
        <ele>90</ele>
        <time>2022-03-21T13:58:43.000Z</time>
      </trkpt>
      <trkpt lat="43.45183" lon="5.23883">
        <ele>90</ele>
        <time>2022-03-21T13:58:44.000Z</time>
      </trkpt>
      <trkpt lat="43.45181" lon="5.23883">
        <ele>90</ele>
        <time>2022-03-21T13:58:45.000Z</time>
      </trkpt>
      <trkpt lat="43.4518" lon="5.23883">
        <ele>90</ele>
        <time>2022-03-21T13:58:46.000Z</time>
      </trkpt>
      <trkpt lat="43.45179" lon="5.23883">
        <ele>90</ele>
        <time>2022-03-21T13:58:47.000Z</time>
      </trkpt>
      <trkpt lat="43.45177" lon="5.23883">
        <ele>90</ele>
        <time>2022-03-21T13:58:48.000Z</time>
      </trkpt>
      <trkpt lat="43.45176" lon="5.23883">
        <ele>90</ele>
        <time>2022-03-21T13:58:49.000Z</time>
      </trkpt>
      <trkpt lat="43.45175" lon="5.23884">
        <ele>90</ele>
        <time>2022-03-21T13:58:50.000Z</time>
      </trkpt>
      <trkpt lat="43.45173" lon="5.23884">
        <ele>90</ele>
        <time>2022-03-21T13:58:51.000Z</time>
      </trkpt>
      <trkpt lat="43.45172" lon="5.23885">
        <ele>90</ele>
        <time>2022-03-21T13:58:52.000Z</time>
      </trkpt>
      <trkpt lat="43.45171" lon="5.23885">
        <ele>90</ele>
        <time>2022-03-21T13:58:53.000Z</time>
      </trkpt>
      <trkpt lat="43.45169" lon="5.23886">
        <ele>90</ele>
        <time>2022-03-21T13:58:54.000Z</time>
      </trkpt>
      <trkpt lat="43.45168" lon="5.23886">
        <ele>90</ele>
        <time>2022-03-21T13:58:55.000Z</time>
      </trkpt>
      <trkpt lat="43.45166" lon="5.23887">
        <ele>90</ele>
        <time>2022-03-21T13:58:56.000Z</time>
      </trkpt>
      <trkpt lat="43.45165" lon="5.23887">
        <ele>90</ele>
        <time>2022-03-21T13:58:57.000Z</time>
      </trkpt>
      <trkpt lat="43.45163" lon="5.23888">
        <ele>90</ele>
        <time>2022-03-21T13:58:58.000Z</time>
      </trkpt>
      <trkpt lat="43.45162" lon="5.23889">
        <ele>90</ele>
        <time>2022-03-21T13:58:59.000Z</time>
      </trkpt>
      <trkpt lat="43.4516" lon="5.2389">
        <ele>90</ele>
        <time>2022-03-21T13:59:00.000Z</time>
      </trkpt>
      <trkpt lat="43.45159" lon="5.23891">
        <ele>90</ele>
        <time>2022-03-21T13:59:01.000Z</time>
      </trkpt>
      <trkpt lat="43.45158" lon="5.23891">
        <ele>90</ele>
        <time>2022-03-21T13:59:02.000Z</time>
      </trkpt>
      <trkpt lat="43.45157" lon="5.23892">
        <ele>90</ele>
        <time>2022-03-21T13:59:03.000Z</time>
      </trkpt>
      <trkpt lat="43.45155" lon="5.23893">
        <ele>90</ele>
        <time>2022-03-21T13:59:04.000Z</time>
      </trkpt>
      <trkpt lat="43.45154" lon="5.23894">
        <ele>90</ele>
        <time>2022-03-21T13:59:05.000Z</time>
      </trkpt>
      <trkpt lat="43.45153" lon="5.23895">
        <ele>90</ele>
        <time>2022-03-21T13:59:06.000Z</time>
      </trkpt>
      <trkpt lat="43.45151" lon="5.23896">
        <ele>90</ele>
        <time>2022-03-21T13:59:07.000Z</time>
      </trkpt>
      <trkpt lat="43.4515" lon="5.23897">
        <ele>90</ele>
        <time>2022-03-21T13:59:08.000Z</time>
      </trkpt>
      <trkpt lat="43.45149" lon="5.23898">
        <ele>90</ele>
        <time>2022-03-21T13:59:09.000Z</time>
      </trkpt>
      <trkpt lat="43.45147" lon="5.23899">
        <ele>90</ele>
        <time>2022-03-21T13:59:10.000Z</time>
      </trkpt>
      <trkpt lat="43.45146" lon="5.239">
        <ele>90</ele>
        <time>2022-03-21T13:59:11.000Z</time>
      </trkpt>
      <trkpt lat="43.45144" lon="5.23901">
        <ele>90</ele>
        <time>2022-03-21T13:59:12.000Z</time>
      </trkpt>
      <trkpt lat="43.45143" lon="5.23901">
        <ele>90</ele>
        <time>2022-03-21T13:59:13.000Z</time>
      </trkpt>
      <trkpt lat="43.45141" lon="5.23902">
        <ele>90</ele>
        <time>2022-03-21T13:59:14.000Z</time>
      </trkpt>
      <trkpt lat="43.4514" lon="5.23903">
        <ele>90</ele>
        <time>2022-03-21T13:59:15.000Z</time>
      </trkpt>
      <trkpt lat="43.45138" lon="5.23903">
        <ele>90</ele>
        <time>2022-03-21T13:59:16.000Z</time>
      </trkpt>
      <trkpt lat="43.45137" lon="5.23904">
        <ele>90</ele>
        <time>2022-03-21T13:59:17.000Z</time>
      </trkpt>
      <trkpt lat="43.45135" lon="5.23904">
        <ele>90</ele>
        <time>2022-03-21T13:59:18.000Z</time>
      </trkpt>
      <trkpt lat="43.45134" lon="5.23905">
        <ele>90</ele>
        <time>2022-03-21T13:59:19.000Z</time>
      </trkpt>
      <trkpt lat="43.45132" lon="5.23906">
        <ele>90</ele>
        <time>2022-03-21T13:59:20.000Z</time>
      </trkpt>
      <trkpt lat="43.45131" lon="5.23906">
        <ele>89</ele>
        <time>2022-03-21T13:59:21.000Z</time>
      </trkpt>
      <trkpt lat="43.45129" lon="5.23907">
        <ele>89</ele>
        <time>2022-03-21T13:59:22.000Z</time>
      </trkpt>
      <trkpt lat="43.45128" lon="5.23908">
        <ele>89</ele>
        <time>2022-03-21T13:59:23.000Z</time>
      </trkpt>
      <trkpt lat="43.45126" lon="5.23908">
        <ele>89</ele>
        <time>2022-03-21T13:59:24.000Z</time>
      </trkpt>
      <trkpt lat="43.45125" lon="5.23909">
        <ele>89</ele>
        <time>2022-03-21T13:59:25.000Z</time>
      </trkpt>
      <trkpt lat="43.45123" lon="5.23909">
        <ele>90</ele>
        <time>2022-03-21T13:59:26.000Z</time>
      </trkpt>
      <trkpt lat="43.45121" lon="5.2391">
        <ele>90</ele>
        <time>2022-03-21T13:59:27.000Z</time>
      </trkpt>
      <trkpt lat="43.4512" lon="5.2391">
        <ele>90</ele>
        <time>2022-03-21T13:59:28.000Z</time>
      </trkpt>
      <trkpt lat="43.45118" lon="5.23911">
        <ele>90</ele>
        <time>2022-03-21T13:59:29.000Z</time>
      </trkpt>
      <trkpt lat="43.45117" lon="5.23911">
        <ele>89</ele>
        <time>2022-03-21T13:59:30.000Z</time>
      </trkpt>
      <trkpt lat="43.45115" lon="5.23912">
        <ele>89</ele>
        <time>2022-03-21T13:59:31.000Z</time>
      </trkpt>
      <trkpt lat="43.45114" lon="5.23912">
        <ele>89</ele>
        <time>2022-03-21T13:59:32.000Z</time>
      </trkpt>
      <trkpt lat="43.45112" lon="5.23913">
        <ele>89</ele>
        <time>2022-03-21T13:59:33.000Z</time>
      </trkpt>
      <trkpt lat="43.45111" lon="5.23913">
        <ele>89</ele>
        <time>2022-03-21T13:59:34.000Z</time>
      </trkpt>
      <trkpt lat="43.45109" lon="5.23914">
        <ele>89</ele>
        <time>2022-03-21T13:59:35.000Z</time>
      </trkpt>
      <trkpt lat="43.45108" lon="5.23915">
        <ele>89</ele>
        <time>2022-03-21T13:59:36.000Z</time>
      </trkpt>
      <trkpt lat="43.45106" lon="5.23915">
        <ele>89</ele>
        <time>2022-03-21T13:59:37.000Z</time>
      </trkpt>
      <trkpt lat="43.45105" lon="5.23916">
        <ele>89</ele>
        <time>2022-03-21T13:59:38.000Z</time>
      </trkpt>
      <trkpt lat="43.45103" lon="5.23917">
        <ele>89</ele>
        <time>2022-03-21T13:59:39.000Z</time>
      </trkpt>
      <trkpt lat="43.45102" lon="5.23918">
        <ele>89</ele>
        <time>2022-03-21T13:59:40.000Z</time>
      </trkpt>
      <trkpt lat="43.451" lon="5.23919">
        <ele>89</ele>
        <time>2022-03-21T13:59:41.000Z</time>
      </trkpt>
      <trkpt lat="43.45099" lon="5.23919">
        <ele>89</ele>
        <time>2022-03-21T13:59:42.000Z</time>
      </trkpt>
      <trkpt lat="43.45098" lon="5.2392">
        <ele>89</ele>
        <time>2022-03-21T13:59:43.000Z</time>
      </trkpt>
      <trkpt lat="43.45096" lon="5.23921">
        <ele>89</ele>
        <time>2022-03-21T13:59:44.000Z</time>
      </trkpt>
      <trkpt lat="43.45095" lon="5.23922">
        <ele>89</ele>
        <time>2022-03-21T13:59:45.000Z</time>
      </trkpt>
      <trkpt lat="43.45093" lon="5.23923">
        <ele>89</ele>
        <time>2022-03-21T13:59:46.000Z</time>
      </trkpt>
      <trkpt lat="43.45092" lon="5.23923">
        <ele>89</ele>
        <time>2022-03-21T13:59:47.000Z</time>
      </trkpt>
      <trkpt lat="43.4509" lon="5.23924">
        <ele>89</ele>
        <time>2022-03-21T13:59:48.000Z</time>
      </trkpt>
      <trkpt lat="43.45089" lon="5.23925">
        <ele>89</ele>
        <time>2022-03-21T13:59:49.000Z</time>
      </trkpt>
      <trkpt lat="43.45087" lon="5.23926">
        <ele>89</ele>
        <time>2022-03-21T13:59:50.000Z</time>
      </trkpt>
      <trkpt lat="43.45086" lon="5.23927">
        <ele>90</ele>
        <time>2022-03-21T13:59:51.000Z</time>
      </trkpt>
      <trkpt lat="43.45085" lon="5.23928">
        <ele>90</ele>
        <time>2022-03-21T13:59:52.000Z</time>
      </trkpt>
      <trkpt lat="43.45083" lon="5.23929">
        <ele>90</ele>
        <time>2022-03-21T13:59:53.000Z</time>
      </trkpt>
      <trkpt lat="43.45082" lon="5.2393">
        <ele>90</ele>
        <time>2022-03-21T13:59:54.000Z</time>
      </trkpt>
      <trkpt lat="43.4508" lon="5.2393">
        <ele>90</ele>
        <time>2022-03-21T13:59:55.000Z</time>
      </trkpt>
      <trkpt lat="43.45079" lon="5.23931">
        <ele>90</ele>
        <time>2022-03-21T13:59:56.000Z</time>
      </trkpt>
      <trkpt lat="43.45078" lon="5.23932">
        <ele>90</ele>
        <time>2022-03-21T13:59:57.000Z</time>
      </trkpt>
      <trkpt lat="43.45076" lon="5.23933">
        <ele>90</ele>
        <time>2022-03-21T13:59:58.000Z</time>
      </trkpt>
      <trkpt lat="43.45075" lon="5.23934">
        <ele>90</ele>
        <time>2022-03-21T13:59:59.000Z</time>
      </trkpt>
      <trkpt lat="43.45074" lon="5.23935">
        <ele>90</ele>
        <time>2022-03-21T14:00:00.000Z</time>
      </trkpt>
      <trkpt lat="43.45072" lon="5.23936">
        <ele>90</ele>
        <time>2022-03-21T14:00:01.000Z</time>
      </trkpt>
      <trkpt lat="43.45071" lon="5.23936">
        <ele>90</ele>
        <time>2022-03-21T14:00:02.000Z</time>
      </trkpt>
      <trkpt lat="43.4507" lon="5.23937">
        <ele>90</ele>
        <time>2022-03-21T14:00:03.000Z</time>
      </trkpt>
      <trkpt lat="43.45068" lon="5.23938">
        <ele>90</ele>
        <time>2022-03-21T14:00:04.000Z</time>
      </trkpt>
      <trkpt lat="43.45067" lon="5.23939">
        <ele>90</ele>
        <time>2022-03-21T14:00:05.000Z</time>
      </trkpt>
      <trkpt lat="43.45066" lon="5.23939">
        <ele>90</ele>
        <time>2022-03-21T14:00:06.000Z</time>
      </trkpt>
      <trkpt lat="43.45064" lon="5.2394">
        <ele>90</ele>
        <time>2022-03-21T14:00:07.000Z</time>
      </trkpt>
      <trkpt lat="43.45063" lon="5.23941">
        <ele>90</ele>
        <time>2022-03-21T14:00:08.000Z</time>
      </trkpt>
      <trkpt lat="43.45061" lon="5.23941">
        <ele>90</ele>
        <time>2022-03-21T14:00:09.000Z</time>
      </trkpt>
      <trkpt lat="43.4506" lon="5.23943">
        <ele>90</ele>
        <time>2022-03-21T14:00:10.000Z</time>
      </trkpt>
      <trkpt lat="43.45059" lon="5.23944">
        <ele>90</ele>
        <time>2022-03-21T14:00:11.000Z</time>
      </trkpt>
      <trkpt lat="43.45057" lon="5.23944">
        <ele>90</ele>
        <time>2022-03-21T14:00:12.000Z</time>
      </trkpt>
      <trkpt lat="43.45056" lon="5.23945">
        <ele>90</ele>
        <time>2022-03-21T14:00:13.000Z</time>
      </trkpt>
      <trkpt lat="43.45054" lon="5.23946">
        <ele>90</ele>
        <time>2022-03-21T14:00:14.000Z</time>
      </trkpt>
      <trkpt lat="43.45053" lon="5.23946">
        <ele>90</ele>
        <time>2022-03-21T14:00:15.000Z</time>
      </trkpt>
      <trkpt lat="43.45052" lon="5.23947">
        <ele>90</ele>
        <time>2022-03-21T14:00:16.000Z</time>
      </trkpt>
      <trkpt lat="43.4505" lon="5.23946">
        <ele>90</ele>
        <time>2022-03-21T14:00:17.000Z</time>
      </trkpt>
      <trkpt lat="43.45049" lon="5.23946">
        <ele>90</ele>
        <time>2022-03-21T14:00:18.000Z</time>
      </trkpt>
      <trkpt lat="43.45048" lon="5.23944">
        <ele>90</ele>
        <time>2022-03-21T14:00:19.000Z</time>
      </trkpt>
      <trkpt lat="43.45047" lon="5.23942">
        <ele>89</ele>
        <time>2022-03-21T14:00:20.000Z</time>
      </trkpt>
      <trkpt lat="43.45046" lon="5.2394">
        <ele>89</ele>
        <time>2022-03-21T14:00:21.000Z</time>
      </trkpt>
      <trkpt lat="43.45045" lon="5.23938">
        <ele>89</ele>
        <time>2022-03-21T14:00:22.000Z</time>
      </trkpt>
      <trkpt lat="43.45044" lon="5.23937">
        <ele>89</ele>
        <time>2022-03-21T14:00:23.000Z</time>
      </trkpt>
      <trkpt lat="43.45044" lon="5.23935">
        <ele>89</ele>
        <time>2022-03-21T14:00:24.000Z</time>
      </trkpt>
      <trkpt lat="43.45043" lon="5.23933">
        <ele>89</ele>
        <time>2022-03-21T14:00:25.000Z</time>
      </trkpt>
      <trkpt lat="43.45042" lon="5.23931">
        <ele>89</ele>
        <time>2022-03-21T14:00:26.000Z</time>
      </trkpt>
      <trkpt lat="43.45042" lon="5.2393">
        <ele>89</ele>
        <time>2022-03-21T14:00:27.000Z</time>
      </trkpt>
      <trkpt lat="43.45041" lon="5.23928">
        <ele>89</ele>
        <time>2022-03-21T14:00:28.000Z</time>
      </trkpt>
      <trkpt lat="43.4504" lon="5.23926">
        <ele>89</ele>
        <time>2022-03-21T14:00:29.000Z</time>
      </trkpt>
      <trkpt lat="43.45039" lon="5.23925">
        <ele>89</ele>
        <time>2022-03-21T14:00:30.000Z</time>
      </trkpt>
      <trkpt lat="43.45039" lon="5.23923">
        <ele>89</ele>
        <time>2022-03-21T14:00:31.000Z</time>
      </trkpt>
      <trkpt lat="43.45038" lon="5.23921">
        <ele>89</ele>
        <time>2022-03-21T14:00:32.000Z</time>
      </trkpt>
      <trkpt lat="43.45037" lon="5.23919">
        <ele>89</ele>
        <time>2022-03-21T14:00:33.000Z</time>
      </trkpt>
      <trkpt lat="43.45036" lon="5.23917">
        <ele>89</ele>
        <time>2022-03-21T14:00:34.000Z</time>
      </trkpt>
      <trkpt lat="43.45036" lon="5.23916">
        <ele>89</ele>
        <time>2022-03-21T14:00:35.000Z</time>
      </trkpt>
      <trkpt lat="43.45035" lon="5.23914">
        <ele>89</ele>
        <time>2022-03-21T14:00:36.000Z</time>
      </trkpt>
      <trkpt lat="43.45035" lon="5.23912">
        <ele>89</ele>
        <time>2022-03-21T14:00:37.000Z</time>
      </trkpt>
      <trkpt lat="43.45034" lon="5.2391">
        <ele>89</ele>
        <time>2022-03-21T14:00:38.000Z</time>
      </trkpt>
      <trkpt lat="43.45033" lon="5.23909">
        <ele>89</ele>
        <time>2022-03-21T14:00:39.000Z</time>
      </trkpt>
      <trkpt lat="43.45032" lon="5.23907">
        <ele>89</ele>
        <time>2022-03-21T14:00:40.000Z</time>
      </trkpt>
      <trkpt lat="43.45032" lon="5.23905">
        <ele>89</ele>
        <time>2022-03-21T14:00:41.000Z</time>
      </trkpt>
      <trkpt lat="43.45031" lon="5.23903">
        <ele>89</ele>
        <time>2022-03-21T14:00:42.000Z</time>
      </trkpt>
      <trkpt lat="43.45031" lon="5.23901">
        <ele>89</ele>
        <time>2022-03-21T14:00:43.000Z</time>
      </trkpt>
      <trkpt lat="43.4503" lon="5.239">
        <ele>89</ele>
        <time>2022-03-21T14:00:44.000Z</time>
      </trkpt>
      <trkpt lat="43.45029" lon="5.23898">
        <ele>89</ele>
        <time>2022-03-21T14:00:45.000Z</time>
      </trkpt>
      <trkpt lat="43.45028" lon="5.23896">
        <ele>89</ele>
        <time>2022-03-21T14:00:46.000Z</time>
      </trkpt>
      <trkpt lat="43.45028" lon="5.23894">
        <ele>89</ele>
        <time>2022-03-21T14:00:47.000Z</time>
      </trkpt>
      <trkpt lat="43.45027" lon="5.23892">
        <ele>89</ele>
        <time>2022-03-21T14:00:48.000Z</time>
      </trkpt>
      <trkpt lat="43.45026" lon="5.2389">
        <ele>89</ele>
        <time>2022-03-21T14:00:49.000Z</time>
      </trkpt>
      <trkpt lat="43.45025" lon="5.23889">
        <ele>89</ele>
        <time>2022-03-21T14:00:50.000Z</time>
      </trkpt>
      <trkpt lat="43.45025" lon="5.23887">
        <ele>89</ele>
        <time>2022-03-21T14:00:51.000Z</time>
      </trkpt>
      <trkpt lat="43.45024" lon="5.23885">
        <ele>89</ele>
        <time>2022-03-21T14:00:52.000Z</time>
      </trkpt>
      <trkpt lat="43.45023" lon="5.23883">
        <ele>89</ele>
        <time>2022-03-21T14:00:53.000Z</time>
      </trkpt>
      <trkpt lat="43.45023" lon="5.23881">
        <ele>89</ele>
        <time>2022-03-21T14:00:54.000Z</time>
      </trkpt>
      <trkpt lat="43.45022" lon="5.23879">
        <ele>89</ele>
        <time>2022-03-21T14:00:55.000Z</time>
      </trkpt>
      <trkpt lat="43.45022" lon="5.23877">
        <ele>89</ele>
        <time>2022-03-21T14:00:56.000Z</time>
      </trkpt>
      <trkpt lat="43.45021" lon="5.23875">
        <ele>89</ele>
        <time>2022-03-21T14:00:57.000Z</time>
      </trkpt>
      <trkpt lat="43.4502" lon="5.23874">
        <ele>89</ele>
        <time>2022-03-21T14:00:58.000Z</time>
      </trkpt>
      <trkpt lat="43.45019" lon="5.23873">
        <ele>89</ele>
        <time>2022-03-21T14:00:59.000Z</time>
      </trkpt>
      <trkpt lat="43.45017" lon="5.23872">
        <ele>89</ele>
        <time>2022-03-21T14:01:00.000Z</time>
      </trkpt>
      <trkpt lat="43.45016" lon="5.23872">
        <ele>89</ele>
        <time>2022-03-21T14:01:01.000Z</time>
      </trkpt>
      <trkpt lat="43.45015" lon="5.23872">
        <ele>89</ele>
        <time>2022-03-21T14:01:02.000Z</time>
      </trkpt>
      <trkpt lat="43.45013" lon="5.23872">
        <ele>89</ele>
        <time>2022-03-21T14:01:03.000Z</time>
      </trkpt>
      <trkpt lat="43.45012" lon="5.23872">
        <ele>88</ele>
        <time>2022-03-21T14:01:04.000Z</time>
      </trkpt>
      <trkpt lat="43.4501" lon="5.23873">
        <ele>88</ele>
        <time>2022-03-21T14:01:05.000Z</time>
      </trkpt>
      <trkpt lat="43.45009" lon="5.23872">
        <ele>88</ele>
        <time>2022-03-21T14:01:06.000Z</time>
      </trkpt>
      <trkpt lat="43.45007" lon="5.23872">
        <ele>88</ele>
        <time>2022-03-21T14:01:07.000Z</time>
      </trkpt>
      <trkpt lat="43.45006" lon="5.23873">
        <ele>88</ele>
        <time>2022-03-21T14:01:08.000Z</time>
      </trkpt>
      <trkpt lat="43.45005" lon="5.23873">
        <ele>88</ele>
        <time>2022-03-21T14:01:09.000Z</time>
      </trkpt>
      <trkpt lat="43.45003" lon="5.23873">
        <ele>88</ele>
        <time>2022-03-21T14:01:10.000Z</time>
      </trkpt>
      <trkpt lat="43.45002" lon="5.23873">
        <ele>88</ele>
        <time>2022-03-21T14:01:11.000Z</time>
      </trkpt>
      <trkpt lat="43.45001" lon="5.23874">
        <ele>88</ele>
        <time>2022-03-21T14:01:12.000Z</time>
      </trkpt>
      <trkpt lat="43.44999" lon="5.23875">
        <ele>88</ele>
        <time>2022-03-21T14:01:13.000Z</time>
      </trkpt>
      <trkpt lat="43.44998" lon="5.23876">
        <ele>88</ele>
        <time>2022-03-21T14:01:14.000Z</time>
      </trkpt>
      <trkpt lat="43.44997" lon="5.23877">
        <ele>88</ele>
        <time>2022-03-21T14:01:15.000Z</time>
      </trkpt>
      <trkpt lat="43.44996" lon="5.23879">
        <ele>88</ele>
        <time>2022-03-21T14:01:16.000Z</time>
      </trkpt>
      <trkpt lat="43.44995" lon="5.2388">
        <ele>88</ele>
        <time>2022-03-21T14:01:17.000Z</time>
      </trkpt>
      <trkpt lat="43.44994" lon="5.23881">
        <ele>88</ele>
        <time>2022-03-21T14:01:18.000Z</time>
      </trkpt>
      <trkpt lat="43.44993" lon="5.23882">
        <ele>87</ele>
        <time>2022-03-21T14:01:19.000Z</time>
      </trkpt>
      <trkpt lat="43.44992" lon="5.23884">
        <ele>87</ele>
        <time>2022-03-21T14:01:20.000Z</time>
      </trkpt>
      <trkpt lat="43.44992" lon="5.23885">
        <ele>87</ele>
        <time>2022-03-21T14:01:21.000Z</time>
      </trkpt>
      <trkpt lat="43.44991" lon="5.23887">
        <ele>87</ele>
        <time>2022-03-21T14:01:22.000Z</time>
      </trkpt>
      <trkpt lat="43.4499" lon="5.23888">
        <ele>87</ele>
        <time>2022-03-21T14:01:23.000Z</time>
      </trkpt>
      <trkpt lat="43.44989" lon="5.23889">
        <ele>87</ele>
        <time>2022-03-21T14:01:24.000Z</time>
      </trkpt>
      <trkpt lat="43.44988" lon="5.2389">
        <ele>87</ele>
        <time>2022-03-21T14:01:25.000Z</time>
      </trkpt>
      <trkpt lat="43.44986" lon="5.23891">
        <ele>87</ele>
        <time>2022-03-21T14:01:26.000Z</time>
      </trkpt>
      <trkpt lat="43.44985" lon="5.23892">
        <ele>87</ele>
        <time>2022-03-21T14:01:27.000Z</time>
      </trkpt>
      <trkpt lat="43.44984" lon="5.23893">
        <ele>87</ele>
        <time>2022-03-21T14:01:28.000Z</time>
      </trkpt>
      <trkpt lat="43.44982" lon="5.23894">
        <ele>86</ele>
        <time>2022-03-21T14:01:29.000Z</time>
      </trkpt>
      <trkpt lat="43.44981" lon="5.23895">
        <ele>87</ele>
        <time>2022-03-21T14:01:30.000Z</time>
      </trkpt>
      <trkpt lat="43.4498" lon="5.23895">
        <ele>86</ele>
        <time>2022-03-21T14:01:31.000Z</time>
      </trkpt>
      <trkpt lat="43.44978" lon="5.23896">
        <ele>86</ele>
        <time>2022-03-21T14:01:32.000Z</time>
      </trkpt>
      <trkpt lat="43.44977" lon="5.23897">
        <ele>86</ele>
        <time>2022-03-21T14:01:33.000Z</time>
      </trkpt>
      <trkpt lat="43.44975" lon="5.23897">
        <ele>86</ele>
        <time>2022-03-21T14:01:34.000Z</time>
      </trkpt>
      <trkpt lat="43.44974" lon="5.23898">
        <ele>87</ele>
        <time>2022-03-21T14:01:35.000Z</time>
      </trkpt>
      <trkpt lat="43.44973" lon="5.23899">
        <ele>87</ele>
        <time>2022-03-21T14:01:36.000Z</time>
      </trkpt>
      <trkpt lat="43.44971" lon="5.23899">
        <ele>87</ele>
        <time>2022-03-21T14:01:37.000Z</time>
      </trkpt>
      <trkpt lat="43.4497" lon="5.239">
        <ele>87</ele>
        <time>2022-03-21T14:01:38.000Z</time>
      </trkpt>
      <trkpt lat="43.44968" lon="5.239">
        <ele>87</ele>
        <time>2022-03-21T14:01:39.000Z</time>
      </trkpt>
      <trkpt lat="43.44967" lon="5.239">
        <ele>87</ele>
        <time>2022-03-21T14:01:40.000Z</time>
      </trkpt>
      <trkpt lat="43.44966" lon="5.23901">
        <ele>86</ele>
        <time>2022-03-21T14:01:41.000Z</time>
      </trkpt>
      <trkpt lat="43.44964" lon="5.23901">
        <ele>86</ele>
        <time>2022-03-21T14:01:42.000Z</time>
      </trkpt>
      <trkpt lat="43.44963" lon="5.23901">
        <ele>86</ele>
        <time>2022-03-21T14:01:43.000Z</time>
      </trkpt>
      <trkpt lat="43.44961" lon="5.23901">
        <ele>86</ele>
        <time>2022-03-21T14:01:44.000Z</time>
      </trkpt>
      <trkpt lat="43.4496" lon="5.23902">
        <ele>86</ele>
        <time>2022-03-21T14:01:45.000Z</time>
      </trkpt>
      <trkpt lat="43.44958" lon="5.23902">
        <ele>86</ele>
        <time>2022-03-21T14:01:46.000Z</time>
      </trkpt>
      <trkpt lat="43.44957" lon="5.23902">
        <ele>86</ele>
        <time>2022-03-21T14:01:47.000Z</time>
      </trkpt>
      <trkpt lat="43.44955" lon="5.23902">
        <ele>86</ele>
        <time>2022-03-21T14:01:48.000Z</time>
      </trkpt>
      <trkpt lat="43.44954" lon="5.23902">
        <ele>86</ele>
        <time>2022-03-21T14:01:49.000Z</time>
      </trkpt>
      <trkpt lat="43.44952" lon="5.23902">
        <ele>86</ele>
        <time>2022-03-21T14:01:50.000Z</time>
      </trkpt>
      <trkpt lat="43.44951" lon="5.23902">
        <ele>86</ele>
        <time>2022-03-21T14:01:51.000Z</time>
      </trkpt>
      <trkpt lat="43.44949" lon="5.23901">
        <ele>86</ele>
        <time>2022-03-21T14:01:52.000Z</time>
      </trkpt>
      <trkpt lat="43.44948" lon="5.23901">
        <ele>86</ele>
        <time>2022-03-21T14:01:53.000Z</time>
      </trkpt>
      <trkpt lat="43.44946" lon="5.23901">
        <ele>86</ele>
        <time>2022-03-21T14:01:54.000Z</time>
      </trkpt>
      <trkpt lat="43.44945" lon="5.23902">
        <ele>86</ele>
        <time>2022-03-21T14:01:55.000Z</time>
      </trkpt>
      <trkpt lat="43.44943" lon="5.23902">
        <ele>86</ele>
        <time>2022-03-21T14:01:56.000Z</time>
      </trkpt>
      <trkpt lat="43.44942" lon="5.23903">
        <ele>86</ele>
        <time>2022-03-21T14:01:57.000Z</time>
      </trkpt>
      <trkpt lat="43.4494" lon="5.23904">
        <ele>86</ele>
        <time>2022-03-21T14:01:58.000Z</time>
      </trkpt>
      <trkpt lat="43.44939" lon="5.23904">
        <ele>86</ele>
        <time>2022-03-21T14:01:59.000Z</time>
      </trkpt>
      <trkpt lat="43.44937" lon="5.23905">
        <ele>86</ele>
        <time>2022-03-21T14:02:00.000Z</time>
      </trkpt>
      <trkpt lat="43.44936" lon="5.23905">
        <ele>86</ele>
        <time>2022-03-21T14:02:01.000Z</time>
      </trkpt>
      <trkpt lat="43.44934" lon="5.23906">
        <ele>86</ele>
        <time>2022-03-21T14:02:02.000Z</time>
      </trkpt>
      <trkpt lat="43.44933" lon="5.23906">
        <ele>86</ele>
        <time>2022-03-21T14:02:03.000Z</time>
      </trkpt>
      <trkpt lat="43.44931" lon="5.23906">
        <ele>86</ele>
        <time>2022-03-21T14:02:04.000Z</time>
      </trkpt>
      <trkpt lat="43.4493" lon="5.23907">
        <ele>86</ele>
        <time>2022-03-21T14:02:05.000Z</time>
      </trkpt>
      <trkpt lat="43.44929" lon="5.23907">
        <ele>86</ele>
        <time>2022-03-21T14:02:06.000Z</time>
      </trkpt>
      <trkpt lat="43.44927" lon="5.23908">
        <ele>86</ele>
        <time>2022-03-21T14:02:07.000Z</time>
      </trkpt>
      <trkpt lat="43.44926" lon="5.23908">
        <ele>86</ele>
        <time>2022-03-21T14:02:08.000Z</time>
      </trkpt>
      <trkpt lat="43.44924" lon="5.23908">
        <ele>87</ele>
        <time>2022-03-21T14:02:09.000Z</time>
      </trkpt>
      <trkpt lat="43.44923" lon="5.23908">
        <ele>87</ele>
        <time>2022-03-21T14:02:10.000Z</time>
      </trkpt>
      <trkpt lat="43.44921" lon="5.23908">
        <ele>87</ele>
        <time>2022-03-21T14:02:11.000Z</time>
      </trkpt>
      <trkpt lat="43.4492" lon="5.23909">
        <ele>87</ele>
        <time>2022-03-21T14:02:12.000Z</time>
      </trkpt>
      <trkpt lat="43.44918" lon="5.23909">
        <ele>87</ele>
        <time>2022-03-21T14:02:13.000Z</time>
      </trkpt>
      <trkpt lat="43.44917" lon="5.23909">
        <ele>87</ele>
        <time>2022-03-21T14:02:14.000Z</time>
      </trkpt>
      <trkpt lat="43.44915" lon="5.23909">
        <ele>87</ele>
        <time>2022-03-21T14:02:15.000Z</time>
      </trkpt>
      <trkpt lat="43.44914" lon="5.23908">
        <ele>87</ele>
        <time>2022-03-21T14:02:16.000Z</time>
      </trkpt>
      <trkpt lat="43.44913" lon="5.23908">
        <ele>87</ele>
        <time>2022-03-21T14:02:17.000Z</time>
      </trkpt>
      <trkpt lat="43.44911" lon="5.23908">
        <ele>87</ele>
        <time>2022-03-21T14:02:18.000Z</time>
      </trkpt>
      <trkpt lat="43.4491" lon="5.23909">
        <ele>87</ele>
        <time>2022-03-21T14:02:19.000Z</time>
      </trkpt>
      <trkpt lat="43.44908" lon="5.23909">
        <ele>87</ele>
        <time>2022-03-21T14:02:20.000Z</time>
      </trkpt>
      <trkpt lat="43.44907" lon="5.23909">
        <ele>87</ele>
        <time>2022-03-21T14:02:21.000Z</time>
      </trkpt>
      <trkpt lat="43.44905" lon="5.23909">
        <ele>87</ele>
        <time>2022-03-21T14:02:22.000Z</time>
      </trkpt>
      <trkpt lat="43.44904" lon="5.2391">
        <ele>87</ele>
        <time>2022-03-21T14:02:23.000Z</time>
      </trkpt>
      <trkpt lat="43.44902" lon="5.2391">
        <ele>87</ele>
        <time>2022-03-21T14:02:24.000Z</time>
      </trkpt>
      <trkpt lat="43.44901" lon="5.2391">
        <ele>87</ele>
        <time>2022-03-21T14:02:25.000Z</time>
      </trkpt>
      <trkpt lat="43.44899" lon="5.23911">
        <ele>87</ele>
        <time>2022-03-21T14:02:26.000Z</time>
      </trkpt>
      <trkpt lat="43.44898" lon="5.23911">
        <ele>87</ele>
        <time>2022-03-21T14:02:27.000Z</time>
      </trkpt>
      <trkpt lat="43.44897" lon="5.23912">
        <ele>87</ele>
        <time>2022-03-21T14:02:28.000Z</time>
      </trkpt>
      <trkpt lat="43.44895" lon="5.23912">
        <ele>86</ele>
        <time>2022-03-21T14:02:29.000Z</time>
      </trkpt>
      <trkpt lat="43.44894" lon="5.23913">
        <ele>86</ele>
        <time>2022-03-21T14:02:30.000Z</time>
      </trkpt>
      <trkpt lat="43.44893" lon="5.23913">
        <ele>86</ele>
        <time>2022-03-21T14:02:31.000Z</time>
      </trkpt>
      <trkpt lat="43.44891" lon="5.23914">
        <ele>86</ele>
        <time>2022-03-21T14:02:32.000Z</time>
      </trkpt>
      <trkpt lat="43.4489" lon="5.23915">
        <ele>86</ele>
        <time>2022-03-21T14:02:33.000Z</time>
      </trkpt>
      <trkpt lat="43.44889" lon="5.23916">
        <ele>86</ele>
        <time>2022-03-21T14:02:34.000Z</time>
      </trkpt>
      <trkpt lat="43.44887" lon="5.23917">
        <ele>86</ele>
        <time>2022-03-21T14:02:35.000Z</time>
      </trkpt>
      <trkpt lat="43.44886" lon="5.23918">
        <ele>86</ele>
        <time>2022-03-21T14:02:36.000Z</time>
      </trkpt>
      <trkpt lat="43.44885" lon="5.23919">
        <ele>86</ele>
        <time>2022-03-21T14:02:37.000Z</time>
      </trkpt>
      <trkpt lat="43.44884" lon="5.2392">
        <ele>86</ele>
        <time>2022-03-21T14:02:38.000Z</time>
      </trkpt>
      <trkpt lat="43.44882" lon="5.23921">
        <ele>86</ele>
        <time>2022-03-21T14:02:39.000Z</time>
      </trkpt>
      <trkpt lat="43.44881" lon="5.23922">
        <ele>86</ele>
        <time>2022-03-21T14:02:40.000Z</time>
      </trkpt>
      <trkpt lat="43.4488" lon="5.23923">
        <ele>86</ele>
        <time>2022-03-21T14:02:41.000Z</time>
      </trkpt>
      <trkpt lat="43.44878" lon="5.23924">
        <ele>86</ele>
        <time>2022-03-21T14:02:42.000Z</time>
      </trkpt>
      <trkpt lat="43.44877" lon="5.23925">
        <ele>86</ele>
        <time>2022-03-21T14:02:43.000Z</time>
      </trkpt>
      <trkpt lat="43.44876" lon="5.23926">
        <ele>86</ele>
        <time>2022-03-21T14:02:44.000Z</time>
      </trkpt>
      <trkpt lat="43.44875" lon="5.23927">
        <ele>86</ele>
        <time>2022-03-21T14:02:45.000Z</time>
      </trkpt>
      <trkpt lat="43.44874" lon="5.23928">
        <ele>86</ele>
        <time>2022-03-21T14:02:46.000Z</time>
      </trkpt>
      <trkpt lat="43.44872" lon="5.2393">
        <ele>86</ele>
        <time>2022-03-21T14:02:47.000Z</time>
      </trkpt>
      <trkpt lat="43.44871" lon="5.23931">
        <ele>86</ele>
        <time>2022-03-21T14:02:48.000Z</time>
      </trkpt>
      <trkpt lat="43.4487" lon="5.23932">
        <ele>86</ele>
        <time>2022-03-21T14:02:49.000Z</time>
      </trkpt>
      <trkpt lat="43.44869" lon="5.23933">
        <ele>86</ele>
        <time>2022-03-21T14:02:50.000Z</time>
      </trkpt>
      <trkpt lat="43.44867" lon="5.23934">
        <ele>85</ele>
        <time>2022-03-21T14:02:51.000Z</time>
      </trkpt>
      <trkpt lat="43.44866" lon="5.23936">
        <ele>85</ele>
        <time>2022-03-21T14:02:52.000Z</time>
      </trkpt>
      <trkpt lat="43.44865" lon="5.23937">
        <ele>85</ele>
        <time>2022-03-21T14:02:53.000Z</time>
      </trkpt>
      <trkpt lat="43.44864" lon="5.23938">
        <ele>85</ele>
        <time>2022-03-21T14:02:54.000Z</time>
      </trkpt>
      <trkpt lat="43.44862" lon="5.23939">
        <ele>85</ele>
        <time>2022-03-21T14:02:55.000Z</time>
      </trkpt>
      <trkpt lat="43.44861" lon="5.2394">
        <ele>85</ele>
        <time>2022-03-21T14:02:56.000Z</time>
      </trkpt>
      <trkpt lat="43.4486" lon="5.23941">
        <ele>85</ele>
        <time>2022-03-21T14:02:57.000Z</time>
      </trkpt>
      <trkpt lat="43.44859" lon="5.23943">
        <ele>85</ele>
        <time>2022-03-21T14:02:58.000Z</time>
      </trkpt>
      <trkpt lat="43.44858" lon="5.23944">
        <ele>85</ele>
        <time>2022-03-21T14:02:59.000Z</time>
      </trkpt>
      <trkpt lat="43.44857" lon="5.23946">
        <ele>85</ele>
        <time>2022-03-21T14:03:00.000Z</time>
      </trkpt>
      <trkpt lat="43.44856" lon="5.23947">
        <ele>85</ele>
        <time>2022-03-21T14:03:01.000Z</time>
      </trkpt>
      <trkpt lat="43.44855" lon="5.23948">
        <ele>85</ele>
        <time>2022-03-21T14:03:02.000Z</time>
      </trkpt>
      <trkpt lat="43.44853" lon="5.23949">
        <ele>85</ele>
        <time>2022-03-21T14:03:03.000Z</time>
      </trkpt>
      <trkpt lat="43.44852" lon="5.2395">
        <ele>85</ele>
        <time>2022-03-21T14:03:04.000Z</time>
      </trkpt>
      <trkpt lat="43.44851" lon="5.23951">
        <ele>84</ele>
        <time>2022-03-21T14:03:05.000Z</time>
      </trkpt>
      <trkpt lat="43.4485" lon="5.23952">
        <ele>84</ele>
        <time>2022-03-21T14:03:06.000Z</time>
      </trkpt>
      <trkpt lat="43.44849" lon="5.23953">
        <ele>84</ele>
        <time>2022-03-21T14:03:07.000Z</time>
      </trkpt>
      <trkpt lat="43.44848" lon="5.23955">
        <ele>84</ele>
        <time>2022-03-21T14:03:08.000Z</time>
      </trkpt>
      <trkpt lat="43.44847" lon="5.23956">
        <ele>84</ele>
        <time>2022-03-21T14:03:09.000Z</time>
      </trkpt>
      <trkpt lat="43.44845" lon="5.23957">
        <ele>84</ele>
        <time>2022-03-21T14:03:10.000Z</time>
      </trkpt>
      <trkpt lat="43.44844" lon="5.23958">
        <ele>84</ele>
        <time>2022-03-21T14:03:11.000Z</time>
      </trkpt>
      <trkpt lat="43.44843" lon="5.23959">
        <ele>84</ele>
        <time>2022-03-21T14:03:12.000Z</time>
      </trkpt>
      <trkpt lat="43.44842" lon="5.23961">
        <ele>84</ele>
        <time>2022-03-21T14:03:13.000Z</time>
      </trkpt>
      <trkpt lat="43.44841" lon="5.23962">
        <ele>84</ele>
        <time>2022-03-21T14:03:14.000Z</time>
      </trkpt>
      <trkpt lat="43.4484" lon="5.23963">
        <ele>84</ele>
        <time>2022-03-21T14:03:15.000Z</time>
      </trkpt>
      <trkpt lat="43.44839" lon="5.23964">
        <ele>84</ele>
        <time>2022-03-21T14:03:16.000Z</time>
      </trkpt>
      <trkpt lat="43.44837" lon="5.23966">
        <ele>84</ele>
        <time>2022-03-21T14:03:17.000Z</time>
      </trkpt>
      <trkpt lat="43.44836" lon="5.23967">
        <ele>84</ele>
        <time>2022-03-21T14:03:18.000Z</time>
      </trkpt>
      <trkpt lat="43.44835" lon="5.23968">
        <ele>84</ele>
        <time>2022-03-21T14:03:19.000Z</time>
      </trkpt>
      <trkpt lat="43.44834" lon="5.2397">
        <ele>84</ele>
        <time>2022-03-21T14:03:20.000Z</time>
      </trkpt>
      <trkpt lat="43.44833" lon="5.23971">
        <ele>83</ele>
        <time>2022-03-21T14:03:21.000Z</time>
      </trkpt>
      <trkpt lat="43.44832" lon="5.23972">
        <ele>83</ele>
        <time>2022-03-21T14:03:22.000Z</time>
      </trkpt>
      <trkpt lat="43.44831" lon="5.23973">
        <ele>83</ele>
        <time>2022-03-21T14:03:23.000Z</time>
      </trkpt>
      <trkpt lat="43.4483" lon="5.23974">
        <ele>83</ele>
        <time>2022-03-21T14:03:24.000Z</time>
      </trkpt>
      <trkpt lat="43.44829" lon="5.23976">
        <ele>83</ele>
        <time>2022-03-21T14:03:25.000Z</time>
      </trkpt>
      <trkpt lat="43.44827" lon="5.23977">
        <ele>83</ele>
        <time>2022-03-21T14:03:26.000Z</time>
      </trkpt>
      <trkpt lat="43.44826" lon="5.23978">
        <ele>83</ele>
        <time>2022-03-21T14:03:27.000Z</time>
      </trkpt>
      <trkpt lat="43.44825" lon="5.23979">
        <ele>83</ele>
        <time>2022-03-21T14:03:28.000Z</time>
      </trkpt>
      <trkpt lat="43.44824" lon="5.2398">
        <ele>83</ele>
        <time>2022-03-21T14:03:29.000Z</time>
      </trkpt>
      <trkpt lat="43.44822" lon="5.23981">
        <ele>84</ele>
        <time>2022-03-21T14:03:30.000Z</time>
      </trkpt>
      <trkpt lat="43.44821" lon="5.23982">
        <ele>84</ele>
        <time>2022-03-21T14:03:31.000Z</time>
      </trkpt>
      <trkpt lat="43.4482" lon="5.23984">
        <ele>84</ele>
        <time>2022-03-21T14:03:32.000Z</time>
      </trkpt>
      <trkpt lat="43.44819" lon="5.23985">
        <ele>84</ele>
        <time>2022-03-21T14:03:33.000Z</time>
      </trkpt>
      <trkpt lat="43.44818" lon="5.23986">
        <ele>84</ele>
        <time>2022-03-21T14:03:34.000Z</time>
      </trkpt>
      <trkpt lat="43.44817" lon="5.23986">
        <ele>84</ele>
        <time>2022-03-21T14:03:35.000Z</time>
      </trkpt>
      <trkpt lat="43.44815" lon="5.23987">
        <ele>84</ele>
        <time>2022-03-21T14:03:36.000Z</time>
      </trkpt>
      <trkpt lat="43.44814" lon="5.23988">
        <ele>84</ele>
        <time>2022-03-21T14:03:37.000Z</time>
      </trkpt>
      <trkpt lat="43.44813" lon="5.23989">
        <ele>84</ele>
        <time>2022-03-21T14:03:38.000Z</time>
      </trkpt>
      <trkpt lat="43.44811" lon="5.2399">
        <ele>84</ele>
        <time>2022-03-21T14:03:39.000Z</time>
      </trkpt>
      <trkpt lat="43.4481" lon="5.23991">
        <ele>84</ele>
        <time>2022-03-21T14:03:40.000Z</time>
      </trkpt>
      <trkpt lat="43.44808" lon="5.23991">
        <ele>84</ele>
        <time>2022-03-21T14:03:41.000Z</time>
      </trkpt>
      <trkpt lat="43.44807" lon="5.23992">
        <ele>84</ele>
        <time>2022-03-21T14:03:42.000Z</time>
      </trkpt>
      <trkpt lat="43.44805" lon="5.23992">
        <ele>84</ele>
        <time>2022-03-21T14:03:43.000Z</time>
      </trkpt>
      <trkpt lat="43.44804" lon="5.23993">
        <ele>84</ele>
        <time>2022-03-21T14:03:44.000Z</time>
      </trkpt>
      <trkpt lat="43.44802" lon="5.23994">
        <ele>84</ele>
        <time>2022-03-21T14:03:45.000Z</time>
      </trkpt>
      <trkpt lat="43.44801" lon="5.23994">
        <ele>84</ele>
        <time>2022-03-21T14:03:46.000Z</time>
      </trkpt>
      <trkpt lat="43.44799" lon="5.23995">
        <ele>84</ele>
        <time>2022-03-21T14:03:47.000Z</time>
      </trkpt>
      <trkpt lat="43.44798" lon="5.23995">
        <ele>84</ele>
        <time>2022-03-21T14:03:48.000Z</time>
      </trkpt>
      <trkpt lat="43.44796" lon="5.23996">
        <ele>84</ele>
        <time>2022-03-21T14:03:49.000Z</time>
      </trkpt>
      <trkpt lat="43.44795" lon="5.23997">
        <ele>84</ele>
        <time>2022-03-21T14:03:50.000Z</time>
      </trkpt>
      <trkpt lat="43.44794" lon="5.23998">
        <ele>84</ele>
        <time>2022-03-21T14:03:51.000Z</time>
      </trkpt>
      <trkpt lat="43.44792" lon="5.23999">
        <ele>84</ele>
        <time>2022-03-21T14:03:52.000Z</time>
      </trkpt>
      <trkpt lat="43.44791" lon="5.23999">
        <ele>83</ele>
        <time>2022-03-21T14:03:53.000Z</time>
      </trkpt>
      <trkpt lat="43.4479" lon="5.24">
        <ele>83</ele>
        <time>2022-03-21T14:03:54.000Z</time>
      </trkpt>
      <trkpt lat="43.44788" lon="5.24001">
        <ele>84</ele>
        <time>2022-03-21T14:03:55.000Z</time>
      </trkpt>
      <trkpt lat="43.44787" lon="5.24001">
        <ele>84</ele>
        <time>2022-03-21T14:03:56.000Z</time>
      </trkpt>
      <trkpt lat="43.44785" lon="5.24002">
        <ele>84</ele>
        <time>2022-03-21T14:03:57.000Z</time>
      </trkpt>
      <trkpt lat="43.44784" lon="5.24003">
        <ele>83</ele>
        <time>2022-03-21T14:03:58.000Z</time>
      </trkpt>
      <trkpt lat="43.44782" lon="5.24004">
        <ele>83</ele>
        <time>2022-03-21T14:03:59.000Z</time>
      </trkpt>
      <trkpt lat="43.44781" lon="5.24004">
        <ele>84</ele>
        <time>2022-03-21T14:04:00.000Z</time>
      </trkpt>
      <trkpt lat="43.44779" lon="5.24005">
        <ele>84</ele>
        <time>2022-03-21T14:04:01.000Z</time>
      </trkpt>
      <trkpt lat="43.44778" lon="5.24005">
        <ele>84</ele>
        <time>2022-03-21T14:04:02.000Z</time>
      </trkpt>
      <trkpt lat="43.44776" lon="5.24005">
        <ele>84</ele>
        <time>2022-03-21T14:04:03.000Z</time>
      </trkpt>
      <trkpt lat="43.44775" lon="5.24006">
        <ele>84</ele>
        <time>2022-03-21T14:04:04.000Z</time>
      </trkpt>
      <trkpt lat="43.44773" lon="5.24006">
        <ele>84</ele>
        <time>2022-03-21T14:04:05.000Z</time>
      </trkpt>
      <trkpt lat="43.44772" lon="5.24006">
        <ele>84</ele>
        <time>2022-03-21T14:04:06.000Z</time>
      </trkpt>
      <trkpt lat="43.4477" lon="5.24006">
        <ele>84</ele>
        <time>2022-03-21T14:04:07.000Z</time>
      </trkpt>
      <trkpt lat="43.44769" lon="5.24007">
        <ele>84</ele>
        <time>2022-03-21T14:04:08.000Z</time>
      </trkpt>
      <trkpt lat="43.44767" lon="5.24007">
        <ele>84</ele>
        <time>2022-03-21T14:04:09.000Z</time>
      </trkpt>
      <trkpt lat="43.44766" lon="5.24007">
        <ele>84</ele>
        <time>2022-03-21T14:04:10.000Z</time>
      </trkpt>
      <trkpt lat="43.44765" lon="5.24007">
        <ele>84</ele>
        <time>2022-03-21T14:04:11.000Z</time>
      </trkpt>
      <trkpt lat="43.44763" lon="5.24007">
        <ele>84</ele>
        <time>2022-03-21T14:04:12.000Z</time>
      </trkpt>
      <trkpt lat="43.44762" lon="5.24007">
        <ele>84</ele>
        <time>2022-03-21T14:04:13.000Z</time>
      </trkpt>
      <trkpt lat="43.44761" lon="5.24008">
        <ele>84</ele>
        <time>2022-03-21T14:04:14.000Z</time>
      </trkpt>
      <trkpt lat="43.44759" lon="5.24008">
        <ele>84</ele>
        <time>2022-03-21T14:04:15.000Z</time>
      </trkpt>
      <trkpt lat="43.44758" lon="5.24008">
        <ele>84</ele>
        <time>2022-03-21T14:04:16.000Z</time>
      </trkpt>
      <trkpt lat="43.44757" lon="5.24009">
        <ele>84</ele>
        <time>2022-03-21T14:04:17.000Z</time>
      </trkpt>
      <trkpt lat="43.44755" lon="5.24009">
        <ele>84</ele>
        <time>2022-03-21T14:04:18.000Z</time>
      </trkpt>
      <trkpt lat="43.44754" lon="5.24009">
        <ele>84</ele>
        <time>2022-03-21T14:04:19.000Z</time>
      </trkpt>
      <trkpt lat="43.44752" lon="5.24009">
        <ele>84</ele>
        <time>2022-03-21T14:04:20.000Z</time>
      </trkpt>
      <trkpt lat="43.44751" lon="5.24009">
        <ele>84</ele>
        <time>2022-03-21T14:04:21.000Z</time>
      </trkpt>
      <trkpt lat="43.4475" lon="5.24009">
        <ele>84</ele>
        <time>2022-03-21T14:04:22.000Z</time>
      </trkpt>
      <trkpt lat="43.44749" lon="5.24009">
        <ele>84</ele>
        <time>2022-03-21T14:04:23.000Z</time>
      </trkpt>
      <trkpt lat="43.44747" lon="5.24008">
        <ele>84</ele>
        <time>2022-03-21T14:04:24.000Z</time>
      </trkpt>
      <trkpt lat="43.44746" lon="5.24009">
        <ele>84</ele>
        <time>2022-03-21T14:04:25.000Z</time>
      </trkpt>
      <trkpt lat="43.44744" lon="5.24009">
        <ele>84</ele>
        <time>2022-03-21T14:04:26.000Z</time>
      </trkpt>
      <trkpt lat="43.44743" lon="5.24009">
        <ele>84</ele>
        <time>2022-03-21T14:04:27.000Z</time>
      </trkpt>
      <trkpt lat="43.44741" lon="5.24009">
        <ele>84</ele>
        <time>2022-03-21T14:04:28.000Z</time>
      </trkpt>
      <trkpt lat="43.4474" lon="5.24009">
        <ele>84</ele>
        <time>2022-03-21T14:04:29.000Z</time>
      </trkpt>
      <trkpt lat="43.44738" lon="5.24009">
        <ele>84</ele>
        <time>2022-03-21T14:04:30.000Z</time>
      </trkpt>
      <trkpt lat="43.44737" lon="5.24009">
        <ele>84</ele>
        <time>2022-03-21T14:04:31.000Z</time>
      </trkpt>
      <trkpt lat="43.44735" lon="5.24009">
        <ele>84</ele>
        <time>2022-03-21T14:04:32.000Z</time>
      </trkpt>
      <trkpt lat="43.44734" lon="5.24009">
        <ele>84</ele>
        <time>2022-03-21T14:04:33.000Z</time>
      </trkpt>
      <trkpt lat="43.44732" lon="5.24009">
        <ele>84</ele>
        <time>2022-03-21T14:04:34.000Z</time>
      </trkpt>
      <trkpt lat="43.44731" lon="5.24009">
        <ele>84</ele>
        <time>2022-03-21T14:04:35.000Z</time>
      </trkpt>
      <trkpt lat="43.44729" lon="5.24008">
        <ele>83</ele>
        <time>2022-03-21T14:04:36.000Z</time>
      </trkpt>
      <trkpt lat="43.44728" lon="5.24007">
        <ele>83</ele>
        <time>2022-03-21T14:04:37.000Z</time>
      </trkpt>
      <trkpt lat="43.44726" lon="5.24007">
        <ele>83</ele>
        <time>2022-03-21T14:04:38.000Z</time>
      </trkpt>
      <trkpt lat="43.44725" lon="5.24006">
        <ele>83</ele>
        <time>2022-03-21T14:04:39.000Z</time>
      </trkpt>
      <trkpt lat="43.44723" lon="5.24006">
        <ele>83</ele>
        <time>2022-03-21T14:04:40.000Z</time>
      </trkpt>
      <trkpt lat="43.44721" lon="5.24005">
        <ele>83</ele>
        <time>2022-03-21T14:04:41.000Z</time>
      </trkpt>
      <trkpt lat="43.4472" lon="5.24005">
        <ele>83</ele>
        <time>2022-03-21T14:04:42.000Z</time>
      </trkpt>
      <trkpt lat="43.44719" lon="5.24005">
        <ele>83</ele>
        <time>2022-03-21T14:04:43.000Z</time>
      </trkpt>
      <trkpt lat="43.44717" lon="5.24004">
        <ele>83</ele>
        <time>2022-03-21T14:04:44.000Z</time>
      </trkpt>
      <trkpt lat="43.44716" lon="5.24004">
        <ele>83</ele>
        <time>2022-03-21T14:04:45.000Z</time>
      </trkpt>
      <trkpt lat="43.44714" lon="5.24003">
        <ele>83</ele>
        <time>2022-03-21T14:04:46.000Z</time>
      </trkpt>
      <trkpt lat="43.44713" lon="5.24003">
        <ele>83</ele>
        <time>2022-03-21T14:04:47.000Z</time>
      </trkpt>
      <trkpt lat="43.44711" lon="5.24002">
        <ele>83</ele>
        <time>2022-03-21T14:04:48.000Z</time>
      </trkpt>
      <trkpt lat="43.4471" lon="5.24001">
        <ele>83</ele>
        <time>2022-03-21T14:04:49.000Z</time>
      </trkpt>
      <trkpt lat="43.44708" lon="5.24001">
        <ele>83</ele>
        <time>2022-03-21T14:04:50.000Z</time>
      </trkpt>
      <trkpt lat="43.44707" lon="5.24">
        <ele>83</ele>
        <time>2022-03-21T14:04:51.000Z</time>
      </trkpt>
      <trkpt lat="43.44705" lon="5.24">
        <ele>83</ele>
        <time>2022-03-21T14:04:52.000Z</time>
      </trkpt>
      <trkpt lat="43.44704" lon="5.23999">
        <ele>83</ele>
        <time>2022-03-21T14:04:53.000Z</time>
      </trkpt>
      <trkpt lat="43.44703" lon="5.23999">
        <ele>83</ele>
        <time>2022-03-21T14:04:54.000Z</time>
      </trkpt>
      <trkpt lat="43.44701" lon="5.23998">
        <ele>83</ele>
        <time>2022-03-21T14:04:55.000Z</time>
      </trkpt>
      <trkpt lat="43.447" lon="5.23998">
        <ele>83</ele>
        <time>2022-03-21T14:04:56.000Z</time>
      </trkpt>
      <trkpt lat="43.44699" lon="5.23997">
        <ele>83</ele>
        <time>2022-03-21T14:04:57.000Z</time>
      </trkpt>
      <trkpt lat="43.44698" lon="5.23996">
        <ele>83</ele>
        <time>2022-03-21T14:04:58.000Z</time>
      </trkpt>
      <trkpt lat="43.44697" lon="5.23996">
        <ele>83</ele>
        <time>2022-03-21T14:04:59.000Z</time>
      </trkpt>
      <trkpt lat="43.44695" lon="5.23995">
        <ele>83</ele>
        <time>2022-03-21T14:05:00.000Z</time>
      </trkpt>
      <trkpt lat="43.44694" lon="5.23994">
        <ele>83</ele>
        <time>2022-03-21T14:05:01.000Z</time>
      </trkpt>
      <trkpt lat="43.44693" lon="5.23993">
        <ele>83</ele>
        <time>2022-03-21T14:05:02.000Z</time>
      </trkpt>
      <trkpt lat="43.44692" lon="5.23992">
        <ele>83</ele>
        <time>2022-03-21T14:05:03.000Z</time>
      </trkpt>
      <trkpt lat="43.44691" lon="5.2399">
        <ele>83</ele>
        <time>2022-03-21T14:05:04.000Z</time>
      </trkpt>
      <trkpt lat="43.44691" lon="5.23988">
        <ele>83</ele>
        <time>2022-03-21T14:05:05.000Z</time>
      </trkpt>
      <trkpt lat="43.44691" lon="5.23986">
        <ele>83</ele>
        <time>2022-03-21T14:05:06.000Z</time>
      </trkpt>
      <trkpt lat="43.44691" lon="5.23984">
        <ele>83</ele>
        <time>2022-03-21T14:05:07.000Z</time>
      </trkpt>
      <trkpt lat="43.44692" lon="5.23982">
        <ele>83</ele>
        <time>2022-03-21T14:05:08.000Z</time>
      </trkpt>
      <trkpt lat="43.44692" lon="5.2398">
        <ele>83</ele>
        <time>2022-03-21T14:05:09.000Z</time>
      </trkpt>
      <trkpt lat="43.44693" lon="5.23978">
        <ele>83</ele>
        <time>2022-03-21T14:05:10.000Z</time>
      </trkpt>
      <trkpt lat="43.44693" lon="5.23976">
        <ele>83</ele>
        <time>2022-03-21T14:05:11.000Z</time>
      </trkpt>
      <trkpt lat="43.44694" lon="5.23974">
        <ele>83</ele>
        <time>2022-03-21T14:05:12.000Z</time>
      </trkpt>
      <trkpt lat="43.44694" lon="5.23972">
        <ele>83</ele>
        <time>2022-03-21T14:05:13.000Z</time>
      </trkpt>
      <trkpt lat="43.44694" lon="5.2397">
        <ele>83</ele>
        <time>2022-03-21T14:05:14.000Z</time>
      </trkpt>
      <trkpt lat="43.44695" lon="5.23968">
        <ele>83</ele>
        <time>2022-03-21T14:05:15.000Z</time>
      </trkpt>
      <trkpt lat="43.44695" lon="5.23966">
        <ele>83</ele>
        <time>2022-03-21T14:05:16.000Z</time>
      </trkpt>
      <trkpt lat="43.44695" lon="5.23964">
        <ele>83</ele>
        <time>2022-03-21T14:05:17.000Z</time>
      </trkpt>
      <trkpt lat="43.44696" lon="5.23962">
        <ele>83</ele>
        <time>2022-03-21T14:05:18.000Z</time>
      </trkpt>
      <trkpt lat="43.44696" lon="5.2396">
        <ele>83</ele>
        <time>2022-03-21T14:05:19.000Z</time>
      </trkpt>
      <trkpt lat="43.44696" lon="5.23958">
        <ele>83</ele>
        <time>2022-03-21T14:05:20.000Z</time>
      </trkpt>
      <trkpt lat="43.44697" lon="5.23956">
        <ele>83</ele>
        <time>2022-03-21T14:05:21.000Z</time>
      </trkpt>
      <trkpt lat="43.44697" lon="5.23954">
        <ele>84</ele>
        <time>2022-03-21T14:05:22.000Z</time>
      </trkpt>
      <trkpt lat="43.44697" lon="5.23952">
        <ele>84</ele>
        <time>2022-03-21T14:05:23.000Z</time>
      </trkpt>
      <trkpt lat="43.44698" lon="5.2395">
        <ele>84</ele>
        <time>2022-03-21T14:05:24.000Z</time>
      </trkpt>
      <trkpt lat="43.44698" lon="5.23948">
        <ele>84</ele>
        <time>2022-03-21T14:05:25.000Z</time>
      </trkpt>
      <trkpt lat="43.44699" lon="5.23946">
        <ele>84</ele>
        <time>2022-03-21T14:05:26.000Z</time>
      </trkpt>
      <trkpt lat="43.44699" lon="5.23944">
        <ele>84</ele>
        <time>2022-03-21T14:05:27.000Z</time>
      </trkpt>
      <trkpt lat="43.447" lon="5.23942">
        <ele>84</ele>
        <time>2022-03-21T14:05:28.000Z</time>
      </trkpt>
      <trkpt lat="43.447" lon="5.23941">
        <ele>84</ele>
        <time>2022-03-21T14:05:29.000Z</time>
      </trkpt>
      <trkpt lat="43.44702" lon="5.2394">
        <ele>84</ele>
        <time>2022-03-21T14:05:30.000Z</time>
      </trkpt>
      <trkpt lat="43.44703" lon="5.23939">
        <ele>84</ele>
        <time>2022-03-21T14:05:31.000Z</time>
      </trkpt>
      <trkpt lat="43.44704" lon="5.23939">
        <ele>84</ele>
        <time>2022-03-21T14:05:32.000Z</time>
      </trkpt>
      <trkpt lat="43.44706" lon="5.23939">
        <ele>84</ele>
        <time>2022-03-21T14:05:33.000Z</time>
      </trkpt>
      <trkpt lat="43.44707" lon="5.2394">
        <ele>84</ele>
        <time>2022-03-21T14:05:34.000Z</time>
      </trkpt>
      <trkpt lat="43.44708" lon="5.2394">
        <ele>84</ele>
        <time>2022-03-21T14:05:35.000Z</time>
      </trkpt>
      <trkpt lat="43.4471" lon="5.23941">
        <ele>84</ele>
        <time>2022-03-21T14:05:36.000Z</time>
      </trkpt>
      <trkpt lat="43.44711" lon="5.23942">
        <ele>84</ele>
        <time>2022-03-21T14:05:37.000Z</time>
      </trkpt>
      <trkpt lat="43.44713" lon="5.23942">
        <ele>84</ele>
        <time>2022-03-21T14:05:38.000Z</time>
      </trkpt>
      <trkpt lat="43.44714" lon="5.23943">
        <ele>85</ele>
        <time>2022-03-21T14:05:39.000Z</time>
      </trkpt>
      <trkpt lat="43.44715" lon="5.23943">
        <ele>85</ele>
        <time>2022-03-21T14:05:40.000Z</time>
      </trkpt>
      <trkpt lat="43.44717" lon="5.23944">
        <ele>85</ele>
        <time>2022-03-21T14:05:41.000Z</time>
      </trkpt>
      <trkpt lat="43.44718" lon="5.23944">
        <ele>85</ele>
        <time>2022-03-21T14:05:42.000Z</time>
      </trkpt>
      <trkpt lat="43.4472" lon="5.23944">
        <ele>85</ele>
        <time>2022-03-21T14:05:43.000Z</time>
      </trkpt>
      <trkpt lat="43.44721" lon="5.23945">
        <ele>85</ele>
        <time>2022-03-21T14:05:44.000Z</time>
      </trkpt>
      <trkpt lat="43.44723" lon="5.23945">
        <ele>85</ele>
        <time>2022-03-21T14:05:45.000Z</time>
      </trkpt>
      <trkpt lat="43.44724" lon="5.23946">
        <ele>85</ele>
        <time>2022-03-21T14:05:46.000Z</time>
      </trkpt>
      <trkpt lat="43.44725" lon="5.23947">
        <ele>85</ele>
        <time>2022-03-21T14:05:47.000Z</time>
      </trkpt>
      <trkpt lat="43.44727" lon="5.23947">
        <ele>85</ele>
        <time>2022-03-21T14:05:48.000Z</time>
      </trkpt>
      <trkpt lat="43.44728" lon="5.23948">
        <ele>85</ele>
        <time>2022-03-21T14:05:49.000Z</time>
      </trkpt>
      <trkpt lat="43.4473" lon="5.23949">
        <ele>85</ele>
        <time>2022-03-21T14:05:50.000Z</time>
      </trkpt>
      <trkpt lat="43.44731" lon="5.23949">
        <ele>85</ele>
        <time>2022-03-21T14:05:51.000Z</time>
      </trkpt>
      <trkpt lat="43.44733" lon="5.2395">
        <ele>85</ele>
        <time>2022-03-21T14:05:52.000Z</time>
      </trkpt>
      <trkpt lat="43.44734" lon="5.23951">
        <ele>85</ele>
        <time>2022-03-21T14:05:53.000Z</time>
      </trkpt>
      <trkpt lat="43.44736" lon="5.23951">
        <ele>85</ele>
        <time>2022-03-21T14:05:54.000Z</time>
      </trkpt>
      <trkpt lat="43.44737" lon="5.23952">
        <ele>85</ele>
        <time>2022-03-21T14:05:55.000Z</time>
      </trkpt>
      <trkpt lat="43.44738" lon="5.23953">
        <ele>85</ele>
        <time>2022-03-21T14:05:56.000Z</time>
      </trkpt>
      <trkpt lat="43.4474" lon="5.23954">
        <ele>85</ele>
        <time>2022-03-21T14:05:57.000Z</time>
      </trkpt>
      <trkpt lat="43.44741" lon="5.23954">
        <ele>85</ele>
        <time>2022-03-21T14:05:58.000Z</time>
      </trkpt>
      <trkpt lat="43.44743" lon="5.23955">
        <ele>85</ele>
        <time>2022-03-21T14:05:59.000Z</time>
      </trkpt>
      <trkpt lat="43.44744" lon="5.23956">
        <ele>85</ele>
        <time>2022-03-21T14:06:00.000Z</time>
      </trkpt>
      <trkpt lat="43.44745" lon="5.23957">
        <ele>85</ele>
        <time>2022-03-21T14:06:01.000Z</time>
      </trkpt>
      <trkpt lat="43.44747" lon="5.23958">
        <ele>85</ele>
        <time>2022-03-21T14:06:02.000Z</time>
      </trkpt>
      <trkpt lat="43.44748" lon="5.2396">
        <ele>85</ele>
        <time>2022-03-21T14:06:03.000Z</time>
      </trkpt>
      <trkpt lat="43.44749" lon="5.23961">
        <ele>85</ele>
        <time>2022-03-21T14:06:04.000Z</time>
      </trkpt>
      <trkpt lat="43.4475" lon="5.23963">
        <ele>84</ele>
        <time>2022-03-21T14:06:05.000Z</time>
      </trkpt>
      <trkpt lat="43.44751" lon="5.23964">
        <ele>84</ele>
        <time>2022-03-21T14:06:06.000Z</time>
      </trkpt>
      <trkpt lat="43.44752" lon="5.23966">
        <ele>84</ele>
        <time>2022-03-21T14:06:07.000Z</time>
      </trkpt>
      <trkpt lat="43.44754" lon="5.23967">
        <ele>84</ele>
        <time>2022-03-21T14:06:08.000Z</time>
      </trkpt>
      <trkpt lat="43.44755" lon="5.23967">
        <ele>84</ele>
        <time>2022-03-21T14:06:09.000Z</time>
      </trkpt>
      <trkpt lat="43.44756" lon="5.23968">
        <ele>84</ele>
        <time>2022-03-21T14:06:10.000Z</time>
      </trkpt>
      <trkpt lat="43.44758" lon="5.23969">
        <ele>85</ele>
        <time>2022-03-21T14:06:11.000Z</time>
      </trkpt>
      <trkpt lat="43.44759" lon="5.23969">
        <ele>85</ele>
        <time>2022-03-21T14:06:12.000Z</time>
      </trkpt>
      <trkpt lat="43.44761" lon="5.2397">
        <ele>85</ele>
        <time>2022-03-21T14:06:13.000Z</time>
      </trkpt>
      <trkpt lat="43.44762" lon="5.2397">
        <ele>85</ele>
        <time>2022-03-21T14:06:14.000Z</time>
      </trkpt>
      <trkpt lat="43.44764" lon="5.23971">
        <ele>85</ele>
        <time>2022-03-21T14:06:15.000Z</time>
      </trkpt>
      <trkpt lat="43.44765" lon="5.23972">
        <ele>85</ele>
        <time>2022-03-21T14:06:16.000Z</time>
      </trkpt>
      <trkpt lat="43.44766" lon="5.23972">
        <ele>85</ele>
        <time>2022-03-21T14:06:17.000Z</time>
      </trkpt>
      <trkpt lat="43.44768" lon="5.23972">
        <ele>85</ele>
        <time>2022-03-21T14:06:18.000Z</time>
      </trkpt>
      <trkpt lat="43.44769" lon="5.23973">
        <ele>85</ele>
        <time>2022-03-21T14:06:19.000Z</time>
      </trkpt>
      <trkpt lat="43.44771" lon="5.23974">
        <ele>85</ele>
        <time>2022-03-21T14:06:20.000Z</time>
      </trkpt>
      <trkpt lat="43.44772" lon="5.23974">
        <ele>85</ele>
        <time>2022-03-21T14:06:21.000Z</time>
      </trkpt>
      <trkpt lat="43.44773" lon="5.23974">
        <ele>85</ele>
        <time>2022-03-21T14:06:22.000Z</time>
      </trkpt>
      <trkpt lat="43.44775" lon="5.23975">
        <ele>85</ele>
        <time>2022-03-21T14:06:23.000Z</time>
      </trkpt>
      <trkpt lat="43.44776" lon="5.23975">
        <ele>84</ele>
        <time>2022-03-21T14:06:24.000Z</time>
      </trkpt>
      <trkpt lat="43.44778" lon="5.23976">
        <ele>84</ele>
        <time>2022-03-21T14:06:25.000Z</time>
      </trkpt>
      <trkpt lat="43.44779" lon="5.23976">
        <ele>84</ele>
        <time>2022-03-21T14:06:26.000Z</time>
      </trkpt>
      <trkpt lat="43.4478" lon="5.23977">
        <ele>84</ele>
        <time>2022-03-21T14:06:27.000Z</time>
      </trkpt>
      <trkpt lat="43.44782" lon="5.23977">
        <ele>84</ele>
        <time>2022-03-21T14:06:28.000Z</time>
      </trkpt>
      <trkpt lat="43.44783" lon="5.23978">
        <ele>84</ele>
        <time>2022-03-21T14:06:29.000Z</time>
      </trkpt>
      <trkpt lat="43.44784" lon="5.23978">
        <ele>84</ele>
        <time>2022-03-21T14:06:30.000Z</time>
      </trkpt>
      <trkpt lat="43.44786" lon="5.23979">
        <ele>84</ele>
        <time>2022-03-21T14:06:31.000Z</time>
      </trkpt>
      <trkpt lat="43.44787" lon="5.23979">
        <ele>84</ele>
        <time>2022-03-21T14:06:32.000Z</time>
      </trkpt>
      <trkpt lat="43.44789" lon="5.2398">
        <ele>84</ele>
        <time>2022-03-21T14:06:33.000Z</time>
      </trkpt>
      <trkpt lat="43.4479" lon="5.2398">
        <ele>84</ele>
        <time>2022-03-21T14:06:34.000Z</time>
      </trkpt>
      <trkpt lat="43.44792" lon="5.23981">
        <ele>84</ele>
        <time>2022-03-21T14:06:35.000Z</time>
      </trkpt>
      <trkpt lat="43.44793" lon="5.23982">
        <ele>84</ele>
        <time>2022-03-21T14:06:36.000Z</time>
      </trkpt>
      <trkpt lat="43.44794" lon="5.23982">
        <ele>84</ele>
        <time>2022-03-21T14:06:37.000Z</time>
      </trkpt>
      <trkpt lat="43.44796" lon="5.23983">
        <ele>84</ele>
        <time>2022-03-21T14:06:38.000Z</time>
      </trkpt>
      <trkpt lat="43.44797" lon="5.23983">
        <ele>84</ele>
        <time>2022-03-21T14:06:39.000Z</time>
      </trkpt>
      <trkpt lat="43.44799" lon="5.23984">
        <ele>84</ele>
        <time>2022-03-21T14:06:40.000Z</time>
      </trkpt>
      <trkpt lat="43.448" lon="5.23984">
        <ele>84</ele>
        <time>2022-03-21T14:06:41.000Z</time>
      </trkpt>
      <trkpt lat="43.44801" lon="5.23985">
        <ele>84</ele>
        <time>2022-03-21T14:06:42.000Z</time>
      </trkpt>
      <trkpt lat="43.44803" lon="5.23985">
        <ele>84</ele>
        <time>2022-03-21T14:06:43.000Z</time>
      </trkpt>
      <trkpt lat="43.44805" lon="5.23985">
        <ele>84</ele>
        <time>2022-03-21T14:06:44.000Z</time>
      </trkpt>
      <trkpt lat="43.44806" lon="5.23985">
        <ele>84</ele>
        <time>2022-03-21T14:06:45.000Z</time>
      </trkpt>
      <trkpt lat="43.44808" lon="5.23985">
        <ele>84</ele>
        <time>2022-03-21T14:06:46.000Z</time>
      </trkpt>
      <trkpt lat="43.44809" lon="5.23985">
        <ele>84</ele>
        <time>2022-03-21T14:06:47.000Z</time>
      </trkpt>
      <trkpt lat="43.44811" lon="5.23984">
        <ele>84</ele>
        <time>2022-03-21T14:06:48.000Z</time>
      </trkpt>
      <trkpt lat="43.44812" lon="5.23984">
        <ele>84</ele>
        <time>2022-03-21T14:06:49.000Z</time>
      </trkpt>
      <trkpt lat="43.44814" lon="5.23983">
        <ele>84</ele>
        <time>2022-03-21T14:06:50.000Z</time>
      </trkpt>
      <trkpt lat="43.44815" lon="5.23982">
        <ele>84</ele>
        <time>2022-03-21T14:06:51.000Z</time>
      </trkpt>
      <trkpt lat="43.44816" lon="5.23981">
        <ele>84</ele>
        <time>2022-03-21T14:06:52.000Z</time>
      </trkpt>
      <trkpt lat="43.44818" lon="5.23981">
        <ele>84</ele>
        <time>2022-03-21T14:06:53.000Z</time>
      </trkpt>
      <trkpt lat="43.44819" lon="5.2398">
        <ele>84</ele>
        <time>2022-03-21T14:06:54.000Z</time>
      </trkpt>
      <trkpt lat="43.4482" lon="5.23979">
        <ele>84</ele>
        <time>2022-03-21T14:06:55.000Z</time>
      </trkpt>
      <trkpt lat="43.44821" lon="5.23978">
        <ele>84</ele>
        <time>2022-03-21T14:06:56.000Z</time>
      </trkpt>
      <trkpt lat="43.44823" lon="5.23976">
        <ele>84</ele>
        <time>2022-03-21T14:06:57.000Z</time>
      </trkpt>
      <trkpt lat="43.44824" lon="5.23975">
        <ele>84</ele>
        <time>2022-03-21T14:06:58.000Z</time>
      </trkpt>
      <trkpt lat="43.44825" lon="5.23974">
        <ele>84</ele>
        <time>2022-03-21T14:06:59.000Z</time>
      </trkpt>
      <trkpt lat="43.44826" lon="5.23973">
        <ele>84</ele>
        <time>2022-03-21T14:07:00.000Z</time>
      </trkpt>
      <trkpt lat="43.44828" lon="5.23972">
        <ele>84</ele>
        <time>2022-03-21T14:07:01.000Z</time>
      </trkpt>
      <trkpt lat="43.44829" lon="5.23971">
        <ele>84</ele>
        <time>2022-03-21T14:07:02.000Z</time>
      </trkpt>
      <trkpt lat="43.4483" lon="5.23969">
        <ele>84</ele>
        <time>2022-03-21T14:07:03.000Z</time>
      </trkpt>
      <trkpt lat="43.44831" lon="5.23968">
        <ele>84</ele>
        <time>2022-03-21T14:07:04.000Z</time>
      </trkpt>
      <trkpt lat="43.44832" lon="5.23967">
        <ele>84</ele>
        <time>2022-03-21T14:07:05.000Z</time>
      </trkpt>
      <trkpt lat="43.44833" lon="5.23966">
        <ele>84</ele>
        <time>2022-03-21T14:07:06.000Z</time>
      </trkpt>
      <trkpt lat="43.44834" lon="5.23964">
        <ele>84</ele>
        <time>2022-03-21T14:07:07.000Z</time>
      </trkpt>
      <trkpt lat="43.44836" lon="5.23963">
        <ele>84</ele>
        <time>2022-03-21T14:07:08.000Z</time>
      </trkpt>
      <trkpt lat="43.44837" lon="5.23962">
        <ele>84</ele>
        <time>2022-03-21T14:07:09.000Z</time>
      </trkpt>
      <trkpt lat="43.44838" lon="5.23961">
        <ele>84</ele>
        <time>2022-03-21T14:07:10.000Z</time>
      </trkpt>
      <trkpt lat="43.44839" lon="5.23959">
        <ele>84</ele>
        <time>2022-03-21T14:07:11.000Z</time>
      </trkpt>
      <trkpt lat="43.4484" lon="5.23958">
        <ele>84</ele>
        <time>2022-03-21T14:07:12.000Z</time>
      </trkpt>
      <trkpt lat="43.44841" lon="5.23957">
        <ele>84</ele>
        <time>2022-03-21T14:07:13.000Z</time>
      </trkpt>
      <trkpt lat="43.44842" lon="5.23956">
        <ele>84</ele>
        <time>2022-03-21T14:07:14.000Z</time>
      </trkpt>
      <trkpt lat="43.44844" lon="5.23954">
        <ele>84</ele>
        <time>2022-03-21T14:07:15.000Z</time>
      </trkpt>
      <trkpt lat="43.44845" lon="5.23953">
        <ele>84</ele>
        <time>2022-03-21T14:07:16.000Z</time>
      </trkpt>
      <trkpt lat="43.44846" lon="5.23952">
        <ele>84</ele>
        <time>2022-03-21T14:07:17.000Z</time>
      </trkpt>
      <trkpt lat="43.44847" lon="5.23951">
        <ele>84</ele>
        <time>2022-03-21T14:07:18.000Z</time>
      </trkpt>
      <trkpt lat="43.44848" lon="5.2395">
        <ele>84</ele>
        <time>2022-03-21T14:07:19.000Z</time>
      </trkpt>
      <trkpt lat="43.44849" lon="5.23949">
        <ele>84</ele>
        <time>2022-03-21T14:07:20.000Z</time>
      </trkpt>
      <trkpt lat="43.44851" lon="5.23947">
        <ele>85</ele>
        <time>2022-03-21T14:07:21.000Z</time>
      </trkpt>
      <trkpt lat="43.44852" lon="5.23946">
        <ele>85</ele>
        <time>2022-03-21T14:07:22.000Z</time>
      </trkpt>
      <trkpt lat="43.44853" lon="5.23945">
        <ele>85</ele>
        <time>2022-03-21T14:07:23.000Z</time>
      </trkpt>
      <trkpt lat="43.44854" lon="5.23944">
        <ele>85</ele>
        <time>2022-03-21T14:07:24.000Z</time>
      </trkpt>
      <trkpt lat="43.44855" lon="5.23942">
        <ele>85</ele>
        <time>2022-03-21T14:07:25.000Z</time>
      </trkpt>
      <trkpt lat="43.44857" lon="5.23941">
        <ele>85</ele>
        <time>2022-03-21T14:07:26.000Z</time>
      </trkpt>
      <trkpt lat="43.44858" lon="5.2394">
        <ele>85</ele>
        <time>2022-03-21T14:07:27.000Z</time>
      </trkpt>
      <trkpt lat="43.44859" lon="5.23939">
        <ele>85</ele>
        <time>2022-03-21T14:07:28.000Z</time>
      </trkpt>
      <trkpt lat="43.4486" lon="5.23938">
        <ele>85</ele>
        <time>2022-03-21T14:07:29.000Z</time>
      </trkpt>
      <trkpt lat="43.44861" lon="5.23937">
        <ele>85</ele>
        <time>2022-03-21T14:07:30.000Z</time>
      </trkpt>
      <trkpt lat="43.44862" lon="5.23935">
        <ele>85</ele>
        <time>2022-03-21T14:07:31.000Z</time>
      </trkpt>
      <trkpt lat="43.44863" lon="5.23934">
        <ele>85</ele>
        <time>2022-03-21T14:07:32.000Z</time>
      </trkpt>
      <trkpt lat="43.44865" lon="5.23933">
        <ele>85</ele>
        <time>2022-03-21T14:07:33.000Z</time>
      </trkpt>
      <trkpt lat="43.44866" lon="5.23932">
        <ele>85</ele>
        <time>2022-03-21T14:07:34.000Z</time>
      </trkpt>
      <trkpt lat="43.44867" lon="5.2393">
        <ele>85</ele>
        <time>2022-03-21T14:07:35.000Z</time>
      </trkpt>
      <trkpt lat="43.44868" lon="5.23929">
        <ele>85</ele>
        <time>2022-03-21T14:07:36.000Z</time>
      </trkpt>
      <trkpt lat="43.44869" lon="5.23928">
        <ele>85</ele>
        <time>2022-03-21T14:07:37.000Z</time>
      </trkpt>
      <trkpt lat="43.4487" lon="5.23927">
        <ele>85</ele>
        <time>2022-03-21T14:07:38.000Z</time>
      </trkpt>
      <trkpt lat="43.44871" lon="5.23926">
        <ele>85</ele>
        <time>2022-03-21T14:07:39.000Z</time>
      </trkpt>
      <trkpt lat="43.44873" lon="5.23925">
        <ele>85</ele>
        <time>2022-03-21T14:07:40.000Z</time>
      </trkpt>
      <trkpt lat="43.44874" lon="5.23924">
        <ele>85</ele>
        <time>2022-03-21T14:07:41.000Z</time>
      </trkpt>
      <trkpt lat="43.44875" lon="5.23923">
        <ele>85</ele>
        <time>2022-03-21T14:07:42.000Z</time>
      </trkpt>
      <trkpt lat="43.44876" lon="5.23922">
        <ele>85</ele>
        <time>2022-03-21T14:07:43.000Z</time>
      </trkpt>
      <trkpt lat="43.44877" lon="5.23921">
        <ele>85</ele>
        <time>2022-03-21T14:07:44.000Z</time>
      </trkpt>
      <trkpt lat="43.44879" lon="5.2392">
        <ele>85</ele>
        <time>2022-03-21T14:07:45.000Z</time>
      </trkpt>
      <trkpt lat="43.4488" lon="5.23918">
        <ele>85</ele>
        <time>2022-03-21T14:07:46.000Z</time>
      </trkpt>
      <trkpt lat="43.44881" lon="5.23917">
        <ele>85</ele>
        <time>2022-03-21T14:07:47.000Z</time>
      </trkpt>
      <trkpt lat="43.44882" lon="5.23916">
        <ele>85</ele>
        <time>2022-03-21T14:07:48.000Z</time>
      </trkpt>
      <trkpt lat="43.44883" lon="5.23915">
        <ele>85</ele>
        <time>2022-03-21T14:07:49.000Z</time>
      </trkpt>
      <trkpt lat="43.44885" lon="5.23914">
        <ele>85</ele>
        <time>2022-03-21T14:07:50.000Z</time>
      </trkpt>
      <trkpt lat="43.44886" lon="5.23913">
        <ele>85</ele>
        <time>2022-03-21T14:07:51.000Z</time>
      </trkpt>
      <trkpt lat="43.44887" lon="5.23912">
        <ele>85</ele>
        <time>2022-03-21T14:07:52.000Z</time>
      </trkpt>
      <trkpt lat="43.44889" lon="5.23912">
        <ele>85</ele>
        <time>2022-03-21T14:07:53.000Z</time>
      </trkpt>
      <trkpt lat="43.4489" lon="5.23911">
        <ele>85</ele>
        <time>2022-03-21T14:07:54.000Z</time>
      </trkpt>
      <trkpt lat="43.44892" lon="5.23911">
        <ele>85</ele>
        <time>2022-03-21T14:07:55.000Z</time>
      </trkpt>
      <trkpt lat="43.44893" lon="5.2391">
        <ele>85</ele>
        <time>2022-03-21T14:07:56.000Z</time>
      </trkpt>
      <trkpt lat="43.44894" lon="5.23909">
        <ele>85</ele>
        <time>2022-03-21T14:07:57.000Z</time>
      </trkpt>
      <trkpt lat="43.44896" lon="5.23909">
        <ele>85</ele>
        <time>2022-03-21T14:07:58.000Z</time>
      </trkpt>
      <trkpt lat="43.44898" lon="5.23908">
        <ele>85</ele>
        <time>2022-03-21T14:07:59.000Z</time>
      </trkpt>
      <trkpt lat="43.44899" lon="5.23908">
        <ele>85</ele>
        <time>2022-03-21T14:08:00.000Z</time>
      </trkpt>
      <trkpt lat="43.44901" lon="5.23908">
        <ele>85</ele>
        <time>2022-03-21T14:08:01.000Z</time>
      </trkpt>
      <trkpt lat="43.44902" lon="5.23908">
        <ele>85</ele>
        <time>2022-03-21T14:08:02.000Z</time>
      </trkpt>
      <trkpt lat="43.44903" lon="5.23907">
        <ele>85</ele>
        <time>2022-03-21T14:08:03.000Z</time>
      </trkpt>
      <trkpt lat="43.44905" lon="5.23907">
        <ele>85</ele>
        <time>2022-03-21T14:08:04.000Z</time>
      </trkpt>
      <trkpt lat="43.44907" lon="5.23907">
        <ele>85</ele>
        <time>2022-03-21T14:08:05.000Z</time>
      </trkpt>
      <trkpt lat="43.44908" lon="5.23906">
        <ele>85</ele>
        <time>2022-03-21T14:08:06.000Z</time>
      </trkpt>
      <trkpt lat="43.4491" lon="5.23906">
        <ele>85</ele>
        <time>2022-03-21T14:08:07.000Z</time>
      </trkpt>
      <trkpt lat="43.44911" lon="5.23906">
        <ele>85</ele>
        <time>2022-03-21T14:08:08.000Z</time>
      </trkpt>
      <trkpt lat="43.44913" lon="5.23905">
        <ele>85</ele>
        <time>2022-03-21T14:08:09.000Z</time>
      </trkpt>
      <trkpt lat="43.44914" lon="5.23905">
        <ele>86</ele>
        <time>2022-03-21T14:08:10.000Z</time>
      </trkpt>
      <trkpt lat="43.44916" lon="5.23905">
        <ele>86</ele>
        <time>2022-03-21T14:08:11.000Z</time>
      </trkpt>
      <trkpt lat="43.44917" lon="5.23905">
        <ele>86</ele>
        <time>2022-03-21T14:08:12.000Z</time>
      </trkpt>
      <trkpt lat="43.44919" lon="5.23905">
        <ele>86</ele>
        <time>2022-03-21T14:08:13.000Z</time>
      </trkpt>
      <trkpt lat="43.4492" lon="5.23905">
        <ele>86</ele>
        <time>2022-03-21T14:08:14.000Z</time>
      </trkpt>
      <trkpt lat="43.44922" lon="5.23905">
        <ele>86</ele>
        <time>2022-03-21T14:08:15.000Z</time>
      </trkpt>
      <trkpt lat="43.44924" lon="5.23905">
        <ele>86</ele>
        <time>2022-03-21T14:08:16.000Z</time>
      </trkpt>
      <trkpt lat="43.44925" lon="5.23904">
        <ele>86</ele>
        <time>2022-03-21T14:08:17.000Z</time>
      </trkpt>
      <trkpt lat="43.44926" lon="5.23904">
        <ele>86</ele>
        <time>2022-03-21T14:08:18.000Z</time>
      </trkpt>
      <trkpt lat="43.44928" lon="5.23904">
        <ele>86</ele>
        <time>2022-03-21T14:08:19.000Z</time>
      </trkpt>
      <trkpt lat="43.44929" lon="5.23904">
        <ele>86</ele>
        <time>2022-03-21T14:08:20.000Z</time>
      </trkpt>
      <trkpt lat="43.44931" lon="5.23904">
        <ele>86</ele>
        <time>2022-03-21T14:08:21.000Z</time>
      </trkpt>
      <trkpt lat="43.44932" lon="5.23903">
        <ele>86</ele>
        <time>2022-03-21T14:08:22.000Z</time>
      </trkpt>
      <trkpt lat="43.44934" lon="5.23903">
        <ele>86</ele>
        <time>2022-03-21T14:08:23.000Z</time>
      </trkpt>
      <trkpt lat="43.44935" lon="5.23902">
        <ele>86</ele>
        <time>2022-03-21T14:08:24.000Z</time>
      </trkpt>
      <trkpt lat="43.44937" lon="5.23902">
        <ele>86</ele>
        <time>2022-03-21T14:08:25.000Z</time>
      </trkpt>
      <trkpt lat="43.44938" lon="5.23901">
        <ele>86</ele>
        <time>2022-03-21T14:08:26.000Z</time>
      </trkpt>
      <trkpt lat="43.4494" lon="5.23901">
        <ele>86</ele>
        <time>2022-03-21T14:08:27.000Z</time>
      </trkpt>
      <trkpt lat="43.44941" lon="5.23901">
        <ele>86</ele>
        <time>2022-03-21T14:08:28.000Z</time>
      </trkpt>
      <trkpt lat="43.44943" lon="5.23901">
        <ele>86</ele>
        <time>2022-03-21T14:08:29.000Z</time>
      </trkpt>
      <trkpt lat="43.44944" lon="5.239">
        <ele>86</ele>
        <time>2022-03-21T14:08:30.000Z</time>
      </trkpt>
      <trkpt lat="43.44945" lon="5.239">
        <ele>86</ele>
        <time>2022-03-21T14:08:31.000Z</time>
      </trkpt>
      <trkpt lat="43.44947" lon="5.239">
        <ele>86</ele>
        <time>2022-03-21T14:08:32.000Z</time>
      </trkpt>
      <trkpt lat="43.44948" lon="5.239">
        <ele>86</ele>
        <time>2022-03-21T14:08:33.000Z</time>
      </trkpt>
      <trkpt lat="43.4495" lon="5.23899">
        <ele>86</ele>
        <time>2022-03-21T14:08:34.000Z</time>
      </trkpt>
      <trkpt lat="43.44951" lon="5.23899">
        <ele>86</ele>
        <time>2022-03-21T14:08:35.000Z</time>
      </trkpt>
      <trkpt lat="43.44953" lon="5.23899">
        <ele>86</ele>
        <time>2022-03-21T14:08:36.000Z</time>
      </trkpt>
      <trkpt lat="43.44954" lon="5.23899">
        <ele>86</ele>
        <time>2022-03-21T14:08:37.000Z</time>
      </trkpt>
      <trkpt lat="43.44956" lon="5.23898">
        <ele>86</ele>
        <time>2022-03-21T14:08:38.000Z</time>
      </trkpt>
      <trkpt lat="43.44957" lon="5.23898">
        <ele>86</ele>
        <time>2022-03-21T14:08:39.000Z</time>
      </trkpt>
      <trkpt lat="43.44958" lon="5.23898">
        <ele>86</ele>
        <time>2022-03-21T14:08:40.000Z</time>
      </trkpt>
      <trkpt lat="43.4496" lon="5.23898">
        <ele>86</ele>
        <time>2022-03-21T14:08:41.000Z</time>
      </trkpt>
      <trkpt lat="43.44962" lon="5.23898">
        <ele>87</ele>
        <time>2022-03-21T14:08:42.000Z</time>
      </trkpt>
      <trkpt lat="43.44963" lon="5.23898">
        <ele>87</ele>
        <time>2022-03-21T14:08:43.000Z</time>
      </trkpt>
      <trkpt lat="43.44965" lon="5.23898">
        <ele>87</ele>
        <time>2022-03-21T14:08:44.000Z</time>
      </trkpt>
      <trkpt lat="43.44967" lon="5.23898">
        <ele>87</ele>
        <time>2022-03-21T14:08:45.000Z</time>
      </trkpt>
      <trkpt lat="43.44968" lon="5.23897">
        <ele>87</ele>
        <time>2022-03-21T14:08:46.000Z</time>
      </trkpt>
      <trkpt lat="43.4497" lon="5.23897">
        <ele>87</ele>
        <time>2022-03-21T14:08:47.000Z</time>
      </trkpt>
      <trkpt lat="43.44971" lon="5.23897">
        <ele>87</ele>
        <time>2022-03-21T14:08:48.000Z</time>
      </trkpt>
      <trkpt lat="43.44972" lon="5.23896">
        <ele>87</ele>
        <time>2022-03-21T14:08:49.000Z</time>
      </trkpt>
      <trkpt lat="43.44974" lon="5.23895">
        <ele>87</ele>
        <time>2022-03-21T14:08:50.000Z</time>
      </trkpt>
      <trkpt lat="43.44975" lon="5.23895">
        <ele>87</ele>
        <time>2022-03-21T14:08:51.000Z</time>
      </trkpt>
      <trkpt lat="43.44977" lon="5.23894">
        <ele>87</ele>
        <time>2022-03-21T14:08:52.000Z</time>
      </trkpt>
      <trkpt lat="43.44978" lon="5.23893">
        <ele>87</ele>
        <time>2022-03-21T14:08:53.000Z</time>
      </trkpt>
      <trkpt lat="43.44979" lon="5.23892">
        <ele>87</ele>
        <time>2022-03-21T14:08:54.000Z</time>
      </trkpt>
      <trkpt lat="43.44981" lon="5.23891">
        <ele>88</ele>
        <time>2022-03-21T14:08:55.000Z</time>
      </trkpt>
      <trkpt lat="43.44982" lon="5.2389">
        <ele>88</ele>
        <time>2022-03-21T14:08:56.000Z</time>
      </trkpt>
      <trkpt lat="43.44984" lon="5.23888">
        <ele>87</ele>
        <time>2022-03-21T14:08:57.000Z</time>
      </trkpt>
      <trkpt lat="43.44985" lon="5.23887">
        <ele>87</ele>
        <time>2022-03-21T14:08:58.000Z</time>
      </trkpt>
      <trkpt lat="43.44986" lon="5.23886">
        <ele>87</ele>
        <time>2022-03-21T14:08:59.000Z</time>
      </trkpt>
      <trkpt lat="43.44987" lon="5.23885">
        <ele>87</ele>
        <time>2022-03-21T14:09:00.000Z</time>
      </trkpt>
      <trkpt lat="43.44988" lon="5.23884">
        <ele>87</ele>
        <time>2022-03-21T14:09:01.000Z</time>
      </trkpt>
      <trkpt lat="43.44989" lon="5.23882">
        <ele>87</ele>
        <time>2022-03-21T14:09:02.000Z</time>
      </trkpt>
      <trkpt lat="43.4499" lon="5.2388">
        <ele>87</ele>
        <time>2022-03-21T14:09:03.000Z</time>
      </trkpt>
      <trkpt lat="43.4499" lon="5.23879">
        <ele>87</ele>
        <time>2022-03-21T14:09:04.000Z</time>
      </trkpt>
      <trkpt lat="43.44989" lon="5.23877">
        <ele>87</ele>
        <time>2022-03-21T14:09:05.000Z</time>
      </trkpt>
      <trkpt lat="43.44989" lon="5.23875">
        <ele>87</ele>
        <time>2022-03-21T14:09:06.000Z</time>
      </trkpt>
      <trkpt lat="43.44988" lon="5.23873">
        <ele>87</ele>
        <time>2022-03-21T14:09:07.000Z</time>
      </trkpt>
      <trkpt lat="43.44987" lon="5.23872">
        <ele>87</ele>
        <time>2022-03-21T14:09:08.000Z</time>
      </trkpt>
      <trkpt lat="43.44987" lon="5.2387">
        <ele>87</ele>
        <time>2022-03-21T14:09:09.000Z</time>
      </trkpt>
      <trkpt lat="43.44986" lon="5.23869">
        <ele>87</ele>
        <time>2022-03-21T14:09:10.000Z</time>
      </trkpt>
      <trkpt lat="43.44985" lon="5.23868">
        <ele>87</ele>
        <time>2022-03-21T14:09:11.000Z</time>
      </trkpt>
      <trkpt lat="43.44984" lon="5.23868">
        <ele>87</ele>
        <time>2022-03-21T14:09:12.000Z</time>
      </trkpt>
      <trkpt lat="43.44982" lon="5.23868">
        <ele>87</ele>
        <time>2022-03-21T14:09:13.000Z</time>
      </trkpt>
      <trkpt lat="43.44981" lon="5.23869">
        <ele>87</ele>
        <time>2022-03-21T14:09:14.000Z</time>
      </trkpt>
      <trkpt lat="43.4498" lon="5.2387">
        <ele>87</ele>
        <time>2022-03-21T14:09:15.000Z</time>
      </trkpt>
      <trkpt lat="43.44979" lon="5.23871">
        <ele>87</ele>
        <time>2022-03-21T14:09:16.000Z</time>
      </trkpt>
      <trkpt lat="43.44978" lon="5.23871">
        <ele>87</ele>
        <time>2022-03-21T14:09:17.000Z</time>
      </trkpt>
      <trkpt lat="43.44976" lon="5.23872">
        <ele>86</ele>
        <time>2022-03-21T14:09:18.000Z</time>
      </trkpt>
      <trkpt lat="43.44975" lon="5.23872">
        <ele>86</ele>
        <time>2022-03-21T14:09:19.000Z</time>
      </trkpt>
      <trkpt lat="43.44974" lon="5.23872">
        <ele>86</ele>
        <time>2022-03-21T14:09:20.000Z</time>
      </trkpt>
      <trkpt lat="43.44972" lon="5.23871">
        <ele>87</ele>
        <time>2022-03-21T14:09:21.000Z</time>
      </trkpt>
      <trkpt lat="43.44971" lon="5.23872">
        <ele>87</ele>
        <time>2022-03-21T14:09:22.000Z</time>
      </trkpt>
      <trkpt lat="43.4497" lon="5.23872">
        <ele>87</ele>
        <time>2022-03-21T14:09:23.000Z</time>
      </trkpt>
      <trkpt lat="43.44969" lon="5.23872">
        <ele>86</ele>
        <time>2022-03-21T14:09:24.000Z</time>
      </trkpt>
      <trkpt lat="43.44968" lon="5.23873">
        <ele>86</ele>
        <time>2022-03-21T14:09:25.000Z</time>
      </trkpt>
      <trkpt lat="43.44967" lon="5.23874">
        <ele>86</ele>
        <time>2022-03-21T14:09:26.000Z</time>
      </trkpt>
      <trkpt lat="43.44965" lon="5.23875">
        <ele>86</ele>
        <time>2022-03-21T14:09:27.000Z</time>
      </trkpt>
      <trkpt lat="43.44964" lon="5.23876">
        <ele>86</ele>
        <time>2022-03-21T14:09:28.000Z</time>
      </trkpt>
      <trkpt lat="43.44963" lon="5.23877">
        <ele>86</ele>
        <time>2022-03-21T14:09:29.000Z</time>
      </trkpt>
      <trkpt lat="43.44962" lon="5.23877">
        <ele>86</ele>
        <time>2022-03-21T14:09:30.000Z</time>
      </trkpt>
      <trkpt lat="43.44961" lon="5.23878">
        <ele>86</ele>
        <time>2022-03-21T14:09:31.000Z</time>
      </trkpt>
      <trkpt lat="43.44959" lon="5.23878">
        <ele>86</ele>
        <time>2022-03-21T14:09:32.000Z</time>
      </trkpt>
      <trkpt lat="43.44958" lon="5.23878">
        <ele>86</ele>
        <time>2022-03-21T14:09:33.000Z</time>
      </trkpt>
      <trkpt lat="43.44956" lon="5.23879">
        <ele>86</ele>
        <time>2022-03-21T14:09:34.000Z</time>
      </trkpt>
      <trkpt lat="43.44955" lon="5.2388">
        <ele>86</ele>
        <time>2022-03-21T14:09:35.000Z</time>
      </trkpt>
      <trkpt lat="43.44954" lon="5.23881">
        <ele>86</ele>
        <time>2022-03-21T14:09:36.000Z</time>
      </trkpt>
      <trkpt lat="43.44953" lon="5.23882">
        <ele>86</ele>
        <time>2022-03-21T14:09:37.000Z</time>
      </trkpt>
      <trkpt lat="43.44951" lon="5.23884">
        <ele>86</ele>
        <time>2022-03-21T14:09:38.000Z</time>
      </trkpt>
      <trkpt lat="43.4495" lon="5.23885">
        <ele>86</ele>
        <time>2022-03-21T14:09:39.000Z</time>
      </trkpt>
      <trkpt lat="43.44949" lon="5.23886">
        <ele>86</ele>
        <time>2022-03-21T14:09:40.000Z</time>
      </trkpt>
      <trkpt lat="43.44947" lon="5.23887">
        <ele>86</ele>
        <time>2022-03-21T14:09:41.000Z</time>
      </trkpt>
      <trkpt lat="43.44946" lon="5.23888">
        <ele>86</ele>
        <time>2022-03-21T14:09:42.000Z</time>
      </trkpt>
      <trkpt lat="43.44945" lon="5.23888">
        <ele>86</ele>
        <time>2022-03-21T14:09:43.000Z</time>
      </trkpt>
      <trkpt lat="43.44943" lon="5.23889">
        <ele>86</ele>
        <time>2022-03-21T14:09:44.000Z</time>
      </trkpt>
      <trkpt lat="43.44942" lon="5.23889">
        <ele>86</ele>
        <time>2022-03-21T14:09:45.000Z</time>
      </trkpt>
      <trkpt lat="43.44941" lon="5.23889">
        <ele>86</ele>
        <time>2022-03-21T14:09:46.000Z</time>
      </trkpt>
      <trkpt lat="43.44939" lon="5.23889">
        <ele>86</ele>
        <time>2022-03-21T14:09:47.000Z</time>
      </trkpt>
      <trkpt lat="43.44938" lon="5.23889">
        <ele>86</ele>
        <time>2022-03-21T14:09:48.000Z</time>
      </trkpt>
      <trkpt lat="43.44936" lon="5.2389">
        <ele>86</ele>
        <time>2022-03-21T14:09:49.000Z</time>
      </trkpt>
      <trkpt lat="43.44935" lon="5.2389">
        <ele>86</ele>
        <time>2022-03-21T14:09:50.000Z</time>
      </trkpt>
      <trkpt lat="43.44933" lon="5.2389">
        <ele>86</ele>
        <time>2022-03-21T14:09:51.000Z</time>
      </trkpt>
      <trkpt lat="43.44932" lon="5.23891">
        <ele>86</ele>
        <time>2022-03-21T14:09:52.000Z</time>
      </trkpt>
      <trkpt lat="43.4493" lon="5.23891">
        <ele>86</ele>
        <time>2022-03-21T14:09:53.000Z</time>
      </trkpt>
      <trkpt lat="43.44929" lon="5.23891">
        <ele>86</ele>
        <time>2022-03-21T14:09:54.000Z</time>
      </trkpt>
      <trkpt lat="43.44927" lon="5.23892">
        <ele>86</ele>
        <time>2022-03-21T14:09:55.000Z</time>
      </trkpt>
      <trkpt lat="43.44926" lon="5.23892">
        <ele>86</ele>
        <time>2022-03-21T14:09:56.000Z</time>
      </trkpt>
      <trkpt lat="43.44924" lon="5.23892">
        <ele>87</ele>
        <time>2022-03-21T14:09:57.000Z</time>
      </trkpt>
      <trkpt lat="43.44923" lon="5.23893">
        <ele>87</ele>
        <time>2022-03-21T14:09:58.000Z</time>
      </trkpt>
      <trkpt lat="43.44921" lon="5.23893">
        <ele>87</ele>
        <time>2022-03-21T14:09:59.000Z</time>
      </trkpt>
      <trkpt lat="43.4492" lon="5.23893">
        <ele>87</ele>
        <time>2022-03-21T14:10:00.000Z</time>
      </trkpt>
      <trkpt lat="43.44918" lon="5.23893">
        <ele>87</ele>
        <time>2022-03-21T14:10:01.000Z</time>
      </trkpt>
      <trkpt lat="43.44917" lon="5.23893">
        <ele>87</ele>
        <time>2022-03-21T14:10:02.000Z</time>
      </trkpt>
      <trkpt lat="43.44915" lon="5.23893">
        <ele>87</ele>
        <time>2022-03-21T14:10:03.000Z</time>
      </trkpt>
      <trkpt lat="43.44914" lon="5.23893">
        <ele>87</ele>
        <time>2022-03-21T14:10:04.000Z</time>
      </trkpt>
      <trkpt lat="43.44912" lon="5.23893">
        <ele>87</ele>
        <time>2022-03-21T14:10:05.000Z</time>
      </trkpt>
      <trkpt lat="43.44911" lon="5.23894">
        <ele>87</ele>
        <time>2022-03-21T14:10:06.000Z</time>
      </trkpt>
      <trkpt lat="43.44909" lon="5.23894">
        <ele>87</ele>
        <time>2022-03-21T14:10:07.000Z</time>
      </trkpt>
      <trkpt lat="43.44908" lon="5.23895">
        <ele>87</ele>
        <time>2022-03-21T14:10:08.000Z</time>
      </trkpt>
      <trkpt lat="43.44906" lon="5.23895">
        <ele>87</ele>
        <time>2022-03-21T14:10:09.000Z</time>
      </trkpt>
      <trkpt lat="43.44905" lon="5.23895">
        <ele>87</ele>
        <time>2022-03-21T14:10:10.000Z</time>
      </trkpt>
      <trkpt lat="43.44903" lon="5.23896">
        <ele>87</ele>
        <time>2022-03-21T14:10:11.000Z</time>
      </trkpt>
      <trkpt lat="43.44902" lon="5.23896">
        <ele>87</ele>
        <time>2022-03-21T14:10:12.000Z</time>
      </trkpt>
      <trkpt lat="43.449" lon="5.23896">
        <ele>87</ele>
        <time>2022-03-21T14:10:13.000Z</time>
      </trkpt>
      <trkpt lat="43.44899" lon="5.23897">
        <ele>87</ele>
        <time>2022-03-21T14:10:14.000Z</time>
      </trkpt>
      <trkpt lat="43.44897" lon="5.23897">
        <ele>87</ele>
        <time>2022-03-21T14:10:15.000Z</time>
      </trkpt>
      <trkpt lat="43.44896" lon="5.23897">
        <ele>87</ele>
        <time>2022-03-21T14:10:16.000Z</time>
      </trkpt>
      <trkpt lat="43.44894" lon="5.23896">
        <ele>87</ele>
        <time>2022-03-21T14:10:17.000Z</time>
      </trkpt>
      <trkpt lat="43.44893" lon="5.23896">
        <ele>87</ele>
        <time>2022-03-21T14:10:18.000Z</time>
      </trkpt>
      <trkpt lat="43.44891" lon="5.23896">
        <ele>87</ele>
        <time>2022-03-21T14:10:19.000Z</time>
      </trkpt>
      <trkpt lat="43.4489" lon="5.23896">
        <ele>87</ele>
        <time>2022-03-21T14:10:20.000Z</time>
      </trkpt>
      <trkpt lat="43.44888" lon="5.23896">
        <ele>87</ele>
        <time>2022-03-21T14:10:21.000Z</time>
      </trkpt>
      <trkpt lat="43.44887" lon="5.23896">
        <ele>87</ele>
        <time>2022-03-21T14:10:22.000Z</time>
      </trkpt>
      <trkpt lat="43.44885" lon="5.23896">
        <ele>87</ele>
        <time>2022-03-21T14:10:23.000Z</time>
      </trkpt>
      <trkpt lat="43.44884" lon="5.23896">
        <ele>87</ele>
        <time>2022-03-21T14:10:24.000Z</time>
      </trkpt>
      <trkpt lat="43.44882" lon="5.23896">
        <ele>87</ele>
        <time>2022-03-21T14:10:25.000Z</time>
      </trkpt>
      <trkpt lat="43.44881" lon="5.23896">
        <ele>87</ele>
        <time>2022-03-21T14:10:26.000Z</time>
      </trkpt>
      <trkpt lat="43.44879" lon="5.23896">
        <ele>87</ele>
        <time>2022-03-21T14:10:27.000Z</time>
      </trkpt>
      <trkpt lat="43.44878" lon="5.23896">
        <ele>87</ele>
        <time>2022-03-21T14:10:28.000Z</time>
      </trkpt>
      <trkpt lat="43.44876" lon="5.23897">
        <ele>87</ele>
        <time>2022-03-21T14:10:29.000Z</time>
      </trkpt>
      <trkpt lat="43.44875" lon="5.23897">
        <ele>87</ele>
        <time>2022-03-21T14:10:30.000Z</time>
      </trkpt>
      <trkpt lat="43.44873" lon="5.23898">
        <ele>87</ele>
        <time>2022-03-21T14:10:31.000Z</time>
      </trkpt>
      <trkpt lat="43.44872" lon="5.23899">
        <ele>87</ele>
        <time>2022-03-21T14:10:32.000Z</time>
      </trkpt>
      <trkpt lat="43.4487" lon="5.23899">
        <ele>87</ele>
        <time>2022-03-21T14:10:33.000Z</time>
      </trkpt>
      <trkpt lat="43.44869" lon="5.239">
        <ele>87</ele>
        <time>2022-03-21T14:10:34.000Z</time>
      </trkpt>
      <trkpt lat="43.44868" lon="5.239">
        <ele>87</ele>
        <time>2022-03-21T14:10:35.000Z</time>
      </trkpt>
      <trkpt lat="43.44866" lon="5.23901">
        <ele>87</ele>
        <time>2022-03-21T14:10:36.000Z</time>
      </trkpt>
      <trkpt lat="43.44865" lon="5.23901">
        <ele>87</ele>
        <time>2022-03-21T14:10:37.000Z</time>
      </trkpt>
      <trkpt lat="43.44863" lon="5.23902">
        <ele>87</ele>
        <time>2022-03-21T14:10:38.000Z</time>
      </trkpt>
      <trkpt lat="43.44862" lon="5.23902">
        <ele>87</ele>
        <time>2022-03-21T14:10:39.000Z</time>
      </trkpt>
      <trkpt lat="43.4486" lon="5.23902">
        <ele>87</ele>
        <time>2022-03-21T14:10:40.000Z</time>
      </trkpt>
      <trkpt lat="43.44859" lon="5.23902">
        <ele>87</ele>
        <time>2022-03-21T14:10:41.000Z</time>
      </trkpt>
      <trkpt lat="43.44857" lon="5.23903">
        <ele>87</ele>
        <time>2022-03-21T14:10:42.000Z</time>
      </trkpt>
      <trkpt lat="43.44856" lon="5.23903">
        <ele>87</ele>
        <time>2022-03-21T14:10:43.000Z</time>
      </trkpt>
      <trkpt lat="43.44854" lon="5.23904">
        <ele>87</ele>
        <time>2022-03-21T14:10:44.000Z</time>
      </trkpt>
      <trkpt lat="43.44853" lon="5.23904">
        <ele>87</ele>
        <time>2022-03-21T14:10:45.000Z</time>
      </trkpt>
      <trkpt lat="43.44851" lon="5.23905">
        <ele>87</ele>
        <time>2022-03-21T14:10:46.000Z</time>
      </trkpt>
      <trkpt lat="43.4485" lon="5.23905">
        <ele>87</ele>
        <time>2022-03-21T14:10:47.000Z</time>
      </trkpt>
      <trkpt lat="43.44848" lon="5.23906">
        <ele>87</ele>
        <time>2022-03-21T14:10:48.000Z</time>
      </trkpt>
      <trkpt lat="43.44847" lon="5.23906">
        <ele>87</ele>
        <time>2022-03-21T14:10:49.000Z</time>
      </trkpt>
      <trkpt lat="43.44845" lon="5.23906">
        <ele>87</ele>
        <time>2022-03-21T14:10:50.000Z</time>
      </trkpt>
      <trkpt lat="43.44844" lon="5.23907">
        <ele>87</ele>
        <time>2022-03-21T14:10:51.000Z</time>
      </trkpt>
      <trkpt lat="43.44843" lon="5.23908">
        <ele>87</ele>
        <time>2022-03-21T14:10:52.000Z</time>
      </trkpt>
      <trkpt lat="43.44842" lon="5.23909">
        <ele>87</ele>
        <time>2022-03-21T14:10:53.000Z</time>
      </trkpt>
      <trkpt lat="43.44841" lon="5.2391">
        <ele>86</ele>
        <time>2022-03-21T14:10:54.000Z</time>
      </trkpt>
      <trkpt lat="43.4484" lon="5.23912">
        <ele>86</ele>
        <time>2022-03-21T14:10:55.000Z</time>
      </trkpt>
      <trkpt lat="43.44839" lon="5.23913">
        <ele>86</ele>
        <time>2022-03-21T14:10:56.000Z</time>
      </trkpt>
      <trkpt lat="43.44838" lon="5.23915">
        <ele>86</ele>
        <time>2022-03-21T14:10:57.000Z</time>
      </trkpt>
      <trkpt lat="43.44837" lon="5.23916">
        <ele>86</ele>
        <time>2022-03-21T14:10:58.000Z</time>
      </trkpt>
      <trkpt lat="43.44836" lon="5.23918">
        <ele>86</ele>
        <time>2022-03-21T14:10:59.000Z</time>
      </trkpt>
      <trkpt lat="43.44836" lon="5.23919">
        <ele>86</ele>
        <time>2022-03-21T14:11:00.000Z</time>
      </trkpt>
      <trkpt lat="43.44835" lon="5.2392">
        <ele>86</ele>
        <time>2022-03-21T14:11:01.000Z</time>
      </trkpt>
      <trkpt lat="43.44834" lon="5.23922">
        <ele>86</ele>
        <time>2022-03-21T14:11:02.000Z</time>
      </trkpt>
      <trkpt lat="43.44833" lon="5.23924">
        <ele>85</ele>
        <time>2022-03-21T14:11:03.000Z</time>
      </trkpt>
      <trkpt lat="43.44832" lon="5.23925">
        <ele>85</ele>
        <time>2022-03-21T14:11:04.000Z</time>
      </trkpt>
      <trkpt lat="43.44831" lon="5.23926">
        <ele>85</ele>
        <time>2022-03-21T14:11:05.000Z</time>
      </trkpt>
      <trkpt lat="43.4483" lon="5.23927">
        <ele>85</ele>
        <time>2022-03-21T14:11:06.000Z</time>
      </trkpt>
      <trkpt lat="43.44829" lon="5.23928">
        <ele>85</ele>
        <time>2022-03-21T14:11:07.000Z</time>
      </trkpt>
      <trkpt lat="43.44827" lon="5.23929">
        <ele>85</ele>
        <time>2022-03-21T14:11:08.000Z</time>
      </trkpt>
      <trkpt lat="43.44826" lon="5.2393">
        <ele>85</ele>
        <time>2022-03-21T14:11:09.000Z</time>
      </trkpt>
      <trkpt lat="43.44825" lon="5.2393">
        <ele>85</ele>
        <time>2022-03-21T14:11:10.000Z</time>
      </trkpt>
      <trkpt lat="43.44823" lon="5.23931">
        <ele>85</ele>
        <time>2022-03-21T14:11:11.000Z</time>
      </trkpt>
      <trkpt lat="43.44822" lon="5.23932">
        <ele>85</ele>
        <time>2022-03-21T14:11:12.000Z</time>
      </trkpt>
      <trkpt lat="43.44821" lon="5.23932">
        <ele>85</ele>
        <time>2022-03-21T14:11:13.000Z</time>
      </trkpt>
      <trkpt lat="43.44819" lon="5.23933">
        <ele>85</ele>
        <time>2022-03-21T14:11:14.000Z</time>
      </trkpt>
      <trkpt lat="43.44818" lon="5.23934">
        <ele>85</ele>
        <time>2022-03-21T14:11:15.000Z</time>
      </trkpt>
      <trkpt lat="43.44817" lon="5.23934">
        <ele>85</ele>
        <time>2022-03-21T14:11:16.000Z</time>
      </trkpt>
      <trkpt lat="43.44816" lon="5.23935">
        <ele>85</ele>
        <time>2022-03-21T14:11:17.000Z</time>
      </trkpt>
      <trkpt lat="43.44814" lon="5.23936">
        <ele>84</ele>
        <time>2022-03-21T14:11:18.000Z</time>
      </trkpt>
      <trkpt lat="43.44813" lon="5.23937">
        <ele>84</ele>
        <time>2022-03-21T14:11:19.000Z</time>
      </trkpt>
      <trkpt lat="43.44812" lon="5.23938">
        <ele>84</ele>
        <time>2022-03-21T14:11:20.000Z</time>
      </trkpt>
      <trkpt lat="43.44811" lon="5.23939">
        <ele>84</ele>
        <time>2022-03-21T14:11:21.000Z</time>
      </trkpt>
      <trkpt lat="43.4481" lon="5.2394">
        <ele>84</ele>
        <time>2022-03-21T14:11:22.000Z</time>
      </trkpt>
      <trkpt lat="43.44809" lon="5.23942">
        <ele>84</ele>
        <time>2022-03-21T14:11:23.000Z</time>
      </trkpt>
      <trkpt lat="43.44807" lon="5.23943">
        <ele>84</ele>
        <time>2022-03-21T14:11:24.000Z</time>
      </trkpt>
      <trkpt lat="43.44806" lon="5.23943">
        <ele>84</ele>
        <time>2022-03-21T14:11:25.000Z</time>
      </trkpt>
      <trkpt lat="43.44805" lon="5.23944">
        <ele>84</ele>
        <time>2022-03-21T14:11:26.000Z</time>
      </trkpt>
      <trkpt lat="43.44803" lon="5.23944">
        <ele>84</ele>
        <time>2022-03-21T14:11:27.000Z</time>
      </trkpt>
      <trkpt lat="43.44802" lon="5.23944">
        <ele>84</ele>
        <time>2022-03-21T14:11:28.000Z</time>
      </trkpt>
      <trkpt lat="43.448" lon="5.23943">
        <ele>84</ele>
        <time>2022-03-21T14:11:29.000Z</time>
      </trkpt>
      <trkpt lat="43.44798" lon="5.23943">
        <ele>84</ele>
        <time>2022-03-21T14:11:30.000Z</time>
      </trkpt>
      <trkpt lat="43.44797" lon="5.23943">
        <ele>84</ele>
        <time>2022-03-21T14:11:31.000Z</time>
      </trkpt>
      <trkpt lat="43.44795" lon="5.23943">
        <ele>84</ele>
        <time>2022-03-21T14:11:32.000Z</time>
      </trkpt>
      <trkpt lat="43.44794" lon="5.23943">
        <ele>84</ele>
        <time>2022-03-21T14:11:33.000Z</time>
      </trkpt>
      <trkpt lat="43.44793" lon="5.23944">
        <ele>83</ele>
        <time>2022-03-21T14:11:34.000Z</time>
      </trkpt>
      <trkpt lat="43.44791" lon="5.23944">
        <ele>83</ele>
        <time>2022-03-21T14:11:35.000Z</time>
      </trkpt>
      <trkpt lat="43.44789" lon="5.23945">
        <ele>83</ele>
        <time>2022-03-21T14:11:36.000Z</time>
      </trkpt>
      <trkpt lat="43.44788" lon="5.23945">
        <ele>83</ele>
        <time>2022-03-21T14:11:37.000Z</time>
      </trkpt>
      <trkpt lat="43.44786" lon="5.23944">
        <ele>83</ele>
        <time>2022-03-21T14:11:38.000Z</time>
      </trkpt>
      <trkpt lat="43.44785" lon="5.23944">
        <ele>83</ele>
        <time>2022-03-21T14:11:39.000Z</time>
      </trkpt>
      <trkpt lat="43.44783" lon="5.23944">
        <ele>83</ele>
        <time>2022-03-21T14:11:40.000Z</time>
      </trkpt>
      <trkpt lat="43.44782" lon="5.23943">
        <ele>83</ele>
        <time>2022-03-21T14:11:41.000Z</time>
      </trkpt>
      <trkpt lat="43.44781" lon="5.23942">
        <ele>83</ele>
        <time>2022-03-21T14:11:42.000Z</time>
      </trkpt>
      <trkpt lat="43.4478" lon="5.23942">
        <ele>83</ele>
        <time>2022-03-21T14:11:43.000Z</time>
      </trkpt>
      <trkpt lat="43.44778" lon="5.23941">
        <ele>83</ele>
        <time>2022-03-21T14:11:44.000Z</time>
      </trkpt>
      <trkpt lat="43.44777" lon="5.23941">
        <ele>83</ele>
        <time>2022-03-21T14:11:45.000Z</time>
      </trkpt>
      <trkpt lat="43.44775" lon="5.2394">
        <ele>83</ele>
        <time>2022-03-21T14:11:46.000Z</time>
      </trkpt>
      <trkpt lat="43.44774" lon="5.23939">
        <ele>83</ele>
        <time>2022-03-21T14:11:47.000Z</time>
      </trkpt>
      <trkpt lat="43.44773" lon="5.23938">
        <ele>83</ele>
        <time>2022-03-21T14:11:48.000Z</time>
      </trkpt>
      <trkpt lat="43.44771" lon="5.23937">
        <ele>83</ele>
        <time>2022-03-21T14:11:49.000Z</time>
      </trkpt>
      <trkpt lat="43.4477" lon="5.23935">
        <ele>83</ele>
        <time>2022-03-21T14:11:50.000Z</time>
      </trkpt>
      <trkpt lat="43.44769" lon="5.23934">
        <ele>83</ele>
        <time>2022-03-21T14:11:51.000Z</time>
      </trkpt>
      <trkpt lat="43.44768" lon="5.23933">
        <ele>83</ele>
        <time>2022-03-21T14:11:52.000Z</time>
      </trkpt>
      <trkpt lat="43.44766" lon="5.23932">
        <ele>83</ele>
        <time>2022-03-21T14:11:53.000Z</time>
      </trkpt>
      <trkpt lat="43.44765" lon="5.23931">
        <ele>83</ele>
        <time>2022-03-21T14:11:54.000Z</time>
      </trkpt>
      <trkpt lat="43.44764" lon="5.2393">
        <ele>82</ele>
        <time>2022-03-21T14:11:55.000Z</time>
      </trkpt>
      <trkpt lat="43.44763" lon="5.23929">
        <ele>82</ele>
        <time>2022-03-21T14:11:56.000Z</time>
      </trkpt>
      <trkpt lat="43.44761" lon="5.23927">
        <ele>82</ele>
        <time>2022-03-21T14:11:57.000Z</time>
      </trkpt>
      <trkpt lat="43.4476" lon="5.23926">
        <ele>82</ele>
        <time>2022-03-21T14:11:58.000Z</time>
      </trkpt>
      <trkpt lat="43.44759" lon="5.23925">
        <ele>82</ele>
        <time>2022-03-21T14:11:59.000Z</time>
      </trkpt>
      <trkpt lat="43.44758" lon="5.23924">
        <ele>82</ele>
        <time>2022-03-21T14:12:00.000Z</time>
      </trkpt>
      <trkpt lat="43.44757" lon="5.23924">
        <ele>82</ele>
        <time>2022-03-21T14:12:01.000Z</time>
      </trkpt>
      <trkpt lat="43.44755" lon="5.23923">
        <ele>82</ele>
        <time>2022-03-21T14:12:02.000Z</time>
      </trkpt>
      <trkpt lat="43.44754" lon="5.23923">
        <ele>83</ele>
        <time>2022-03-21T14:12:03.000Z</time>
      </trkpt>
      <trkpt lat="43.44752" lon="5.23922">
        <ele>83</ele>
        <time>2022-03-21T14:12:04.000Z</time>
      </trkpt>
      <trkpt lat="43.44751" lon="5.23922">
        <ele>82</ele>
        <time>2022-03-21T14:12:05.000Z</time>
      </trkpt>
      <trkpt lat="43.4475" lon="5.23922">
        <ele>82</ele>
        <time>2022-03-21T14:12:06.000Z</time>
      </trkpt>
      <trkpt lat="43.44748" lon="5.23922">
        <ele>82</ele>
        <time>2022-03-21T14:12:07.000Z</time>
      </trkpt>
      <trkpt lat="43.44747" lon="5.23922">
        <ele>82</ele>
        <time>2022-03-21T14:12:08.000Z</time>
      </trkpt>
      <trkpt lat="43.44746" lon="5.23921">
        <ele>82</ele>
        <time>2022-03-21T14:12:09.000Z</time>
      </trkpt>
      <trkpt lat="43.44745" lon="5.23922">
        <ele>82</ele>
        <time>2022-03-21T14:12:10.000Z</time>
      </trkpt>
      <trkpt lat="43.44744" lon="5.23923">
        <ele>82</ele>
        <time>2022-03-21T14:12:11.000Z</time>
      </trkpt>
      <trkpt lat="43.44743" lon="5.23924">
        <ele>82</ele>
        <time>2022-03-21T14:12:12.000Z</time>
      </trkpt>
      <trkpt lat="43.44741" lon="5.23925">
        <ele>82</ele>
        <time>2022-03-21T14:12:13.000Z</time>
      </trkpt>
      <trkpt lat="43.4474" lon="5.23925">
        <ele>82</ele>
        <time>2022-03-21T14:12:14.000Z</time>
      </trkpt>
      <trkpt lat="43.44739" lon="5.23925">
        <ele>82</ele>
        <time>2022-03-21T14:12:15.000Z</time>
      </trkpt>
      <trkpt lat="43.44737" lon="5.23925">
        <ele>82</ele>
        <time>2022-03-21T14:12:16.000Z</time>
      </trkpt>
      <trkpt lat="43.44736" lon="5.23925">
        <ele>82</ele>
        <time>2022-03-21T14:12:17.000Z</time>
      </trkpt>
      <trkpt lat="43.44735" lon="5.23925">
        <ele>82</ele>
        <time>2022-03-21T14:12:18.000Z</time>
      </trkpt>
      <trkpt lat="43.44733" lon="5.23925">
        <ele>82</ele>
        <time>2022-03-21T14:12:19.000Z</time>
      </trkpt>
      <trkpt lat="43.44732" lon="5.23925">
        <ele>82</ele>
        <time>2022-03-21T14:12:20.000Z</time>
      </trkpt>
      <trkpt lat="43.4473" lon="5.23926">
        <ele>82</ele>
        <time>2022-03-21T14:12:21.000Z</time>
      </trkpt>
      <trkpt lat="43.44729" lon="5.23926">
        <ele>82</ele>
        <time>2022-03-21T14:12:22.000Z</time>
      </trkpt>
      <trkpt lat="43.44727" lon="5.23926">
        <ele>82</ele>
        <time>2022-03-21T14:12:23.000Z</time>
      </trkpt>
      <trkpt lat="43.44726" lon="5.23925">
        <ele>82</ele>
        <time>2022-03-21T14:12:24.000Z</time>
      </trkpt>
      <trkpt lat="43.44725" lon="5.23926">
        <ele>82</ele>
        <time>2022-03-21T14:12:25.000Z</time>
      </trkpt>
      <trkpt lat="43.44723" lon="5.23926">
        <ele>82</ele>
        <time>2022-03-21T14:12:26.000Z</time>
      </trkpt>
      <trkpt lat="43.44722" lon="5.23927">
        <ele>82</ele>
        <time>2022-03-21T14:12:27.000Z</time>
      </trkpt>
      <trkpt lat="43.44721" lon="5.23927">
        <ele>82</ele>
        <time>2022-03-21T14:12:28.000Z</time>
      </trkpt>
      <trkpt lat="43.44719" lon="5.23928">
        <ele>82</ele>
        <time>2022-03-21T14:12:29.000Z</time>
      </trkpt>
      <trkpt lat="43.44718" lon="5.23928">
        <ele>82</ele>
        <time>2022-03-21T14:12:30.000Z</time>
      </trkpt>
      <trkpt lat="43.44717" lon="5.23928">
        <ele>82</ele>
        <time>2022-03-21T14:12:31.000Z</time>
      </trkpt>
      <trkpt lat="43.44715" lon="5.23929">
        <ele>82</ele>
        <time>2022-03-21T14:12:32.000Z</time>
      </trkpt>
      <trkpt lat="43.44714" lon="5.2393">
        <ele>82</ele>
        <time>2022-03-21T14:12:33.000Z</time>
      </trkpt>
      <trkpt lat="43.44713" lon="5.23931">
        <ele>82</ele>
        <time>2022-03-21T14:12:34.000Z</time>
      </trkpt>
      <trkpt lat="43.44711" lon="5.23932">
        <ele>82</ele>
        <time>2022-03-21T14:12:35.000Z</time>
      </trkpt>
      <trkpt lat="43.4471" lon="5.23932">
        <ele>83</ele>
        <time>2022-03-21T14:12:36.000Z</time>
      </trkpt>
      <trkpt lat="43.44709" lon="5.23933">
        <ele>83</ele>
        <time>2022-03-21T14:12:37.000Z</time>
      </trkpt>
      <trkpt lat="43.44707" lon="5.23934">
        <ele>83</ele>
        <time>2022-03-21T14:12:38.000Z</time>
      </trkpt>
      <trkpt lat="43.44706" lon="5.23934">
        <ele>83</ele>
        <time>2022-03-21T14:12:39.000Z</time>
      </trkpt>
      <trkpt lat="43.44705" lon="5.23935">
        <ele>82</ele>
        <time>2022-03-21T14:12:40.000Z</time>
      </trkpt>
      <trkpt lat="43.44704" lon="5.23936">
        <ele>82</ele>
        <time>2022-03-21T14:12:41.000Z</time>
      </trkpt>
      <trkpt lat="43.44703" lon="5.23937">
        <ele>82</ele>
        <time>2022-03-21T14:12:42.000Z</time>
      </trkpt>
      <trkpt lat="43.44703" lon="5.23939">
        <ele>82</ele>
        <time>2022-03-21T14:12:43.000Z</time>
      </trkpt>
      <trkpt lat="43.44702" lon="5.23941">
        <ele>83</ele>
        <time>2022-03-21T14:12:44.000Z</time>
      </trkpt>
      <trkpt lat="43.44702" lon="5.23943">
        <ele>83</ele>
        <time>2022-03-21T14:12:45.000Z</time>
      </trkpt>
      <trkpt lat="43.44701" lon="5.23944">
        <ele>83</ele>
        <time>2022-03-21T14:12:46.000Z</time>
      </trkpt>
      <trkpt lat="43.447" lon="5.23946">
        <ele>83</ele>
        <time>2022-03-21T14:12:47.000Z</time>
      </trkpt>
      <trkpt lat="43.447" lon="5.23948">
        <ele>83</ele>
        <time>2022-03-21T14:12:48.000Z</time>
      </trkpt>
      <trkpt lat="43.44699" lon="5.2395">
        <ele>83</ele>
        <time>2022-03-21T14:12:49.000Z</time>
      </trkpt>
      <trkpt lat="43.44699" lon="5.23952">
        <ele>83</ele>
        <time>2022-03-21T14:12:50.000Z</time>
      </trkpt>
      <trkpt lat="43.44698" lon="5.23954">
        <ele>83</ele>
        <time>2022-03-21T14:12:51.000Z</time>
      </trkpt>
      <trkpt lat="43.44698" lon="5.23956">
        <ele>83</ele>
        <time>2022-03-21T14:12:52.000Z</time>
      </trkpt>
      <trkpt lat="43.44698" lon="5.23958">
        <ele>83</ele>
        <time>2022-03-21T14:12:53.000Z</time>
      </trkpt>
      <trkpt lat="43.44697" lon="5.2396">
        <ele>83</ele>
        <time>2022-03-21T14:12:54.000Z</time>
      </trkpt>
      <trkpt lat="43.44697" lon="5.23963">
        <ele>83</ele>
        <time>2022-03-21T14:12:55.000Z</time>
      </trkpt>
      <trkpt lat="43.44697" lon="5.23965">
        <ele>83</ele>
        <time>2022-03-21T14:12:56.000Z</time>
      </trkpt>
      <trkpt lat="43.44696" lon="5.23966">
        <ele>83</ele>
        <time>2022-03-21T14:12:57.000Z</time>
      </trkpt>
      <trkpt lat="43.44696" lon="5.23968">
        <ele>83</ele>
        <time>2022-03-21T14:12:58.000Z</time>
      </trkpt>
      <trkpt lat="43.44695" lon="5.2397">
        <ele>83</ele>
        <time>2022-03-21T14:12:59.000Z</time>
      </trkpt>
      <trkpt lat="43.44695" lon="5.23972">
        <ele>83</ele>
        <time>2022-03-21T14:13:00.000Z</time>
      </trkpt>
      <trkpt lat="43.44694" lon="5.23974">
        <ele>83</ele>
        <time>2022-03-21T14:13:01.000Z</time>
      </trkpt>
      <trkpt lat="43.44693" lon="5.23976">
        <ele>83</ele>
        <time>2022-03-21T14:13:02.000Z</time>
      </trkpt>
      <trkpt lat="43.44693" lon="5.23978">
        <ele>83</ele>
        <time>2022-03-21T14:13:03.000Z</time>
      </trkpt>
      <trkpt lat="43.44692" lon="5.2398">
        <ele>83</ele>
        <time>2022-03-21T14:13:04.000Z</time>
      </trkpt>
      <trkpt lat="43.44692" lon="5.23982">
        <ele>83</ele>
        <time>2022-03-21T14:13:05.000Z</time>
      </trkpt>
      <trkpt lat="43.44691" lon="5.23984">
        <ele>83</ele>
        <time>2022-03-21T14:13:06.000Z</time>
      </trkpt>
      <trkpt lat="43.44691" lon="5.23986">
        <ele>83</ele>
        <time>2022-03-21T14:13:07.000Z</time>
      </trkpt>
      <trkpt lat="43.44691" lon="5.23987">
        <ele>83</ele>
        <time>2022-03-21T14:13:08.000Z</time>
      </trkpt>
      <trkpt lat="43.44691" lon="5.23989">
        <ele>83</ele>
        <time>2022-03-21T14:13:09.000Z</time>
      </trkpt>
      <trkpt lat="43.44691" lon="5.23991">
        <ele>83</ele>
        <time>2022-03-21T14:13:10.000Z</time>
      </trkpt>
      <trkpt lat="43.44692" lon="5.23992">
        <ele>83</ele>
        <time>2022-03-21T14:13:11.000Z</time>
      </trkpt>
      <trkpt lat="43.44692" lon="5.23993">
        <ele>83</ele>
        <time>2022-03-21T14:13:12.000Z</time>
      </trkpt>
      <trkpt lat="43.44694" lon="5.23994">
        <ele>83</ele>
        <time>2022-03-21T14:13:13.000Z</time>
      </trkpt>
      <trkpt lat="43.44695" lon="5.23995">
        <ele>83</ele>
        <time>2022-03-21T14:13:14.000Z</time>
      </trkpt>
      <trkpt lat="43.44696" lon="5.23995">
        <ele>83</ele>
        <time>2022-03-21T14:13:15.000Z</time>
      </trkpt>
      <trkpt lat="43.44698" lon="5.23996">
        <ele>83</ele>
        <time>2022-03-21T14:13:16.000Z</time>
      </trkpt>
      <trkpt lat="43.44699" lon="5.23997">
        <ele>83</ele>
        <time>2022-03-21T14:13:17.000Z</time>
      </trkpt>
      <trkpt lat="43.447" lon="5.23998">
        <ele>83</ele>
        <time>2022-03-21T14:13:18.000Z</time>
      </trkpt>
      <trkpt lat="43.44701" lon="5.23999">
        <ele>84</ele>
        <time>2022-03-21T14:13:19.000Z</time>
      </trkpt>
      <trkpt lat="43.44703" lon="5.23999">
        <ele>84</ele>
        <time>2022-03-21T14:13:20.000Z</time>
      </trkpt>
      <trkpt lat="43.44704" lon="5.23999">
        <ele>84</ele>
        <time>2022-03-21T14:13:21.000Z</time>
      </trkpt>
      <trkpt lat="43.44706" lon="5.24">
        <ele>84</ele>
        <time>2022-03-21T14:13:22.000Z</time>
      </trkpt>
      <trkpt lat="43.44707" lon="5.24001">
        <ele>84</ele>
        <time>2022-03-21T14:13:23.000Z</time>
      </trkpt>
      <trkpt lat="43.44709" lon="5.24001">
        <ele>84</ele>
        <time>2022-03-21T14:13:24.000Z</time>
      </trkpt>
      <trkpt lat="43.4471" lon="5.24002">
        <ele>84</ele>
        <time>2022-03-21T14:13:25.000Z</time>
      </trkpt>
      <trkpt lat="43.44712" lon="5.24002">
        <ele>84</ele>
        <time>2022-03-21T14:13:26.000Z</time>
      </trkpt>
      <trkpt lat="43.44713" lon="5.24003">
        <ele>84</ele>
        <time>2022-03-21T14:13:27.000Z</time>
      </trkpt>
      <trkpt lat="43.44714" lon="5.24003">
        <ele>84</ele>
        <time>2022-03-21T14:13:28.000Z</time>
      </trkpt>
      <trkpt lat="43.44716" lon="5.24004">
        <ele>84</ele>
        <time>2022-03-21T14:13:29.000Z</time>
      </trkpt>
      <trkpt lat="43.44717" lon="5.24004">
        <ele>84</ele>
        <time>2022-03-21T14:13:30.000Z</time>
      </trkpt>
      <trkpt lat="43.44719" lon="5.24005">
        <ele>84</ele>
        <time>2022-03-21T14:13:31.000Z</time>
      </trkpt>
      <trkpt lat="43.4472" lon="5.24005">
        <ele>84</ele>
        <time>2022-03-21T14:13:32.000Z</time>
      </trkpt>
      <trkpt lat="43.44721" lon="5.24005">
        <ele>84</ele>
        <time>2022-03-21T14:13:33.000Z</time>
      </trkpt>
      <trkpt lat="43.44723" lon="5.24006">
        <ele>84</ele>
        <time>2022-03-21T14:13:34.000Z</time>
      </trkpt>
      <trkpt lat="43.44724" lon="5.24006">
        <ele>83</ele>
        <time>2022-03-21T14:13:35.000Z</time>
      </trkpt>
      <trkpt lat="43.44726" lon="5.24007">
        <ele>83</ele>
        <time>2022-03-21T14:13:36.000Z</time>
      </trkpt>
      <trkpt lat="43.44727" lon="5.24007">
        <ele>83</ele>
        <time>2022-03-21T14:13:37.000Z</time>
      </trkpt>
      <trkpt lat="43.44729" lon="5.24007">
        <ele>83</ele>
        <time>2022-03-21T14:13:38.000Z</time>
      </trkpt>
      <trkpt lat="43.4473" lon="5.24007">
        <ele>83</ele>
        <time>2022-03-21T14:13:39.000Z</time>
      </trkpt>
      <trkpt lat="43.44732" lon="5.24007">
        <ele>83</ele>
        <time>2022-03-21T14:13:40.000Z</time>
      </trkpt>
      <trkpt lat="43.44733" lon="5.24007">
        <ele>83</ele>
        <time>2022-03-21T14:13:41.000Z</time>
      </trkpt>
      <trkpt lat="43.44735" lon="5.24008">
        <ele>84</ele>
        <time>2022-03-21T14:13:42.000Z</time>
      </trkpt>
      <trkpt lat="43.44736" lon="5.24007">
        <ele>84</ele>
        <time>2022-03-21T14:13:43.000Z</time>
      </trkpt>
      <trkpt lat="43.44738" lon="5.24007">
        <ele>84</ele>
        <time>2022-03-21T14:13:44.000Z</time>
      </trkpt>
      <trkpt lat="43.44739" lon="5.24007">
        <ele>84</ele>
        <time>2022-03-21T14:13:45.000Z</time>
      </trkpt>
      <trkpt lat="43.4474" lon="5.24007">
        <ele>84</ele>
        <time>2022-03-21T14:13:46.000Z</time>
      </trkpt>
      <trkpt lat="43.44742" lon="5.24007">
        <ele>84</ele>
        <time>2022-03-21T14:13:47.000Z</time>
      </trkpt>
      <trkpt lat="43.44743" lon="5.24007">
        <ele>84</ele>
        <time>2022-03-21T14:13:48.000Z</time>
      </trkpt>
      <trkpt lat="43.44745" lon="5.24007">
        <ele>84</ele>
        <time>2022-03-21T14:13:49.000Z</time>
      </trkpt>
      <trkpt lat="43.44747" lon="5.24007">
        <ele>84</ele>
        <time>2022-03-21T14:13:50.000Z</time>
      </trkpt>
      <trkpt lat="43.44748" lon="5.24007">
        <ele>84</ele>
        <time>2022-03-21T14:13:51.000Z</time>
      </trkpt>
      <trkpt lat="43.4475" lon="5.24007">
        <ele>84</ele>
        <time>2022-03-21T14:13:52.000Z</time>
      </trkpt>
      <trkpt lat="43.44751" lon="5.24007">
        <ele>84</ele>
        <time>2022-03-21T14:13:53.000Z</time>
      </trkpt>
      <trkpt lat="43.44752" lon="5.24006">
        <ele>84</ele>
        <time>2022-03-21T14:13:54.000Z</time>
      </trkpt>
      <trkpt lat="43.44754" lon="5.24006">
        <ele>84</ele>
        <time>2022-03-21T14:13:55.000Z</time>
      </trkpt>
      <trkpt lat="43.44755" lon="5.24006">
        <ele>84</ele>
        <time>2022-03-21T14:13:56.000Z</time>
      </trkpt>
      <trkpt lat="43.44757" lon="5.24005">
        <ele>84</ele>
        <time>2022-03-21T14:13:57.000Z</time>
      </trkpt>
      <trkpt lat="43.44758" lon="5.24005">
        <ele>84</ele>
        <time>2022-03-21T14:13:58.000Z</time>
      </trkpt>
      <trkpt lat="43.4476" lon="5.24005">
        <ele>84</ele>
        <time>2022-03-21T14:13:59.000Z</time>
      </trkpt>
      <trkpt lat="43.44761" lon="5.24004">
        <ele>84</ele>
        <time>2022-03-21T14:14:00.000Z</time>
      </trkpt>
      <trkpt lat="43.44763" lon="5.24004">
        <ele>84</ele>
        <time>2022-03-21T14:14:01.000Z</time>
      </trkpt>
      <trkpt lat="43.44764" lon="5.24004">
        <ele>84</ele>
        <time>2022-03-21T14:14:02.000Z</time>
      </trkpt>
      <trkpt lat="43.44765" lon="5.24004">
        <ele>84</ele>
        <time>2022-03-21T14:14:03.000Z</time>
      </trkpt>
      <trkpt lat="43.44767" lon="5.24004">
        <ele>84</ele>
        <time>2022-03-21T14:14:04.000Z</time>
      </trkpt>
      <trkpt lat="43.44768" lon="5.24003">
        <ele>83</ele>
        <time>2022-03-21T14:14:05.000Z</time>
      </trkpt>
      <trkpt lat="43.4477" lon="5.24003">
        <ele>83</ele>
        <time>2022-03-21T14:14:06.000Z</time>
      </trkpt>
      <trkpt lat="43.44771" lon="5.24003">
        <ele>83</ele>
        <time>2022-03-21T14:14:07.000Z</time>
      </trkpt>
      <trkpt lat="43.44773" lon="5.24003">
        <ele>83</ele>
        <time>2022-03-21T14:14:08.000Z</time>
      </trkpt>
      <trkpt lat="43.44774" lon="5.24003">
        <ele>83</ele>
        <time>2022-03-21T14:14:09.000Z</time>
      </trkpt>
      <trkpt lat="43.44776" lon="5.24002">
        <ele>83</ele>
        <time>2022-03-21T14:14:10.000Z</time>
      </trkpt>
      <trkpt lat="43.44777" lon="5.24002">
        <ele>83</ele>
        <time>2022-03-21T14:14:11.000Z</time>
      </trkpt>
      <trkpt lat="43.44779" lon="5.24002">
        <ele>83</ele>
        <time>2022-03-21T14:14:12.000Z</time>
      </trkpt>
      <trkpt lat="43.4478" lon="5.24001">
        <ele>83</ele>
        <time>2022-03-21T14:14:13.000Z</time>
      </trkpt>
      <trkpt lat="43.44781" lon="5.24001">
        <ele>83</ele>
        <time>2022-03-21T14:14:14.000Z</time>
      </trkpt>
      <trkpt lat="43.44783" lon="5.24">
        <ele>83</ele>
        <time>2022-03-21T14:14:15.000Z</time>
      </trkpt>
      <trkpt lat="43.44784" lon="5.24">
        <ele>84</ele>
        <time>2022-03-21T14:14:16.000Z</time>
      </trkpt>
      <trkpt lat="43.44786" lon="5.23999">
        <ele>84</ele>
        <time>2022-03-21T14:14:17.000Z</time>
      </trkpt>
      <trkpt lat="43.44787" lon="5.23998">
        <ele>84</ele>
        <time>2022-03-21T14:14:18.000Z</time>
      </trkpt>
      <trkpt lat="43.44789" lon="5.23997">
        <ele>84</ele>
        <time>2022-03-21T14:14:19.000Z</time>
      </trkpt>
      <trkpt lat="43.4479" lon="5.23996">
        <ele>84</ele>
        <time>2022-03-21T14:14:20.000Z</time>
      </trkpt>
      <trkpt lat="43.44791" lon="5.23996">
        <ele>84</ele>
        <time>2022-03-21T14:14:21.000Z</time>
      </trkpt>
      <trkpt lat="43.44793" lon="5.23995">
        <ele>84</ele>
        <time>2022-03-21T14:14:22.000Z</time>
      </trkpt>
      <trkpt lat="43.44794" lon="5.23994">
        <ele>84</ele>
        <time>2022-03-21T14:14:23.000Z</time>
      </trkpt>
      <trkpt lat="43.44796" lon="5.23993">
        <ele>84</ele>
        <time>2022-03-21T14:14:24.000Z</time>
      </trkpt>
      <trkpt lat="43.44797" lon="5.23992">
        <ele>84</ele>
        <time>2022-03-21T14:14:25.000Z</time>
      </trkpt>
      <trkpt lat="43.44799" lon="5.23991">
        <ele>84</ele>
        <time>2022-03-21T14:14:26.000Z</time>
      </trkpt>
      <trkpt lat="43.448" lon="5.23991">
        <ele>84</ele>
        <time>2022-03-21T14:14:27.000Z</time>
      </trkpt>
      <trkpt lat="43.44802" lon="5.2399">
        <ele>84</ele>
        <time>2022-03-21T14:14:28.000Z</time>
      </trkpt>
      <trkpt lat="43.44803" lon="5.2399">
        <ele>84</ele>
        <time>2022-03-21T14:14:29.000Z</time>
      </trkpt>
      <trkpt lat="43.44805" lon="5.2399">
        <ele>84</ele>
        <time>2022-03-21T14:14:30.000Z</time>
      </trkpt>
      <trkpt lat="43.44806" lon="5.2399">
        <ele>85</ele>
        <time>2022-03-21T14:14:31.000Z</time>
      </trkpt>
      <trkpt lat="43.44808" lon="5.23989">
        <ele>85</ele>
        <time>2022-03-21T14:14:32.000Z</time>
      </trkpt>
      <trkpt lat="43.44809" lon="5.23988">
        <ele>85</ele>
        <time>2022-03-21T14:14:33.000Z</time>
      </trkpt>
      <trkpt lat="43.4481" lon="5.23988">
        <ele>85</ele>
        <time>2022-03-21T14:14:34.000Z</time>
      </trkpt>
      <trkpt lat="43.44812" lon="5.23987">
        <ele>85</ele>
        <time>2022-03-21T14:14:35.000Z</time>
      </trkpt>
      <trkpt lat="43.44813" lon="5.23986">
        <ele>85</ele>
        <time>2022-03-21T14:14:36.000Z</time>
      </trkpt>
      <trkpt lat="43.44814" lon="5.23985">
        <ele>85</ele>
        <time>2022-03-21T14:14:37.000Z</time>
      </trkpt>
      <trkpt lat="43.44816" lon="5.23984">
        <ele>85</ele>
        <time>2022-03-21T14:14:38.000Z</time>
      </trkpt>
      <trkpt lat="43.44817" lon="5.23983">
        <ele>85</ele>
        <time>2022-03-21T14:14:39.000Z</time>
      </trkpt>
      <trkpt lat="43.44818" lon="5.23982">
        <ele>85</ele>
        <time>2022-03-21T14:14:40.000Z</time>
      </trkpt>
      <trkpt lat="43.44819" lon="5.23981">
        <ele>85</ele>
        <time>2022-03-21T14:14:41.000Z</time>
      </trkpt>
      <trkpt lat="43.4482" lon="5.2398">
        <ele>85</ele>
        <time>2022-03-21T14:14:42.000Z</time>
      </trkpt>
      <trkpt lat="43.44822" lon="5.23978">
        <ele>85</ele>
        <time>2022-03-21T14:14:43.000Z</time>
      </trkpt>
      <trkpt lat="43.44823" lon="5.23977">
        <ele>85</ele>
        <time>2022-03-21T14:14:44.000Z</time>
      </trkpt>
      <trkpt lat="43.44824" lon="5.23976">
        <ele>85</ele>
        <time>2022-03-21T14:14:45.000Z</time>
      </trkpt>
      <trkpt lat="43.44825" lon="5.23975">
        <ele>86</ele>
        <time>2022-03-21T14:14:46.000Z</time>
      </trkpt>
      <trkpt lat="43.44827" lon="5.23974">
        <ele>86</ele>
        <time>2022-03-21T14:14:47.000Z</time>
      </trkpt>
      <trkpt lat="43.44832" lon="5.23972">
        <ele>86</ele>
        <time>2022-03-21T14:14:48.000Z</time>
      </trkpt>
      <trkpt lat="43.44832" lon="5.2397">
        <ele>85</ele>
        <time>2022-03-21T14:14:49.000Z</time>
      </trkpt>
      <trkpt lat="43.44832" lon="5.23969">
        <ele>85</ele>
        <time>2022-03-21T14:14:50.000Z</time>
      </trkpt>
      <trkpt lat="43.44833" lon="5.23967">
        <ele>85</ele>
        <time>2022-03-21T14:14:51.000Z</time>
      </trkpt>
      <trkpt lat="43.44834" lon="5.23966">
        <ele>85</ele>
        <time>2022-03-21T14:14:52.000Z</time>
      </trkpt>
      <trkpt lat="43.44835" lon="5.23965">
        <ele>85</ele>
        <time>2022-03-21T14:14:53.000Z</time>
      </trkpt>
      <trkpt lat="43.44836" lon="5.23963">
        <ele>85</ele>
        <time>2022-03-21T14:14:54.000Z</time>
      </trkpt>
      <trkpt lat="43.44837" lon="5.23962">
        <ele>85</ele>
        <time>2022-03-21T14:14:55.000Z</time>
      </trkpt>
      <trkpt lat="43.44839" lon="5.23961">
        <ele>85</ele>
        <time>2022-03-21T14:14:56.000Z</time>
      </trkpt>
      <trkpt lat="43.4484" lon="5.2396">
        <ele>85</ele>
        <time>2022-03-21T14:14:57.000Z</time>
      </trkpt>
      <trkpt lat="43.44841" lon="5.23959">
        <ele>85</ele>
        <time>2022-03-21T14:14:58.000Z</time>
      </trkpt>
      <trkpt lat="43.44842" lon="5.23958">
        <ele>85</ele>
        <time>2022-03-21T14:14:59.000Z</time>
      </trkpt>
      <trkpt lat="43.44843" lon="5.23956">
        <ele>85</ele>
        <time>2022-03-21T14:15:00.000Z</time>
      </trkpt>
      <trkpt lat="43.44844" lon="5.23955">
        <ele>85</ele>
        <time>2022-03-21T14:15:01.000Z</time>
      </trkpt>
      <trkpt lat="43.44845" lon="5.23954">
        <ele>85</ele>
        <time>2022-03-21T14:15:02.000Z</time>
      </trkpt>
      <trkpt lat="43.44846" lon="5.23952">
        <ele>85</ele>
        <time>2022-03-21T14:15:03.000Z</time>
      </trkpt>
      <trkpt lat="43.44848" lon="5.23951">
        <ele>85</ele>
        <time>2022-03-21T14:15:04.000Z</time>
      </trkpt>
      <trkpt lat="43.44849" lon="5.2395">
        <ele>85</ele>
        <time>2022-03-21T14:15:05.000Z</time>
      </trkpt>
      <trkpt lat="43.4485" lon="5.23948">
        <ele>85</ele>
        <time>2022-03-21T14:15:06.000Z</time>
      </trkpt>
      <trkpt lat="43.44851" lon="5.23947">
        <ele>85</ele>
        <time>2022-03-21T14:15:07.000Z</time>
      </trkpt>
      <trkpt lat="43.44852" lon="5.23946">
        <ele>85</ele>
        <time>2022-03-21T14:15:08.000Z</time>
      </trkpt>
      <trkpt lat="43.44853" lon="5.23945">
        <ele>85</ele>
        <time>2022-03-21T14:15:09.000Z</time>
      </trkpt>
      <trkpt lat="43.44855" lon="5.23943">
        <ele>85</ele>
        <time>2022-03-21T14:15:10.000Z</time>
      </trkpt>
      <trkpt lat="43.44856" lon="5.23942">
        <ele>85</ele>
        <time>2022-03-21T14:15:11.000Z</time>
      </trkpt>
      <trkpt lat="43.44857" lon="5.23941">
        <ele>85</ele>
        <time>2022-03-21T14:15:12.000Z</time>
      </trkpt>
      <trkpt lat="43.44858" lon="5.2394">
        <ele>85</ele>
        <time>2022-03-21T14:15:13.000Z</time>
      </trkpt>
      <trkpt lat="43.4486" lon="5.23939">
        <ele>86</ele>
        <time>2022-03-21T14:15:14.000Z</time>
      </trkpt>
      <trkpt lat="43.44861" lon="5.23938">
        <ele>86</ele>
        <time>2022-03-21T14:15:15.000Z</time>
      </trkpt>
      <trkpt lat="43.44862" lon="5.23936">
        <ele>86</ele>
        <time>2022-03-21T14:15:16.000Z</time>
      </trkpt>
      <trkpt lat="43.44864" lon="5.23935">
        <ele>86</ele>
        <time>2022-03-21T14:15:17.000Z</time>
      </trkpt>
      <trkpt lat="43.44865" lon="5.23934">
        <ele>86</ele>
        <time>2022-03-21T14:15:18.000Z</time>
      </trkpt>
      <trkpt lat="43.44866" lon="5.23933">
        <ele>86</ele>
        <time>2022-03-21T14:15:19.000Z</time>
      </trkpt>
      <trkpt lat="43.44867" lon="5.23932">
        <ele>86</ele>
        <time>2022-03-21T14:15:20.000Z</time>
      </trkpt>
      <trkpt lat="43.44869" lon="5.23931">
        <ele>86</ele>
        <time>2022-03-21T14:15:21.000Z</time>
      </trkpt>
      <trkpt lat="43.4487" lon="5.23929">
        <ele>86</ele>
        <time>2022-03-21T14:15:22.000Z</time>
      </trkpt>
      <trkpt lat="43.44871" lon="5.23928">
        <ele>86</ele>
        <time>2022-03-21T14:15:23.000Z</time>
      </trkpt>
      <trkpt lat="43.44873" lon="5.23927">
        <ele>86</ele>
        <time>2022-03-21T14:15:24.000Z</time>
      </trkpt>
      <trkpt lat="43.44874" lon="5.23926">
        <ele>85</ele>
        <time>2022-03-21T14:15:25.000Z</time>
      </trkpt>
      <trkpt lat="43.44875" lon="5.23924">
        <ele>85</ele>
        <time>2022-03-21T14:15:26.000Z</time>
      </trkpt>
      <trkpt lat="43.44876" lon="5.23923">
        <ele>85</ele>
        <time>2022-03-21T14:15:27.000Z</time>
      </trkpt>
      <trkpt lat="43.44878" lon="5.23922">
        <ele>85</ele>
        <time>2022-03-21T14:15:28.000Z</time>
      </trkpt>
      <trkpt lat="43.44879" lon="5.23922">
        <ele>85</ele>
        <time>2022-03-21T14:15:29.000Z</time>
      </trkpt>
      <trkpt lat="43.4488" lon="5.23921">
        <ele>85</ele>
        <time>2022-03-21T14:15:30.000Z</time>
      </trkpt>
      <trkpt lat="43.44882" lon="5.2392">
        <ele>85</ele>
        <time>2022-03-21T14:15:31.000Z</time>
      </trkpt>
      <trkpt lat="43.44883" lon="5.23919">
        <ele>86</ele>
        <time>2022-03-21T14:15:32.000Z</time>
      </trkpt>
      <trkpt lat="43.44884" lon="5.23918">
        <ele>86</ele>
        <time>2022-03-21T14:15:33.000Z</time>
      </trkpt>
      <trkpt lat="43.44885" lon="5.23917">
        <ele>86</ele>
        <time>2022-03-21T14:15:34.000Z</time>
      </trkpt>
      <trkpt lat="43.44887" lon="5.23916">
        <ele>86</ele>
        <time>2022-03-21T14:15:35.000Z</time>
      </trkpt>
      <trkpt lat="43.44888" lon="5.23915">
        <ele>86</ele>
        <time>2022-03-21T14:15:36.000Z</time>
      </trkpt>
      <trkpt lat="43.44889" lon="5.23913">
        <ele>86</ele>
        <time>2022-03-21T14:15:37.000Z</time>
      </trkpt>
      <trkpt lat="43.44891" lon="5.23912">
        <ele>86</ele>
        <time>2022-03-21T14:15:38.000Z</time>
      </trkpt>
      <trkpt lat="43.44892" lon="5.23912">
        <ele>86</ele>
        <time>2022-03-21T14:15:39.000Z</time>
      </trkpt>
      <trkpt lat="43.44893" lon="5.23911">
        <ele>86</ele>
        <time>2022-03-21T14:15:40.000Z</time>
      </trkpt>
      <trkpt lat="43.44895" lon="5.2391">
        <ele>86</ele>
        <time>2022-03-21T14:15:41.000Z</time>
      </trkpt>
      <trkpt lat="43.44896" lon="5.2391">
        <ele>86</ele>
        <time>2022-03-21T14:15:42.000Z</time>
      </trkpt>
      <trkpt lat="43.44898" lon="5.23909">
        <ele>86</ele>
        <time>2022-03-21T14:15:43.000Z</time>
      </trkpt>
      <trkpt lat="43.44899" lon="5.23909">
        <ele>86</ele>
        <time>2022-03-21T14:15:44.000Z</time>
      </trkpt>
      <trkpt lat="43.44901" lon="5.23908">
        <ele>86</ele>
        <time>2022-03-21T14:15:45.000Z</time>
      </trkpt>
      <trkpt lat="43.44902" lon="5.23908">
        <ele>86</ele>
        <time>2022-03-21T14:15:46.000Z</time>
      </trkpt>
      <trkpt lat="43.44904" lon="5.23908">
        <ele>86</ele>
        <time>2022-03-21T14:15:47.000Z</time>
      </trkpt>
      <trkpt lat="43.44905" lon="5.23907">
        <ele>86</ele>
        <time>2022-03-21T14:15:48.000Z</time>
      </trkpt>
      <trkpt lat="43.44907" lon="5.23907">
        <ele>86</ele>
        <time>2022-03-21T14:15:49.000Z</time>
      </trkpt>
      <trkpt lat="43.44908" lon="5.23907">
        <ele>86</ele>
        <time>2022-03-21T14:15:50.000Z</time>
      </trkpt>
      <trkpt lat="43.4491" lon="5.23907">
        <ele>86</ele>
        <time>2022-03-21T14:15:51.000Z</time>
      </trkpt>
      <trkpt lat="43.44911" lon="5.23907">
        <ele>86</ele>
        <time>2022-03-21T14:15:52.000Z</time>
      </trkpt>
      <trkpt lat="43.44912" lon="5.23906">
        <ele>86</ele>
        <time>2022-03-21T14:15:53.000Z</time>
      </trkpt>
      <trkpt lat="43.44914" lon="5.23906">
        <ele>87</ele>
        <time>2022-03-21T14:15:54.000Z</time>
      </trkpt>
      <trkpt lat="43.44915" lon="5.23906">
        <ele>87</ele>
        <time>2022-03-21T14:15:55.000Z</time>
      </trkpt>
      <trkpt lat="43.44916" lon="5.23906">
        <ele>87</ele>
        <time>2022-03-21T14:15:56.000Z</time>
      </trkpt>
      <trkpt lat="43.44918" lon="5.23906">
        <ele>87</ele>
        <time>2022-03-21T14:15:57.000Z</time>
      </trkpt>
      <trkpt lat="43.44919" lon="5.23907">
        <ele>86</ele>
        <time>2022-03-21T14:15:58.000Z</time>
      </trkpt>
      <trkpt lat="43.4492" lon="5.23907">
        <ele>86</ele>
        <time>2022-03-21T14:15:59.000Z</time>
      </trkpt>
      <trkpt lat="43.44922" lon="5.23906">
        <ele>86</ele>
        <time>2022-03-21T14:16:00.000Z</time>
      </trkpt>
      <trkpt lat="43.44923" lon="5.23906">
        <ele>86</ele>
        <time>2022-03-21T14:16:01.000Z</time>
      </trkpt>
      <trkpt lat="43.44925" lon="5.23906">
        <ele>86</ele>
        <time>2022-03-21T14:16:02.000Z</time>
      </trkpt>
      <trkpt lat="43.44926" lon="5.23905">
        <ele>86</ele>
        <time>2022-03-21T14:16:03.000Z</time>
      </trkpt>
      <trkpt lat="43.44927" lon="5.23905">
        <ele>86</ele>
        <time>2022-03-21T14:16:04.000Z</time>
      </trkpt>
      <trkpt lat="43.44929" lon="5.23904">
        <ele>86</ele>
        <time>2022-03-21T14:16:05.000Z</time>
      </trkpt>
      <trkpt lat="43.4493" lon="5.23904">
        <ele>86</ele>
        <time>2022-03-21T14:16:06.000Z</time>
      </trkpt>
      <trkpt lat="43.44931" lon="5.23904">
        <ele>86</ele>
        <time>2022-03-21T14:16:07.000Z</time>
      </trkpt>
      <trkpt lat="43.44933" lon="5.23904">
        <ele>86</ele>
        <time>2022-03-21T14:16:08.000Z</time>
      </trkpt>
      <trkpt lat="43.44934" lon="5.23904">
        <ele>86</ele>
        <time>2022-03-21T14:16:09.000Z</time>
      </trkpt>
      <trkpt lat="43.44936" lon="5.23904">
        <ele>86</ele>
        <time>2022-03-21T14:16:10.000Z</time>
      </trkpt>
      <trkpt lat="43.44937" lon="5.23903">
        <ele>86</ele>
        <time>2022-03-21T14:16:11.000Z</time>
      </trkpt>
      <trkpt lat="43.44939" lon="5.23902">
        <ele>86</ele>
        <time>2022-03-21T14:16:12.000Z</time>
      </trkpt>
      <trkpt lat="43.4494" lon="5.23902">
        <ele>86</ele>
        <time>2022-03-21T14:16:13.000Z</time>
      </trkpt>
      <trkpt lat="43.44941" lon="5.23902">
        <ele>86</ele>
        <time>2022-03-21T14:16:14.000Z</time>
      </trkpt>
      <trkpt lat="43.44943" lon="5.23901">
        <ele>86</ele>
        <time>2022-03-21T14:16:15.000Z</time>
      </trkpt>
      <trkpt lat="43.44944" lon="5.23901">
        <ele>86</ele>
        <time>2022-03-21T14:16:16.000Z</time>
      </trkpt>
      <trkpt lat="43.44945" lon="5.239">
        <ele>86</ele>
        <time>2022-03-21T14:16:17.000Z</time>
      </trkpt>
      <trkpt lat="43.44947" lon="5.239">
        <ele>86</ele>
        <time>2022-03-21T14:16:18.000Z</time>
      </trkpt>
      <trkpt lat="43.44948" lon="5.239">
        <ele>86</ele>
        <time>2022-03-21T14:16:19.000Z</time>
      </trkpt>
      <trkpt lat="43.4495" lon="5.239">
        <ele>86</ele>
        <time>2022-03-21T14:16:20.000Z</time>
      </trkpt>
      <trkpt lat="43.44951" lon="5.239">
        <ele>86</ele>
        <time>2022-03-21T14:16:21.000Z</time>
      </trkpt>
      <trkpt lat="43.44953" lon="5.239">
        <ele>86</ele>
        <time>2022-03-21T14:16:22.000Z</time>
      </trkpt>
      <trkpt lat="43.44955" lon="5.239">
        <ele>86</ele>
        <time>2022-03-21T14:16:23.000Z</time>
      </trkpt>
      <trkpt lat="43.44956" lon="5.239">
        <ele>86</ele>
        <time>2022-03-21T14:16:24.000Z</time>
      </trkpt>
      <trkpt lat="43.44958" lon="5.239">
        <ele>86</ele>
        <time>2022-03-21T14:16:25.000Z</time>
      </trkpt>
      <trkpt lat="43.44959" lon="5.239">
        <ele>86</ele>
        <time>2022-03-21T14:16:26.000Z</time>
      </trkpt>
      <trkpt lat="43.44961" lon="5.239">
        <ele>86</ele>
        <time>2022-03-21T14:16:27.000Z</time>
      </trkpt>
      <trkpt lat="43.44962" lon="5.23899">
        <ele>86</ele>
        <time>2022-03-21T14:16:28.000Z</time>
      </trkpt>
      <trkpt lat="43.44964" lon="5.23899">
        <ele>86</ele>
        <time>2022-03-21T14:16:29.000Z</time>
      </trkpt>
      <trkpt lat="43.44965" lon="5.23899">
        <ele>86</ele>
        <time>2022-03-21T14:16:30.000Z</time>
      </trkpt>
      <trkpt lat="43.44967" lon="5.23898">
        <ele>86</ele>
        <time>2022-03-21T14:16:31.000Z</time>
      </trkpt>
      <trkpt lat="43.44968" lon="5.23898">
        <ele>86</ele>
        <time>2022-03-21T14:16:32.000Z</time>
      </trkpt>
      <trkpt lat="43.44969" lon="5.23897">
        <ele>86</ele>
        <time>2022-03-21T14:16:33.000Z</time>
      </trkpt>
      <trkpt lat="43.44971" lon="5.23896">
        <ele>86</ele>
        <time>2022-03-21T14:16:34.000Z</time>
      </trkpt>
      <trkpt lat="43.44972" lon="5.23896">
        <ele>86</ele>
        <time>2022-03-21T14:16:35.000Z</time>
      </trkpt>
      <trkpt lat="43.44974" lon="5.23896">
        <ele>86</ele>
        <time>2022-03-21T14:16:36.000Z</time>
      </trkpt>
      <trkpt lat="43.44975" lon="5.23895">
        <ele>86</ele>
        <time>2022-03-21T14:16:37.000Z</time>
      </trkpt>
      <trkpt lat="43.44977" lon="5.23894">
        <ele>86</ele>
        <time>2022-03-21T14:16:38.000Z</time>
      </trkpt>
      <trkpt lat="43.44978" lon="5.23893">
        <ele>85</ele>
        <time>2022-03-21T14:16:39.000Z</time>
      </trkpt>
      <trkpt lat="43.44979" lon="5.23892">
        <ele>85</ele>
        <time>2022-03-21T14:16:40.000Z</time>
      </trkpt>
      <trkpt lat="43.44981" lon="5.23891">
        <ele>85</ele>
        <time>2022-03-21T14:16:41.000Z</time>
      </trkpt>
      <trkpt lat="43.44982" lon="5.2389">
        <ele>85</ele>
        <time>2022-03-21T14:16:42.000Z</time>
      </trkpt>
      <trkpt lat="43.44983" lon="5.23888">
        <ele>85</ele>
        <time>2022-03-21T14:16:43.000Z</time>
      </trkpt>
      <trkpt lat="43.44984" lon="5.23887">
        <ele>85</ele>
        <time>2022-03-21T14:16:44.000Z</time>
      </trkpt>
      <trkpt lat="43.44986" lon="5.23886">
        <ele>86</ele>
        <time>2022-03-21T14:16:45.000Z</time>
      </trkpt>
      <trkpt lat="43.44987" lon="5.23885">
        <ele>86</ele>
        <time>2022-03-21T14:16:46.000Z</time>
      </trkpt>
      <trkpt lat="43.44988" lon="5.23884">
        <ele>86</ele>
        <time>2022-03-21T14:16:47.000Z</time>
      </trkpt>
      <trkpt lat="43.44989" lon="5.23882">
        <ele>86</ele>
        <time>2022-03-21T14:16:48.000Z</time>
      </trkpt>
      <trkpt lat="43.4499" lon="5.2388">
        <ele>86</ele>
        <time>2022-03-21T14:16:49.000Z</time>
      </trkpt>
      <trkpt lat="43.44991" lon="5.23879">
        <ele>86</ele>
        <time>2022-03-21T14:16:50.000Z</time>
      </trkpt>
      <trkpt lat="43.44993" lon="5.23878">
        <ele>86</ele>
        <time>2022-03-21T14:16:51.000Z</time>
      </trkpt>
      <trkpt lat="43.44994" lon="5.23877">
        <ele>86</ele>
        <time>2022-03-21T14:16:52.000Z</time>
      </trkpt>
      <trkpt lat="43.44995" lon="5.23875">
        <ele>86</ele>
        <time>2022-03-21T14:16:53.000Z</time>
      </trkpt>
      <trkpt lat="43.44996" lon="5.23874">
        <ele>86</ele>
        <time>2022-03-21T14:16:54.000Z</time>
      </trkpt>
      <trkpt lat="43.44997" lon="5.23873">
        <ele>86</ele>
        <time>2022-03-21T14:16:55.000Z</time>
      </trkpt>
      <trkpt lat="43.44998" lon="5.23872">
        <ele>86</ele>
        <time>2022-03-21T14:16:56.000Z</time>
      </trkpt>
      <trkpt lat="43.45" lon="5.2387">
        <ele>86</ele>
        <time>2022-03-21T14:16:57.000Z</time>
      </trkpt>
      <trkpt lat="43.45001" lon="5.23869">
        <ele>86</ele>
        <time>2022-03-21T14:16:58.000Z</time>
      </trkpt>
      <trkpt lat="43.45002" lon="5.23868">
        <ele>86</ele>
        <time>2022-03-21T14:16:59.000Z</time>
      </trkpt>
      <trkpt lat="43.45004" lon="5.23868">
        <ele>86</ele>
        <time>2022-03-21T14:17:00.000Z</time>
      </trkpt>
      <trkpt lat="43.45005" lon="5.23868">
        <ele>86</ele>
        <time>2022-03-21T14:17:01.000Z</time>
      </trkpt>
      <trkpt lat="43.45006" lon="5.23868">
        <ele>86</ele>
        <time>2022-03-21T14:17:02.000Z</time>
      </trkpt>
      <trkpt lat="43.45007" lon="5.23868">
        <ele>86</ele>
        <time>2022-03-21T14:17:03.000Z</time>
      </trkpt>
      <trkpt lat="43.45008" lon="5.23868">
        <ele>86</ele>
        <time>2022-03-21T14:17:04.000Z</time>
      </trkpt>
      <trkpt lat="43.4501" lon="5.23868">
        <ele>86</ele>
        <time>2022-03-21T14:17:05.000Z</time>
      </trkpt>
      <trkpt lat="43.45011" lon="5.23868">
        <ele>86</ele>
        <time>2022-03-21T14:17:06.000Z</time>
      </trkpt>
      <trkpt lat="43.45012" lon="5.23868">
        <ele>86</ele>
        <time>2022-03-21T14:17:07.000Z</time>
      </trkpt>
      <trkpt lat="43.45014" lon="5.23868">
        <ele>86</ele>
        <time>2022-03-21T14:17:08.000Z</time>
      </trkpt>
      <trkpt lat="43.45015" lon="5.23868">
        <ele>86</ele>
        <time>2022-03-21T14:17:09.000Z</time>
      </trkpt>
      <trkpt lat="43.45017" lon="5.23869">
        <ele>86</ele>
        <time>2022-03-21T14:17:10.000Z</time>
      </trkpt>
      <trkpt lat="43.45018" lon="5.2387">
        <ele>86</ele>
        <time>2022-03-21T14:17:11.000Z</time>
      </trkpt>
      <trkpt lat="43.45019" lon="5.23871">
        <ele>86</ele>
        <time>2022-03-21T14:17:12.000Z</time>
      </trkpt>
      <trkpt lat="43.45021" lon="5.23872">
        <ele>85</ele>
        <time>2022-03-21T14:17:13.000Z</time>
      </trkpt>
      <trkpt lat="43.45022" lon="5.23874">
        <ele>85</ele>
        <time>2022-03-21T14:17:14.000Z</time>
      </trkpt>
      <trkpt lat="43.45022" lon="5.23876">
        <ele>85</ele>
        <time>2022-03-21T14:17:15.000Z</time>
      </trkpt>
      <trkpt lat="43.45023" lon="5.23878">
        <ele>85</ele>
        <time>2022-03-21T14:17:16.000Z</time>
      </trkpt>
      <trkpt lat="43.45024" lon="5.2388">
        <ele>85</ele>
        <time>2022-03-21T14:17:17.000Z</time>
      </trkpt>
      <trkpt lat="43.45024" lon="5.23882">
        <ele>85</ele>
        <time>2022-03-21T14:17:18.000Z</time>
      </trkpt>
      <trkpt lat="43.45025" lon="5.23884">
        <ele>85</ele>
        <time>2022-03-21T14:17:19.000Z</time>
      </trkpt>
      <trkpt lat="43.45026" lon="5.23886">
        <ele>85</ele>
        <time>2022-03-21T14:17:20.000Z</time>
      </trkpt>
      <trkpt lat="43.45026" lon="5.23888">
        <ele>85</ele>
        <time>2022-03-21T14:17:21.000Z</time>
      </trkpt>
      <trkpt lat="43.45027" lon="5.2389">
        <ele>85</ele>
        <time>2022-03-21T14:17:22.000Z</time>
      </trkpt>
      <trkpt lat="43.45028" lon="5.23891">
        <ele>85</ele>
        <time>2022-03-21T14:17:23.000Z</time>
      </trkpt>
      <trkpt lat="43.45028" lon="5.23893">
        <ele>85</ele>
        <time>2022-03-21T14:17:24.000Z</time>
      </trkpt>
      <trkpt lat="43.45029" lon="5.23895">
        <ele>85</ele>
        <time>2022-03-21T14:17:25.000Z</time>
      </trkpt>
      <trkpt lat="43.4503" lon="5.23897">
        <ele>85</ele>
        <time>2022-03-21T14:17:26.000Z</time>
      </trkpt>
      <trkpt lat="43.45031" lon="5.23899">
        <ele>85</ele>
        <time>2022-03-21T14:17:27.000Z</time>
      </trkpt>
      <trkpt lat="43.45031" lon="5.239">
        <ele>85</ele>
        <time>2022-03-21T14:17:28.000Z</time>
      </trkpt>
      <trkpt lat="43.45032" lon="5.23902">
        <ele>85</ele>
        <time>2022-03-21T14:17:29.000Z</time>
      </trkpt>
      <trkpt lat="43.45032" lon="5.23904">
        <ele>85</ele>
        <time>2022-03-21T14:17:30.000Z</time>
      </trkpt>
      <trkpt lat="43.45033" lon="5.23906">
        <ele>85</ele>
        <time>2022-03-21T14:17:31.000Z</time>
      </trkpt>
      <trkpt lat="43.45034" lon="5.23908">
        <ele>85</ele>
        <time>2022-03-21T14:17:32.000Z</time>
      </trkpt>
      <trkpt lat="43.45034" lon="5.2391">
        <ele>86</ele>
        <time>2022-03-21T14:17:33.000Z</time>
      </trkpt>
      <trkpt lat="43.45035" lon="5.23911">
        <ele>86</ele>
        <time>2022-03-21T14:17:34.000Z</time>
      </trkpt>
      <trkpt lat="43.45036" lon="5.23913">
        <ele>86</ele>
        <time>2022-03-21T14:17:35.000Z</time>
      </trkpt>
      <trkpt lat="43.45036" lon="5.23915">
        <ele>86</ele>
        <time>2022-03-21T14:17:36.000Z</time>
      </trkpt>
      <trkpt lat="43.45037" lon="5.23917">
        <ele>86</ele>
        <time>2022-03-21T14:17:37.000Z</time>
      </trkpt>
      <trkpt lat="43.45038" lon="5.23919">
        <ele>86</ele>
        <time>2022-03-21T14:17:38.000Z</time>
      </trkpt>
      <trkpt lat="43.45038" lon="5.23921">
        <ele>86</ele>
        <time>2022-03-21T14:17:39.000Z</time>
      </trkpt>
      <trkpt lat="43.45039" lon="5.23922">
        <ele>86</ele>
        <time>2022-03-21T14:17:40.000Z</time>
      </trkpt>
      <trkpt lat="43.45039" lon="5.23924">
        <ele>86</ele>
        <time>2022-03-21T14:17:41.000Z</time>
      </trkpt>
      <trkpt lat="43.4504" lon="5.23926">
        <ele>86</ele>
        <time>2022-03-21T14:17:42.000Z</time>
      </trkpt>
      <trkpt lat="43.4504" lon="5.23928">
        <ele>86</ele>
        <time>2022-03-21T14:17:43.000Z</time>
      </trkpt>
      <trkpt lat="43.45041" lon="5.23929">
        <ele>86</ele>
        <time>2022-03-21T14:17:44.000Z</time>
      </trkpt>
      <trkpt lat="43.45042" lon="5.23931">
        <ele>86</ele>
        <time>2022-03-21T14:17:45.000Z</time>
      </trkpt>
      <trkpt lat="43.45042" lon="5.23933">
        <ele>86</ele>
        <time>2022-03-21T14:17:46.000Z</time>
      </trkpt>
      <trkpt lat="43.45043" lon="5.23934">
        <ele>86</ele>
        <time>2022-03-21T14:17:47.000Z</time>
      </trkpt>
      <trkpt lat="43.45044" lon="5.23936">
        <ele>86</ele>
        <time>2022-03-21T14:17:48.000Z</time>
      </trkpt>
      <trkpt lat="43.45045" lon="5.23938">
        <ele>86</ele>
        <time>2022-03-21T14:17:49.000Z</time>
      </trkpt>
      <trkpt lat="43.45045" lon="5.23939">
        <ele>86</ele>
        <time>2022-03-21T14:17:50.000Z</time>
      </trkpt>
      <trkpt lat="43.45046" lon="5.23941">
        <ele>86</ele>
        <time>2022-03-21T14:17:51.000Z</time>
      </trkpt>
      <trkpt lat="43.45047" lon="5.23943">
        <ele>87</ele>
        <time>2022-03-21T14:17:52.000Z</time>
      </trkpt>
      <trkpt lat="43.45047" lon="5.23944">
        <ele>87</ele>
        <time>2022-03-21T14:17:53.000Z</time>
      </trkpt>
      <trkpt lat="43.45047" lon="5.23946">
        <ele>87</ele>
        <time>2022-03-21T14:17:54.000Z</time>
      </trkpt>
      <trkpt lat="43.45047" lon="5.23947">
        <ele>87</ele>
        <time>2022-03-21T14:17:55.000Z</time>
      </trkpt>
      <trkpt lat="43.45046" lon="5.23948">
        <ele>87</ele>
        <time>2022-03-21T14:17:56.000Z</time>
      </trkpt>
      <trkpt lat="43.45044" lon="5.23949">
        <ele>87</ele>
        <time>2022-03-21T14:17:57.000Z</time>
      </trkpt>
      <trkpt lat="43.45042" lon="5.2395">
        <ele>88</ele>
        <time>2022-03-21T14:17:58.000Z</time>
      </trkpt>
      <trkpt lat="43.45041" lon="5.23951">
        <ele>88</ele>
        <time>2022-03-21T14:17:59.000Z</time>
      </trkpt>
      <trkpt lat="43.45039" lon="5.23952">
        <ele>88</ele>
        <time>2022-03-21T14:18:00.000Z</time>
      </trkpt>
      <trkpt lat="43.45038" lon="5.23953">
        <ele>88</ele>
        <time>2022-03-21T14:18:01.000Z</time>
      </trkpt>
      <trkpt lat="43.45036" lon="5.23953">
        <ele>88</ele>
        <time>2022-03-21T14:18:02.000Z</time>
      </trkpt>
      <trkpt lat="43.45035" lon="5.23954">
        <ele>88</ele>
        <time>2022-03-21T14:18:03.000Z</time>
      </trkpt>
      <trkpt lat="43.45034" lon="5.23955">
        <ele>88</ele>
        <time>2022-03-21T14:18:04.000Z</time>
      </trkpt>
      <trkpt lat="43.45032" lon="5.23955">
        <ele>88</ele>
        <time>2022-03-21T14:18:05.000Z</time>
      </trkpt>
      <trkpt lat="43.45031" lon="5.23956">
        <ele>88</ele>
        <time>2022-03-21T14:18:06.000Z</time>
      </trkpt>
      <trkpt lat="43.4503" lon="5.23957">
        <ele>88</ele>
        <time>2022-03-21T14:18:07.000Z</time>
      </trkpt>
      <trkpt lat="43.45028" lon="5.23957">
        <ele>88</ele>
        <time>2022-03-21T14:18:08.000Z</time>
      </trkpt>
      <trkpt lat="43.45027" lon="5.23958">
        <ele>88</ele>
        <time>2022-03-21T14:18:09.000Z</time>
      </trkpt>
      <trkpt lat="43.45026" lon="5.23959">
        <ele>88</ele>
        <time>2022-03-21T14:18:10.000Z</time>
      </trkpt>
      <trkpt lat="43.45024" lon="5.2396">
        <ele>88</ele>
        <time>2022-03-21T14:18:11.000Z</time>
      </trkpt>
      <trkpt lat="43.45022" lon="5.23961">
        <ele>88</ele>
        <time>2022-03-21T14:18:12.000Z</time>
      </trkpt>
      <trkpt lat="43.45021" lon="5.23962">
        <ele>88</ele>
        <time>2022-03-21T14:18:13.000Z</time>
      </trkpt>
      <trkpt lat="43.45019" lon="5.23963">
        <ele>88</ele>
        <time>2022-03-21T14:18:14.000Z</time>
      </trkpt>
      <trkpt lat="43.45018" lon="5.23964">
        <ele>88</ele>
        <time>2022-03-21T14:18:15.000Z</time>
      </trkpt>
      <trkpt lat="43.45017" lon="5.23964">
        <ele>88</ele>
        <time>2022-03-21T14:18:16.000Z</time>
      </trkpt>
      <trkpt lat="43.45015" lon="5.23965">
        <ele>88</ele>
        <time>2022-03-21T14:18:17.000Z</time>
      </trkpt>
      <trkpt lat="43.45014" lon="5.23966">
        <ele>88</ele>
        <time>2022-03-21T14:18:18.000Z</time>
      </trkpt>
      <trkpt lat="43.45013" lon="5.23967">
        <ele>88</ele>
        <time>2022-03-21T14:18:19.000Z</time>
      </trkpt>
      <trkpt lat="43.45011" lon="5.23968">
        <ele>87</ele>
        <time>2022-03-21T14:18:20.000Z</time>
      </trkpt>
      <trkpt lat="43.4501" lon="5.23969">
        <ele>87</ele>
        <time>2022-03-21T14:18:21.000Z</time>
      </trkpt>
      <trkpt lat="43.45009" lon="5.2397">
        <ele>87</ele>
        <time>2022-03-21T14:18:22.000Z</time>
      </trkpt>
      <trkpt lat="43.45008" lon="5.23971">
        <ele>87</ele>
        <time>2022-03-21T14:18:23.000Z</time>
      </trkpt>
      <trkpt lat="43.45006" lon="5.23972">
        <ele>87</ele>
        <time>2022-03-21T14:18:24.000Z</time>
      </trkpt>
      <trkpt lat="43.45005" lon="5.23973">
        <ele>87</ele>
        <time>2022-03-21T14:18:25.000Z</time>
      </trkpt>
      <trkpt lat="43.45004" lon="5.23974">
        <ele>87</ele>
        <time>2022-03-21T14:18:26.000Z</time>
      </trkpt>
      <trkpt lat="43.45002" lon="5.23974">
        <ele>87</ele>
        <time>2022-03-21T14:18:27.000Z</time>
      </trkpt>
      <trkpt lat="43.45001" lon="5.23975">
        <ele>87</ele>
        <time>2022-03-21T14:18:28.000Z</time>
      </trkpt>
      <trkpt lat="43.45" lon="5.23976">
        <ele>87</ele>
        <time>2022-03-21T14:18:29.000Z</time>
      </trkpt>
      <trkpt lat="43.44999" lon="5.23977">
        <ele>87</ele>
        <time>2022-03-21T14:18:30.000Z</time>
      </trkpt>
      <trkpt lat="43.44997" lon="5.23978">
        <ele>87</ele>
        <time>2022-03-21T14:18:31.000Z</time>
      </trkpt>
      <trkpt lat="43.44996" lon="5.2398">
        <ele>88</ele>
        <time>2022-03-21T14:18:32.000Z</time>
      </trkpt>
      <trkpt lat="43.44995" lon="5.23981">
        <ele>88</ele>
        <time>2022-03-21T14:18:33.000Z</time>
      </trkpt>
      <trkpt lat="43.44994" lon="5.23982">
        <ele>88</ele>
        <time>2022-03-21T14:18:34.000Z</time>
      </trkpt>
      <trkpt lat="43.44992" lon="5.23983">
        <ele>88</ele>
        <time>2022-03-21T14:18:35.000Z</time>
      </trkpt>
      <trkpt lat="43.44991" lon="5.23984">
        <ele>88</ele>
        <time>2022-03-21T14:18:36.000Z</time>
      </trkpt>
      <trkpt lat="43.4499" lon="5.23985">
        <ele>88</ele>
        <time>2022-03-21T14:18:37.000Z</time>
      </trkpt>
      <trkpt lat="43.44988" lon="5.23986">
        <ele>88</ele>
        <time>2022-03-21T14:18:38.000Z</time>
      </trkpt>
      <trkpt lat="43.44987" lon="5.23987">
        <ele>88</ele>
        <time>2022-03-21T14:18:39.000Z</time>
      </trkpt>
      <trkpt lat="43.44986" lon="5.23988">
        <ele>88</ele>
        <time>2022-03-21T14:18:40.000Z</time>
      </trkpt>
      <trkpt lat="43.44985" lon="5.23988">
        <ele>88</ele>
        <time>2022-03-21T14:18:41.000Z</time>
      </trkpt>
      <trkpt lat="43.44983" lon="5.2399">
        <ele>88</ele>
        <time>2022-03-21T14:18:42.000Z</time>
      </trkpt>
      <trkpt lat="43.44982" lon="5.2399">
        <ele>88</ele>
        <time>2022-03-21T14:18:43.000Z</time>
      </trkpt>
      <trkpt lat="43.44981" lon="5.23991">
        <ele>88</ele>
        <time>2022-03-21T14:18:44.000Z</time>
      </trkpt>
      <trkpt lat="43.44979" lon="5.23992">
        <ele>88</ele>
        <time>2022-03-21T14:18:45.000Z</time>
      </trkpt>
      <trkpt lat="43.44978" lon="5.23993">
        <ele>88</ele>
        <time>2022-03-21T14:18:46.000Z</time>
      </trkpt>
      <trkpt lat="43.44977" lon="5.23994">
        <ele>88</ele>
        <time>2022-03-21T14:18:47.000Z</time>
      </trkpt>
      <trkpt lat="43.44976" lon="5.23995">
        <ele>88</ele>
        <time>2022-03-21T14:18:48.000Z</time>
      </trkpt>
      <trkpt lat="43.44975" lon="5.23996">
        <ele>88</ele>
        <time>2022-03-21T14:18:49.000Z</time>
      </trkpt>
      <trkpt lat="43.44973" lon="5.23997">
        <ele>88</ele>
        <time>2022-03-21T14:18:50.000Z</time>
      </trkpt>
      <trkpt lat="43.44972" lon="5.23998">
        <ele>88</ele>
        <time>2022-03-21T14:18:51.000Z</time>
      </trkpt>
      <trkpt lat="43.44971" lon="5.23999">
        <ele>88</ele>
        <time>2022-03-21T14:18:52.000Z</time>
      </trkpt>
      <trkpt lat="43.44969" lon="5.24">
        <ele>88</ele>
        <time>2022-03-21T14:18:53.000Z</time>
      </trkpt>
      <trkpt lat="43.44968" lon="5.24001">
        <ele>88</ele>
        <time>2022-03-21T14:18:54.000Z</time>
      </trkpt>
      <trkpt lat="43.44967" lon="5.24002">
        <ele>88</ele>
        <time>2022-03-21T14:18:55.000Z</time>
      </trkpt>
      <trkpt lat="43.44965" lon="5.24003">
        <ele>88</ele>
        <time>2022-03-21T14:18:56.000Z</time>
      </trkpt>
      <trkpt lat="43.44964" lon="5.24004">
        <ele>88</ele>
        <time>2022-03-21T14:18:57.000Z</time>
      </trkpt>
      <trkpt lat="43.44963" lon="5.24005">
        <ele>89</ele>
        <time>2022-03-21T14:18:58.000Z</time>
      </trkpt>
      <trkpt lat="43.44961" lon="5.24006">
        <ele>89</ele>
        <time>2022-03-21T14:18:59.000Z</time>
      </trkpt>
      <trkpt lat="43.4496" lon="5.24007">
        <ele>89</ele>
        <time>2022-03-21T14:19:00.000Z</time>
      </trkpt>
      <trkpt lat="43.44958" lon="5.24008">
        <ele>89</ele>
        <time>2022-03-21T14:19:01.000Z</time>
      </trkpt>
      <trkpt lat="43.44957" lon="5.24009">
        <ele>89</ele>
        <time>2022-03-21T14:19:02.000Z</time>
      </trkpt>
      <trkpt lat="43.44955" lon="5.2401">
        <ele>89</ele>
        <time>2022-03-21T14:19:03.000Z</time>
      </trkpt>
      <trkpt lat="43.44954" lon="5.24011">
        <ele>89</ele>
        <time>2022-03-21T14:19:04.000Z</time>
      </trkpt>
      <trkpt lat="43.44953" lon="5.24013">
        <ele>89</ele>
        <time>2022-03-21T14:19:05.000Z</time>
      </trkpt>
      <trkpt lat="43.44951" lon="5.24014">
        <ele>89</ele>
        <time>2022-03-21T14:19:06.000Z</time>
      </trkpt>
      <trkpt lat="43.4495" lon="5.24015">
        <ele>89</ele>
        <time>2022-03-21T14:19:07.000Z</time>
      </trkpt>
      <trkpt lat="43.44948" lon="5.24016">
        <ele>89</ele>
        <time>2022-03-21T14:19:08.000Z</time>
      </trkpt>
      <trkpt lat="43.44947" lon="5.24017">
        <ele>89</ele>
        <time>2022-03-21T14:19:09.000Z</time>
      </trkpt>
      <trkpt lat="43.44946" lon="5.24018">
        <ele>89</ele>
        <time>2022-03-21T14:19:10.000Z</time>
      </trkpt>
      <trkpt lat="43.44944" lon="5.24019">
        <ele>89</ele>
        <time>2022-03-21T14:19:11.000Z</time>
      </trkpt>
      <trkpt lat="43.44943" lon="5.2402">
        <ele>89</ele>
        <time>2022-03-21T14:19:12.000Z</time>
      </trkpt>
      <trkpt lat="43.44942" lon="5.24021">
        <ele>89</ele>
        <time>2022-03-21T14:19:13.000Z</time>
      </trkpt>
      <trkpt lat="43.4494" lon="5.24022">
        <ele>89</ele>
        <time>2022-03-21T14:19:14.000Z</time>
      </trkpt>
      <trkpt lat="43.44939" lon="5.24023">
        <ele>89</ele>
        <time>2022-03-21T14:19:15.000Z</time>
      </trkpt>
      <trkpt lat="43.44938" lon="5.24024">
        <ele>89</ele>
        <time>2022-03-21T14:19:16.000Z</time>
      </trkpt>
      <trkpt lat="43.44936" lon="5.24025">
        <ele>89</ele>
        <time>2022-03-21T14:19:17.000Z</time>
      </trkpt>
      <trkpt lat="43.44935" lon="5.24026">
        <ele>89</ele>
        <time>2022-03-21T14:19:18.000Z</time>
      </trkpt>
      <trkpt lat="43.44934" lon="5.24028">
        <ele>89</ele>
        <time>2022-03-21T14:19:19.000Z</time>
      </trkpt>
      <trkpt lat="43.44932" lon="5.24029">
        <ele>89</ele>
        <time>2022-03-21T14:19:20.000Z</time>
      </trkpt>
      <trkpt lat="43.44931" lon="5.2403">
        <ele>89</ele>
        <time>2022-03-21T14:19:21.000Z</time>
      </trkpt>
      <trkpt lat="43.44929" lon="5.24031">
        <ele>89</ele>
        <time>2022-03-21T14:19:22.000Z</time>
      </trkpt>
      <trkpt lat="43.44928" lon="5.24032">
        <ele>89</ele>
        <time>2022-03-21T14:19:23.000Z</time>
      </trkpt>
      <trkpt lat="43.44927" lon="5.24034">
        <ele>89</ele>
        <time>2022-03-21T14:19:24.000Z</time>
      </trkpt>
      <trkpt lat="43.44925" lon="5.24035">
        <ele>89</ele>
        <time>2022-03-21T14:19:25.000Z</time>
      </trkpt>
      <trkpt lat="43.44924" lon="5.24036">
        <ele>89</ele>
        <time>2022-03-21T14:19:26.000Z</time>
      </trkpt>
      <trkpt lat="43.44923" lon="5.24037">
        <ele>89</ele>
        <time>2022-03-21T14:19:27.000Z</time>
      </trkpt>
      <trkpt lat="43.44922" lon="5.24038">
        <ele>89</ele>
        <time>2022-03-21T14:19:28.000Z</time>
      </trkpt>
      <trkpt lat="43.4492" lon="5.24039">
        <ele>89</ele>
        <time>2022-03-21T14:19:29.000Z</time>
      </trkpt>
      <trkpt lat="43.44919" lon="5.24039">
        <ele>88</ele>
        <time>2022-03-21T14:19:30.000Z</time>
      </trkpt>
      <trkpt lat="43.44918" lon="5.2404">
        <ele>88</ele>
        <time>2022-03-21T14:19:31.000Z</time>
      </trkpt>
      <trkpt lat="43.44916" lon="5.24041">
        <ele>88</ele>
        <time>2022-03-21T14:19:32.000Z</time>
      </trkpt>
      <trkpt lat="43.44915" lon="5.24042">
        <ele>88</ele>
        <time>2022-03-21T14:19:33.000Z</time>
      </trkpt>
      <trkpt lat="43.44914" lon="5.24044">
        <ele>88</ele>
        <time>2022-03-21T14:19:34.000Z</time>
      </trkpt>
      <trkpt lat="43.44914" lon="5.24046">
        <ele>88</ele>
        <time>2022-03-21T14:19:35.000Z</time>
      </trkpt>
      <trkpt lat="43.44913" lon="5.24048">
        <ele>88</ele>
        <time>2022-03-21T14:19:36.000Z</time>
      </trkpt>
      <trkpt lat="43.44912" lon="5.24049">
        <ele>88</ele>
        <time>2022-03-21T14:19:37.000Z</time>
      </trkpt>
      <trkpt lat="43.44911" lon="5.24051">
        <ele>88</ele>
        <time>2022-03-21T14:19:38.000Z</time>
      </trkpt>
      <trkpt lat="43.4491" lon="5.24053">
        <ele>88</ele>
        <time>2022-03-21T14:19:39.000Z</time>
      </trkpt>
      <trkpt lat="43.44909" lon="5.24054">
        <ele>88</ele>
        <time>2022-03-21T14:19:40.000Z</time>
      </trkpt>
      <trkpt lat="43.44908" lon="5.24055">
        <ele>88</ele>
        <time>2022-03-21T14:19:41.000Z</time>
      </trkpt>
      <trkpt lat="43.44907" lon="5.24057">
        <ele>88</ele>
        <time>2022-03-21T14:19:42.000Z</time>
      </trkpt>
      <trkpt lat="43.44906" lon="5.24058">
        <ele>88</ele>
        <time>2022-03-21T14:19:43.000Z</time>
      </trkpt>
      <trkpt lat="43.44905" lon="5.24059">
        <ele>88</ele>
        <time>2022-03-21T14:19:44.000Z</time>
      </trkpt>
      <trkpt lat="43.44904" lon="5.2406">
        <ele>88</ele>
        <time>2022-03-21T14:19:45.000Z</time>
      </trkpt>
      <trkpt lat="43.44902" lon="5.24062">
        <ele>88</ele>
        <time>2022-03-21T14:19:46.000Z</time>
      </trkpt>
      <trkpt lat="43.44901" lon="5.24063">
        <ele>87</ele>
        <time>2022-03-21T14:19:47.000Z</time>
      </trkpt>
      <trkpt lat="43.449" lon="5.24064">
        <ele>87</ele>
        <time>2022-03-21T14:19:48.000Z</time>
      </trkpt>
      <trkpt lat="43.44899" lon="5.24065">
        <ele>87</ele>
        <time>2022-03-21T14:19:49.000Z</time>
      </trkpt>
      <trkpt lat="43.44898" lon="5.24066">
        <ele>87</ele>
        <time>2022-03-21T14:19:50.000Z</time>
      </trkpt>
      <trkpt lat="43.44896" lon="5.24067">
        <ele>87</ele>
        <time>2022-03-21T14:19:51.000Z</time>
      </trkpt>
      <trkpt lat="43.44895" lon="5.24069">
        <ele>87</ele>
        <time>2022-03-21T14:19:52.000Z</time>
      </trkpt>
      <trkpt lat="43.44894" lon="5.2407">
        <ele>87</ele>
        <time>2022-03-21T14:19:53.000Z</time>
      </trkpt>
      <trkpt lat="43.44893" lon="5.24072">
        <ele>87</ele>
        <time>2022-03-21T14:19:54.000Z</time>
      </trkpt>
      <trkpt lat="43.44891" lon="5.24073">
        <ele>87</ele>
        <time>2022-03-21T14:19:55.000Z</time>
      </trkpt>
      <trkpt lat="43.4489" lon="5.24074">
        <ele>86</ele>
        <time>2022-03-21T14:19:56.000Z</time>
      </trkpt>
      <trkpt lat="43.44889" lon="5.24075">
        <ele>86</ele>
        <time>2022-03-21T14:19:57.000Z</time>
      </trkpt>
      <trkpt lat="43.44888" lon="5.24076">
        <ele>86</ele>
        <time>2022-03-21T14:19:58.000Z</time>
      </trkpt>
      <trkpt lat="43.44886" lon="5.24077">
        <ele>86</ele>
        <time>2022-03-21T14:19:59.000Z</time>
      </trkpt>
      <trkpt lat="43.44885" lon="5.24078">
        <ele>86</ele>
        <time>2022-03-21T14:20:00.000Z</time>
      </trkpt>
      <trkpt lat="43.44884" lon="5.24079">
        <ele>86</ele>
        <time>2022-03-21T14:20:01.000Z</time>
      </trkpt>
      <trkpt lat="43.44882" lon="5.2408">
        <ele>85</ele>
        <time>2022-03-21T14:20:02.000Z</time>
      </trkpt>
      <trkpt lat="43.44881" lon="5.24082">
        <ele>85</ele>
        <time>2022-03-21T14:20:03.000Z</time>
      </trkpt>
      <trkpt lat="43.4488" lon="5.24083">
        <ele>85</ele>
        <time>2022-03-21T14:20:04.000Z</time>
      </trkpt>
      <trkpt lat="43.44878" lon="5.24084">
        <ele>85</ele>
        <time>2022-03-21T14:20:05.000Z</time>
      </trkpt>
      <trkpt lat="43.44877" lon="5.24086">
        <ele>85</ele>
        <time>2022-03-21T14:20:06.000Z</time>
      </trkpt>
      <trkpt lat="43.44876" lon="5.24087">
        <ele>85</ele>
        <time>2022-03-21T14:20:07.000Z</time>
      </trkpt>
      <trkpt lat="43.44875" lon="5.24088">
        <ele>85</ele>
        <time>2022-03-21T14:20:08.000Z</time>
      </trkpt>
      <trkpt lat="43.44873" lon="5.24089">
        <ele>85</ele>
        <time>2022-03-21T14:20:09.000Z</time>
      </trkpt>
      <trkpt lat="43.44872" lon="5.2409">
        <ele>85</ele>
        <time>2022-03-21T14:20:10.000Z</time>
      </trkpt>
      <trkpt lat="43.44871" lon="5.24092">
        <ele>85</ele>
        <time>2022-03-21T14:20:11.000Z</time>
      </trkpt>
      <trkpt lat="43.4487" lon="5.24093">
        <ele>85</ele>
        <time>2022-03-21T14:20:12.000Z</time>
      </trkpt>
      <trkpt lat="43.44868" lon="5.24094">
        <ele>85</ele>
        <time>2022-03-21T14:20:13.000Z</time>
      </trkpt>
      <trkpt lat="43.44867" lon="5.24095">
        <ele>85</ele>
        <time>2022-03-21T14:20:14.000Z</time>
      </trkpt>
      <trkpt lat="43.44866" lon="5.24096">
        <ele>85</ele>
        <time>2022-03-21T14:20:15.000Z</time>
      </trkpt>
      <trkpt lat="43.44864" lon="5.24097">
        <ele>85</ele>
        <time>2022-03-21T14:20:16.000Z</time>
      </trkpt>
      <trkpt lat="43.44863" lon="5.24098">
        <ele>85</ele>
        <time>2022-03-21T14:20:17.000Z</time>
      </trkpt>
      <trkpt lat="43.44862" lon="5.24099">
        <ele>85</ele>
        <time>2022-03-21T14:20:18.000Z</time>
      </trkpt>
      <trkpt lat="43.44861" lon="5.241">
        <ele>85</ele>
        <time>2022-03-21T14:20:19.000Z</time>
      </trkpt>
      <trkpt lat="43.44859" lon="5.24101">
        <ele>85</ele>
        <time>2022-03-21T14:20:20.000Z</time>
      </trkpt>
      <trkpt lat="43.44858" lon="5.24102">
        <ele>85</ele>
        <time>2022-03-21T14:20:21.000Z</time>
      </trkpt>
      <trkpt lat="43.44857" lon="5.24103">
        <ele>85</ele>
        <time>2022-03-21T14:20:22.000Z</time>
      </trkpt>
      <trkpt lat="43.44855" lon="5.24104">
        <ele>85</ele>
        <time>2022-03-21T14:20:23.000Z</time>
      </trkpt>
      <trkpt lat="43.44854" lon="5.24105">
        <ele>85</ele>
        <time>2022-03-21T14:20:24.000Z</time>
      </trkpt>
      <trkpt lat="43.44853" lon="5.24107">
        <ele>85</ele>
        <time>2022-03-21T14:20:25.000Z</time>
      </trkpt>
      <trkpt lat="43.44851" lon="5.24108">
        <ele>85</ele>
        <time>2022-03-21T14:20:26.000Z</time>
      </trkpt>
      <trkpt lat="43.4485" lon="5.24108">
        <ele>85</ele>
        <time>2022-03-21T14:20:27.000Z</time>
      </trkpt>
      <trkpt lat="43.44848" lon="5.2411">
        <ele>84</ele>
        <time>2022-03-21T14:20:28.000Z</time>
      </trkpt>
      <trkpt lat="43.44847" lon="5.24111">
        <ele>84</ele>
        <time>2022-03-21T14:20:29.000Z</time>
      </trkpt>
      <trkpt lat="43.44846" lon="5.24112">
        <ele>84</ele>
        <time>2022-03-21T14:20:30.000Z</time>
      </trkpt>
      <trkpt lat="43.44845" lon="5.24114">
        <ele>84</ele>
        <time>2022-03-21T14:20:31.000Z</time>
      </trkpt>
      <trkpt lat="43.44844" lon="5.24115">
        <ele>84</ele>
        <time>2022-03-21T14:20:32.000Z</time>
      </trkpt>
      <trkpt lat="43.44843" lon="5.24116">
        <ele>84</ele>
        <time>2022-03-21T14:20:33.000Z</time>
      </trkpt>
      <trkpt lat="43.44842" lon="5.24118">
        <ele>84</ele>
        <time>2022-03-21T14:20:34.000Z</time>
      </trkpt>
      <trkpt lat="43.44841" lon="5.2412">
        <ele>84</ele>
        <time>2022-03-21T14:20:35.000Z</time>
      </trkpt>
      <trkpt lat="43.44841" lon="5.24122">
        <ele>84</ele>
        <time>2022-03-21T14:20:36.000Z</time>
      </trkpt>
      <trkpt lat="43.4484" lon="5.24123">
        <ele>83</ele>
        <time>2022-03-21T14:20:37.000Z</time>
      </trkpt>
      <trkpt lat="43.44838" lon="5.24125">
        <ele>83</ele>
        <time>2022-03-21T14:20:38.000Z</time>
      </trkpt>
      <trkpt lat="43.44837" lon="5.24126">
        <ele>83</ele>
        <time>2022-03-21T14:20:39.000Z</time>
      </trkpt>
      <trkpt lat="43.44836" lon="5.24127">
        <ele>83</ele>
        <time>2022-03-21T14:20:40.000Z</time>
      </trkpt>
      <trkpt lat="43.44835" lon="5.24129">
        <ele>83</ele>
        <time>2022-03-21T14:20:41.000Z</time>
      </trkpt>
      <trkpt lat="43.44834" lon="5.2413">
        <ele>83</ele>
        <time>2022-03-21T14:20:42.000Z</time>
      </trkpt>
      <trkpt lat="43.44833" lon="5.24132">
        <ele>83</ele>
        <time>2022-03-21T14:20:43.000Z</time>
      </trkpt>
      <trkpt lat="43.44832" lon="5.24133">
        <ele>83</ele>
        <time>2022-03-21T14:20:44.000Z</time>
      </trkpt>
      <trkpt lat="43.4483" lon="5.24135">
        <ele>83</ele>
        <time>2022-03-21T14:20:45.000Z</time>
      </trkpt>
      <trkpt lat="43.44829" lon="5.24136">
        <ele>83</ele>
        <time>2022-03-21T14:20:46.000Z</time>
      </trkpt>
      <trkpt lat="43.44828" lon="5.24137">
        <ele>83</ele>
        <time>2022-03-21T14:20:47.000Z</time>
      </trkpt>
      <trkpt lat="43.44827" lon="5.24138">
        <ele>83</ele>
        <time>2022-03-21T14:20:48.000Z</time>
      </trkpt>
      <trkpt lat="43.44826" lon="5.2414">
        <ele>83</ele>
        <time>2022-03-21T14:20:49.000Z</time>
      </trkpt>
      <trkpt lat="43.44825" lon="5.24141">
        <ele>83</ele>
        <time>2022-03-21T14:20:50.000Z</time>
      </trkpt>
      <trkpt lat="43.44824" lon="5.24143">
        <ele>83</ele>
        <time>2022-03-21T14:20:51.000Z</time>
      </trkpt>
      <trkpt lat="43.44823" lon="5.24145">
        <ele>83</ele>
        <time>2022-03-21T14:20:52.000Z</time>
      </trkpt>
      <trkpt lat="43.44823" lon="5.24146">
        <ele>83</ele>
        <time>2022-03-21T14:20:53.000Z</time>
      </trkpt>
      <trkpt lat="43.44823" lon="5.24148">
        <ele>83</ele>
        <time>2022-03-21T14:20:54.000Z</time>
      </trkpt>
      <trkpt lat="43.44823" lon="5.24149">
        <ele>83</ele>
        <time>2022-03-21T14:20:55.000Z</time>
      </trkpt>
      <trkpt lat="43.44823" lon="5.24151">
        <ele>83</ele>
        <time>2022-03-21T14:20:56.000Z</time>
      </trkpt>
      <trkpt lat="43.44823" lon="5.24153">
        <ele>83</ele>
        <time>2022-03-21T14:20:57.000Z</time>
      </trkpt>
      <trkpt lat="43.44823" lon="5.24155">
        <ele>83</ele>
        <time>2022-03-21T14:20:58.000Z</time>
      </trkpt>
      <trkpt lat="43.44823" lon="5.24156">
        <ele>83</ele>
        <time>2022-03-21T14:20:59.000Z</time>
      </trkpt>
      <trkpt lat="43.44822" lon="5.24158">
        <ele>83</ele>
        <time>2022-03-21T14:21:00.000Z</time>
      </trkpt>
      <trkpt lat="43.44822" lon="5.2416">
        <ele>83</ele>
        <time>2022-03-21T14:21:01.000Z</time>
      </trkpt>
      <trkpt lat="43.44821" lon="5.24162">
        <ele>83</ele>
        <time>2022-03-21T14:21:02.000Z</time>
      </trkpt>
      <trkpt lat="43.4482" lon="5.24164">
        <ele>83</ele>
        <time>2022-03-21T14:21:03.000Z</time>
      </trkpt>
      <trkpt lat="43.4482" lon="5.24165">
        <ele>82</ele>
        <time>2022-03-21T14:21:04.000Z</time>
      </trkpt>
      <trkpt lat="43.44819" lon="5.24167">
        <ele>82</ele>
        <time>2022-03-21T14:21:05.000Z</time>
      </trkpt>
      <trkpt lat="43.44819" lon="5.24169">
        <ele>82</ele>
        <time>2022-03-21T14:21:06.000Z</time>
      </trkpt>
      <trkpt lat="43.44818" lon="5.24171">
        <ele>82</ele>
        <time>2022-03-21T14:21:07.000Z</time>
      </trkpt>
      <trkpt lat="43.44818" lon="5.24173">
        <ele>82</ele>
        <time>2022-03-21T14:21:08.000Z</time>
      </trkpt>
      <trkpt lat="43.44819" lon="5.24175">
        <ele>82</ele>
        <time>2022-03-21T14:21:09.000Z</time>
      </trkpt>
      <trkpt lat="43.44819" lon="5.24176">
        <ele>82</ele>
        <time>2022-03-21T14:21:10.000Z</time>
      </trkpt>
      <trkpt lat="43.4482" lon="5.24177">
        <ele>82</ele>
        <time>2022-03-21T14:21:11.000Z</time>
      </trkpt>
      <trkpt lat="43.44822" lon="5.24178">
        <ele>82</ele>
        <time>2022-03-21T14:21:12.000Z</time>
      </trkpt>
      <trkpt lat="43.44823" lon="5.24178">
        <ele>82</ele>
        <time>2022-03-21T14:21:13.000Z</time>
      </trkpt>
      <trkpt lat="43.44824" lon="5.24177">
        <ele>82</ele>
        <time>2022-03-21T14:21:14.000Z</time>
      </trkpt>
      <trkpt lat="43.44825" lon="5.24176">
        <ele>82</ele>
        <time>2022-03-21T14:21:15.000Z</time>
      </trkpt>
      <trkpt lat="43.44826" lon="5.24174">
        <ele>82</ele>
        <time>2022-03-21T14:21:16.000Z</time>
      </trkpt>
      <trkpt lat="43.44826" lon="5.24172">
        <ele>82</ele>
        <time>2022-03-21T14:21:17.000Z</time>
      </trkpt>
      <trkpt lat="43.44827" lon="5.24171">
        <ele>82</ele>
        <time>2022-03-21T14:21:18.000Z</time>
      </trkpt>
      <trkpt lat="43.44828" lon="5.24169">
        <ele>82</ele>
        <time>2022-03-21T14:21:19.000Z</time>
      </trkpt>
      <trkpt lat="43.44829" lon="5.24168">
        <ele>82</ele>
        <time>2022-03-21T14:21:20.000Z</time>
      </trkpt>
      <trkpt lat="43.44829" lon="5.24166">
        <ele>82</ele>
        <time>2022-03-21T14:21:21.000Z</time>
      </trkpt>
      <trkpt lat="43.4483" lon="5.24164">
        <ele>82</ele>
        <time>2022-03-21T14:21:22.000Z</time>
      </trkpt>
      <trkpt lat="43.44831" lon="5.24163">
        <ele>83</ele>
        <time>2022-03-21T14:21:23.000Z</time>
      </trkpt>
      <trkpt lat="43.44832" lon="5.24161">
        <ele>83</ele>
        <time>2022-03-21T14:21:24.000Z</time>
      </trkpt>
      <trkpt lat="43.44832" lon="5.2416">
        <ele>83</ele>
        <time>2022-03-21T14:21:25.000Z</time>
      </trkpt>
      <trkpt lat="43.44833" lon="5.24158">
        <ele>83</ele>
        <time>2022-03-21T14:21:26.000Z</time>
      </trkpt>
      <trkpt lat="43.44834" lon="5.24156">
        <ele>83</ele>
        <time>2022-03-21T14:21:27.000Z</time>
      </trkpt>
      <trkpt lat="43.44835" lon="5.24154">
        <ele>83</ele>
        <time>2022-03-21T14:21:28.000Z</time>
      </trkpt>
      <trkpt lat="43.44836" lon="5.24153">
        <ele>83</ele>
        <time>2022-03-21T14:21:29.000Z</time>
      </trkpt>
      <trkpt lat="43.44837" lon="5.24151">
        <ele>83</ele>
        <time>2022-03-21T14:21:30.000Z</time>
      </trkpt>
      <trkpt lat="43.44837" lon="5.2415">
        <ele>83</ele>
        <time>2022-03-21T14:21:31.000Z</time>
      </trkpt>
      <trkpt lat="43.44838" lon="5.24148">
        <ele>83</ele>
        <time>2022-03-21T14:21:32.000Z</time>
      </trkpt>
      <trkpt lat="43.44838" lon="5.24146">
        <ele>83</ele>
        <time>2022-03-21T14:21:33.000Z</time>
      </trkpt>
      <trkpt lat="43.44839" lon="5.24144">
        <ele>83</ele>
        <time>2022-03-21T14:21:34.000Z</time>
      </trkpt>
      <trkpt lat="43.4484" lon="5.24143">
        <ele>83</ele>
        <time>2022-03-21T14:21:35.000Z</time>
      </trkpt>
      <trkpt lat="43.4484" lon="5.24141">
        <ele>83</ele>
        <time>2022-03-21T14:21:36.000Z</time>
      </trkpt>
      <trkpt lat="43.4484" lon="5.24138">
        <ele>83</ele>
        <time>2022-03-21T14:21:37.000Z</time>
      </trkpt>
      <trkpt lat="43.4484" lon="5.24137">
        <ele>83</ele>
        <time>2022-03-21T14:21:38.000Z</time>
      </trkpt>
      <trkpt lat="43.4484" lon="5.24135">
        <ele>82</ele>
        <time>2022-03-21T14:21:39.000Z</time>
      </trkpt>
      <trkpt lat="43.4484" lon="5.24133">
        <ele>82</ele>
        <time>2022-03-21T14:21:40.000Z</time>
      </trkpt>
      <trkpt lat="43.4484" lon="5.24131">
        <ele>82</ele>
        <time>2022-03-21T14:21:41.000Z</time>
      </trkpt>
      <trkpt lat="43.4484" lon="5.24129">
        <ele>82</ele>
        <time>2022-03-21T14:21:42.000Z</time>
      </trkpt>
      <trkpt lat="43.4484" lon="5.24127">
        <ele>82</ele>
        <time>2022-03-21T14:21:43.000Z</time>
      </trkpt>
      <trkpt lat="43.44841" lon="5.24125">
        <ele>82</ele>
        <time>2022-03-21T14:21:44.000Z</time>
      </trkpt>
      <trkpt lat="43.44841" lon="5.24123">
        <ele>82</ele>
        <time>2022-03-21T14:21:45.000Z</time>
      </trkpt>
      <trkpt lat="43.44842" lon="5.2412">
        <ele>82</ele>
        <time>2022-03-21T14:21:46.000Z</time>
      </trkpt>
      <trkpt lat="43.44843" lon="5.24118">
        <ele>82</ele>
        <time>2022-03-21T14:21:47.000Z</time>
      </trkpt>
      <trkpt lat="43.44843" lon="5.24117">
        <ele>83</ele>
        <time>2022-03-21T14:21:48.000Z</time>
      </trkpt>
      <trkpt lat="43.44844" lon="5.24115">
        <ele>83</ele>
        <time>2022-03-21T14:21:49.000Z</time>
      </trkpt>
      <trkpt lat="43.44846" lon="5.24114">
        <ele>83</ele>
        <time>2022-03-21T14:21:50.000Z</time>
      </trkpt>
      <trkpt lat="43.44847" lon="5.24112">
        <ele>83</ele>
        <time>2022-03-21T14:21:51.000Z</time>
      </trkpt>
      <trkpt lat="43.44848" lon="5.24111">
        <ele>83</ele>
        <time>2022-03-21T14:21:52.000Z</time>
      </trkpt>
      <trkpt lat="43.44849" lon="5.24109">
        <ele>83</ele>
        <time>2022-03-21T14:21:53.000Z</time>
      </trkpt>
      <trkpt lat="43.44851" lon="5.24108">
        <ele>83</ele>
        <time>2022-03-21T14:21:54.000Z</time>
      </trkpt>
      <trkpt lat="43.44852" lon="5.24107">
        <ele>83</ele>
        <time>2022-03-21T14:21:55.000Z</time>
      </trkpt>
      <trkpt lat="43.44853" lon="5.24105">
        <ele>83</ele>
        <time>2022-03-21T14:21:56.000Z</time>
      </trkpt>
      <trkpt lat="43.44854" lon="5.24104">
        <ele>83</ele>
        <time>2022-03-21T14:21:57.000Z</time>
      </trkpt>
      <trkpt lat="43.44855" lon="5.24103">
        <ele>83</ele>
        <time>2022-03-21T14:21:58.000Z</time>
      </trkpt>
      <trkpt lat="43.44857" lon="5.24102">
        <ele>83</ele>
        <time>2022-03-21T14:21:59.000Z</time>
      </trkpt>
      <trkpt lat="43.44858" lon="5.24101">
        <ele>83</ele>
        <time>2022-03-21T14:22:00.000Z</time>
      </trkpt>
      <trkpt lat="43.44859" lon="5.241">
        <ele>83</ele>
        <time>2022-03-21T14:22:01.000Z</time>
      </trkpt>
      <trkpt lat="43.4486" lon="5.24099">
        <ele>83</ele>
        <time>2022-03-21T14:22:02.000Z</time>
      </trkpt>
      <trkpt lat="43.44861" lon="5.24097">
        <ele>83</ele>
        <time>2022-03-21T14:22:03.000Z</time>
      </trkpt>
      <trkpt lat="43.44863" lon="5.24096">
        <ele>83</ele>
        <time>2022-03-21T14:22:04.000Z</time>
      </trkpt>
      <trkpt lat="43.44864" lon="5.24095">
        <ele>83</ele>
        <time>2022-03-21T14:22:05.000Z</time>
      </trkpt>
      <trkpt lat="43.44865" lon="5.24094">
        <ele>83</ele>
        <time>2022-03-21T14:22:06.000Z</time>
      </trkpt>
      <trkpt lat="43.44866" lon="5.24093">
        <ele>83</ele>
        <time>2022-03-21T14:22:07.000Z</time>
      </trkpt>
      <trkpt lat="43.44867" lon="5.24091">
        <ele>83</ele>
        <time>2022-03-21T14:22:08.000Z</time>
      </trkpt>
      <trkpt lat="43.44869" lon="5.2409">
        <ele>83</ele>
        <time>2022-03-21T14:22:09.000Z</time>
      </trkpt>
      <trkpt lat="43.4487" lon="5.24089">
        <ele>84</ele>
        <time>2022-03-21T14:22:10.000Z</time>
      </trkpt>
      <trkpt lat="43.44871" lon="5.24087">
        <ele>84</ele>
        <time>2022-03-21T14:22:11.000Z</time>
      </trkpt>
      <trkpt lat="43.44872" lon="5.24086">
        <ele>84</ele>
        <time>2022-03-21T14:22:12.000Z</time>
      </trkpt>
      <trkpt lat="43.44873" lon="5.24085">
        <ele>84</ele>
        <time>2022-03-21T14:22:13.000Z</time>
      </trkpt>
      <trkpt lat="43.44874" lon="5.24083">
        <ele>84</ele>
        <time>2022-03-21T14:22:14.000Z</time>
      </trkpt>
      <trkpt lat="43.44875" lon="5.24082">
        <ele>84</ele>
        <time>2022-03-21T14:22:15.000Z</time>
      </trkpt>
      <trkpt lat="43.44877" lon="5.2408">
        <ele>84</ele>
        <time>2022-03-21T14:22:16.000Z</time>
      </trkpt>
      <trkpt lat="43.44878" lon="5.24079">
        <ele>84</ele>
        <time>2022-03-21T14:22:17.000Z</time>
      </trkpt>
      <trkpt lat="43.44879" lon="5.24078">
        <ele>84</ele>
        <time>2022-03-21T14:22:18.000Z</time>
      </trkpt>
      <trkpt lat="43.44881" lon="5.24077">
        <ele>84</ele>
        <time>2022-03-21T14:22:19.000Z</time>
      </trkpt>
      <trkpt lat="43.44882" lon="5.24076">
        <ele>85</ele>
        <time>2022-03-21T14:22:20.000Z</time>
      </trkpt>
      <trkpt lat="43.44883" lon="5.24075">
        <ele>85</ele>
        <time>2022-03-21T14:22:21.000Z</time>
      </trkpt>
      <trkpt lat="43.44884" lon="5.24073">
        <ele>85</ele>
        <time>2022-03-21T14:22:22.000Z</time>
      </trkpt>
      <trkpt lat="43.44886" lon="5.24072">
        <ele>85</ele>
        <time>2022-03-21T14:22:23.000Z</time>
      </trkpt>
      <trkpt lat="43.44887" lon="5.24071">
        <ele>85</ele>
        <time>2022-03-21T14:22:24.000Z</time>
      </trkpt>
      <trkpt lat="43.44888" lon="5.24069">
        <ele>85</ele>
        <time>2022-03-21T14:22:25.000Z</time>
      </trkpt>
      <trkpt lat="43.44889" lon="5.24068">
        <ele>85</ele>
        <time>2022-03-21T14:22:26.000Z</time>
      </trkpt>
      <trkpt lat="43.44891" lon="5.24067">
        <ele>86</ele>
        <time>2022-03-21T14:22:27.000Z</time>
      </trkpt>
      <trkpt lat="43.44892" lon="5.24066">
        <ele>86</ele>
        <time>2022-03-21T14:22:28.000Z</time>
      </trkpt>
      <trkpt lat="43.44893" lon="5.24064">
        <ele>86</ele>
        <time>2022-03-21T14:22:29.000Z</time>
      </trkpt>
      <trkpt lat="43.44894" lon="5.24063">
        <ele>86</ele>
        <time>2022-03-21T14:22:30.000Z</time>
      </trkpt>
      <trkpt lat="43.44895" lon="5.24061">
        <ele>86</ele>
        <time>2022-03-21T14:22:31.000Z</time>
      </trkpt>
      <trkpt lat="43.44896" lon="5.2406">
        <ele>86</ele>
        <time>2022-03-21T14:22:32.000Z</time>
      </trkpt>
      <trkpt lat="43.44897" lon="5.24058">
        <ele>87</ele>
        <time>2022-03-21T14:22:33.000Z</time>
      </trkpt>
      <trkpt lat="43.44898" lon="5.24057">
        <ele>87</ele>
        <time>2022-03-21T14:22:34.000Z</time>
      </trkpt>
      <trkpt lat="43.449" lon="5.24056">
        <ele>87</ele>
        <time>2022-03-21T14:22:35.000Z</time>
      </trkpt>
      <trkpt lat="43.44901" lon="5.24055">
        <ele>87</ele>
        <time>2022-03-21T14:22:36.000Z</time>
      </trkpt>
      <trkpt lat="43.44902" lon="5.24053">
        <ele>87</ele>
        <time>2022-03-21T14:22:37.000Z</time>
      </trkpt>
      <trkpt lat="43.44903" lon="5.24052">
        <ele>87</ele>
        <time>2022-03-21T14:22:38.000Z</time>
      </trkpt>
      <trkpt lat="43.44904" lon="5.24051">
        <ele>87</ele>
        <time>2022-03-21T14:22:39.000Z</time>
      </trkpt>
      <trkpt lat="43.44905" lon="5.24049">
        <ele>87</ele>
        <time>2022-03-21T14:22:40.000Z</time>
      </trkpt>
      <trkpt lat="43.44906" lon="5.24048">
        <ele>87</ele>
        <time>2022-03-21T14:22:41.000Z</time>
      </trkpt>
      <trkpt lat="43.44907" lon="5.24046">
        <ele>87</ele>
        <time>2022-03-21T14:22:42.000Z</time>
      </trkpt>
      <trkpt lat="43.44908" lon="5.24044">
        <ele>87</ele>
        <time>2022-03-21T14:22:43.000Z</time>
      </trkpt>
      <trkpt lat="43.44909" lon="5.24043">
        <ele>87</ele>
        <time>2022-03-21T14:22:44.000Z</time>
      </trkpt>
      <trkpt lat="43.4491" lon="5.24041">
        <ele>87</ele>
        <time>2022-03-21T14:22:45.000Z</time>
      </trkpt>
      <trkpt lat="43.44911" lon="5.2404">
        <ele>87</ele>
        <time>2022-03-21T14:22:46.000Z</time>
      </trkpt>
      <trkpt lat="43.44912" lon="5.2404">
        <ele>87</ele>
        <time>2022-03-21T14:22:47.000Z</time>
      </trkpt>
      <trkpt lat="43.44912" lon="5.24041">
        <ele>87</ele>
        <time>2022-03-21T14:22:48.000Z</time>
      </trkpt>
      <trkpt lat="43.44911" lon="5.24043">
        <ele>87</ele>
        <time>2022-03-21T14:22:49.000Z</time>
      </trkpt>
      <trkpt lat="43.4491" lon="5.24044">
        <ele>87</ele>
        <time>2022-03-21T14:22:50.000Z</time>
      </trkpt>
      <trkpt lat="43.44909" lon="5.24046">
        <ele>87</ele>
        <time>2022-03-21T14:22:51.000Z</time>
      </trkpt>
      <trkpt lat="43.44908" lon="5.24048">
        <ele>87</ele>
        <time>2022-03-21T14:22:52.000Z</time>
      </trkpt>
      <trkpt lat="43.44907" lon="5.24049">
        <ele>87</ele>
        <time>2022-03-21T14:22:53.000Z</time>
      </trkpt>
      <trkpt lat="43.44906" lon="5.2405">
        <ele>87</ele>
        <time>2022-03-21T14:22:54.000Z</time>
      </trkpt>
      <trkpt lat="43.44905" lon="5.24052">
        <ele>87</ele>
        <time>2022-03-21T14:22:55.000Z</time>
      </trkpt>
      <trkpt lat="43.44903" lon="5.24054">
        <ele>87</ele>
        <time>2022-03-21T14:22:56.000Z</time>
      </trkpt>
      <trkpt lat="43.44902" lon="5.24055">
        <ele>87</ele>
        <time>2022-03-21T14:22:57.000Z</time>
      </trkpt>
      <trkpt lat="43.44901" lon="5.24057">
        <ele>87</ele>
        <time>2022-03-21T14:22:58.000Z</time>
      </trkpt>
      <trkpt lat="43.449" lon="5.24058">
        <ele>87</ele>
        <time>2022-03-21T14:22:59.000Z</time>
      </trkpt>
      <trkpt lat="43.44898" lon="5.24059">
        <ele>87</ele>
        <time>2022-03-21T14:23:00.000Z</time>
      </trkpt>
      <trkpt lat="43.44897" lon="5.24061">
        <ele>87</ele>
        <time>2022-03-21T14:23:01.000Z</time>
      </trkpt>
      <trkpt lat="43.44896" lon="5.24062">
        <ele>87</ele>
        <time>2022-03-21T14:23:02.000Z</time>
      </trkpt>
      <trkpt lat="43.44895" lon="5.24064">
        <ele>87</ele>
        <time>2022-03-21T14:23:03.000Z</time>
      </trkpt>
      <trkpt lat="43.44893" lon="5.24066">
        <ele>87</ele>
        <time>2022-03-21T14:23:04.000Z</time>
      </trkpt>
      <trkpt lat="43.44892" lon="5.24067">
        <ele>87</ele>
        <time>2022-03-21T14:23:05.000Z</time>
      </trkpt>
      <trkpt lat="43.44891" lon="5.24068">
        <ele>87</ele>
        <time>2022-03-21T14:23:06.000Z</time>
      </trkpt>
      <trkpt lat="43.4489" lon="5.2407">
        <ele>86</ele>
        <time>2022-03-21T14:23:07.000Z</time>
      </trkpt>
      <trkpt lat="43.44888" lon="5.24071">
        <ele>86</ele>
        <time>2022-03-21T14:23:08.000Z</time>
      </trkpt>
      <trkpt lat="43.44887" lon="5.24073">
        <ele>86</ele>
        <time>2022-03-21T14:23:09.000Z</time>
      </trkpt>
      <trkpt lat="43.44886" lon="5.24074">
        <ele>86</ele>
        <time>2022-03-21T14:23:10.000Z</time>
      </trkpt>
      <trkpt lat="43.44885" lon="5.24076">
        <ele>86</ele>
        <time>2022-03-21T14:23:11.000Z</time>
      </trkpt>
      <trkpt lat="43.44883" lon="5.24077">
        <ele>86</ele>
        <time>2022-03-21T14:23:12.000Z</time>
      </trkpt>
      <trkpt lat="43.44882" lon="5.24078">
        <ele>86</ele>
        <time>2022-03-21T14:23:13.000Z</time>
      </trkpt>
      <trkpt lat="43.44881" lon="5.24079">
        <ele>86</ele>
        <time>2022-03-21T14:23:14.000Z</time>
      </trkpt>
      <trkpt lat="43.44879" lon="5.24081">
        <ele>86</ele>
        <time>2022-03-21T14:23:15.000Z</time>
      </trkpt>
      <trkpt lat="43.44878" lon="5.24082">
        <ele>86</ele>
        <time>2022-03-21T14:23:16.000Z</time>
      </trkpt>
      <trkpt lat="43.44877" lon="5.24083">
        <ele>86</ele>
        <time>2022-03-21T14:23:17.000Z</time>
      </trkpt>
      <trkpt lat="43.44875" lon="5.24084">
        <ele>86</ele>
        <time>2022-03-21T14:23:18.000Z</time>
      </trkpt>
      <trkpt lat="43.44874" lon="5.24085">
        <ele>86</ele>
        <time>2022-03-21T14:23:19.000Z</time>
      </trkpt>
      <trkpt lat="43.44873" lon="5.24087">
        <ele>86</ele>
        <time>2022-03-21T14:23:20.000Z</time>
      </trkpt>
      <trkpt lat="43.44872" lon="5.24088">
        <ele>86</ele>
        <time>2022-03-21T14:23:21.000Z</time>
      </trkpt>
      <trkpt lat="43.44871" lon="5.24089">
        <ele>85</ele>
        <time>2022-03-21T14:23:22.000Z</time>
      </trkpt>
      <trkpt lat="43.44869" lon="5.2409">
        <ele>85</ele>
        <time>2022-03-21T14:23:23.000Z</time>
      </trkpt>
      <trkpt lat="43.44868" lon="5.24091">
        <ele>85</ele>
        <time>2022-03-21T14:23:24.000Z</time>
      </trkpt>
      <trkpt lat="43.44867" lon="5.24092">
        <ele>85</ele>
        <time>2022-03-21T14:23:25.000Z</time>
      </trkpt>
      <trkpt lat="43.44866" lon="5.24093">
        <ele>85</ele>
        <time>2022-03-21T14:23:26.000Z</time>
      </trkpt>
      <trkpt lat="43.44865" lon="5.24094">
        <ele>85</ele>
        <time>2022-03-21T14:23:27.000Z</time>
      </trkpt>
      <trkpt lat="43.44863" lon="5.24095">
        <ele>85</ele>
        <time>2022-03-21T14:23:28.000Z</time>
      </trkpt>
      <trkpt lat="43.44862" lon="5.24096">
        <ele>85</ele>
        <time>2022-03-21T14:23:29.000Z</time>
      </trkpt>
      <trkpt lat="43.44861" lon="5.24098">
        <ele>85</ele>
        <time>2022-03-21T14:23:30.000Z</time>
      </trkpt>
      <trkpt lat="43.4486" lon="5.24099">
        <ele>85</ele>
        <time>2022-03-21T14:23:31.000Z</time>
      </trkpt>
      <trkpt lat="43.44858" lon="5.241">
        <ele>85</ele>
        <time>2022-03-21T14:23:32.000Z</time>
      </trkpt>
      <trkpt lat="43.44857" lon="5.24101">
        <ele>85</ele>
        <time>2022-03-21T14:23:33.000Z</time>
      </trkpt>
      <trkpt lat="43.44855" lon="5.24102">
        <ele>85</ele>
        <time>2022-03-21T14:23:34.000Z</time>
      </trkpt>
      <trkpt lat="43.44854" lon="5.24103">
        <ele>85</ele>
        <time>2022-03-21T14:23:35.000Z</time>
      </trkpt>
      <trkpt lat="43.44853" lon="5.24104">
        <ele>85</ele>
        <time>2022-03-21T14:23:36.000Z</time>
      </trkpt>
      <trkpt lat="43.44852" lon="5.24105">
        <ele>85</ele>
        <time>2022-03-21T14:23:37.000Z</time>
      </trkpt>
      <trkpt lat="43.4485" lon="5.24106">
        <ele>85</ele>
        <time>2022-03-21T14:23:38.000Z</time>
      </trkpt>
      <trkpt lat="43.44849" lon="5.24108">
        <ele>85</ele>
        <time>2022-03-21T14:23:39.000Z</time>
      </trkpt>
      <trkpt lat="43.44848" lon="5.24109">
        <ele>85</ele>
        <time>2022-03-21T14:23:40.000Z</time>
      </trkpt>
      <trkpt lat="43.44846" lon="5.2411">
        <ele>84</ele>
        <time>2022-03-21T14:23:41.000Z</time>
      </trkpt>
      <trkpt lat="43.44845" lon="5.24111">
        <ele>84</ele>
        <time>2022-03-21T14:23:42.000Z</time>
      </trkpt>
      <trkpt lat="43.44844" lon="5.24112">
        <ele>84</ele>
        <time>2022-03-21T14:23:43.000Z</time>
      </trkpt>
      <trkpt lat="43.44843" lon="5.24114">
        <ele>84</ele>
        <time>2022-03-21T14:23:44.000Z</time>
      </trkpt>
      <trkpt lat="43.44842" lon="5.24115">
        <ele>84</ele>
        <time>2022-03-21T14:23:45.000Z</time>
      </trkpt>
      <trkpt lat="43.44841" lon="5.24117">
        <ele>84</ele>
        <time>2022-03-21T14:23:46.000Z</time>
      </trkpt>
      <trkpt lat="43.4484" lon="5.24118">
        <ele>84</ele>
        <time>2022-03-21T14:23:47.000Z</time>
      </trkpt>
      <trkpt lat="43.44839" lon="5.2412">
        <ele>84</ele>
        <time>2022-03-21T14:23:48.000Z</time>
      </trkpt>
      <trkpt lat="43.44838" lon="5.24122">
        <ele>84</ele>
        <time>2022-03-21T14:23:49.000Z</time>
      </trkpt>
      <trkpt lat="43.44837" lon="5.24123">
        <ele>84</ele>
        <time>2022-03-21T14:23:50.000Z</time>
      </trkpt>
      <trkpt lat="43.44835" lon="5.24124">
        <ele>84</ele>
        <time>2022-03-21T14:23:51.000Z</time>
      </trkpt>
      <trkpt lat="43.44834" lon="5.24126">
        <ele>84</ele>
        <time>2022-03-21T14:23:52.000Z</time>
      </trkpt>
      <trkpt lat="43.44833" lon="5.24127">
        <ele>84</ele>
        <time>2022-03-21T14:23:53.000Z</time>
      </trkpt>
      <trkpt lat="43.44832" lon="5.24129">
        <ele>84</ele>
        <time>2022-03-21T14:23:54.000Z</time>
      </trkpt>
      <trkpt lat="43.44831" lon="5.2413">
        <ele>84</ele>
        <time>2022-03-21T14:23:55.000Z</time>
      </trkpt>
      <trkpt lat="43.44829" lon="5.24132">
        <ele>84</ele>
        <time>2022-03-21T14:23:56.000Z</time>
      </trkpt>
      <trkpt lat="43.44828" lon="5.24133">
        <ele>84</ele>
        <time>2022-03-21T14:23:57.000Z</time>
      </trkpt>
      <trkpt lat="43.44827" lon="5.24134">
        <ele>84</ele>
        <time>2022-03-21T14:23:58.000Z</time>
      </trkpt>
      <trkpt lat="43.44826" lon="5.24136">
        <ele>84</ele>
        <time>2022-03-21T14:23:59.000Z</time>
      </trkpt>
      <trkpt lat="43.44825" lon="5.24137">
        <ele>84</ele>
        <time>2022-03-21T14:24:00.000Z</time>
      </trkpt>
      <trkpt lat="43.44824" lon="5.24139">
        <ele>84</ele>
        <time>2022-03-21T14:24:01.000Z</time>
      </trkpt>
      <trkpt lat="43.44823" lon="5.24141">
        <ele>84</ele>
        <time>2022-03-21T14:24:02.000Z</time>
      </trkpt>
      <trkpt lat="43.44822" lon="5.24143">
        <ele>84</ele>
        <time>2022-03-21T14:24:03.000Z</time>
      </trkpt>
      <trkpt lat="43.44821" lon="5.24144">
        <ele>84</ele>
        <time>2022-03-21T14:24:04.000Z</time>
      </trkpt>
      <trkpt lat="43.4482" lon="5.24146">
        <ele>84</ele>
        <time>2022-03-21T14:24:05.000Z</time>
      </trkpt>
      <trkpt lat="43.44819" lon="5.24148">
        <ele>84</ele>
        <time>2022-03-21T14:24:06.000Z</time>
      </trkpt>
      <trkpt lat="43.44819" lon="5.2415">
        <ele>84</ele>
        <time>2022-03-21T14:24:07.000Z</time>
      </trkpt>
      <trkpt lat="43.44818" lon="5.24152">
        <ele>84</ele>
        <time>2022-03-21T14:24:08.000Z</time>
      </trkpt>
      <trkpt lat="43.44818" lon="5.24155">
        <ele>84</ele>
        <time>2022-03-21T14:24:09.000Z</time>
      </trkpt>
      <trkpt lat="43.44818" lon="5.24157">
        <ele>84</ele>
        <time>2022-03-21T14:24:10.000Z</time>
      </trkpt>
      <trkpt lat="43.44818" lon="5.24159">
        <ele>84</ele>
        <time>2022-03-21T14:24:11.000Z</time>
      </trkpt>
      <trkpt lat="43.44817" lon="5.24161">
        <ele>84</ele>
        <time>2022-03-21T14:24:12.000Z</time>
      </trkpt>
      <trkpt lat="43.44817" lon="5.24163">
        <ele>84</ele>
        <time>2022-03-21T14:24:13.000Z</time>
      </trkpt>
      <trkpt lat="43.44816" lon="5.24164">
        <ele>84</ele>
        <time>2022-03-21T14:24:14.000Z</time>
      </trkpt>
      <trkpt lat="43.44815" lon="5.24166">
        <ele>84</ele>
        <time>2022-03-21T14:24:15.000Z</time>
      </trkpt>
      <trkpt lat="43.44814" lon="5.24168">
        <ele>84</ele>
        <time>2022-03-21T14:24:16.000Z</time>
      </trkpt>
      <trkpt lat="43.44814" lon="5.2417">
        <ele>83</ele>
        <time>2022-03-21T14:24:17.000Z</time>
      </trkpt>
      <trkpt lat="43.44814" lon="5.24172">
        <ele>83</ele>
        <time>2022-03-21T14:24:18.000Z</time>
      </trkpt>
      <trkpt lat="43.44814" lon="5.24174">
        <ele>83</ele>
        <time>2022-03-21T14:24:19.000Z</time>
      </trkpt>
      <trkpt lat="43.44815" lon="5.24177">
        <ele>83</ele>
        <time>2022-03-21T14:24:20.000Z</time>
      </trkpt>
      <trkpt lat="43.44816" lon="5.24178">
        <ele>83</ele>
        <time>2022-03-21T14:24:21.000Z</time>
      </trkpt>
      <trkpt lat="43.44817" lon="5.2418">
        <ele>83</ele>
        <time>2022-03-21T14:24:22.000Z</time>
      </trkpt>
      <trkpt lat="43.44819" lon="5.24181">
        <ele>83</ele>
        <time>2022-03-21T14:24:23.000Z</time>
      </trkpt>
      <trkpt lat="43.4482" lon="5.24181">
        <ele>83</ele>
        <time>2022-03-21T14:24:24.000Z</time>
      </trkpt>
      <trkpt lat="43.44822" lon="5.24181">
        <ele>83</ele>
        <time>2022-03-21T14:24:25.000Z</time>
      </trkpt>
      <trkpt lat="43.44823" lon="5.24179">
        <ele>83</ele>
        <time>2022-03-21T14:24:26.000Z</time>
      </trkpt>
      <trkpt lat="43.44824" lon="5.24177">
        <ele>83</ele>
        <time>2022-03-21T14:24:27.000Z</time>
      </trkpt>
      <trkpt lat="43.44825" lon="5.24175">
        <ele>83</ele>
        <time>2022-03-21T14:24:28.000Z</time>
      </trkpt>
      <trkpt lat="43.44826" lon="5.24173">
        <ele>83</ele>
        <time>2022-03-21T14:24:29.000Z</time>
      </trkpt>
      <trkpt lat="43.44827" lon="5.24172">
        <ele>83</ele>
        <time>2022-03-21T14:24:30.000Z</time>
      </trkpt>
      <trkpt lat="43.44828" lon="5.2417">
        <ele>84</ele>
        <time>2022-03-21T14:24:31.000Z</time>
      </trkpt>
      <trkpt lat="43.44829" lon="5.24168">
        <ele>84</ele>
        <time>2022-03-21T14:24:32.000Z</time>
      </trkpt>
      <trkpt lat="43.4483" lon="5.24166">
        <ele>84</ele>
        <time>2022-03-21T14:24:33.000Z</time>
      </trkpt>
      <trkpt lat="43.44831" lon="5.24164">
        <ele>84</ele>
        <time>2022-03-21T14:24:34.000Z</time>
      </trkpt>
      <trkpt lat="43.44832" lon="5.24162">
        <ele>84</ele>
        <time>2022-03-21T14:24:35.000Z</time>
      </trkpt>
      <trkpt lat="43.44833" lon="5.2416">
        <ele>84</ele>
        <time>2022-03-21T14:24:36.000Z</time>
      </trkpt>
      <trkpt lat="43.44833" lon="5.24158">
        <ele>84</ele>
        <time>2022-03-21T14:24:37.000Z</time>
      </trkpt>
      <trkpt lat="43.44834" lon="5.24156">
        <ele>84</ele>
        <time>2022-03-21T14:24:38.000Z</time>
      </trkpt>
      <trkpt lat="43.44835" lon="5.24154">
        <ele>84</ele>
        <time>2022-03-21T14:24:39.000Z</time>
      </trkpt>
      <trkpt lat="43.44836" lon="5.24152">
        <ele>84</ele>
        <time>2022-03-21T14:24:40.000Z</time>
      </trkpt>
      <trkpt lat="43.44836" lon="5.2415">
        <ele>84</ele>
        <time>2022-03-21T14:24:41.000Z</time>
      </trkpt>
      <trkpt lat="43.44837" lon="5.24148">
        <ele>84</ele>
        <time>2022-03-21T14:24:42.000Z</time>
      </trkpt>
      <trkpt lat="43.44837" lon="5.24147">
        <ele>84</ele>
        <time>2022-03-21T14:24:43.000Z</time>
      </trkpt>
      <trkpt lat="43.44837" lon="5.24145">
        <ele>84</ele>
        <time>2022-03-21T14:24:44.000Z</time>
      </trkpt>
      <trkpt lat="43.44838" lon="5.24143">
        <ele>84</ele>
        <time>2022-03-21T14:24:45.000Z</time>
      </trkpt>
      <trkpt lat="43.44838" lon="5.24141">
        <ele>84</ele>
        <time>2022-03-21T14:24:46.000Z</time>
      </trkpt>
      <trkpt lat="43.44838" lon="5.24139">
        <ele>84</ele>
        <time>2022-03-21T14:24:47.000Z</time>
      </trkpt>
      <trkpt lat="43.44839" lon="5.24137">
        <ele>84</ele>
        <time>2022-03-21T14:24:48.000Z</time>
      </trkpt>
      <trkpt lat="43.44839" lon="5.24135">
        <ele>84</ele>
        <time>2022-03-21T14:24:49.000Z</time>
      </trkpt>
      <trkpt lat="43.44839" lon="5.24133">
        <ele>84</ele>
        <time>2022-03-21T14:24:50.000Z</time>
      </trkpt>
      <trkpt lat="43.44839" lon="5.24131">
        <ele>84</ele>
        <time>2022-03-21T14:24:51.000Z</time>
      </trkpt>
      <trkpt lat="43.44839" lon="5.24129">
        <ele>84</ele>
        <time>2022-03-21T14:24:52.000Z</time>
      </trkpt>
      <trkpt lat="43.44839" lon="5.24127">
        <ele>84</ele>
        <time>2022-03-21T14:24:53.000Z</time>
      </trkpt>
      <trkpt lat="43.44838" lon="5.24126">
        <ele>84</ele>
        <time>2022-03-21T14:24:54.000Z</time>
      </trkpt>
      <trkpt lat="43.44837" lon="5.24125">
        <ele>84</ele>
        <time>2022-03-21T14:24:55.000Z</time>
      </trkpt>
      <trkpt lat="43.44836" lon="5.24124">
        <ele>84</ele>
        <time>2022-03-21T14:24:56.000Z</time>
      </trkpt>
      <trkpt lat="43.44834" lon="5.24125">
        <ele>84</ele>
        <time>2022-03-21T14:24:57.000Z</time>
      </trkpt>
      <trkpt lat="43.44833" lon="5.24126">
        <ele>84</ele>
        <time>2022-03-21T14:24:58.000Z</time>
      </trkpt>
      <trkpt lat="43.44832" lon="5.24128">
        <ele>84</ele>
        <time>2022-03-21T14:24:59.000Z</time>
      </trkpt>
      <trkpt lat="43.44831" lon="5.24129">
        <ele>84</ele>
        <time>2022-03-21T14:25:00.000Z</time>
      </trkpt>
      <trkpt lat="43.4483" lon="5.2413">
        <ele>84</ele>
        <time>2022-03-21T14:25:01.000Z</time>
      </trkpt>
      <trkpt lat="43.44829" lon="5.24132">
        <ele>84</ele>
        <time>2022-03-21T14:25:02.000Z</time>
      </trkpt>
      <trkpt lat="43.44827" lon="5.24133">
        <ele>84</ele>
        <time>2022-03-21T14:25:03.000Z</time>
      </trkpt>
      <trkpt lat="43.44826" lon="5.24134">
        <ele>84</ele>
        <time>2022-03-21T14:25:04.000Z</time>
      </trkpt>
      <trkpt lat="43.44825" lon="5.24136">
        <ele>84</ele>
        <time>2022-03-21T14:25:05.000Z</time>
      </trkpt>
      <trkpt lat="43.44824" lon="5.24137">
        <ele>84</ele>
        <time>2022-03-21T14:25:06.000Z</time>
      </trkpt>
      <trkpt lat="43.44823" lon="5.24139">
        <ele>84</ele>
        <time>2022-03-21T14:25:07.000Z</time>
      </trkpt>
      <trkpt lat="43.44822" lon="5.24141">
        <ele>84</ele>
        <time>2022-03-21T14:25:08.000Z</time>
      </trkpt>
      <trkpt lat="43.44821" lon="5.24143">
        <ele>84</ele>
        <time>2022-03-21T14:25:09.000Z</time>
      </trkpt>
      <trkpt lat="43.44821" lon="5.24145">
        <ele>84</ele>
        <time>2022-03-21T14:25:10.000Z</time>
      </trkpt>
      <trkpt lat="43.44821" lon="5.24146">
        <ele>84</ele>
        <time>2022-03-21T14:25:11.000Z</time>
      </trkpt>
      <trkpt lat="43.44821" lon="5.24148">
        <ele>84</ele>
        <time>2022-03-21T14:25:12.000Z</time>
      </trkpt>
      <trkpt lat="43.44821" lon="5.2415">
        <ele>84</ele>
        <time>2022-03-21T14:25:13.000Z</time>
      </trkpt>
      <trkpt lat="43.44821" lon="5.24152">
        <ele>84</ele>
        <time>2022-03-21T14:25:14.000Z</time>
      </trkpt>
      <trkpt lat="43.44821" lon="5.24153">
        <ele>84</ele>
        <time>2022-03-21T14:25:15.000Z</time>
      </trkpt>
      <trkpt lat="43.44821" lon="5.24155">
        <ele>84</ele>
        <time>2022-03-21T14:25:16.000Z</time>
      </trkpt>
      <trkpt lat="43.44821" lon="5.24157">
        <ele>84</ele>
        <time>2022-03-21T14:25:17.000Z</time>
      </trkpt>
      <trkpt lat="43.4482" lon="5.24159">
        <ele>84</ele>
        <time>2022-03-21T14:25:18.000Z</time>
      </trkpt>
      <trkpt lat="43.44819" lon="5.24161">
        <ele>84</ele>
        <time>2022-03-21T14:25:19.000Z</time>
      </trkpt>
      <trkpt lat="43.44819" lon="5.24163">
        <ele>84</ele>
        <time>2022-03-21T14:25:20.000Z</time>
      </trkpt>
      <trkpt lat="43.44818" lon="5.24165">
        <ele>84</ele>
        <time>2022-03-21T14:25:21.000Z</time>
      </trkpt>
      <trkpt lat="43.44817" lon="5.24167">
        <ele>83</ele>
        <time>2022-03-21T14:25:22.000Z</time>
      </trkpt>
      <trkpt lat="43.44817" lon="5.2417">
        <ele>83</ele>
        <time>2022-03-21T14:25:23.000Z</time>
      </trkpt>
      <trkpt lat="43.44817" lon="5.24172">
        <ele>83</ele>
        <time>2022-03-21T14:25:24.000Z</time>
      </trkpt>
      <trkpt lat="43.44817" lon="5.24174">
        <ele>83</ele>
        <time>2022-03-21T14:25:25.000Z</time>
      </trkpt>
      <trkpt lat="43.44818" lon="5.24176">
        <ele>83</ele>
        <time>2022-03-21T14:25:26.000Z</time>
      </trkpt>
      <trkpt lat="43.44819" lon="5.24178">
        <ele>83</ele>
        <time>2022-03-21T14:25:27.000Z</time>
      </trkpt>
      <trkpt lat="43.44819" lon="5.2418">
        <ele>83</ele>
        <time>2022-03-21T14:25:28.000Z</time>
      </trkpt>
      <trkpt lat="43.4482" lon="5.24182">
        <ele>83</ele>
        <time>2022-03-21T14:25:29.000Z</time>
      </trkpt>
      <trkpt lat="43.4482" lon="5.24184">
        <ele>83</ele>
        <time>2022-03-21T14:25:30.000Z</time>
      </trkpt>
      <trkpt lat="43.4482" lon="5.24186">
        <ele>82</ele>
        <time>2022-03-21T14:25:31.000Z</time>
      </trkpt>
      <trkpt lat="43.4482" lon="5.24189">
        <ele>82</ele>
        <time>2022-03-21T14:25:32.000Z</time>
      </trkpt>
      <trkpt lat="43.4482" lon="5.24191">
        <ele>82</ele>
        <time>2022-03-21T14:25:33.000Z</time>
      </trkpt>
      <trkpt lat="43.44821" lon="5.24193">
        <ele>82</ele>
        <time>2022-03-21T14:25:34.000Z</time>
      </trkpt>
      <trkpt lat="43.44821" lon="5.24195">
        <ele>82</ele>
        <time>2022-03-21T14:25:35.000Z</time>
      </trkpt>
      <trkpt lat="43.44822" lon="5.24197">
        <ele>82</ele>
        <time>2022-03-21T14:25:36.000Z</time>
      </trkpt>
      <trkpt lat="43.44823" lon="5.24199">
        <ele>82</ele>
        <time>2022-03-21T14:25:37.000Z</time>
      </trkpt>
      <trkpt lat="43.44824" lon="5.24201">
        <ele>82</ele>
        <time>2022-03-21T14:25:38.000Z</time>
      </trkpt>
      <trkpt lat="43.44824" lon="5.24203">
        <ele>82</ele>
        <time>2022-03-21T14:25:39.000Z</time>
      </trkpt>
      <trkpt lat="43.44825" lon="5.24206">
        <ele>82</ele>
        <time>2022-03-21T14:25:40.000Z</time>
      </trkpt>
      <trkpt lat="43.44825" lon="5.24208">
        <ele>82</ele>
        <time>2022-03-21T14:25:41.000Z</time>
      </trkpt>
      <trkpt lat="43.44826" lon="5.2421">
        <ele>83</ele>
        <time>2022-03-21T14:25:42.000Z</time>
      </trkpt>
      <trkpt lat="43.44826" lon="5.24212">
        <ele>83</ele>
        <time>2022-03-21T14:25:43.000Z</time>
      </trkpt>
      <trkpt lat="43.44826" lon="5.24214">
        <ele>83</ele>
        <time>2022-03-21T14:25:44.000Z</time>
      </trkpt>
      <trkpt lat="43.44826" lon="5.24216">
        <ele>83</ele>
        <time>2022-03-21T14:25:45.000Z</time>
      </trkpt>
      <trkpt lat="43.44825" lon="5.24218">
        <ele>83</ele>
        <time>2022-03-21T14:25:46.000Z</time>
      </trkpt>
      <trkpt lat="43.44825" lon="5.24221">
        <ele>83</ele>
        <time>2022-03-21T14:25:47.000Z</time>
      </trkpt>
      <trkpt lat="43.44825" lon="5.24224">
        <ele>83</ele>
        <time>2022-03-21T14:25:48.000Z</time>
      </trkpt>
      <trkpt lat="43.44825" lon="5.24227">
        <ele>83</ele>
        <time>2022-03-21T14:25:49.000Z</time>
      </trkpt>
      <trkpt lat="43.44824" lon="5.2423">
        <ele>83</ele>
        <time>2022-03-21T14:25:50.000Z</time>
      </trkpt>
      <trkpt lat="43.44823" lon="5.24232">
        <ele>83</ele>
        <time>2022-03-21T14:25:51.000Z</time>
      </trkpt>
      <trkpt lat="43.44822" lon="5.24234">
        <ele>83</ele>
        <time>2022-03-21T14:25:52.000Z</time>
      </trkpt>
      <trkpt lat="43.44822" lon="5.24236">
        <ele>83</ele>
        <time>2022-03-21T14:25:53.000Z</time>
      </trkpt>
      <trkpt lat="43.44821" lon="5.24239">
        <ele>83</ele>
        <time>2022-03-21T14:25:54.000Z</time>
      </trkpt>
      <trkpt lat="43.4482" lon="5.24241">
        <ele>83</ele>
        <time>2022-03-21T14:25:55.000Z</time>
      </trkpt>
      <trkpt lat="43.4482" lon="5.24243">
        <ele>83</ele>
        <time>2022-03-21T14:25:56.000Z</time>
      </trkpt>
      <trkpt lat="43.44821" lon="5.24245">
        <ele>83</ele>
        <time>2022-03-21T14:25:57.000Z</time>
      </trkpt>
      <trkpt lat="43.44821" lon="5.24246">
        <ele>83</ele>
        <time>2022-03-21T14:25:58.000Z</time>
      </trkpt>
      <trkpt lat="43.44823" lon="5.24248">
        <ele>83</ele>
        <time>2022-03-21T14:25:59.000Z</time>
      </trkpt>
      <trkpt lat="43.44823" lon="5.2425">
        <ele>83</ele>
        <time>2022-03-21T14:26:00.000Z</time>
      </trkpt>
      <trkpt lat="43.44824" lon="5.24252">
        <ele>83</ele>
        <time>2022-03-21T14:26:01.000Z</time>
      </trkpt>
      <trkpt lat="43.44825" lon="5.24254">
        <ele>83</ele>
        <time>2022-03-21T14:26:02.000Z</time>
      </trkpt>
      <trkpt lat="43.44827" lon="5.24256">
        <ele>83</ele>
        <time>2022-03-21T14:26:03.000Z</time>
      </trkpt>
      <trkpt lat="43.44828" lon="5.24258">
        <ele>83</ele>
        <time>2022-03-21T14:26:04.000Z</time>
      </trkpt>
      <trkpt lat="43.44829" lon="5.2426">
        <ele>83</ele>
        <time>2022-03-21T14:26:05.000Z</time>
      </trkpt>
      <trkpt lat="43.4483" lon="5.24262">
        <ele>83</ele>
        <time>2022-03-21T14:26:06.000Z</time>
      </trkpt>
      <trkpt lat="43.4483" lon="5.24264">
        <ele>83</ele>
        <time>2022-03-21T14:26:07.000Z</time>
      </trkpt>
      <trkpt lat="43.44831" lon="5.24266">
        <ele>83</ele>
        <time>2022-03-21T14:26:08.000Z</time>
      </trkpt>
      <trkpt lat="43.44832" lon="5.24267">
        <ele>83</ele>
        <time>2022-03-21T14:26:09.000Z</time>
      </trkpt>
      <trkpt lat="43.44833" lon="5.24268">
        <ele>83</ele>
        <time>2022-03-21T14:26:10.000Z</time>
      </trkpt>
      <trkpt lat="43.44834" lon="5.2427">
        <ele>83</ele>
        <time>2022-03-21T14:26:11.000Z</time>
      </trkpt>
      <trkpt lat="43.44835" lon="5.24272">
        <ele>83</ele>
        <time>2022-03-21T14:26:12.000Z</time>
      </trkpt>
      <trkpt lat="43.44835" lon="5.24273">
        <ele>83</ele>
        <time>2022-03-21T14:26:13.000Z</time>
      </trkpt>
      <trkpt lat="43.44836" lon="5.24275">
        <ele>83</ele>
        <time>2022-03-21T14:26:14.000Z</time>
      </trkpt>
      <trkpt lat="43.44837" lon="5.24277">
        <ele>83</ele>
        <time>2022-03-21T14:26:15.000Z</time>
      </trkpt>
      <trkpt lat="43.44838" lon="5.24279">
        <ele>83</ele>
        <time>2022-03-21T14:26:16.000Z</time>
      </trkpt>
      <trkpt lat="43.44839" lon="5.24281">
        <ele>83</ele>
        <time>2022-03-21T14:26:17.000Z</time>
      </trkpt>
      <trkpt lat="43.4484" lon="5.24283">
        <ele>83</ele>
        <time>2022-03-21T14:26:18.000Z</time>
      </trkpt>
      <trkpt lat="43.44841" lon="5.24284">
        <ele>83</ele>
        <time>2022-03-21T14:26:19.000Z</time>
      </trkpt>
      <trkpt lat="43.44842" lon="5.24286">
        <ele>83</ele>
        <time>2022-03-21T14:26:20.000Z</time>
      </trkpt>
      <trkpt lat="43.44843" lon="5.24287">
        <ele>83</ele>
        <time>2022-03-21T14:26:21.000Z</time>
      </trkpt>
      <trkpt lat="43.44844" lon="5.24289">
        <ele>83</ele>
        <time>2022-03-21T14:26:22.000Z</time>
      </trkpt>
      <trkpt lat="43.44845" lon="5.24291">
        <ele>83</ele>
        <time>2022-03-21T14:26:23.000Z</time>
      </trkpt>
      <trkpt lat="43.44846" lon="5.24293">
        <ele>83</ele>
        <time>2022-03-21T14:26:24.000Z</time>
      </trkpt>
      <trkpt lat="43.44846" lon="5.24295">
        <ele>83</ele>
        <time>2022-03-21T14:26:25.000Z</time>
      </trkpt>
      <trkpt lat="43.44847" lon="5.24296">
        <ele>83</ele>
        <time>2022-03-21T14:26:26.000Z</time>
      </trkpt>
      <trkpt lat="43.44848" lon="5.24299">
        <ele>83</ele>
        <time>2022-03-21T14:26:27.000Z</time>
      </trkpt>
      <trkpt lat="43.44849" lon="5.243">
        <ele>83</ele>
        <time>2022-03-21T14:26:28.000Z</time>
      </trkpt>
      <trkpt lat="43.4485" lon="5.24302">
        <ele>83</ele>
        <time>2022-03-21T14:26:29.000Z</time>
      </trkpt>
      <trkpt lat="43.4485" lon="5.24304">
        <ele>83</ele>
        <time>2022-03-21T14:26:30.000Z</time>
      </trkpt>
      <trkpt lat="43.44851" lon="5.24306">
        <ele>83</ele>
        <time>2022-03-21T14:26:31.000Z</time>
      </trkpt>
      <trkpt lat="43.44852" lon="5.24308">
        <ele>83</ele>
        <time>2022-03-21T14:26:32.000Z</time>
      </trkpt>
      <trkpt lat="43.44853" lon="5.24309">
        <ele>83</ele>
        <time>2022-03-21T14:26:33.000Z</time>
      </trkpt>
      <trkpt lat="43.44854" lon="5.24311">
        <ele>83</ele>
        <time>2022-03-21T14:26:34.000Z</time>
      </trkpt>
      <trkpt lat="43.44855" lon="5.24313">
        <ele>83</ele>
        <time>2022-03-21T14:26:35.000Z</time>
      </trkpt>
      <trkpt lat="43.44855" lon="5.24314">
        <ele>83</ele>
        <time>2022-03-21T14:26:36.000Z</time>
      </trkpt>
      <trkpt lat="43.44856" lon="5.24316">
        <ele>83</ele>
        <time>2022-03-21T14:26:37.000Z</time>
      </trkpt>
      <trkpt lat="43.44857" lon="5.24317">
        <ele>83</ele>
        <time>2022-03-21T14:26:38.000Z</time>
      </trkpt>
      <trkpt lat="43.44858" lon="5.24318">
        <ele>83</ele>
        <time>2022-03-21T14:26:39.000Z</time>
      </trkpt>
      <trkpt lat="43.44859" lon="5.24319">
        <ele>83</ele>
        <time>2022-03-21T14:26:40.000Z</time>
      </trkpt>
      <trkpt lat="43.44861" lon="5.24319">
        <ele>83</ele>
        <time>2022-03-21T14:26:41.000Z</time>
      </trkpt>
      <trkpt lat="43.44862" lon="5.24319">
        <ele>83</ele>
        <time>2022-03-21T14:26:42.000Z</time>
      </trkpt>
      <trkpt lat="43.44864" lon="5.2432">
        <ele>83</ele>
        <time>2022-03-21T14:26:43.000Z</time>
      </trkpt>
      <trkpt lat="43.44865" lon="5.2432">
        <ele>83</ele>
        <time>2022-03-21T14:26:44.000Z</time>
      </trkpt>
      <trkpt lat="43.44866" lon="5.24321">
        <ele>83</ele>
        <time>2022-03-21T14:26:45.000Z</time>
      </trkpt>
      <trkpt lat="43.44868" lon="5.24322">
        <ele>83</ele>
        <time>2022-03-21T14:26:46.000Z</time>
      </trkpt>
      <trkpt lat="43.44869" lon="5.24323">
        <ele>83</ele>
        <time>2022-03-21T14:26:47.000Z</time>
      </trkpt>
      <trkpt lat="43.4487" lon="5.24324">
        <ele>83</ele>
        <time>2022-03-21T14:26:48.000Z</time>
      </trkpt>
      <trkpt lat="43.44871" lon="5.24325">
        <ele>83</ele>
        <time>2022-03-21T14:26:49.000Z</time>
      </trkpt>
      <trkpt lat="43.44872" lon="5.24327">
        <ele>83</ele>
        <time>2022-03-21T14:26:50.000Z</time>
      </trkpt>
      <trkpt lat="43.44873" lon="5.24329">
        <ele>83</ele>
        <time>2022-03-21T14:26:51.000Z</time>
      </trkpt>
      <trkpt lat="43.44874" lon="5.2433">
        <ele>83</ele>
        <time>2022-03-21T14:26:52.000Z</time>
      </trkpt>
      <trkpt lat="43.44875" lon="5.24332">
        <ele>83</ele>
        <time>2022-03-21T14:26:53.000Z</time>
      </trkpt>
      <trkpt lat="43.44876" lon="5.24334">
        <ele>83</ele>
        <time>2022-03-21T14:26:54.000Z</time>
      </trkpt>
      <trkpt lat="43.44876" lon="5.24336">
        <ele>83</ele>
        <time>2022-03-21T14:26:55.000Z</time>
      </trkpt>
      <trkpt lat="43.44876" lon="5.24338">
        <ele>83</ele>
        <time>2022-03-21T14:26:56.000Z</time>
      </trkpt>
      <trkpt lat="43.44877" lon="5.2434">
        <ele>83</ele>
        <time>2022-03-21T14:26:57.000Z</time>
      </trkpt>
      <trkpt lat="43.44877" lon="5.24342">
        <ele>83</ele>
        <time>2022-03-21T14:26:58.000Z</time>
      </trkpt>
      <trkpt lat="43.44877" lon="5.24344">
        <ele>83</ele>
        <time>2022-03-21T14:26:59.000Z</time>
      </trkpt>
      <trkpt lat="43.44877" lon="5.24347">
        <ele>83</ele>
        <time>2022-03-21T14:27:00.000Z</time>
      </trkpt>
      <trkpt lat="43.44877" lon="5.24349">
        <ele>83</ele>
        <time>2022-03-21T14:27:01.000Z</time>
      </trkpt>
      <trkpt lat="43.44878" lon="5.24351">
        <ele>83</ele>
        <time>2022-03-21T14:27:02.000Z</time>
      </trkpt>
      <trkpt lat="43.44877" lon="5.24354">
        <ele>83</ele>
        <time>2022-03-21T14:27:03.000Z</time>
      </trkpt>
      <trkpt lat="43.44877" lon="5.24356">
        <ele>83</ele>
        <time>2022-03-21T14:27:04.000Z</time>
      </trkpt>
      <trkpt lat="43.44877" lon="5.24358">
        <ele>83</ele>
        <time>2022-03-21T14:27:05.000Z</time>
      </trkpt>
      <trkpt lat="43.44877" lon="5.2436">
        <ele>83</ele>
        <time>2022-03-21T14:27:06.000Z</time>
      </trkpt>
      <trkpt lat="43.44877" lon="5.24362">
        <ele>83</ele>
        <time>2022-03-21T14:27:07.000Z</time>
      </trkpt>
      <trkpt lat="43.44877" lon="5.24364">
        <ele>83</ele>
        <time>2022-03-21T14:27:08.000Z</time>
      </trkpt>
      <trkpt lat="43.44877" lon="5.24366">
        <ele>83</ele>
        <time>2022-03-21T14:27:09.000Z</time>
      </trkpt>
      <trkpt lat="43.44877" lon="5.24368">
        <ele>83</ele>
        <time>2022-03-21T14:27:10.000Z</time>
      </trkpt>
      <trkpt lat="43.44877" lon="5.2437">
        <ele>83</ele>
        <time>2022-03-21T14:27:11.000Z</time>
      </trkpt>
      <trkpt lat="43.44877" lon="5.24372">
        <ele>83</ele>
        <time>2022-03-21T14:27:12.000Z</time>
      </trkpt>
      <trkpt lat="43.44877" lon="5.24375">
        <ele>83</ele>
        <time>2022-03-21T14:27:13.000Z</time>
      </trkpt>
      <trkpt lat="43.44877" lon="5.24377">
        <ele>83</ele>
        <time>2022-03-21T14:27:14.000Z</time>
      </trkpt>
      <trkpt lat="43.44877" lon="5.24379">
        <ele>83</ele>
        <time>2022-03-21T14:27:15.000Z</time>
      </trkpt>
      <trkpt lat="43.44877" lon="5.24381">
        <ele>83</ele>
        <time>2022-03-21T14:27:16.000Z</time>
      </trkpt>
      <trkpt lat="43.44877" lon="5.24384">
        <ele>83</ele>
        <time>2022-03-21T14:27:17.000Z</time>
      </trkpt>
      <trkpt lat="43.44877" lon="5.24386">
        <ele>83</ele>
        <time>2022-03-21T14:27:18.000Z</time>
      </trkpt>
      <trkpt lat="43.44877" lon="5.24388">
        <ele>83</ele>
        <time>2022-03-21T14:27:19.000Z</time>
      </trkpt>
      <trkpt lat="43.44877" lon="5.24391">
        <ele>83</ele>
        <time>2022-03-21T14:27:20.000Z</time>
      </trkpt>
      <trkpt lat="43.44877" lon="5.24394">
        <ele>83</ele>
        <time>2022-03-21T14:27:21.000Z</time>
      </trkpt>
      <trkpt lat="43.44878" lon="5.24396">
        <ele>83</ele>
        <time>2022-03-21T14:27:22.000Z</time>
      </trkpt>
      <trkpt lat="43.44878" lon="5.24398">
        <ele>83</ele>
        <time>2022-03-21T14:27:23.000Z</time>
      </trkpt>
      <trkpt lat="43.44879" lon="5.244">
        <ele>83</ele>
        <time>2022-03-21T14:27:24.000Z</time>
      </trkpt>
      <trkpt lat="43.4488" lon="5.24401">
        <ele>82</ele>
        <time>2022-03-21T14:27:25.000Z</time>
      </trkpt>
      <trkpt lat="43.44881" lon="5.24403">
        <ele>82</ele>
        <time>2022-03-21T14:27:26.000Z</time>
      </trkpt>
      <trkpt lat="43.44882" lon="5.24404">
        <ele>82</ele>
        <time>2022-03-21T14:27:27.000Z</time>
      </trkpt>
      <trkpt lat="43.44884" lon="5.24405">
        <ele>82</ele>
        <time>2022-03-21T14:27:28.000Z</time>
      </trkpt>
      <trkpt lat="43.44885" lon="5.24405">
        <ele>82</ele>
        <time>2022-03-21T14:27:29.000Z</time>
      </trkpt>
      <trkpt lat="43.44887" lon="5.24405">
        <ele>82</ele>
        <time>2022-03-21T14:27:30.000Z</time>
      </trkpt>
      <trkpt lat="43.44888" lon="5.24405">
        <ele>82</ele>
        <time>2022-03-21T14:27:31.000Z</time>
      </trkpt>
      <trkpt lat="43.4489" lon="5.24405">
        <ele>82</ele>
        <time>2022-03-21T14:27:32.000Z</time>
      </trkpt>
      <trkpt lat="43.44892" lon="5.24406">
        <ele>82</ele>
        <time>2022-03-21T14:27:33.000Z</time>
      </trkpt>
      <trkpt lat="43.44893" lon="5.24406">
        <ele>82</ele>
        <time>2022-03-21T14:27:34.000Z</time>
      </trkpt>
      <trkpt lat="43.44895" lon="5.24406">
        <ele>83</ele>
        <time>2022-03-21T14:27:35.000Z</time>
      </trkpt>
      <trkpt lat="43.44897" lon="5.24406">
        <ele>83</ele>
        <time>2022-03-21T14:27:36.000Z</time>
      </trkpt>
      <trkpt lat="43.44898" lon="5.24406">
        <ele>83</ele>
        <time>2022-03-21T14:27:37.000Z</time>
      </trkpt>
      <trkpt lat="43.449" lon="5.24406">
        <ele>83</ele>
        <time>2022-03-21T14:27:38.000Z</time>
      </trkpt>
      <trkpt lat="43.44901" lon="5.24406">
        <ele>83</ele>
        <time>2022-03-21T14:27:39.000Z</time>
      </trkpt>
      <trkpt lat="43.44903" lon="5.24406">
        <ele>83</ele>
        <time>2022-03-21T14:27:40.000Z</time>
      </trkpt>
      <trkpt lat="43.44905" lon="5.24406">
        <ele>83</ele>
        <time>2022-03-21T14:27:41.000Z</time>
      </trkpt>
      <trkpt lat="43.44906" lon="5.24406">
        <ele>83</ele>
        <time>2022-03-21T14:27:42.000Z</time>
      </trkpt>
      <trkpt lat="43.44908" lon="5.24406">
        <ele>83</ele>
        <time>2022-03-21T14:27:43.000Z</time>
      </trkpt>
      <trkpt lat="43.44909" lon="5.24406">
        <ele>83</ele>
        <time>2022-03-21T14:27:44.000Z</time>
      </trkpt>
      <trkpt lat="43.44911" lon="5.24406">
        <ele>83</ele>
        <time>2022-03-21T14:27:45.000Z</time>
      </trkpt>
      <trkpt lat="43.44913" lon="5.24406">
        <ele>83</ele>
        <time>2022-03-21T14:27:46.000Z</time>
      </trkpt>
      <trkpt lat="43.44914" lon="5.24406">
        <ele>83</ele>
        <time>2022-03-21T14:27:47.000Z</time>
      </trkpt>
      <trkpt lat="43.44916" lon="5.24405">
        <ele>83</ele>
        <time>2022-03-21T14:27:48.000Z</time>
      </trkpt>
      <trkpt lat="43.44917" lon="5.24405">
        <ele>83</ele>
        <time>2022-03-21T14:27:49.000Z</time>
      </trkpt>
      <trkpt lat="43.44919" lon="5.24405">
        <ele>83</ele>
        <time>2022-03-21T14:27:50.000Z</time>
      </trkpt>
      <trkpt lat="43.4492" lon="5.24404">
        <ele>83</ele>
        <time>2022-03-21T14:27:51.000Z</time>
      </trkpt>
      <trkpt lat="43.44921" lon="5.24402">
        <ele>83</ele>
        <time>2022-03-21T14:27:52.000Z</time>
      </trkpt>
      <trkpt lat="43.44921" lon="5.24401">
        <ele>84</ele>
        <time>2022-03-21T14:27:53.000Z</time>
      </trkpt>
      <trkpt lat="43.44921" lon="5.24399">
        <ele>84</ele>
        <time>2022-03-21T14:27:54.000Z</time>
      </trkpt>
      <trkpt lat="43.44921" lon="5.24397">
        <ele>84</ele>
        <time>2022-03-21T14:27:55.000Z</time>
      </trkpt>
      <trkpt lat="43.44921" lon="5.24395">
        <ele>84</ele>
        <time>2022-03-21T14:27:56.000Z</time>
      </trkpt>
      <trkpt lat="43.44921" lon="5.24393">
        <ele>84</ele>
        <time>2022-03-21T14:27:57.000Z</time>
      </trkpt>
      <trkpt lat="43.44921" lon="5.24391">
        <ele>84</ele>
        <time>2022-03-21T14:27:58.000Z</time>
      </trkpt>
      <trkpt lat="43.44921" lon="5.24389">
        <ele>84</ele>
        <time>2022-03-21T14:27:59.000Z</time>
      </trkpt>
      <trkpt lat="43.44921" lon="5.24387">
        <ele>84</ele>
        <time>2022-03-21T14:28:00.000Z</time>
      </trkpt>
      <trkpt lat="43.44921" lon="5.24385">
        <ele>84</ele>
        <time>2022-03-21T14:28:01.000Z</time>
      </trkpt>
      <trkpt lat="43.44921" lon="5.24383">
        <ele>84</ele>
        <time>2022-03-21T14:28:02.000Z</time>
      </trkpt>
      <trkpt lat="43.44921" lon="5.2438">
        <ele>85</ele>
        <time>2022-03-21T14:28:03.000Z</time>
      </trkpt>
      <trkpt lat="43.44921" lon="5.24378">
        <ele>85</ele>
        <time>2022-03-21T14:28:04.000Z</time>
      </trkpt>
      <trkpt lat="43.44921" lon="5.24376">
        <ele>85</ele>
        <time>2022-03-21T14:28:05.000Z</time>
      </trkpt>
      <trkpt lat="43.44922" lon="5.24374">
        <ele>85</ele>
        <time>2022-03-21T14:28:06.000Z</time>
      </trkpt>
      <trkpt lat="43.44922" lon="5.24372">
        <ele>85</ele>
        <time>2022-03-21T14:28:07.000Z</time>
      </trkpt>
      <trkpt lat="43.44922" lon="5.2437">
        <ele>85</ele>
        <time>2022-03-21T14:28:08.000Z</time>
      </trkpt>
      <trkpt lat="43.44922" lon="5.24368">
        <ele>85</ele>
        <time>2022-03-21T14:28:09.000Z</time>
      </trkpt>
      <trkpt lat="43.44922" lon="5.24367">
        <ele>85</ele>
        <time>2022-03-21T14:28:10.000Z</time>
      </trkpt>
      <trkpt lat="43.44922" lon="5.24366">
        <ele>85</ele>
        <time>2022-03-21T14:28:11.000Z</time>
      </trkpt>
      <trkpt lat="43.44922" lon="5.24367">
        <ele>85</ele>
        <time>2022-03-21T14:28:12.000Z</time>
      </trkpt>
      <trkpt lat="43.44922" lon="5.24368">
        <ele>85</ele>
        <time>2022-03-21T14:28:13.000Z</time>
      </trkpt>
      <trkpt lat="43.44922" lon="5.2437">
        <ele>85</ele>
        <time>2022-03-21T14:28:14.000Z</time>
      </trkpt>
      <trkpt lat="43.44922" lon="5.24372">
        <ele>85</ele>
        <time>2022-03-21T14:28:15.000Z</time>
      </trkpt>
      <trkpt lat="43.44921" lon="5.24374">
        <ele>85</ele>
        <time>2022-03-21T14:28:16.000Z</time>
      </trkpt>
      <trkpt lat="43.44921" lon="5.24376">
        <ele>85</ele>
        <time>2022-03-21T14:28:17.000Z</time>
      </trkpt>
      <trkpt lat="43.4492" lon="5.24378">
        <ele>85</ele>
        <time>2022-03-21T14:28:18.000Z</time>
      </trkpt>
      <trkpt lat="43.4492" lon="5.24381">
        <ele>84</ele>
        <time>2022-03-21T14:28:19.000Z</time>
      </trkpt>
      <trkpt lat="43.4492" lon="5.24383">
        <ele>84</ele>
        <time>2022-03-21T14:28:20.000Z</time>
      </trkpt>
      <trkpt lat="43.44919" lon="5.24385">
        <ele>84</ele>
        <time>2022-03-21T14:28:21.000Z</time>
      </trkpt>
      <trkpt lat="43.44919" lon="5.24387">
        <ele>84</ele>
        <time>2022-03-21T14:28:22.000Z</time>
      </trkpt>
      <trkpt lat="43.44919" lon="5.24389">
        <ele>84</ele>
        <time>2022-03-21T14:28:23.000Z</time>
      </trkpt>
      <trkpt lat="43.44919" lon="5.24391">
        <ele>84</ele>
        <time>2022-03-21T14:28:24.000Z</time>
      </trkpt>
      <trkpt lat="43.4492" lon="5.24393">
        <ele>84</ele>
        <time>2022-03-21T14:28:25.000Z</time>
      </trkpt>
      <trkpt lat="43.4492" lon="5.24394">
        <ele>84</ele>
        <time>2022-03-21T14:28:26.000Z</time>
      </trkpt>
      <trkpt lat="43.4492" lon="5.24395">
        <ele>84</ele>
        <time>2022-03-21T14:28:27.000Z</time>
      </trkpt>
    </trkseg>
  </trk>
</gpx>